<?xml version='1.0' encoding='UTF-8'?><gpx version="1.1" creator="JPX - https://github.com/jenetics/jpx" xmlns="http://www.topografix.com/GPX/1/1"><trk><trkseg><trkpt lat="45.4090185" lon="10.5398383"><ele>133.0</ele><time>2026-05-03T08:03:09.589Z</time></trkpt><trkpt lat="45.4090565" lon="10.5399134"><ele>133.0</ele><time>2026-05-03T08:03:42.589Z</time></trkpt><trkpt lat="45.4091372" lon="10.5398617"><ele>133.0</ele><time>2026-05-03T08:03:45.59Z</time></trkpt><trkpt lat="45.4091996" lon="10.5397665"><ele>133.0</ele><time>2026-05-03T08:03:48.599Z</time></trkpt><trkpt lat="45.4092758" lon="10.5396982"><ele>133.0</ele><time>2026-05-03T08:03:51.592Z</time></trkpt><trkpt lat="45.4093399" lon="10.5396117"><ele>133.0</ele><time>2026-05-03T08:03:54.594Z</time></trkpt><trkpt lat="45.4094" lon="10.5395467"><ele>132.33333333333334</ele><time>2026-05-03T08:03:58.592Z</time></trkpt><trkpt lat="45.4093783" lon="10.53941"><ele>131.66666666666669</ele><time>2026-05-03T08:04:02.593Z</time></trkpt><trkpt lat="45.4093467" lon="10.5393183"><ele>131.0</ele><time>2026-05-03T08:04:04.594Z</time></trkpt><trkpt lat="45.4092983" lon="10.5392133"><ele>130.33333333333334</ele><time>2026-05-03T08:04:34.595Z</time></trkpt><trkpt lat="45.4092217" lon="10.5391433"><ele>129.66666666666666</ele><time>2026-05-03T08:04:37.596Z</time></trkpt><trkpt lat="45.4091367" lon="10.539125"><ele>129.0</ele><time>2026-05-03T08:04:39.594Z</time></trkpt><trkpt lat="45.4090317" lon="10.539085"><ele>129.0</ele><time>2026-05-03T08:04:41.595Z</time></trkpt><trkpt lat="45.4089067" lon="10.539025"><ele>129.0</ele><time>2026-05-03T08:04:43.594Z</time></trkpt><trkpt lat="45.40884" lon="10.5389933"><ele>129.0</ele><time>2026-05-03T08:04:44.591Z</time></trkpt><trkpt lat="45.4087733" lon="10.5389717"><ele>129.0</ele><time>2026-05-03T08:04:45.598Z</time></trkpt><trkpt lat="45.4087033" lon="10.53897"><ele>129.0</ele><time>2026-05-03T08:04:46.603Z</time></trkpt><trkpt lat="45.4086317" lon="10.53898"><ele>129.0</ele><time>2026-05-03T08:04:47.605Z</time></trkpt><trkpt lat="45.4085533" lon="10.5390033"><ele>127.66666666666667</ele><time>2026-05-03T08:04:48.596Z</time></trkpt><trkpt lat="45.4084817" lon="10.5390233"><ele>126.33333333333334</ele><time>2026-05-03T08:04:49.599Z</time></trkpt><trkpt lat="45.4084083" lon="10.5390383"><ele>125.0</ele><time>2026-05-03T08:04:50.599Z</time></trkpt><trkpt lat="45.4083417" lon="10.5390533"><ele>123.66666666666667</ele><time>2026-05-03T08:04:51.599Z</time></trkpt><trkpt lat="45.4082267" lon="10.5390733"><ele>122.33333333333334</ele><time>2026-05-03T08:04:53.601Z</time></trkpt><trkpt lat="45.40814" lon="10.5391033"><ele>121.0</ele><time>2026-05-03T08:04:55.603Z</time></trkpt><trkpt lat="45.4080817" lon="10.53917"><ele>121.00000000000001</ele><time>2026-05-03T08:04:57.601Z</time></trkpt><trkpt lat="45.4080883" lon="10.5392767"><ele>121.0</ele><time>2026-05-03T08:04:59.598Z</time></trkpt><trkpt lat="45.4081067" lon="10.539405"><ele>121.0</ele><time>2026-05-03T08:05:01.6Z</time></trkpt><trkpt lat="45.4081267" lon="10.5395317"><ele>121.0</ele><time>2026-05-03T08:05:03.596Z</time></trkpt><trkpt lat="45.4081433" lon="10.5396617"><ele>121.00000000000001</ele><time>2026-05-03T08:05:05.597Z</time></trkpt><trkpt lat="45.4081683" lon="10.5397867"><ele>121.0</ele><time>2026-05-03T08:05:07.596Z</time></trkpt><trkpt lat="45.40818" lon="10.53992"><ele>121.00000000000001</ele><time>2026-05-03T08:05:09.601Z</time></trkpt><trkpt lat="45.408185" lon="10.5400417"><ele>121.0</ele><time>2026-05-03T08:05:11.597Z</time></trkpt><trkpt lat="45.4081467" lon="10.54013"><ele>121.0</ele><time>2026-05-03T08:05:13.599Z</time></trkpt><trkpt lat="45.4080683" lon="10.5401733"><ele>121.0</ele><time>2026-05-03T08:05:15.6Z</time></trkpt><trkpt lat="45.4079917" lon="10.5402283"><ele>121.00000000000001</ele><time>2026-05-03T08:05:17.594Z</time></trkpt><trkpt lat="45.4079517" lon="10.540315"><ele>121.0</ele><time>2026-05-03T08:05:19.6Z</time></trkpt><trkpt lat="45.4079433" lon="10.5404183"><ele>121.57142857142857</ele><time>2026-05-03T08:05:21.595Z</time></trkpt><trkpt lat="45.4079517" lon="10.5405217"><ele>122.14285714285714</ele><time>2026-05-03T08:05:23.603Z</time></trkpt><trkpt lat="45.4079583" lon="10.5406233"><ele>122.71428571428571</ele><time>2026-05-03T08:05:25.594Z</time></trkpt><trkpt lat="45.4079683" lon="10.5407333"><ele>123.28571428571428</ele><time>2026-05-03T08:05:27.594Z</time></trkpt><trkpt lat="45.4079767" lon="10.5408417"><ele>123.85714285714286</ele><time>2026-05-03T08:05:29.603Z</time></trkpt><trkpt lat="45.4079883" lon="10.540945"><ele>124.42857142857142</ele><time>2026-05-03T08:05:31.596Z</time></trkpt><trkpt lat="45.407995" lon="10.54105"><ele>125.0</ele><time>2026-05-03T08:05:33.591Z</time></trkpt><trkpt lat="45.4080083" lon="10.541145"><ele>126.66666666666666</ele><time>2026-05-03T08:05:35.591Z</time></trkpt><trkpt lat="45.40802" lon="10.5412533"><ele>128.33333333333331</ele><time>2026-05-03T08:05:37.603Z</time></trkpt><trkpt lat="45.4080233" lon="10.5413567"><ele>130.0</ele><time>2026-05-03T08:05:39.595Z</time></trkpt><trkpt lat="45.4080283" lon="10.5414583"><ele>131.66666666666666</ele><time>2026-05-03T08:05:41.592Z</time></trkpt><trkpt lat="45.4080233" lon="10.5415917"><ele>133.33333333333334</ele><time>2026-05-03T08:05:44.597Z</time></trkpt><trkpt lat="45.40801" lon="10.5416833"><ele>135.0</ele><time>2026-05-03T08:05:46.593Z</time></trkpt><trkpt lat="45.4079617" lon="10.5417933"><ele>135.0</ele><time>2026-05-03T08:05:49.599Z</time></trkpt><trkpt lat="45.4079183" lon="10.54187"><ele>135.0</ele><time>2026-05-03T08:05:51.6Z</time></trkpt><trkpt lat="45.407875" lon="10.54194"><ele>135.0</ele><time>2026-05-03T08:05:53.593Z</time></trkpt><trkpt lat="45.407815" lon="10.5419833"><ele>135.0</ele><time>2026-05-03T08:05:55.594Z</time></trkpt><trkpt lat="45.4077517" lon="10.542"><ele>135.0</ele><time>2026-05-03T08:05:57.587Z</time></trkpt><trkpt lat="45.4076833" lon="10.5419917"><ele>135.0</ele><time>2026-05-03T08:05:59.592Z</time></trkpt><trkpt lat="45.4076133" lon="10.5419983"><ele>135.0</ele><time>2026-05-03T08:06:01.599Z</time></trkpt><trkpt lat="45.40753" lon="10.5420133"><ele>135.0</ele><time>2026-05-03T08:06:03.597Z</time></trkpt><trkpt lat="45.4074417" lon="10.5420233"><ele>135.0</ele><time>2026-05-03T08:06:05.594Z</time></trkpt><trkpt lat="45.40736" lon="10.542025"><ele>135.0</ele><time>2026-05-03T08:06:07.593Z</time></trkpt><trkpt lat="45.407285" lon="10.5420433"><ele>135.0</ele><time>2026-05-03T08:06:09.594Z</time></trkpt><trkpt lat="45.4072183" lon="10.5420733"><ele>135.0</ele><time>2026-05-03T08:06:11.593Z</time></trkpt><trkpt lat="45.4071533" lon="10.5421"><ele>135.0</ele><time>2026-05-03T08:06:13.6Z</time></trkpt><trkpt lat="45.4072117" lon="10.5421767"><ele>136.16666666666666</ele><time>2026-05-03T08:06:43.592Z</time></trkpt><trkpt lat="45.4072833" lon="10.542215"><ele>137.33333333333334</ele><time>2026-05-03T08:06:46.602Z</time></trkpt><trkpt lat="45.407355" lon="10.542235"><ele>138.5</ele><time>2026-05-03T08:06:49.599Z</time></trkpt><trkpt lat="45.4074217" lon="10.5422467"><ele>139.66666666666669</ele><time>2026-05-03T08:06:52.599Z</time></trkpt><trkpt lat="45.4074967" lon="10.542255"><ele>140.83333333333334</ele><time>2026-05-03T08:06:55.59Z</time></trkpt><trkpt lat="45.4075617" lon="10.5422883"><ele>142.0</ele><time>2026-05-03T08:06:58.599Z</time></trkpt><trkpt lat="45.40765" lon="10.5423067"><ele>142.0</ele><time>2026-05-03T08:07:19.602Z</time></trkpt><trkpt lat="45.407725" lon="10.5422933"><ele>142.0</ele><time>2026-05-03T08:07:23.6Z</time></trkpt><trkpt lat="45.40779" lon="10.5422933"><ele>142.0</ele><time>2026-05-03T08:07:27.595Z</time></trkpt><trkpt lat="45.4078633" lon="10.5423167"><ele>142.0</ele><time>2026-05-03T08:07:31.591Z</time></trkpt><trkpt lat="45.4079433" lon="10.5423067"><ele>142.0</ele><time>2026-05-03T08:07:35.595Z</time></trkpt><trkpt lat="45.4080217" lon="10.5422933"><ele>142.0</ele><time>2026-05-03T08:07:40.591Z</time></trkpt><trkpt lat="45.4080933" lon="10.542285"><ele>142.0</ele><time>2026-05-03T08:07:44.591Z</time></trkpt><trkpt lat="45.4080283" lon="10.5423133"><ele>142.0</ele><time>2026-05-03T08:08:03.593Z</time></trkpt><trkpt lat="45.40796" lon="10.54232"><ele>142.0</ele><time>2026-05-03T08:08:07.601Z</time></trkpt><trkpt lat="45.407895" lon="10.5423067"><ele>142.0</ele><time>2026-05-03T08:08:10.59Z</time></trkpt><trkpt lat="45.4078217" lon="10.5423083"><ele>142.0</ele><time>2026-05-03T08:08:13.601Z</time></trkpt><trkpt lat="45.4077367" lon="10.5423033"><ele>142.0</ele><time>2026-05-03T08:08:17.594Z</time></trkpt><trkpt lat="45.407635" lon="10.542325"><ele>142.0</ele><time>2026-05-03T08:09:03.596Z</time></trkpt><trkpt lat="45.4075467" lon="10.5422967"><ele>142.0</ele><time>2026-05-03T08:09:06.592Z</time></trkpt><trkpt lat="45.4074833" lon="10.5422783"><ele>142.0</ele><time>2026-05-03T08:09:08.594Z</time></trkpt><trkpt lat="45.4074067" lon="10.5422733"><ele>142.0</ele><time>2026-05-03T08:09:11.597Z</time></trkpt><trkpt lat="45.4073333" lon="10.5422533"><ele>142.0</ele><time>2026-05-03T08:09:15.594Z</time></trkpt><trkpt lat="45.4072683" lon="10.5422317"><ele>142.0</ele><time>2026-05-03T08:09:18.599Z</time></trkpt><trkpt lat="45.4072067" lon="10.5421933"><ele>142.0</ele><time>2026-05-03T08:09:22.599Z</time></trkpt><trkpt lat="45.4071267" lon="10.542205"><ele>142.0</ele><time>2026-05-03T08:09:28.595Z</time></trkpt><trkpt lat="45.4070883" lon="10.5422767"><ele>141.57142857142856</ele><time>2026-05-03T08:09:33.595Z</time></trkpt><trkpt lat="45.40705" lon="10.5423483"><ele>141.14285714285714</ele><time>2026-05-03T08:09:38.591Z</time></trkpt><trkpt lat="45.407005" lon="10.5424117"><ele>140.71428571428572</ele><time>2026-05-03T08:09:41.6Z</time></trkpt><trkpt lat="45.4069533" lon="10.5424817"><ele>140.28571428571428</ele><time>2026-05-03T08:09:44.594Z</time></trkpt><trkpt lat="45.4069033" lon="10.5425783"><ele>139.85714285714286</ele><time>2026-05-03T08:09:47.6Z</time></trkpt><trkpt lat="45.4068783" lon="10.5426733"><ele>139.42857142857142</ele><time>2026-05-03T08:09:50.592Z</time></trkpt><trkpt lat="45.4068517" lon="10.5427633"><ele>139.0</ele><time>2026-05-03T08:09:52.597Z</time></trkpt><trkpt lat="45.4068217" lon="10.5428783"><ele>137.16666666666669</ele><time>2026-05-03T08:09:54.602Z</time></trkpt><trkpt lat="45.4068" lon="10.5430083"><ele>135.33333333333334</ele><time>2026-05-03T08:09:56.601Z</time></trkpt><trkpt lat="45.4067783" lon="10.5431467"><ele>133.5</ele><time>2026-05-03T08:09:58.592Z</time></trkpt><trkpt lat="45.4067833" lon="10.5432783"><ele>131.66666666666666</ele><time>2026-05-03T08:10:00.599Z</time></trkpt><trkpt lat="45.4068367" lon="10.5433383"><ele>129.83333333333331</ele><time>2026-05-03T08:10:02.591Z</time></trkpt><trkpt lat="45.4069017" lon="10.543365"><ele>128.0</ele><time>2026-05-03T08:10:04.593Z</time></trkpt><trkpt lat="45.406975" lon="10.54337"><ele>127.99999999999999</ele><time>2026-05-03T08:10:06.598Z</time></trkpt><trkpt lat="45.4070583" lon="10.5433317"><ele>128.0</ele><time>2026-05-03T08:10:08.601Z</time></trkpt><trkpt lat="45.407135" lon="10.5432917"><ele>128.0</ele><time>2026-05-03T08:10:10.595Z</time></trkpt><trkpt lat="45.4072083" lon="10.5432567"><ele>128.0</ele><time>2026-05-03T08:10:12.594Z</time></trkpt><trkpt lat="45.4072817" lon="10.543265"><ele>127.99999999999999</ele><time>2026-05-03T08:10:14.593Z</time></trkpt><trkpt lat="45.4073583" lon="10.5433"><ele>128.0</ele><time>2026-05-03T08:10:16.593Z</time></trkpt><trkpt lat="45.4074217" lon="10.54335"><ele>128.14285714285714</ele><time>2026-05-03T08:10:18.598Z</time></trkpt><trkpt lat="45.4074083" lon="10.5434417"><ele>128.28571428571428</ele><time>2026-05-03T08:10:21.598Z</time></trkpt><trkpt lat="45.4073583" lon="10.5434983"><ele>128.42857142857142</ele><time>2026-05-03T08:10:24.592Z</time></trkpt><trkpt lat="45.4072933" lon="10.5435733"><ele>128.57142857142856</ele><time>2026-05-03T08:10:27.596Z</time></trkpt><trkpt lat="45.4072267" lon="10.5436383"><ele>128.71428571428572</ele><time>2026-05-03T08:10:30.591Z</time></trkpt><trkpt lat="45.4071783" lon="10.5437133"><ele>128.85714285714283</ele><time>2026-05-03T08:10:33.599Z</time></trkpt><trkpt lat="45.4071267" lon="10.5438"><ele>129.0</ele><time>2026-05-03T08:10:36.594Z</time></trkpt><trkpt lat="45.4070767" lon="10.5438967"><ele>127.99999999999999</ele><time>2026-05-03T08:10:39.597Z</time></trkpt><trkpt lat="45.4070083" lon="10.54394"><ele>127.0</ele><time>2026-05-03T08:10:42.593Z</time></trkpt><trkpt lat="45.4069417" lon="10.5439283"><ele>125.99999999999999</ele><time>2026-05-03T08:10:46.594Z</time></trkpt><trkpt lat="45.4069367" lon="10.5440367"><ele>124.99999999999999</ele><time>2026-05-03T08:10:51.596Z</time></trkpt><trkpt lat="45.40695" lon="10.5441283"><ele>124.0</ele><time>2026-05-03T08:10:53.598Z</time></trkpt><trkpt lat="45.4069317" lon="10.54422"><ele>122.99999999999999</ele><time>2026-05-03T08:10:55.592Z</time></trkpt><trkpt lat="45.4068717" lon="10.5442783"><ele>121.99999999999999</ele><time>2026-05-03T08:10:57.594Z</time></trkpt><trkpt lat="45.4068133" lon="10.5443383"><ele>122.0</ele><time>2026-05-03T08:10:59.593Z</time></trkpt><trkpt lat="45.4067317" lon="10.5444"><ele>121.99999999999999</ele><time>2026-05-03T08:11:01.595Z</time></trkpt><trkpt lat="45.4066517" lon="10.54446"><ele>121.99999999999999</ele><time>2026-05-03T08:11:03.597Z</time></trkpt><trkpt lat="45.4065667" lon="10.544525"><ele>122.0</ele><time>2026-05-03T08:11:05.593Z</time></trkpt><trkpt lat="45.4064933" lon="10.54459"><ele>122.0</ele><time>2026-05-03T08:11:07.601Z</time></trkpt><trkpt lat="45.4064217" lon="10.5446617"><ele>122.66666666666666</ele><time>2026-05-03T08:11:09.6Z</time></trkpt><trkpt lat="45.4063483" lon="10.5447283"><ele>123.33333333333333</ele><time>2026-05-03T08:11:11.602Z</time></trkpt><trkpt lat="45.406285" lon="10.5447817"><ele>124.0</ele><time>2026-05-03T08:11:13.6Z</time></trkpt><trkpt lat="45.4062167" lon="10.5448317"><ele>124.66666666666666</ele><time>2026-05-03T08:11:15.598Z</time></trkpt><trkpt lat="45.4061483" lon="10.5448983"><ele>125.33333333333333</ele><time>2026-05-03T08:11:17.598Z</time></trkpt><trkpt lat="45.4060767" lon="10.5449567"><ele>126.0</ele><time>2026-05-03T08:11:19.6Z</time></trkpt><trkpt lat="45.4059983" lon="10.5450133"><ele>126.0</ele><time>2026-05-03T08:11:21.595Z</time></trkpt><trkpt lat="45.405925" lon="10.5450817"><ele>126.0</ele><time>2026-05-03T08:11:23.596Z</time></trkpt><trkpt lat="45.4058533" lon="10.5451633"><ele>126.0</ele><time>2026-05-03T08:11:25.599Z</time></trkpt><trkpt lat="45.4057917" lon="10.545245"><ele>126.0</ele><time>2026-05-03T08:11:27.6Z</time></trkpt><trkpt lat="45.4057367" lon="10.5453417"><ele>126.0</ele><time>2026-05-03T08:11:29.598Z</time></trkpt><trkpt lat="45.40568" lon="10.545455"><ele>126.0</ele><time>2026-05-03T08:11:31.591Z</time></trkpt><trkpt lat="45.405635" lon="10.5455583"><ele>125.66666666666667</ele><time>2026-05-03T08:11:33.595Z</time></trkpt><trkpt lat="45.4055967" lon="10.545655"><ele>125.33333333333334</ele><time>2026-05-03T08:11:35.598Z</time></trkpt><trkpt lat="45.4055517" lon="10.5457217"><ele>125.0</ele><time>2026-05-03T08:11:37.594Z</time></trkpt><trkpt lat="45.4055117" lon="10.5458033"><ele>124.66666666666667</ele><time>2026-05-03T08:11:40.597Z</time></trkpt><trkpt lat="45.405485" lon="10.5459017"><ele>124.33333333333334</ele><time>2026-05-03T08:11:42.598Z</time></trkpt><trkpt lat="45.4054283" lon="10.5459967"><ele>124.0</ele><time>2026-05-03T08:11:44.593Z</time></trkpt><trkpt lat="45.4053717" lon="10.5461"><ele>124.00000000000001</ele><time>2026-05-03T08:11:46.603Z</time></trkpt><trkpt lat="45.405315" lon="10.54619"><ele>124.0</ele><time>2026-05-03T08:11:48.6Z</time></trkpt><trkpt lat="45.405255" lon="10.54626"><ele>124.0</ele><time>2026-05-03T08:11:50.595Z</time></trkpt><trkpt lat="45.4052033" lon="10.5463383"><ele>124.0</ele><time>2026-05-03T08:11:53.598Z</time></trkpt><trkpt lat="45.4052417" lon="10.5464617"><ele>124.00000000000001</ele><time>2026-05-03T08:11:56.595Z</time></trkpt><trkpt lat="45.4052683" lon="10.5465433"><ele>124.0</ele><time>2026-05-03T08:11:58.595Z</time></trkpt><trkpt lat="45.4052933" lon="10.5466283"><ele>123.66666666666667</ele><time>2026-05-03T08:12:00.594Z</time></trkpt><trkpt lat="45.40533" lon="10.546715"><ele>123.33333333333334</ele><time>2026-05-03T08:12:02.599Z</time></trkpt><trkpt lat="45.4053817" lon="10.54681"><ele>123.0</ele><time>2026-05-03T08:12:04.595Z</time></trkpt><trkpt lat="45.4054333" lon="10.5469067"><ele>122.66666666666666</ele><time>2026-05-03T08:12:06.594Z</time></trkpt><trkpt lat="45.4054883" lon="10.5470117"><ele>122.33333333333333</ele><time>2026-05-03T08:12:08.596Z</time></trkpt><trkpt lat="45.40554" lon="10.547115"><ele>122.0</ele><time>2026-05-03T08:12:10.592Z</time></trkpt><trkpt lat="45.4055883" lon="10.5472217"><ele>121.99999999999999</ele><time>2026-05-03T08:12:12.59Z</time></trkpt><trkpt lat="45.4056333" lon="10.5473167"><ele>122.0</ele><time>2026-05-03T08:12:14.598Z</time></trkpt><trkpt lat="45.4056633" lon="10.547415"><ele>122.0</ele><time>2026-05-03T08:12:16.595Z</time></trkpt><trkpt lat="45.4056" lon="10.547505"><ele>122.0</ele><time>2026-05-03T08:12:19.603Z</time></trkpt><trkpt lat="45.4055267" lon="10.5475233"><ele>121.99999999999999</ele><time>2026-05-03T08:12:21.597Z</time></trkpt><trkpt lat="45.4054483" lon="10.5475583"><ele>122.0</ele><time>2026-05-03T08:12:23.6Z</time></trkpt><trkpt lat="45.4053633" lon="10.54761"><ele>122.16666666666666</ele><time>2026-05-03T08:12:25.6Z</time></trkpt><trkpt lat="45.4052817" lon="10.5476683"><ele>122.33333333333333</ele><time>2026-05-03T08:12:27.598Z</time></trkpt><trkpt lat="45.40521" lon="10.5477217"><ele>122.5</ele><time>2026-05-03T08:12:29.597Z</time></trkpt><trkpt lat="45.4051417" lon="10.5477817"><ele>122.66666666666666</ele><time>2026-05-03T08:12:31.599Z</time></trkpt><trkpt lat="45.40506" lon="10.5478417"><ele>122.83333333333333</ele><time>2026-05-03T08:12:33.599Z</time></trkpt><trkpt lat="45.4049783" lon="10.5478983"><ele>123.0</ele><time>2026-05-03T08:12:35.597Z</time></trkpt><trkpt lat="45.4048967" lon="10.547965"><ele>123.0</ele><time>2026-05-03T08:12:37.601Z</time></trkpt><trkpt lat="45.4048233" lon="10.5480283"><ele>123.0</ele><time>2026-05-03T08:12:39.594Z</time></trkpt><trkpt lat="45.40475" lon="10.5480983"><ele>123.0</ele><time>2026-05-03T08:12:41.595Z</time></trkpt><trkpt lat="45.40468" lon="10.5481667"><ele>123.0</ele><time>2026-05-03T08:12:43.601Z</time></trkpt><trkpt lat="45.4046117" lon="10.54823"><ele>123.0</ele><time>2026-05-03T08:12:45.6Z</time></trkpt><trkpt lat="45.4045317" lon="10.5482933"><ele>123.0</ele><time>2026-05-03T08:12:47.596Z</time></trkpt><trkpt lat="45.4044367" lon="10.548375"><ele>122.80000000000001</ele><time>2026-05-03T08:12:49.595Z</time></trkpt><trkpt lat="45.40434" lon="10.54846"><ele>122.60000000000001</ele><time>2026-05-03T08:12:51.591Z</time></trkpt><trkpt lat="45.4042583" lon="10.548535"><ele>122.39999999999999</ele><time>2026-05-03T08:12:53.595Z</time></trkpt><trkpt lat="45.4041767" lon="10.5486083"><ele>122.19999999999999</ele><time>2026-05-03T08:12:55.599Z</time></trkpt><trkpt lat="45.404095" lon="10.5486833"><ele>122.0</ele><time>2026-05-03T08:12:57.592Z</time></trkpt><trkpt lat="45.404025" lon="10.5487717"><ele>122.0</ele><time>2026-05-03T08:12:59.59Z</time></trkpt><trkpt lat="45.4039483" lon="10.54887"><ele>121.99999999999999</ele><time>2026-05-03T08:13:01.591Z</time></trkpt><trkpt lat="45.4038717" lon="10.548975"><ele>121.99999999999999</ele><time>2026-05-03T08:13:03.591Z</time></trkpt><trkpt lat="45.4037933" lon="10.5490883"><ele>122.0</ele><time>2026-05-03T08:13:05.593Z</time></trkpt><trkpt lat="45.4037067" lon="10.5491983"><ele>122.0</ele><time>2026-05-03T08:13:07.593Z</time></trkpt><trkpt lat="45.4036133" lon="10.549285"><ele>121.0</ele><time>2026-05-03T08:13:09.589Z</time></trkpt><trkpt lat="45.40352" lon="10.5493533"><ele>119.99999999999999</ele><time>2026-05-03T08:13:11.595Z</time></trkpt><trkpt lat="45.40343" lon="10.5494017"><ele>118.99999999999999</ele><time>2026-05-03T08:13:13.6Z</time></trkpt><trkpt lat="45.4033233" lon="10.549445"><ele>118.0</ele><time>2026-05-03T08:13:15.598Z</time></trkpt><trkpt lat="45.4032117" lon="10.5494883"><ele>117.0</ele><time>2026-05-03T08:13:17.595Z</time></trkpt><trkpt lat="45.403105" lon="10.5495"><ele>117.0</ele><time>2026-05-03T08:13:19.599Z</time></trkpt><trkpt lat="45.4030183" lon="10.5494867"><ele>116.99999999999999</ele><time>2026-05-03T08:13:21.601Z</time></trkpt><trkpt lat="45.402945" lon="10.54946"><ele>116.99999999999999</ele><time>2026-05-03T08:13:23.596Z</time></trkpt><trkpt lat="45.4028967" lon="10.549355"><ele>117.0</ele><time>2026-05-03T08:13:25.596Z</time></trkpt><trkpt lat="45.4028733" lon="10.54921"><ele>117.0</ele><time>2026-05-03T08:13:27.598Z</time></trkpt><trkpt lat="45.402835" lon="10.5490617"><ele>116.6</ele><time>2026-05-03T08:13:29.598Z</time></trkpt><trkpt lat="45.4027867" lon="10.54892"><ele>116.19999999999999</ele><time>2026-05-03T08:13:31.599Z</time></trkpt><trkpt lat="45.402725" lon="10.5487817"><ele>115.8</ele><time>2026-05-03T08:13:33.6Z</time></trkpt><trkpt lat="45.4026617" lon="10.548645"><ele>115.4</ele><time>2026-05-03T08:13:35.602Z</time></trkpt><trkpt lat="45.4026033" lon="10.548515"><ele>115.0</ele><time>2026-05-03T08:13:37.602Z</time></trkpt><trkpt lat="45.402555" lon="10.5483767"><ele>114.6</ele><time>2026-05-03T08:13:39.591Z</time></trkpt><trkpt lat="45.4025317" lon="10.5482267"><ele>114.2</ele><time>2026-05-03T08:13:41.603Z</time></trkpt><trkpt lat="45.402545" lon="10.54808"><ele>113.80000000000001</ele><time>2026-05-03T08:13:43.602Z</time></trkpt><trkpt lat="45.4025833" lon="10.54794"><ele>113.4</ele><time>2026-05-03T08:13:45.599Z</time></trkpt><trkpt lat="45.4026367" lon="10.5477983"><ele>113.0</ele><time>2026-05-03T08:13:47.603Z</time></trkpt><trkpt lat="45.40269" lon="10.5476567"><ele>113.0</ele><time>2026-05-03T08:13:49.605Z</time></trkpt><trkpt lat="45.4027383" lon="10.54752"><ele>113.00000000000001</ele><time>2026-05-03T08:13:51.6Z</time></trkpt><trkpt lat="45.4027883" lon="10.5473833"><ele>113.00000000000001</ele><time>2026-05-03T08:13:53.595Z</time></trkpt><trkpt lat="45.4028333" lon="10.54725"><ele>113.0</ele><time>2026-05-03T08:13:55.601Z</time></trkpt><trkpt lat="45.4028633" lon="10.547125"><ele>113.0</ele><time>2026-05-03T08:13:57.595Z</time></trkpt><trkpt lat="45.4028817" lon="10.5470133"><ele>113.0</ele><time>2026-05-03T08:13:59.601Z</time></trkpt><trkpt lat="45.402895" lon="10.5468933"><ele>113.00000000000001</ele><time>2026-05-03T08:14:01.593Z</time></trkpt><trkpt lat="45.4029217" lon="10.5467667"><ele>113.00000000000001</ele><time>2026-05-03T08:14:03.595Z</time></trkpt><trkpt lat="45.40295" lon="10.54664"><ele>113.0</ele><time>2026-05-03T08:14:05.596Z</time></trkpt><trkpt lat="45.403015" lon="10.5465433"><ele>113.0</ele><time>2026-05-03T08:14:07.602Z</time></trkpt><trkpt lat="45.403085" lon="10.5464567"><ele>113.16666666666666</ele><time>2026-05-03T08:14:09.599Z</time></trkpt><trkpt lat="45.4031567" lon="10.5463633"><ele>113.33333333333333</ele><time>2026-05-03T08:14:11.595Z</time></trkpt><trkpt lat="45.4032183" lon="10.54628"><ele>113.5</ele><time>2026-05-03T08:14:13.599Z</time></trkpt><trkpt lat="45.4032283" lon="10.546175"><ele>113.66666666666666</ele><time>2026-05-03T08:14:16.599Z</time></trkpt><trkpt lat="45.403155" lon="10.5461033"><ele>113.83333333333333</ele><time>2026-05-03T08:14:19.604Z</time></trkpt><trkpt lat="45.4031033" lon="10.5460417"><ele>114.0</ele><time>2026-05-03T08:14:21.6Z</time></trkpt><trkpt lat="45.4030783" lon="10.5459267"><ele>114.0</ele><time>2026-05-03T08:14:24.595Z</time></trkpt><trkpt lat="45.403115" lon="10.545845"><ele>114.0</ele><time>2026-05-03T08:14:26.595Z</time></trkpt><trkpt lat="45.4031533" lon="10.54575"><ele>114.0</ele><time>2026-05-03T08:14:28.602Z</time></trkpt><trkpt lat="45.4031967" lon="10.5456517"><ele>114.0</ele><time>2026-05-03T08:14:30.585Z</time></trkpt><trkpt lat="45.40324" lon="10.5455533"><ele>114.0</ele><time>2026-05-03T08:14:32.599Z</time></trkpt><trkpt lat="45.403285" lon="10.5454483"><ele>114.0</ele><time>2026-05-03T08:14:34.595Z</time></trkpt><trkpt lat="45.4033217" lon="10.5453383"><ele>114.5</ele><time>2026-05-03T08:14:36.594Z</time></trkpt><trkpt lat="45.4033617" lon="10.5452317"><ele>115.0</ele><time>2026-05-03T08:14:38.595Z</time></trkpt><trkpt lat="45.4034067" lon="10.5451233"><ele>115.5</ele><time>2026-05-03T08:14:40.592Z</time></trkpt><trkpt lat="45.4034517" lon="10.5450167"><ele>116.0</ele><time>2026-05-03T08:14:42.593Z</time></trkpt><trkpt lat="45.4034933" lon="10.54491"><ele>116.5</ele><time>2026-05-03T08:14:44.598Z</time></trkpt><trkpt lat="45.4035367" lon="10.5447983"><ele>117.0</ele><time>2026-05-03T08:14:46.596Z</time></trkpt><trkpt lat="45.40358" lon="10.544685"><ele>117.0</ele><time>2026-05-03T08:14:48.602Z</time></trkpt><trkpt lat="45.4036317" lon="10.544565"><ele>116.99999999999999</ele><time>2026-05-03T08:14:50.599Z</time></trkpt><trkpt lat="45.40368" lon="10.5444467"><ele>116.99999999999999</ele><time>2026-05-03T08:14:52.6Z</time></trkpt><trkpt lat="45.4037283" lon="10.544325"><ele>117.0</ele><time>2026-05-03T08:14:54.6Z</time></trkpt><trkpt lat="45.4037767" lon="10.5441983"><ele>117.0</ele><time>2026-05-03T08:14:56.599Z</time></trkpt><trkpt lat="45.403825" lon="10.54407"><ele>117.39999999999999</ele><time>2026-05-03T08:14:58.6Z</time></trkpt><trkpt lat="45.4038767" lon="10.543945"><ele>117.79999999999998</ele><time>2026-05-03T08:15:00.601Z</time></trkpt><trkpt lat="45.403925" lon="10.543825"><ele>118.2</ele><time>2026-05-03T08:15:02.6Z</time></trkpt><trkpt lat="45.4039733" lon="10.5437117"><ele>118.6</ele><time>2026-05-03T08:15:04.598Z</time></trkpt><trkpt lat="45.40402" lon="10.5436033"><ele>119.0</ele><time>2026-05-03T08:15:06.596Z</time></trkpt><trkpt lat="45.404065" lon="10.5434933"><ele>119.4</ele><time>2026-05-03T08:15:08.597Z</time></trkpt><trkpt lat="45.40411" lon="10.5433833"><ele>119.80000000000001</ele><time>2026-05-03T08:15:10.595Z</time></trkpt><trkpt lat="45.404155" lon="10.5432683"><ele>120.19999999999999</ele><time>2026-05-03T08:15:12.599Z</time></trkpt><trkpt lat="45.40421" lon="10.5431467"><ele>120.6</ele><time>2026-05-03T08:15:14.599Z</time></trkpt><trkpt lat="45.404265" lon="10.54303"><ele>121.0</ele><time>2026-05-03T08:15:16.602Z</time></trkpt><trkpt lat="45.4043167" lon="10.542915"><ele>122.66666666666667</ele><time>2026-05-03T08:15:18.599Z</time></trkpt><trkpt lat="45.4043667" lon="10.542805"><ele>124.33333333333334</ele><time>2026-05-03T08:15:20.599Z</time></trkpt><trkpt lat="45.404415" lon="10.5427033"><ele>126.0</ele><time>2026-05-03T08:15:22.599Z</time></trkpt><trkpt lat="45.4044583" lon="10.5426067"><ele>127.66666666666666</ele><time>2026-05-03T08:15:24.599Z</time></trkpt><trkpt lat="45.404495" lon="10.5425267"><ele>129.33333333333331</ele><time>2026-05-03T08:15:26.595Z</time></trkpt><trkpt lat="45.4045333" lon="10.5424533"><ele>131.0</ele><time>2026-05-03T08:15:29.6Z</time></trkpt><trkpt lat="45.4044667" lon="10.5424233"><ele>131.0</ele><time>2026-05-03T08:15:43.598Z</time></trkpt><trkpt lat="45.4043833" lon="10.542405"><ele>131.0</ele><time>2026-05-03T08:15:47.595Z</time></trkpt><trkpt lat="45.4043033" lon="10.54238"><ele>131.0</ele><time>2026-05-03T08:15:50.594Z</time></trkpt><trkpt lat="45.404215" lon="10.54235"><ele>131.0</ele><time>2026-05-03T08:15:53.599Z</time></trkpt><trkpt lat="45.4041283" lon="10.542335"><ele>131.0</ele><time>2026-05-03T08:15:56.601Z</time></trkpt><trkpt lat="45.4040417" lon="10.5423183"><ele>131.0</ele><time>2026-05-03T08:15:59.602Z</time></trkpt><trkpt lat="45.4039783" lon="10.5423017"><ele>131.0</ele><time>2026-05-03T08:16:01.598Z</time></trkpt><trkpt lat="45.403915" lon="10.5422817"><ele>131.0</ele><time>2026-05-03T08:16:03.598Z</time></trkpt><trkpt lat="45.4038217" lon="10.5422633"><ele>131.0</ele><time>2026-05-03T08:16:06.6Z</time></trkpt><trkpt lat="45.4037583" lon="10.542255"><ele>131.0</ele><time>2026-05-03T08:16:08.596Z</time></trkpt><trkpt lat="45.403665" lon="10.54224"><ele>131.0</ele><time>2026-05-03T08:16:11.599Z</time></trkpt><trkpt lat="45.4036017" lon="10.542225"><ele>131.0</ele><time>2026-05-03T08:16:13.6Z</time></trkpt><trkpt lat="45.4035383" lon="10.5422117"><ele>131.0</ele><time>2026-05-03T08:16:15.598Z</time></trkpt><trkpt lat="45.403475" lon="10.5422067"><ele>131.14285714285714</ele><time>2026-05-03T08:16:17.601Z</time></trkpt><trkpt lat="45.4034117" lon="10.5421967"><ele>131.2857142857143</ele><time>2026-05-03T08:16:19.592Z</time></trkpt><trkpt lat="45.4033233" lon="10.5421867"><ele>131.42857142857144</ele><time>2026-05-03T08:16:22.595Z</time></trkpt><trkpt lat="45.40326" lon="10.5421733"><ele>131.57142857142858</ele><time>2026-05-03T08:16:24.596Z</time></trkpt><trkpt lat="45.4031933" lon="10.5421583"><ele>131.71428571428572</ele><time>2026-05-03T08:16:26.598Z</time></trkpt><trkpt lat="45.4031283" lon="10.542135"><ele>131.85714285714286</ele><time>2026-05-03T08:16:28.594Z</time></trkpt><trkpt lat="45.4030633" lon="10.5421217"><ele>132.0</ele><time>2026-05-03T08:16:30.597Z</time></trkpt><trkpt lat="45.4029967" lon="10.5421117"><ele>132.0</ele><time>2026-05-03T08:16:32.599Z</time></trkpt><trkpt lat="45.4029083" lon="10.5420983"><ele>132.0</ele><time>2026-05-03T08:16:35.597Z</time></trkpt><trkpt lat="45.40283" lon="10.5420783"><ele>132.0</ele><time>2026-05-03T08:16:38.598Z</time></trkpt><trkpt lat="45.4027617" lon="10.5420567"><ele>132.0</ele><time>2026-05-03T08:16:41.594Z</time></trkpt><trkpt lat="45.4026883" lon="10.542045"><ele>132.0</ele><time>2026-05-03T08:16:44.595Z</time></trkpt><trkpt lat="45.4026067" lon="10.54204"><ele>132.0</ele><time>2026-05-03T08:16:47.595Z</time></trkpt><trkpt lat="45.4025167" lon="10.5420283"><ele>132.66666666666666</ele><time>2026-05-03T08:16:50.596Z</time></trkpt><trkpt lat="45.4024517" lon="10.5420183"><ele>133.33333333333334</ele><time>2026-05-03T08:16:52.597Z</time></trkpt><trkpt lat="45.4023833" lon="10.5420067"><ele>134.0</ele><time>2026-05-03T08:16:54.597Z</time></trkpt><trkpt lat="45.402315" lon="10.54199"><ele>134.66666666666669</ele><time>2026-05-03T08:16:56.599Z</time></trkpt><trkpt lat="45.4022483" lon="10.5419733"><ele>135.33333333333334</ele><time>2026-05-03T08:16:58.599Z</time></trkpt><trkpt lat="45.4021567" lon="10.54195"><ele>136.0</ele><time>2026-05-03T08:17:01.602Z</time></trkpt><trkpt lat="45.4020833" lon="10.5418867"><ele>135.99999999999997</ele><time>2026-05-03T08:17:04.598Z</time></trkpt><trkpt lat="45.4020217" lon="10.5418217"><ele>136.0</ele><time>2026-05-03T08:17:07.598Z</time></trkpt><trkpt lat="45.4019567" lon="10.5417783"><ele>136.0</ele><time>2026-05-03T08:17:11.602Z</time></trkpt><trkpt lat="45.40189" lon="10.541735"><ele>136.0</ele><time>2026-05-03T08:17:15.597Z</time></trkpt><trkpt lat="45.40182" lon="10.5417183"><ele>136.0</ele><time>2026-05-03T08:17:20.598Z</time></trkpt><trkpt lat="45.40175" lon="10.5417633"><ele>135.99999999999997</ele><time>2026-05-03T08:17:24.591Z</time></trkpt><trkpt lat="45.4016967" lon="10.54184"><ele>136.0</ele><time>2026-05-03T08:17:29.6Z</time></trkpt><trkpt lat="45.40165" lon="10.541925"><ele>136.0</ele><time>2026-05-03T08:17:34.598Z</time></trkpt><trkpt lat="45.4015683" lon="10.5420517"><ele>136.0</ele><time>2026-05-03T08:18:18.591Z</time></trkpt><trkpt lat="45.4014833" lon="10.5421317"><ele>136.0</ele><time>2026-05-03T08:18:40.592Z</time></trkpt><trkpt lat="45.4014067" lon="10.5421517"><ele>136.0</ele><time>2026-05-03T08:18:43.598Z</time></trkpt><trkpt lat="45.40132" lon="10.542145"><ele>136.0</ele><time>2026-05-03T08:18:46.596Z</time></trkpt><trkpt lat="45.4012383" lon="10.542115"><ele>136.0</ele><time>2026-05-03T08:18:49.593Z</time></trkpt><trkpt lat="45.4011667" lon="10.5421167"><ele>136.0</ele><time>2026-05-03T08:18:51.597Z</time></trkpt><trkpt lat="45.4010967" lon="10.5421117"><ele>136.0</ele><time>2026-05-03T08:18:53.596Z</time></trkpt><trkpt lat="45.40102" lon="10.5421183"><ele>136.0</ele><time>2026-05-03T08:18:55.598Z</time></trkpt><trkpt lat="45.400925" lon="10.5421483"><ele>136.0</ele><time>2026-05-03T08:18:57.594Z</time></trkpt><trkpt lat="45.40083" lon="10.5421733"><ele>136.0</ele><time>2026-05-03T08:18:59.59Z</time></trkpt><trkpt lat="45.40076" lon="10.5422083"><ele>136.0</ele><time>2026-05-03T08:19:01.594Z</time></trkpt><trkpt lat="45.4006983" lon="10.5422533"><ele>136.0</ele><time>2026-05-03T08:19:04.599Z</time></trkpt><trkpt lat="45.4006417" lon="10.5423117"><ele>136.0</ele><time>2026-05-03T08:19:08.599Z</time></trkpt><trkpt lat="45.4005717" lon="10.5423617"><ele>136.0</ele><time>2026-05-03T08:19:13.593Z</time></trkpt><trkpt lat="45.400475" lon="10.5423867"><ele>136.0</ele><time>2026-05-03T08:19:16.596Z</time></trkpt><trkpt lat="45.4003817" lon="10.5424183"><ele>136.0</ele><time>2026-05-03T08:19:18.593Z</time></trkpt><trkpt lat="45.4002883" lon="10.54243"><ele>135.28571428571428</ele><time>2026-05-03T08:19:20.599Z</time></trkpt><trkpt lat="45.4002233" lon="10.542425"><ele>134.57142857142856</ele><time>2026-05-03T08:19:22.591Z</time></trkpt><trkpt lat="45.4001533" lon="10.542455"><ele>133.85714285714286</ele><time>2026-05-03T08:19:26.598Z</time></trkpt><trkpt lat="45.4000817" lon="10.5425017"><ele>133.14285714285714</ele><time>2026-05-03T08:19:30.594Z</time></trkpt><trkpt lat="45.400035" lon="10.542565"><ele>132.42857142857144</ele><time>2026-05-03T08:19:33.593Z</time></trkpt><trkpt lat="45.4000083" lon="10.542475"><ele>131.71428571428572</ele><time>2026-05-03T08:20:06.59Z</time></trkpt><trkpt lat="45.39997" lon="10.5423867"><ele>131.0</ele><time>2026-05-03T08:20:10.597Z</time></trkpt><trkpt lat="45.39993" lon="10.5423017"><ele>131.0</ele><time>2026-05-03T08:20:14.589Z</time></trkpt><trkpt lat="45.399885" lon="10.5422317"><ele>131.0</ele><time>2026-05-03T08:20:18.592Z</time></trkpt><trkpt lat="45.399825" lon="10.5421517"><ele>131.0</ele><time>2026-05-03T08:20:22.593Z</time></trkpt><trkpt lat="45.3997633" lon="10.5421133"><ele>131.0</ele><time>2026-05-03T08:20:25.593Z</time></trkpt><trkpt lat="45.3996933" lon="10.542075"><ele>131.0</ele><time>2026-05-03T08:20:28.597Z</time></trkpt><trkpt lat="45.3996067" lon="10.5420233"><ele>131.0</ele><time>2026-05-03T08:20:31.598Z</time></trkpt><trkpt lat="45.399535" lon="10.5419783"><ele>128.16666666666666</ele><time>2026-05-03T08:20:33.594Z</time></trkpt><trkpt lat="45.39946" lon="10.5419417"><ele>125.33333333333333</ele><time>2026-05-03T08:20:35.592Z</time></trkpt><trkpt lat="45.399395" lon="10.5419183"><ele>122.5</ele><time>2026-05-03T08:20:37.588Z</time></trkpt><trkpt lat="45.39931" lon="10.5418983"><ele>119.66666666666666</ele><time>2026-05-03T08:20:40.596Z</time></trkpt><trkpt lat="45.3992333" lon="10.5418883"><ele>116.83333333333333</ele><time>2026-05-03T08:20:43.597Z</time></trkpt><trkpt lat="45.3991567" lon="10.5418433"><ele>114.0</ele><time>2026-05-03T08:20:47.594Z</time></trkpt><trkpt lat="45.3990933" lon="10.5418267"><ele>114.0</ele><time>2026-05-03T08:20:49.599Z</time></trkpt><trkpt lat="45.3989917" lon="10.5418517"><ele>114.0</ele><time>2026-05-03T08:20:51.592Z</time></trkpt><trkpt lat="45.398885" lon="10.5418867"><ele>114.0</ele><time>2026-05-03T08:20:53.594Z</time></trkpt><trkpt lat="45.398785" lon="10.54185"><ele>114.0</ele><time>2026-05-03T08:20:55.593Z</time></trkpt><trkpt lat="45.398725" lon="10.54173"><ele>114.0</ele><time>2026-05-03T08:20:57.593Z</time></trkpt><trkpt lat="45.3986767" lon="10.541625"><ele>113.85714285714285</ele><time>2026-05-03T08:20:59.594Z</time></trkpt><trkpt lat="45.398635" lon="10.5415283"><ele>113.7142857142857</ele><time>2026-05-03T08:21:01.603Z</time></trkpt><trkpt lat="45.3986117" lon="10.5414283"><ele>113.57142857142857</ele><time>2026-05-03T08:21:03.595Z</time></trkpt><trkpt lat="45.3986017" lon="10.5413217"><ele>113.42857142857142</ele><time>2026-05-03T08:21:05.595Z</time></trkpt><trkpt lat="45.3986" lon="10.5412167"><ele>113.28571428571428</ele><time>2026-05-03T08:21:07.593Z</time></trkpt><trkpt lat="45.398615" lon="10.5411167"><ele>113.14285714285714</ele><time>2026-05-03T08:21:09.598Z</time></trkpt><trkpt lat="45.3986433" lon="10.5410283"><ele>113.0</ele><time>2026-05-03T08:21:11.599Z</time></trkpt><trkpt lat="45.3986733" lon="10.54094"><ele>113.33333333333333</ele><time>2026-05-03T08:21:13.598Z</time></trkpt><trkpt lat="45.3987033" lon="10.5408417"><ele>113.66666666666666</ele><time>2026-05-03T08:21:15.601Z</time></trkpt><trkpt lat="45.3987317" lon="10.54074"><ele>114.0</ele><time>2026-05-03T08:21:17.6Z</time></trkpt><trkpt lat="45.398755" lon="10.5406383"><ele>114.33333333333334</ele><time>2026-05-03T08:21:19.591Z</time></trkpt><trkpt lat="45.3987783" lon="10.54053"><ele>114.66666666666667</ele><time>2026-05-03T08:21:21.595Z</time></trkpt><trkpt lat="45.3988067" lon="10.540435"><ele>115.0</ele><time>2026-05-03T08:21:23.596Z</time></trkpt><trkpt lat="45.3988367" lon="10.5403317"><ele>115.00000000000001</ele><time>2026-05-03T08:21:25.601Z</time></trkpt><trkpt lat="45.3988683" lon="10.54023"><ele>115.0</ele><time>2026-05-03T08:21:27.598Z</time></trkpt><trkpt lat="45.3988967" lon="10.540125"><ele>115.0</ele><time>2026-05-03T08:21:29.596Z</time></trkpt><trkpt lat="45.3989283" lon="10.5400217"><ele>115.0</ele><time>2026-05-03T08:21:31.597Z</time></trkpt><trkpt lat="45.3989583" lon="10.53992"><ele>115.00000000000001</ele><time>2026-05-03T08:21:33.599Z</time></trkpt><trkpt lat="45.3989833" lon="10.5398167"><ele>115.0</ele><time>2026-05-03T08:21:35.601Z</time></trkpt><trkpt lat="45.3989983" lon="10.53971"><ele>114.99999999999999</ele><time>2026-05-03T08:21:37.594Z</time></trkpt><trkpt lat="45.3990167" lon="10.53961"><ele>115.0</ele><time>2026-05-03T08:21:39.593Z</time></trkpt><trkpt lat="45.399025" lon="10.5395067"><ele>114.99999999999999</ele><time>2026-05-03T08:21:41.597Z</time></trkpt><trkpt lat="45.3990367" lon="10.5393983"><ele>114.99999999999999</ele><time>2026-05-03T08:21:43.592Z</time></trkpt><trkpt lat="45.3990533" lon="10.5392967"><ele>115.0</ele><time>2026-05-03T08:21:45.589Z</time></trkpt><trkpt lat="45.3990667" lon="10.5391967"><ele>114.99999999999999</ele><time>2026-05-03T08:21:47.593Z</time></trkpt><trkpt lat="45.3990783" lon="10.5391017"><ele>114.99999999999999</ele><time>2026-05-03T08:21:49.593Z</time></trkpt><trkpt lat="45.3990917" lon="10.5390033"><ele>115.7142857142857</ele><time>2026-05-03T08:21:51.594Z</time></trkpt><trkpt lat="45.3991033" lon="10.5389017"><ele>116.42857142857142</ele><time>2026-05-03T08:21:53.598Z</time></trkpt><trkpt lat="45.3991133" lon="10.5388"><ele>117.14285714285714</ele><time>2026-05-03T08:21:55.594Z</time></trkpt><trkpt lat="45.3991167" lon="10.5387067"><ele>117.85714285714285</ele><time>2026-05-03T08:21:57.588Z</time></trkpt><trkpt lat="45.39912" lon="10.538615"><ele>118.57142857142856</ele><time>2026-05-03T08:21:59.6Z</time></trkpt><trkpt lat="45.399125" lon="10.5385133"><ele>119.28571428571429</ele><time>2026-05-03T08:22:01.592Z</time></trkpt><trkpt lat="45.3991367" lon="10.5384183"><ele>120.0</ele><time>2026-05-03T08:22:03.593Z</time></trkpt><trkpt lat="45.3991533" lon="10.5383217"><ele>120.16666666666667</ele><time>2026-05-03T08:22:05.595Z</time></trkpt><trkpt lat="45.3991717" lon="10.5382183"><ele>120.33333333333334</ele><time>2026-05-03T08:22:07.6Z</time></trkpt><trkpt lat="45.3991883" lon="10.53811"><ele>120.5</ele><time>2026-05-03T08:22:09.589Z</time></trkpt><trkpt lat="45.3992017" lon="10.5380067"><ele>120.66666666666667</ele><time>2026-05-03T08:22:11.596Z</time></trkpt><trkpt lat="45.3992267" lon="10.53789"><ele>120.83333333333334</ele><time>2026-05-03T08:22:13.591Z</time></trkpt><trkpt lat="45.399245" lon="10.5377783"><ele>121.0</ele><time>2026-05-03T08:22:15.596Z</time></trkpt><trkpt lat="45.3992717" lon="10.5376767"><ele>121.50000000000001</ele><time>2026-05-03T08:22:17.595Z</time></trkpt><trkpt lat="45.3992983" lon="10.53757"><ele>122.0</ele><time>2026-05-03T08:22:19.601Z</time></trkpt><trkpt lat="45.39932" lon="10.5374667"><ele>122.5</ele><time>2026-05-03T08:22:21.591Z</time></trkpt><trkpt lat="45.3993467" lon="10.5373617"><ele>123.0</ele><time>2026-05-03T08:22:23.596Z</time></trkpt><trkpt lat="45.3993633" lon="10.53725"><ele>123.50000000000001</ele><time>2026-05-03T08:22:25.593Z</time></trkpt><trkpt lat="45.399375" lon="10.5371417"><ele>124.0</ele><time>2026-05-03T08:22:27.598Z</time></trkpt><trkpt lat="45.39938" lon="10.5370317"><ele>124.66666666666667</ele><time>2026-05-03T08:22:29.597Z</time></trkpt><trkpt lat="45.3993817" lon="10.53692"><ele>125.33333333333334</ele><time>2026-05-03T08:22:31.594Z</time></trkpt><trkpt lat="45.3993917" lon="10.5368067"><ele>126.0</ele><time>2026-05-03T08:22:33.592Z</time></trkpt><trkpt lat="45.3994" lon="10.5366933"><ele>126.66666666666666</ele><time>2026-05-03T08:22:35.601Z</time></trkpt><trkpt lat="45.399415" lon="10.5365883"><ele>127.33333333333333</ele><time>2026-05-03T08:22:37.593Z</time></trkpt><trkpt lat="45.399425" lon="10.536485"><ele>128.0</ele><time>2026-05-03T08:22:39.598Z</time></trkpt><trkpt lat="45.3994333" lon="10.5363817"><ele>127.99999999999999</ele><time>2026-05-03T08:22:41.595Z</time></trkpt><trkpt lat="45.3994417" lon="10.5362767"><ele>128.0</ele><time>2026-05-03T08:22:43.596Z</time></trkpt><trkpt lat="45.3994517" lon="10.5361683"><ele>128.0</ele><time>2026-05-03T08:22:45.59Z</time></trkpt><trkpt lat="45.39946" lon="10.5360583"><ele>128.0</ele><time>2026-05-03T08:22:47.601Z</time></trkpt><trkpt lat="45.399465" lon="10.5359483"><ele>127.99999999999999</ele><time>2026-05-03T08:22:49.592Z</time></trkpt><trkpt lat="45.3994733" lon="10.5358383"><ele>128.0</ele><time>2026-05-03T08:22:51.592Z</time></trkpt><trkpt lat="45.3994833" lon="10.5357367"><ele>128.42857142857142</ele><time>2026-05-03T08:22:53.599Z</time></trkpt><trkpt lat="45.3994917" lon="10.5356367"><ele>128.85714285714283</ele><time>2026-05-03T08:22:55.6Z</time></trkpt><trkpt lat="45.3994983" lon="10.5355317"><ele>129.28571428571428</ele><time>2026-05-03T08:22:57.591Z</time></trkpt><trkpt lat="45.3995033" lon="10.5354333"><ele>129.71428571428572</ele><time>2026-05-03T08:22:59.599Z</time></trkpt><trkpt lat="45.3995" lon="10.5353383"><ele>130.14285714285717</ele><time>2026-05-03T08:23:01.582Z</time></trkpt><trkpt lat="45.39949" lon="10.53524"><ele>130.57142857142858</ele><time>2026-05-03T08:23:03.59Z</time></trkpt><trkpt lat="45.3994767" lon="10.53514"><ele>131.0</ele><time>2026-05-03T08:23:05.588Z</time></trkpt><trkpt lat="45.3994617" lon="10.5350367"><ele>131.0</ele><time>2026-05-03T08:23:07.592Z</time></trkpt><trkpt lat="45.3994383" lon="10.534935"><ele>131.0</ele><time>2026-05-03T08:23:09.6Z</time></trkpt><trkpt lat="45.3994117" lon="10.5348333"><ele>131.0</ele><time>2026-05-03T08:23:11.594Z</time></trkpt><trkpt lat="45.3993833" lon="10.534735"><ele>131.0</ele><time>2026-05-03T08:23:13.603Z</time></trkpt><trkpt lat="45.3993467" lon="10.5346333"><ele>131.0</ele><time>2026-05-03T08:23:15.59Z</time></trkpt><trkpt lat="45.3992983" lon="10.5345317"><ele>131.0</ele><time>2026-05-03T08:23:17.596Z</time></trkpt><trkpt lat="45.3992417" lon="10.5344317"><ele>131.0</ele><time>2026-05-03T08:23:19.598Z</time></trkpt><trkpt lat="45.3991783" lon="10.534335"><ele>131.0</ele><time>2026-05-03T08:23:21.599Z</time></trkpt><trkpt lat="45.3991083" lon="10.5342467"><ele>131.0</ele><time>2026-05-03T08:23:23.599Z</time></trkpt><trkpt lat="45.39903" lon="10.5341683"><ele>131.0</ele><time>2026-05-03T08:23:25.597Z</time></trkpt><trkpt lat="45.398945" lon="10.5341217"><ele>131.0</ele><time>2026-05-03T08:23:27.598Z</time></trkpt><trkpt lat="45.3988717" lon="10.5341267"><ele>131.0</ele><time>2026-05-03T08:23:29.597Z</time></trkpt><trkpt lat="45.3987967" lon="10.5341117"><ele>131.0</ele><time>2026-05-03T08:23:31.593Z</time></trkpt><trkpt lat="45.3987317" lon="10.5340433"><ele>131.0</ele><time>2026-05-03T08:23:33.593Z</time></trkpt><trkpt lat="45.3986867" lon="10.53393"><ele>131.0</ele><time>2026-05-03T08:23:35.599Z</time></trkpt><trkpt lat="45.3986433" lon="10.5338083"><ele>131.0</ele><time>2026-05-03T08:23:37.601Z</time></trkpt><trkpt lat="45.3986017" lon="10.5336883"><ele>131.0</ele><time>2026-05-03T08:23:39.592Z</time></trkpt><trkpt lat="45.3985583" lon="10.5335717"><ele>131.0</ele><time>2026-05-03T08:23:41.6Z</time></trkpt><trkpt lat="45.39851" lon="10.5334967"><ele>131.0</ele><time>2026-05-03T08:23:43.6Z</time></trkpt><trkpt lat="45.3985017" lon="10.5336167"><ele>131.0</ele><time>2026-05-03T08:23:46.598Z</time></trkpt><trkpt lat="45.39856" lon="10.533735"><ele>131.0</ele><time>2026-05-03T08:23:48.591Z</time></trkpt><trkpt lat="45.3986067" lon="10.5338667"><ele>131.0</ele><time>2026-05-03T08:23:50.593Z</time></trkpt><trkpt lat="45.3986567" lon="10.5340017"><ele>131.0</ele><time>2026-05-03T08:23:52.591Z</time></trkpt><trkpt lat="45.3986967" lon="10.53414"><ele>131.0</ele><time>2026-05-03T08:23:54.592Z</time></trkpt><trkpt lat="45.398675" lon="10.5342467"><ele>131.0</ele><time>2026-05-03T08:23:56.593Z</time></trkpt><trkpt lat="45.3985967" lon="10.5342417"><ele>131.0</ele><time>2026-05-03T08:23:58.591Z</time></trkpt><trkpt lat="45.3985267" lon="10.53421"><ele>131.0</ele><time>2026-05-03T08:24:00.593Z</time></trkpt><trkpt lat="45.3984517" lon="10.534195"><ele>131.0</ele><time>2026-05-03T08:24:02.591Z</time></trkpt><trkpt lat="45.3983667" lon="10.534215"><ele>131.0</ele><time>2026-05-03T08:24:05.593Z</time></trkpt><trkpt lat="45.3983033" lon="10.5342783"><ele>131.0</ele><time>2026-05-03T08:24:09.6Z</time></trkpt><trkpt lat="45.39827" lon="10.5344"><ele>131.0</ele><time>2026-05-03T08:24:12.592Z</time></trkpt><trkpt lat="45.398255" lon="10.5344967"><ele>131.0</ele><time>2026-05-03T08:24:14.596Z</time></trkpt><trkpt lat="45.39824" lon="10.5346317"><ele>131.0</ele><time>2026-05-03T08:24:17.595Z</time></trkpt><trkpt lat="45.398225" lon="10.53473"><ele>131.0</ele><time>2026-05-03T08:24:19.594Z</time></trkpt><trkpt lat="45.3982083" lon="10.5348233"><ele>131.57142857142858</ele><time>2026-05-03T08:24:21.598Z</time></trkpt><trkpt lat="45.3982" lon="10.534915"><ele>132.14285714285717</ele><time>2026-05-03T08:24:23.601Z</time></trkpt><trkpt lat="45.398185" lon="10.53501"><ele>132.71428571428572</ele><time>2026-05-03T08:24:25.601Z</time></trkpt><trkpt lat="45.398165" lon="10.5351367"><ele>133.28571428571428</ele><time>2026-05-03T08:24:28.593Z</time></trkpt><trkpt lat="45.3981467" lon="10.5352317"><ele>133.85714285714283</ele><time>2026-05-03T08:24:30.59Z</time></trkpt><trkpt lat="45.398125" lon="10.53534"><ele>134.42857142857142</ele><time>2026-05-03T08:24:32.592Z</time></trkpt><trkpt lat="45.3981067" lon="10.5354433"><ele>135.0</ele><time>2026-05-03T08:24:34.594Z</time></trkpt><trkpt lat="45.3980867" lon="10.5355433"><ele>135.16666666666666</ele><time>2026-05-03T08:24:36.6Z</time></trkpt><trkpt lat="45.3980767" lon="10.5356417"><ele>135.33333333333334</ele><time>2026-05-03T08:24:38.592Z</time></trkpt><trkpt lat="45.3980633" lon="10.53573"><ele>135.5</ele><time>2026-05-03T08:24:40.591Z</time></trkpt><trkpt lat="45.398035" lon="10.53584"><ele>135.66666666666669</ele><time>2026-05-03T08:24:43.591Z</time></trkpt><trkpt lat="45.3979967" lon="10.5359217"><ele>135.83333333333334</ele><time>2026-05-03T08:24:46.594Z</time></trkpt><trkpt lat="45.39793" lon="10.5360117"><ele>136.0</ele><time>2026-05-03T08:24:49.6Z</time></trkpt><trkpt lat="45.3978717" lon="10.5360867"><ele>136.0</ele><time>2026-05-03T08:24:51.589Z</time></trkpt><trkpt lat="45.3978067" lon="10.5361667"><ele>136.0</ele><time>2026-05-03T08:24:53.596Z</time></trkpt><trkpt lat="45.397735" lon="10.53625"><ele>136.0</ele><time>2026-05-03T08:24:55.591Z</time></trkpt><trkpt lat="45.39767" lon="10.536345"><ele>136.0</ele><time>2026-05-03T08:24:57.597Z</time></trkpt><trkpt lat="45.3976167" lon="10.5364417"><ele>136.0</ele><time>2026-05-03T08:24:59.6Z</time></trkpt><trkpt lat="45.3975533" lon="10.5365233"><ele>136.0</ele><time>2026-05-03T08:25:01.598Z</time></trkpt><trkpt lat="45.3974867" lon="10.5366167"><ele>136.8</ele><time>2026-05-03T08:25:03.59Z</time></trkpt><trkpt lat="45.3974183" lon="10.5367"><ele>137.6</ele><time>2026-05-03T08:25:05.594Z</time></trkpt><trkpt lat="45.39734" lon="10.5367767"><ele>138.4</ele><time>2026-05-03T08:25:07.598Z</time></trkpt><trkpt lat="45.3972483" lon="10.5368417"><ele>139.2</ele><time>2026-05-03T08:25:09.595Z</time></trkpt><trkpt lat="45.39715" lon="10.536905"><ele>140.0</ele><time>2026-05-03T08:25:11.597Z</time></trkpt><trkpt lat="45.397035" lon="10.5369617"><ele>138.5</ele><time>2026-05-03T08:25:13.601Z</time></trkpt><trkpt lat="45.396915" lon="10.5370183"><ele>137.0</ele><time>2026-05-03T08:25:15.599Z</time></trkpt><trkpt lat="45.3968533" lon="10.53705"><ele>135.5</ele><time>2026-05-03T08:25:16.596Z</time></trkpt><trkpt lat="45.39679" lon="10.5370783"><ele>134.0</ele><time>2026-05-03T08:25:17.601Z</time></trkpt><trkpt lat="45.3967267" lon="10.537105"><ele>132.5</ele><time>2026-05-03T08:25:18.598Z</time></trkpt><trkpt lat="45.3966633" lon="10.5371317"><ele>131.0</ele><time>2026-05-03T08:25:19.605Z</time></trkpt><trkpt lat="45.3965967" lon="10.5371533"><ele>131.0</ele><time>2026-05-03T08:25:20.599Z</time></trkpt><trkpt lat="45.39653" lon="10.5371633"><ele>131.0</ele><time>2026-05-03T08:25:21.601Z</time></trkpt><trkpt lat="45.396465" lon="10.5371583"><ele>131.0</ele><time>2026-05-03T08:25:22.597Z</time></trkpt><trkpt lat="45.3964033" lon="10.5371383"><ele>131.0</ele><time>2026-05-03T08:25:23.597Z</time></trkpt><trkpt lat="45.396295" lon="10.5370767"><ele>131.0</ele><time>2026-05-03T08:25:25.603Z</time></trkpt><trkpt lat="45.3961867" lon="10.537005"><ele>131.0</ele><time>2026-05-03T08:25:27.596Z</time></trkpt><trkpt lat="45.396075" lon="10.53692"><ele>130.85714285714286</ele><time>2026-05-03T08:25:29.595Z</time></trkpt><trkpt lat="45.3960167" lon="10.5368783"><ele>130.71428571428572</ele><time>2026-05-03T08:25:30.599Z</time></trkpt><trkpt lat="45.3959583" lon="10.5368333"><ele>130.57142857142858</ele><time>2026-05-03T08:25:31.603Z</time></trkpt><trkpt lat="45.3958983" lon="10.536785"><ele>130.42857142857144</ele><time>2026-05-03T08:25:32.598Z</time></trkpt><trkpt lat="45.39584" lon="10.536735"><ele>130.28571428571428</ele><time>2026-05-03T08:25:33.599Z</time></trkpt><trkpt lat="45.3957817" lon="10.5366833"><ele>130.14285714285717</ele><time>2026-05-03T08:25:34.592Z</time></trkpt><trkpt lat="45.3957233" lon="10.5366333"><ele>130.0</ele><time>2026-05-03T08:25:35.593Z</time></trkpt><trkpt lat="45.3956667" lon="10.5365833"><ele>130.0</ele><time>2026-05-03T08:25:36.593Z</time></trkpt><trkpt lat="45.3956117" lon="10.5365333"><ele>130.0</ele><time>2026-05-03T08:25:37.604Z</time></trkpt><trkpt lat="45.395515" lon="10.536435"><ele>130.0</ele><time>2026-05-03T08:25:39.599Z</time></trkpt><trkpt lat="45.3954183" lon="10.5363467"><ele>130.0</ele><time>2026-05-03T08:25:41.602Z</time></trkpt><trkpt lat="45.3953133" lon="10.5363283"><ele>130.0</ele><time>2026-05-03T08:25:43.6Z</time></trkpt><trkpt lat="45.3952117" lon="10.5363733"><ele>130.6</ele><time>2026-05-03T08:25:45.602Z</time></trkpt><trkpt lat="45.3951117" lon="10.5364417"><ele>131.2</ele><time>2026-05-03T08:25:47.596Z</time></trkpt><trkpt lat="45.395015" lon="10.5365133"><ele>131.8</ele><time>2026-05-03T08:25:49.601Z</time></trkpt><trkpt lat="45.3949117" lon="10.5365617"><ele>132.4</ele><time>2026-05-03T08:25:51.601Z</time></trkpt><trkpt lat="45.394815" lon="10.5366167"><ele>133.0</ele><time>2026-05-03T08:25:53.6Z</time></trkpt><trkpt lat="45.394725" lon="10.5366867"><ele>132.8</ele><time>2026-05-03T08:25:55.599Z</time></trkpt><trkpt lat="45.3946317" lon="10.5367433"><ele>132.60000000000002</ele><time>2026-05-03T08:25:57.601Z</time></trkpt><trkpt lat="45.3945383" lon="10.5367967"><ele>132.39999999999998</ele><time>2026-05-03T08:25:59.594Z</time></trkpt><trkpt lat="45.3944467" lon="10.53685"><ele>132.2</ele><time>2026-05-03T08:26:01.598Z</time></trkpt><trkpt lat="45.39435" lon="10.5369083"><ele>132.0</ele><time>2026-05-03T08:26:03.596Z</time></trkpt><trkpt lat="45.3942567" lon="10.5369667"><ele>132.0</ele><time>2026-05-03T08:26:05.6Z</time></trkpt><trkpt lat="45.3941683" lon="10.5370383"><ele>132.0</ele><time>2026-05-03T08:26:07.596Z</time></trkpt><trkpt lat="45.3940883" lon="10.5371183"><ele>132.0</ele><time>2026-05-03T08:26:09.597Z</time></trkpt><trkpt lat="45.39401" lon="10.537195"><ele>132.0</ele><time>2026-05-03T08:26:11.6Z</time></trkpt><trkpt lat="45.39393" lon="10.5372833"><ele>132.0</ele><time>2026-05-03T08:26:13.605Z</time></trkpt><trkpt lat="45.3938483" lon="10.537375"><ele>132.25</ele><time>2026-05-03T08:26:15.599Z</time></trkpt><trkpt lat="45.39376" lon="10.5374767"><ele>132.5</ele><time>2026-05-03T08:26:17.599Z</time></trkpt><trkpt lat="45.3936667" lon="10.5375783"><ele>132.75</ele><time>2026-05-03T08:26:19.6Z</time></trkpt><trkpt lat="45.3935733" lon="10.5376833"><ele>133.0</ele><time>2026-05-03T08:26:21.591Z</time></trkpt><trkpt lat="45.3934817" lon="10.53779"><ele>133.25</ele><time>2026-05-03T08:26:23.597Z</time></trkpt><trkpt lat="45.3933933" lon="10.5378933"><ele>133.5</ele><time>2026-05-03T08:26:25.599Z</time></trkpt><trkpt lat="45.393305" lon="10.53799"><ele>133.75</ele><time>2026-05-03T08:26:27.595Z</time></trkpt><trkpt lat="45.3932183" lon="10.53809"><ele>134.0</ele><time>2026-05-03T08:26:29.596Z</time></trkpt><trkpt lat="45.3931383" lon="10.5382033"><ele>134.0</ele><time>2026-05-03T08:26:31.602Z</time></trkpt><trkpt lat="45.3930583" lon="10.538315"><ele>134.0</ele><time>2026-05-03T08:26:33.592Z</time></trkpt><trkpt lat="45.392985" lon="10.5384217"><ele>134.0</ele><time>2026-05-03T08:26:35.599Z</time></trkpt><trkpt lat="45.3929017" lon="10.538515"><ele>134.0</ele><time>2026-05-03T08:26:37.596Z</time></trkpt><trkpt lat="45.3927967" lon="10.538555"><ele>134.0</ele><time>2026-05-03T08:26:39.59Z</time></trkpt><trkpt lat="45.39268" lon="10.538565"><ele>134.25</ele><time>2026-05-03T08:26:41.59Z</time></trkpt><trkpt lat="45.3925617" lon="10.53859"><ele>134.5</ele><time>2026-05-03T08:26:43.593Z</time></trkpt><trkpt lat="45.3924433" lon="10.5386017"><ele>134.75</ele><time>2026-05-03T08:26:45.591Z</time></trkpt><trkpt lat="45.3923233" lon="10.538595"><ele>135.0</ele><time>2026-05-03T08:26:47.591Z</time></trkpt><trkpt lat="45.3922083" lon="10.5385717"><ele>134.25</ele><time>2026-05-03T08:26:49.592Z</time></trkpt><trkpt lat="45.3921033" lon="10.538535"><ele>133.5</ele><time>2026-05-03T08:26:51.597Z</time></trkpt><trkpt lat="45.3920017" lon="10.5384933"><ele>132.75</ele><time>2026-05-03T08:26:53.599Z</time></trkpt><trkpt lat="45.3918883" lon="10.5384283"><ele>132.0</ele><time>2026-05-03T08:26:55.6Z</time></trkpt><trkpt lat="45.3917783" lon="10.5383467"><ele>132.0</ele><time>2026-05-03T08:26:57.599Z</time></trkpt><trkpt lat="45.39167" lon="10.5382583"><ele>132.0</ele><time>2026-05-03T08:26:59.597Z</time></trkpt><trkpt lat="45.3915633" lon="10.5381733"><ele>132.0</ele><time>2026-05-03T08:27:01.603Z</time></trkpt><trkpt lat="45.39146" lon="10.5380933"><ele>132.0</ele><time>2026-05-03T08:27:03.602Z</time></trkpt><trkpt lat="45.3913617" lon="10.53802"><ele>132.0</ele><time>2026-05-03T08:27:05.603Z</time></trkpt><trkpt lat="45.39126" lon="10.5379467"><ele>132.0</ele><time>2026-05-03T08:27:07.602Z</time></trkpt><trkpt lat="45.3911533" lon="10.537885"><ele>132.0</ele><time>2026-05-03T08:27:09.593Z</time></trkpt><trkpt lat="45.3910367" lon="10.5378283"><ele>132.0</ele><time>2026-05-03T08:27:11.594Z</time></trkpt><trkpt lat="45.3909767" lon="10.53779"><ele>132.0</ele><time>2026-05-03T08:27:12.599Z</time></trkpt><trkpt lat="45.3909167" lon="10.537745"><ele>131.71428571428572</ele><time>2026-05-03T08:27:13.6Z</time></trkpt><trkpt lat="45.3908567" lon="10.537695"><ele>131.42857142857144</ele><time>2026-05-03T08:27:14.598Z</time></trkpt><trkpt lat="45.3907983" lon="10.5376383"><ele>131.14285714285717</ele><time>2026-05-03T08:27:15.6Z</time></trkpt><trkpt lat="45.3907433" lon="10.5375733"><ele>130.85714285714286</ele><time>2026-05-03T08:27:16.601Z</time></trkpt><trkpt lat="45.3906933" lon="10.5374983"><ele>130.57142857142858</ele><time>2026-05-03T08:27:17.6Z</time></trkpt><trkpt lat="45.3906417" lon="10.53742"><ele>130.2857142857143</ele><time>2026-05-03T08:27:18.599Z</time></trkpt><trkpt lat="45.3905933" lon="10.5373317"><ele>130.0</ele><time>2026-05-03T08:27:19.602Z</time></trkpt><trkpt lat="45.3905433" lon="10.5372383"><ele>130.0</ele><time>2026-05-03T08:27:20.598Z</time></trkpt><trkpt lat="45.390495" lon="10.5371533"><ele>130.0</ele><time>2026-05-03T08:27:21.59Z</time></trkpt><trkpt lat="45.3904483" lon="10.53708"><ele>130.0</ele><time>2026-05-03T08:27:22.591Z</time></trkpt><trkpt lat="45.3903433" lon="10.5370517"><ele>130.0</ele><time>2026-05-03T08:27:24.596Z</time></trkpt><trkpt lat="45.3902417" lon="10.5371467"><ele>130.0</ele><time>2026-05-03T08:27:26.599Z</time></trkpt><trkpt lat="45.390155" lon="10.537235"><ele>130.66666666666669</ele><time>2026-05-03T08:27:28.599Z</time></trkpt><trkpt lat="45.39007" lon="10.5373017"><ele>131.33333333333334</ele><time>2026-05-03T08:27:30.598Z</time></trkpt><trkpt lat="45.3900033" lon="10.5373467"><ele>132.0</ele><time>2026-05-03T08:27:32.597Z</time></trkpt><trkpt lat="45.3899267" lon="10.5373867"><ele>132.66666666666666</ele><time>2026-05-03T08:27:34.596Z</time></trkpt><trkpt lat="45.38986" lon="10.5374267"><ele>133.33333333333331</ele><time>2026-05-03T08:27:36.595Z</time></trkpt><trkpt lat="45.3897567" lon="10.5374933"><ele>134.0</ele><time>2026-05-03T08:27:38.593Z</time></trkpt><trkpt lat="45.389655" lon="10.5375467"><ele>134.0</ele><time>2026-05-03T08:27:40.591Z</time></trkpt><trkpt lat="45.3895517" lon="10.5376133"><ele>134.0</ele><time>2026-05-03T08:27:42.598Z</time></trkpt><trkpt lat="45.3894567" lon="10.537695"><ele>134.0</ele><time>2026-05-03T08:27:44.595Z</time></trkpt><trkpt lat="45.3893567" lon="10.5377833"><ele>134.0</ele><time>2026-05-03T08:27:46.599Z</time></trkpt><trkpt lat="45.3892633" lon="10.5378533"><ele>134.0</ele><time>2026-05-03T08:27:48.598Z</time></trkpt><trkpt lat="45.3891783" lon="10.5379367"><ele>135.4</ele><time>2026-05-03T08:27:50.598Z</time></trkpt><trkpt lat="45.389125" lon="10.5380617"><ele>136.8</ele><time>2026-05-03T08:27:52.598Z</time></trkpt><trkpt lat="45.3890767" lon="10.5382"><ele>138.2</ele><time>2026-05-03T08:27:54.596Z</time></trkpt><trkpt lat="45.38902" lon="10.53832"><ele>139.6</ele><time>2026-05-03T08:27:56.599Z</time></trkpt><trkpt lat="45.3889617" lon="10.5384367"><ele>141.0</ele><time>2026-05-03T08:27:58.599Z</time></trkpt><trkpt lat="45.388925" lon="10.5385717"><ele>141.0</ele><time>2026-05-03T08:28:00.598Z</time></trkpt><trkpt lat="45.3888917" lon="10.538705"><ele>141.0</ele><time>2026-05-03T08:28:02.599Z</time></trkpt><trkpt lat="45.388865" lon="10.5388383"><ele>141.0</ele><time>2026-05-03T08:28:04.6Z</time></trkpt><trkpt lat="45.3888483" lon="10.53897"><ele>141.0</ele><time>2026-05-03T08:28:06.599Z</time></trkpt><trkpt lat="45.38887" lon="10.5390733"><ele>141.0</ele><time>2026-05-03T08:28:08.594Z</time></trkpt><trkpt lat="45.3888983" lon="10.5391833"><ele>141.0</ele><time>2026-05-03T08:28:10.594Z</time></trkpt><trkpt lat="45.3889183" lon="10.5392917"><ele>141.33333333333334</ele><time>2026-05-03T08:28:12.594Z</time></trkpt><trkpt lat="45.3889367" lon="10.5393967"><ele>141.66666666666666</ele><time>2026-05-03T08:28:14.592Z</time></trkpt><trkpt lat="45.3889533" lon="10.5395033"><ele>142.0</ele><time>2026-05-03T08:28:16.594Z</time></trkpt><trkpt lat="45.388975" lon="10.5396083"><ele>142.33333333333331</ele><time>2026-05-03T08:28:18.594Z</time></trkpt><trkpt lat="45.3890017" lon="10.53971"><ele>142.66666666666666</ele><time>2026-05-03T08:28:20.592Z</time></trkpt><trkpt lat="45.3890317" lon="10.5398117"><ele>143.0</ele><time>2026-05-03T08:28:22.597Z</time></trkpt><trkpt lat="45.3890567" lon="10.5399233"><ele>143.66666666666666</ele><time>2026-05-03T08:28:24.59Z</time></trkpt><trkpt lat="45.3890817" lon="10.5400333"><ele>144.33333333333331</ele><time>2026-05-03T08:28:26.59Z</time></trkpt><trkpt lat="45.38911" lon="10.540155"><ele>145.0</ele><time>2026-05-03T08:28:28.594Z</time></trkpt><trkpt lat="45.3891317" lon="10.5402683"><ele>145.66666666666666</ele><time>2026-05-03T08:28:30.598Z</time></trkpt><trkpt lat="45.3891367" lon="10.5403867"><ele>146.33333333333334</ele><time>2026-05-03T08:28:32.597Z</time></trkpt><trkpt lat="45.38912" lon="10.540495"><ele>147.0</ele><time>2026-05-03T08:28:34.597Z</time></trkpt><trkpt lat="45.3890883" lon="10.5405933"><ele>147.0</ele><time>2026-05-03T08:28:36.596Z</time></trkpt><trkpt lat="45.38906" lon="10.54069"><ele>147.0</ele><time>2026-05-03T08:28:38.596Z</time></trkpt><trkpt lat="45.3890367" lon="10.5407867"><ele>147.0</ele><time>2026-05-03T08:28:40.597Z</time></trkpt><trkpt lat="45.3890117" lon="10.540885"><ele>147.0</ele><time>2026-05-03T08:28:42.598Z</time></trkpt><trkpt lat="45.388985" lon="10.5409867"><ele>147.0</ele><time>2026-05-03T08:28:44.593Z</time></trkpt><trkpt lat="45.3889617" lon="10.5411033"><ele>147.0</ele><time>2026-05-03T08:28:46.595Z</time></trkpt><trkpt lat="45.38894" lon="10.5412167"><ele>147.0</ele><time>2026-05-03T08:28:48.598Z</time></trkpt><trkpt lat="45.388915" lon="10.54132"><ele>147.0</ele><time>2026-05-03T08:28:50.598Z</time></trkpt><trkpt lat="45.38889" lon="10.54142"><ele>147.0</ele><time>2026-05-03T08:28:52.599Z</time></trkpt><trkpt lat="45.388865" lon="10.5415267"><ele>147.0</ele><time>2026-05-03T08:28:54.599Z</time></trkpt><trkpt lat="45.38885" lon="10.5416283"><ele>147.0</ele><time>2026-05-03T08:28:56.596Z</time></trkpt><trkpt lat="45.388845" lon="10.5417217"><ele>147.0</ele><time>2026-05-03T08:28:58.599Z</time></trkpt><trkpt lat="45.3888333" lon="10.54181"><ele>147.0</ele><time>2026-05-03T08:29:00.597Z</time></trkpt><trkpt lat="45.3888167" lon="10.5419233"><ele>146.85714285714286</ele><time>2026-05-03T08:29:03.594Z</time></trkpt><trkpt lat="45.3888233" lon="10.5420167"><ele>146.71428571428572</ele><time>2026-05-03T08:29:06.595Z</time></trkpt><trkpt lat="45.3888517" lon="10.5421033"><ele>146.57142857142856</ele><time>2026-05-03T08:29:09.597Z</time></trkpt><trkpt lat="45.388835" lon="10.54221"><ele>146.42857142857144</ele><time>2026-05-03T08:29:11.595Z</time></trkpt><trkpt lat="45.3888017" lon="10.5422883"><ele>146.28571428571428</ele><time>2026-05-03T08:29:13.59Z</time></trkpt><trkpt lat="45.38876" lon="10.5423967"><ele>146.14285714285714</ele><time>2026-05-03T08:29:16.591Z</time></trkpt><trkpt lat="45.3887367" lon="10.54248"><ele>146.0</ele><time>2026-05-03T08:29:18.59Z</time></trkpt><trkpt lat="45.3887067" lon="10.542575"><ele>146.28571428571428</ele><time>2026-05-03T08:29:20.589Z</time></trkpt><trkpt lat="45.3886783" lon="10.542665"><ele>146.57142857142858</ele><time>2026-05-03T08:29:22.591Z</time></trkpt><trkpt lat="45.3886367" lon="10.542735"><ele>146.85714285714286</ele><time>2026-05-03T08:29:24.589Z</time></trkpt><trkpt lat="45.3885817" lon="10.5428117"><ele>147.14285714285714</ele><time>2026-05-03T08:29:26.589Z</time></trkpt><trkpt lat="45.38853" lon="10.5428917"><ele>147.42857142857142</ele><time>2026-05-03T08:29:28.597Z</time></trkpt><trkpt lat="45.38848" lon="10.5429867"><ele>147.71428571428572</ele><time>2026-05-03T08:29:31.6Z</time></trkpt><trkpt lat="45.38844" lon="10.5430633"><ele>148.0</ele><time>2026-05-03T08:29:33.592Z</time></trkpt><trkpt lat="45.3883883" lon="10.5431533"><ele>148.0</ele><time>2026-05-03T08:29:35.594Z</time></trkpt><trkpt lat="45.38833" lon="10.543215"><ele>148.0</ele><time>2026-05-03T08:29:37.598Z</time></trkpt><trkpt lat="45.3882717" lon="10.5432767"><ele>148.0</ele><time>2026-05-03T08:29:39.587Z</time></trkpt><trkpt lat="45.3882067" lon="10.5433433"><ele>148.0</ele><time>2026-05-03T08:29:41.591Z</time></trkpt><trkpt lat="45.3881333" lon="10.543415"><ele>148.0</ele><time>2026-05-03T08:29:43.596Z</time></trkpt><trkpt lat="45.3880483" lon="10.54348"><ele>148.0</ele><time>2026-05-03T08:29:45.594Z</time></trkpt><trkpt lat="45.387965" lon="10.543525"><ele>146.0</ele><time>2026-05-03T08:29:47.595Z</time></trkpt><trkpt lat="45.387875" lon="10.543585"><ele>144.0</ele><time>2026-05-03T08:29:50.59Z</time></trkpt><trkpt lat="45.3877867" lon="10.54366"><ele>142.0</ele><time>2026-05-03T08:29:52.596Z</time></trkpt><trkpt lat="45.38769" lon="10.5437583"><ele>140.0</ele><time>2026-05-03T08:29:54.599Z</time></trkpt><trkpt lat="45.3876367" lon="10.54381"><ele>138.0</ele><time>2026-05-03T08:29:55.598Z</time></trkpt><trkpt lat="45.3875717" lon="10.5438733"><ele>136.71428571428572</ele><time>2026-05-03T08:29:56.598Z</time></trkpt><trkpt lat="45.3875067" lon="10.5439467"><ele>135.42857142857144</ele><time>2026-05-03T08:29:57.596Z</time></trkpt><trkpt lat="45.3874417" lon="10.5440133"><ele>134.14285714285714</ele><time>2026-05-03T08:29:58.598Z</time></trkpt><trkpt lat="45.3873833" lon="10.5440733"><ele>132.85714285714286</ele><time>2026-05-03T08:29:59.598Z</time></trkpt><trkpt lat="45.387335" lon="10.5441333"><ele>131.57142857142856</ele><time>2026-05-03T08:30:00.598Z</time></trkpt><trkpt lat="45.3872883" lon="10.544195"><ele>130.28571428571428</ele><time>2026-05-03T08:30:01.6Z</time></trkpt><trkpt lat="45.3872317" lon="10.5442533"><ele>129.0</ele><time>2026-05-03T08:30:02.595Z</time></trkpt><trkpt lat="45.387165" lon="10.544305"><ele>128.33333333333334</ele><time>2026-05-03T08:30:03.6Z</time></trkpt><trkpt lat="45.3870917" lon="10.544345"><ele>127.66666666666666</ele><time>2026-05-03T08:30:04.598Z</time></trkpt><trkpt lat="45.3870217" lon="10.5443833"><ele>127.0</ele><time>2026-05-03T08:30:05.602Z</time></trkpt><trkpt lat="45.3869567" lon="10.5444233"><ele>126.33333333333333</ele><time>2026-05-03T08:30:06.598Z</time></trkpt><trkpt lat="45.3868467" lon="10.5444983"><ele>125.66666666666666</ele><time>2026-05-03T08:30:08.599Z</time></trkpt><trkpt lat="45.3867883" lon="10.5445417"><ele>125.0</ele><time>2026-05-03T08:30:09.599Z</time></trkpt><trkpt lat="45.3867283" lon="10.5445833"><ele>124.49999999999999</ele><time>2026-05-03T08:30:10.599Z</time></trkpt><trkpt lat="45.38666" lon="10.5446217"><ele>124.0</ele><time>2026-05-03T08:30:11.592Z</time></trkpt><trkpt lat="45.3865933" lon="10.5446483"><ele>123.5</ele><time>2026-05-03T08:30:12.594Z</time></trkpt><trkpt lat="45.3864933" lon="10.5447017"><ele>123.0</ele><time>2026-05-03T08:30:14.595Z</time></trkpt><trkpt lat="45.3864383" lon="10.5447733"><ele>122.49999999999999</ele><time>2026-05-03T08:30:16.595Z</time></trkpt><trkpt lat="45.38636" lon="10.544765"><ele>122.0</ele><time>2026-05-03T08:30:18.593Z</time></trkpt><trkpt lat="45.3862833" lon="10.5447067"><ele>121.33333333333333</ele><time>2026-05-03T08:30:20.595Z</time></trkpt><trkpt lat="45.3862183" lon="10.54463"><ele>120.66666666666666</ele><time>2026-05-03T08:30:22.589Z</time></trkpt><trkpt lat="45.3861583" lon="10.5445533"><ele>120.0</ele><time>2026-05-03T08:30:24.598Z</time></trkpt><trkpt lat="45.38611" lon="10.5444717"><ele>119.33333333333334</ele><time>2026-05-03T08:30:26.592Z</time></trkpt><trkpt lat="45.3860783" lon="10.5443567"><ele>118.66666666666667</ele><time>2026-05-03T08:30:28.592Z</time></trkpt><trkpt lat="45.386075" lon="10.5442333"><ele>118.0</ele><time>2026-05-03T08:30:30.593Z</time></trkpt><trkpt lat="45.3860983" lon="10.5441317"><ele>118.00000000000001</ele><time>2026-05-03T08:30:32.599Z</time></trkpt><trkpt lat="45.386125" lon="10.544035"><ele>118.0</ele><time>2026-05-03T08:30:34.598Z</time></trkpt><trkpt lat="45.38615" lon="10.543935"><ele>118.0</ele><time>2026-05-03T08:30:36.593Z</time></trkpt><trkpt lat="45.3861783" lon="10.543825"><ele>118.0</ele><time>2026-05-03T08:30:38.598Z</time></trkpt><trkpt lat="45.3862033" lon="10.5437233"><ele>118.00000000000001</ele><time>2026-05-03T08:30:40.598Z</time></trkpt><trkpt lat="45.3862333" lon="10.54361"><ele>118.0</ele><time>2026-05-03T08:30:42.596Z</time></trkpt><trkpt lat="45.3862683" lon="10.54349"><ele>117.80000000000001</ele><time>2026-05-03T08:30:44.596Z</time></trkpt><trkpt lat="45.386305" lon="10.5433683"><ele>117.60000000000001</ele><time>2026-05-03T08:30:46.596Z</time></trkpt><trkpt lat="45.38634" lon="10.5432417"><ele>117.39999999999999</ele><time>2026-05-03T08:30:48.593Z</time></trkpt><trkpt lat="45.386375" lon="10.543115"><ele>117.19999999999999</ele><time>2026-05-03T08:30:50.595Z</time></trkpt><trkpt lat="45.3864033" lon="10.5429767"><ele>117.0</ele><time>2026-05-03T08:30:52.599Z</time></trkpt><trkpt lat="45.386435" lon="10.5428417"><ele>118.0</ele><time>2026-05-03T08:30:54.599Z</time></trkpt><trkpt lat="45.3864633" lon="10.5426983"><ele>118.99999999999999</ele><time>2026-05-03T08:30:56.6Z</time></trkpt><trkpt lat="45.3864967" lon="10.5425517"><ele>119.99999999999999</ele><time>2026-05-03T08:30:58.599Z</time></trkpt><trkpt lat="45.386525" lon="10.5424"><ele>121.0</ele><time>2026-05-03T08:31:00.599Z</time></trkpt><trkpt lat="45.3865417" lon="10.54225"><ele>122.0</ele><time>2026-05-03T08:31:02.598Z</time></trkpt><trkpt lat="45.3865333" lon="10.5420983"><ele>122.16666666666666</ele><time>2026-05-03T08:31:04.599Z</time></trkpt><trkpt lat="45.3865233" lon="10.54196"><ele>122.33333333333333</ele><time>2026-05-03T08:31:06.598Z</time></trkpt><trkpt lat="45.3865283" lon="10.541835"><ele>122.5</ele><time>2026-05-03T08:31:08.598Z</time></trkpt><trkpt lat="45.3865433" lon="10.5417317"><ele>122.66666666666666</ele><time>2026-05-03T08:31:10.597Z</time></trkpt><trkpt lat="45.3865433" lon="10.5416267"><ele>122.83333333333333</ele><time>2026-05-03T08:31:12.597Z</time></trkpt><trkpt lat="45.3865133" lon="10.5415333"><ele>123.0</ele><time>2026-05-03T08:31:14.593Z</time></trkpt><trkpt lat="45.3864467" lon="10.5414717"><ele>123.0</ele><time>2026-05-03T08:31:16.595Z</time></trkpt><trkpt lat="45.3863633" lon="10.54141"><ele>123.0</ele><time>2026-05-03T08:31:18.593Z</time></trkpt><trkpt lat="45.3862767" lon="10.5413467"><ele>123.0</ele><time>2026-05-03T08:31:20.596Z</time></trkpt><trkpt lat="45.3861983" lon="10.541295"><ele>123.0</ele><time>2026-05-03T08:31:22.596Z</time></trkpt><trkpt lat="45.3861233" lon="10.5412467"><ele>123.0</ele><time>2026-05-03T08:31:24.595Z</time></trkpt><trkpt lat="45.3860467" lon="10.5411983"><ele>123.0</ele><time>2026-05-03T08:31:26.582Z</time></trkpt><trkpt lat="45.3859667" lon="10.5411517"><ele>122.2</ele><time>2026-05-03T08:31:28.593Z</time></trkpt><trkpt lat="45.3858817" lon="10.5410983"><ele>121.4</ele><time>2026-05-03T08:31:30.593Z</time></trkpt><trkpt lat="45.3857933" lon="10.54103"><ele>120.60000000000001</ele><time>2026-05-03T08:31:32.6Z</time></trkpt><trkpt lat="45.3857067" lon="10.5409683"><ele>119.80000000000001</ele><time>2026-05-03T08:31:34.596Z</time></trkpt><trkpt lat="45.3856367" lon="10.5408983"><ele>119.0</ele><time>2026-05-03T08:31:36.592Z</time></trkpt><trkpt lat="45.385545" lon="10.5408317"><ele>118.80000000000001</ele><time>2026-05-03T08:31:38.594Z</time></trkpt><trkpt lat="45.3854533" lon="10.54076"><ele>118.60000000000001</ele><time>2026-05-03T08:31:40.594Z</time></trkpt><trkpt lat="45.38536" lon="10.5407"><ele>118.4</ele><time>2026-05-03T08:31:42.601Z</time></trkpt><trkpt lat="45.385265" lon="10.54065"><ele>118.2</ele><time>2026-05-03T08:31:44.594Z</time></trkpt><trkpt lat="45.3851683" lon="10.5405967"><ele>118.0</ele><time>2026-05-03T08:31:46.598Z</time></trkpt><trkpt lat="45.385085" lon="10.5405317"><ele>118.0</ele><time>2026-05-03T08:31:48.594Z</time></trkpt><trkpt lat="45.3850017" lon="10.5404483"><ele>118.00000000000001</ele><time>2026-05-03T08:31:50.594Z</time></trkpt><trkpt lat="45.3849117" lon="10.5403817"><ele>118.00000000000001</ele><time>2026-05-03T08:31:52.599Z</time></trkpt><trkpt lat="45.3848133" lon="10.5402817"><ele>118.0</ele><time>2026-05-03T08:31:54.599Z</time></trkpt><trkpt lat="45.38471" lon="10.5401983"><ele>118.0</ele><time>2026-05-03T08:31:56.596Z</time></trkpt><trkpt lat="45.384655" lon="10.5401517"><ele>119.0</ele><time>2026-05-03T08:31:57.599Z</time></trkpt><trkpt lat="45.3845483" lon="10.540085"><ele>120.00000000000001</ele><time>2026-05-03T08:31:59.598Z</time></trkpt><trkpt lat="45.3844567" lon="10.5400417"><ele>121.00000000000001</ele><time>2026-05-03T08:32:01.601Z</time></trkpt><trkpt lat="45.384365" lon="10.5400233"><ele>122.0</ele><time>2026-05-03T08:32:03.599Z</time></trkpt><trkpt lat="45.3842667" lon="10.5400367"><ele>123.0</ele><time>2026-05-03T08:32:05.599Z</time></trkpt><trkpt lat="45.3841683" lon="10.5400817"><ele>123.0</ele><time>2026-05-03T08:32:07.597Z</time></trkpt><trkpt lat="45.384095" lon="10.54017"><ele>123.00000000000001</ele><time>2026-05-03T08:32:09.594Z</time></trkpt><trkpt lat="45.3840283" lon="10.5403017"><ele>123.00000000000001</ele><time>2026-05-03T08:32:11.599Z</time></trkpt><trkpt lat="45.38397" lon="10.5404233"><ele>123.0</ele><time>2026-05-03T08:32:13.597Z</time></trkpt><trkpt lat="45.3839167" lon="10.5405433"><ele>123.0</ele><time>2026-05-03T08:32:15.599Z</time></trkpt><trkpt lat="45.3838467" lon="10.54065"><ele>122.4</ele><time>2026-05-03T08:32:17.6Z</time></trkpt><trkpt lat="45.3837633" lon="10.5407467"><ele>121.80000000000001</ele><time>2026-05-03T08:32:19.592Z</time></trkpt><trkpt lat="45.3836783" lon="10.5408367"><ele>121.2</ele><time>2026-05-03T08:32:21.597Z</time></trkpt><trkpt lat="45.3835883" lon="10.5409267"><ele>120.6</ele><time>2026-05-03T08:32:23.594Z</time></trkpt><trkpt lat="45.3834983" lon="10.541005"><ele>120.0</ele><time>2026-05-03T08:32:25.6Z</time></trkpt><trkpt lat="45.38341" lon="10.541065"><ele>120.0</ele><time>2026-05-03T08:32:27.599Z</time></trkpt><trkpt lat="45.3833217" lon="10.5411033"><ele>120.0</ele><time>2026-05-03T08:32:29.6Z</time></trkpt><trkpt lat="45.383255" lon="10.541095"><ele>120.0</ele><time>2026-05-03T08:32:31.597Z</time></trkpt><trkpt lat="45.38321" lon="10.5409767"><ele>120.0</ele><time>2026-05-03T08:32:34.597Z</time></trkpt><trkpt lat="45.3831733" lon="10.5408817"><ele>120.0</ele><time>2026-05-03T08:32:36.597Z</time></trkpt><trkpt lat="45.383135" lon="10.540805"><ele>120.0</ele><time>2026-05-03T08:32:38.597Z</time></trkpt><trkpt lat="45.3830583" lon="10.54072"><ele>120.83333333333333</ele><time>2026-05-03T08:32:41.598Z</time></trkpt><trkpt lat="45.38299" lon="10.54067"><ele>121.66666666666666</ele><time>2026-05-03T08:32:43.6Z</time></trkpt><trkpt lat="45.3829233" lon="10.5406517"><ele>122.5</ele><time>2026-05-03T08:32:45.596Z</time></trkpt><trkpt lat="45.3828317" lon="10.5406633"><ele>123.33333333333333</ele><time>2026-05-03T08:32:48.595Z</time></trkpt><trkpt lat="45.3827533" lon="10.54064"><ele>124.16666666666666</ele><time>2026-05-03T08:32:51.591Z</time></trkpt><trkpt lat="45.382685" lon="10.540625"><ele>125.0</ele><time>2026-05-03T08:32:53.6Z</time></trkpt><trkpt lat="45.3826217" lon="10.5405967"><ele>124.99999999999999</ele><time>2026-05-03T08:32:55.599Z</time></trkpt><trkpt lat="45.3825333" lon="10.5405683"><ele>125.0</ele><time>2026-05-03T08:32:58.6Z</time></trkpt><trkpt lat="45.3824717" lon="10.540545"><ele>125.0</ele><time>2026-05-03T08:33:00.589Z</time></trkpt><trkpt lat="45.382395" lon="10.5405267"><ele>125.0</ele><time>2026-05-03T08:33:02.591Z</time></trkpt><trkpt lat="45.3823017" lon="10.5405167"><ele>124.99999999999999</ele><time>2026-05-03T08:33:04.593Z</time></trkpt><trkpt lat="45.3822283" lon="10.5405033"><ele>125.0</ele><time>2026-05-03T08:33:06.598Z</time></trkpt><trkpt lat="45.3821617" lon="10.540485"><ele>126.99999999999999</ele><time>2026-05-03T08:33:08.594Z</time></trkpt><trkpt lat="45.3820783" lon="10.54048"><ele>129.0</ele><time>2026-05-03T08:33:10.593Z</time></trkpt><trkpt lat="45.382" lon="10.54049"><ele>131.0</ele><time>2026-05-03T08:33:12.598Z</time></trkpt><trkpt lat="45.381935" lon="10.5405067"><ele>133.0</ele><time>2026-05-03T08:33:14.591Z</time></trkpt><trkpt lat="45.38185" lon="10.5405417"><ele>135.0</ele><time>2026-05-03T08:33:17.6Z</time></trkpt><trkpt lat="45.3817783" lon="10.5406317"><ele>137.0</ele><time>2026-05-03T08:33:20.598Z</time></trkpt><trkpt lat="45.3817167" lon="10.5407333"><ele>137.0</ele><time>2026-05-03T08:33:23.59Z</time></trkpt><trkpt lat="45.38164" lon="10.540825"><ele>137.0</ele><time>2026-05-03T08:33:26.593Z</time></trkpt><trkpt lat="45.38157" lon="10.5408917"><ele>137.0</ele><time>2026-05-03T08:33:28.593Z</time></trkpt><trkpt lat="45.3815067" lon="10.54095"><ele>137.0</ele><time>2026-05-03T08:33:30.594Z</time></trkpt><trkpt lat="45.381445" lon="10.5409917"><ele>137.0</ele><time>2026-05-03T08:33:32.594Z</time></trkpt><trkpt lat="45.3813833" lon="10.5410333"><ele>137.0</ele><time>2026-05-03T08:33:34.591Z</time></trkpt><trkpt lat="45.3813133" lon="10.5410833"><ele>137.16666666666666</ele><time>2026-05-03T08:33:36.594Z</time></trkpt><trkpt lat="45.3812417" lon="10.5411217"><ele>137.33333333333331</ele><time>2026-05-03T08:33:38.6Z</time></trkpt><trkpt lat="45.3811767" lon="10.5411667"><ele>137.5</ele><time>2026-05-03T08:33:40.594Z</time></trkpt><trkpt lat="45.3810967" lon="10.5412017"><ele>137.66666666666666</ele><time>2026-05-03T08:33:42.591Z</time></trkpt><trkpt lat="45.3810033" lon="10.5412167"><ele>137.83333333333334</ele><time>2026-05-03T08:33:44.594Z</time></trkpt><trkpt lat="45.3809133" lon="10.5412133"><ele>138.0</ele><time>2026-05-03T08:33:46.602Z</time></trkpt><trkpt lat="45.3808333" lon="10.5411917"><ele>138.0</ele><time>2026-05-03T08:33:48.596Z</time></trkpt><trkpt lat="45.3807467" lon="10.54116"><ele>138.0</ele><time>2026-05-03T08:33:50.595Z</time></trkpt><trkpt lat="45.380665" lon="10.54109"><ele>138.0</ele><time>2026-05-03T08:33:52.596Z</time></trkpt><trkpt lat="45.3806117" lon="10.5409867"><ele>138.0</ele><time>2026-05-03T08:33:54.596Z</time></trkpt><trkpt lat="45.380635" lon="10.5408833"><ele>138.0</ele><time>2026-05-03T08:33:56.594Z</time></trkpt><trkpt lat="45.38072" lon="10.5408067"><ele>138.0</ele><time>2026-05-03T08:33:58.597Z</time></trkpt><trkpt lat="45.3807733" lon="10.5407017"><ele>138.0</ele><time>2026-05-03T08:34:00.599Z</time></trkpt><trkpt lat="45.3808233" lon="10.5406033"><ele>138.0</ele><time>2026-05-03T08:34:02.598Z</time></trkpt><trkpt lat="45.3808767" lon="10.54053"><ele>138.0</ele><time>2026-05-03T08:34:04.6Z</time></trkpt><trkpt lat="45.38089" lon="10.5404267"><ele>138.0</ele><time>2026-05-03T08:34:06.593Z</time></trkpt><trkpt lat="45.38087" lon="10.5402983"><ele>138.0</ele><time>2026-05-03T08:34:08.591Z</time></trkpt><trkpt lat="45.38082" lon="10.54015"><ele>138.0</ele><time>2026-05-03T08:34:10.6Z</time></trkpt><trkpt lat="45.3807967" lon="10.540065"><ele>138.0</ele><time>2026-05-03T08:34:11.596Z</time></trkpt><trkpt lat="45.3807933" lon="10.5399133"><ele>138.0</ele><time>2026-05-03T08:34:13.601Z</time></trkpt><trkpt lat="45.380825" lon="10.5398117"><ele>138.0</ele><time>2026-05-03T08:34:15.601Z</time></trkpt><trkpt lat="45.38086" lon="10.5397233"><ele>138.0</ele><time>2026-05-03T08:34:17.6Z</time></trkpt><trkpt lat="45.3809" lon="10.539615"><ele>138.0</ele><time>2026-05-03T08:34:19.598Z</time></trkpt><trkpt lat="45.38093" lon="10.5395167"><ele>138.5</ele><time>2026-05-03T08:34:21.594Z</time></trkpt><trkpt lat="45.38096" lon="10.5394067"><ele>139.0</ele><time>2026-05-03T08:34:23.583Z</time></trkpt><trkpt lat="45.38098" lon="10.5392817"><ele>139.5</ele><time>2026-05-03T08:34:25.592Z</time></trkpt><trkpt lat="45.3809883" lon="10.539165"><ele>140.0</ele><time>2026-05-03T08:34:27.663Z</time></trkpt><trkpt lat="45.3809817" lon="10.5390483"><ele>140.5</ele><time>2026-05-03T08:34:29.596Z</time></trkpt><trkpt lat="45.3809733" lon="10.5389333"><ele>141.0</ele><time>2026-05-03T08:34:31.588Z</time></trkpt><trkpt lat="45.38097" lon="10.53882"><ele>141.16666666666666</ele><time>2026-05-03T08:34:33.589Z</time></trkpt><trkpt lat="45.3809483" lon="10.5387133"><ele>141.33333333333334</ele><time>2026-05-03T08:34:35.592Z</time></trkpt><trkpt lat="45.3809433" lon="10.5386133"><ele>141.5</ele><time>2026-05-03T08:34:37.593Z</time></trkpt><trkpt lat="45.38093" lon="10.5385017"><ele>141.66666666666669</ele><time>2026-05-03T08:34:39.591Z</time></trkpt><trkpt lat="45.3809317" lon="10.5383783"><ele>141.83333333333334</ele><time>2026-05-03T08:34:41.588Z</time></trkpt><trkpt lat="45.38093" lon="10.5382517"><ele>142.0</ele><time>2026-05-03T08:34:43.592Z</time></trkpt><trkpt lat="45.3809217" lon="10.5381433"><ele>142.0</ele><time>2026-05-03T08:34:45.588Z</time></trkpt><trkpt lat="45.380925" lon="10.5380267"><ele>142.0</ele><time>2026-05-03T08:34:47.592Z</time></trkpt><trkpt lat="45.38092" lon="10.5379083"><ele>142.0</ele><time>2026-05-03T08:34:49.591Z</time></trkpt><trkpt lat="45.3809017" lon="10.5377833"><ele>142.0</ele><time>2026-05-03T08:34:51.589Z</time></trkpt><trkpt lat="45.3808783" lon="10.53765"><ele>142.0</ele><time>2026-05-03T08:34:53.59Z</time></trkpt><trkpt lat="45.3808533" lon="10.5375433"><ele>142.0</ele><time>2026-05-03T08:34:55.592Z</time></trkpt><trkpt lat="45.380835" lon="10.5374233"><ele>142.33333333333334</ele><time>2026-05-03T08:34:57.59Z</time></trkpt><trkpt lat="45.380835" lon="10.5373017"><ele>142.66666666666669</ele><time>2026-05-03T08:34:59.593Z</time></trkpt><trkpt lat="45.38085" lon="10.537195"><ele>143.0</ele><time>2026-05-03T08:35:01.593Z</time></trkpt><trkpt lat="45.38087" lon="10.5371017"><ele>143.33333333333334</ele><time>2026-05-03T08:35:03.597Z</time></trkpt><trkpt lat="45.3809083" lon="10.5369867"><ele>143.66666666666666</ele><time>2026-05-03T08:35:05.595Z</time></trkpt><trkpt lat="45.38095" lon="10.536875"><ele>144.0</ele><time>2026-05-03T08:35:07.597Z</time></trkpt><trkpt lat="45.3809833" lon="10.536775"><ele>144.57142857142858</ele><time>2026-05-03T08:35:09.589Z</time></trkpt><trkpt lat="45.38101" lon="10.5366683"><ele>145.14285714285714</ele><time>2026-05-03T08:35:11.596Z</time></trkpt><trkpt lat="45.3810267" lon="10.5365667"><ele>145.71428571428572</ele><time>2026-05-03T08:35:13.591Z</time></trkpt><trkpt lat="45.3810333" lon="10.5364617"><ele>146.28571428571428</ele><time>2026-05-03T08:35:15.595Z</time></trkpt><trkpt lat="45.3810417" lon="10.53636"><ele>146.85714285714286</ele><time>2026-05-03T08:35:17.599Z</time></trkpt><trkpt lat="45.3810667" lon="10.5362633"><ele>147.42857142857144</ele><time>2026-05-03T08:35:19.598Z</time></trkpt><trkpt lat="45.3811" lon="10.5361783"><ele>148.0</ele><time>2026-05-03T08:35:21.592Z</time></trkpt><trkpt lat="45.38112" lon="10.536085"><ele>149.16666666666669</ele><time>2026-05-03T08:35:23.603Z</time></trkpt><trkpt lat="45.3811217" lon="10.5359817"><ele>150.33333333333334</ele><time>2026-05-03T08:35:25.592Z</time></trkpt><trkpt lat="45.3811167" lon="10.535885"><ele>151.5</ele><time>2026-05-03T08:35:27.598Z</time></trkpt><trkpt lat="45.381045" lon="10.5358117"><ele>152.66666666666666</ele><time>2026-05-03T08:35:30.599Z</time></trkpt><trkpt lat="45.38099" lon="10.5357533"><ele>153.83333333333331</ele><time>2026-05-03T08:35:32.592Z</time></trkpt><trkpt lat="45.3809367" lon="10.5356983"><ele>155.0</ele><time>2026-05-03T08:35:34.591Z</time></trkpt><trkpt lat="45.3808533" lon="10.535635"><ele>155.0</ele><time>2026-05-03T08:35:37.592Z</time></trkpt><trkpt lat="45.3807967" lon="10.535585"><ele>155.0</ele><time>2026-05-03T08:35:39.593Z</time></trkpt><trkpt lat="45.380735" lon="10.53554"><ele>155.0</ele><time>2026-05-03T08:35:41.591Z</time></trkpt><trkpt lat="45.3806567" lon="10.53551"><ele>155.0</ele><time>2026-05-03T08:35:44.591Z</time></trkpt><trkpt lat="45.3805833" lon="10.5355883"><ele>155.0</ele><time>2026-05-03T08:35:47.587Z</time></trkpt><trkpt lat="45.3805167" lon="10.5356833"><ele>155.0</ele><time>2026-05-03T08:35:50.598Z</time></trkpt><trkpt lat="45.380475" lon="10.5357533"><ele>155.28571428571428</ele><time>2026-05-03T08:35:52.591Z</time></trkpt><trkpt lat="45.3804367" lon="10.535825"><ele>155.57142857142856</ele><time>2026-05-03T08:35:54.592Z</time></trkpt><trkpt lat="45.3804033" lon="10.5359017"><ele>155.85714285714283</ele><time>2026-05-03T08:35:56.599Z</time></trkpt><trkpt lat="45.38037" lon="10.53598"><ele>156.14285714285714</ele><time>2026-05-03T08:35:58.592Z</time></trkpt><trkpt lat="45.380325" lon="10.5360867"><ele>156.42857142857142</ele><time>2026-05-03T08:36:01.603Z</time></trkpt><trkpt lat="45.38029" lon="10.536175"><ele>156.7142857142857</ele><time>2026-05-03T08:36:04.599Z</time></trkpt><trkpt lat="45.3802333" lon="10.5362417"><ele>157.0</ele><time>2026-05-03T08:36:08.6Z</time></trkpt><trkpt lat="45.3801933" lon="10.5361667"><ele>158.66666666666669</ele><time>2026-05-03T08:36:11.592Z</time></trkpt><trkpt lat="45.3801783" lon="10.5360583"><ele>160.33333333333334</ele><time>2026-05-03T08:36:15.598Z</time></trkpt><trkpt lat="45.3801583" lon="10.535945"><ele>162.0</ele><time>2026-05-03T08:36:19.597Z</time></trkpt><trkpt lat="45.3801583" lon="10.5358283"><ele>163.66666666666666</ele><time>2026-05-03T08:36:23.59Z</time></trkpt><trkpt lat="45.3801533" lon="10.5357367"><ele>165.33333333333331</ele><time>2026-05-03T08:36:26.593Z</time></trkpt><trkpt lat="45.380155" lon="10.5356333"><ele>167.0</ele><time>2026-05-03T08:36:29.59Z</time></trkpt><trkpt lat="45.3801533" lon="10.5355267"><ele>167.0</ele><time>2026-05-03T08:36:33.599Z</time></trkpt><trkpt lat="45.3801567" lon="10.5354167"><ele>167.0</ele><time>2026-05-03T08:36:36.594Z</time></trkpt><trkpt lat="45.3801733" lon="10.53532"><ele>167.0</ele><time>2026-05-03T08:36:39.594Z</time></trkpt><trkpt lat="45.38018" lon="10.5352217"><ele>167.0</ele><time>2026-05-03T08:36:42.597Z</time></trkpt><trkpt lat="45.380175" lon="10.5350917"><ele>167.0</ele><time>2026-05-03T08:36:45.599Z</time></trkpt><trkpt lat="45.3801983" lon="10.5349917"><ele>167.0</ele><time>2026-05-03T08:36:48.593Z</time></trkpt><trkpt lat="45.3802217" lon="10.5349033"><ele>167.0</ele><time>2026-05-03T08:36:50.599Z</time></trkpt><trkpt lat="45.380245" lon="10.5347783"><ele>168.5</ele><time>2026-05-03T08:36:53.595Z</time></trkpt><trkpt lat="45.3802633" lon="10.534665"><ele>170.0</ele><time>2026-05-03T08:36:56.598Z</time></trkpt><trkpt lat="45.38031" lon="10.5345333"><ele>171.5</ele><time>2026-05-03T08:36:59.592Z</time></trkpt><trkpt lat="45.38034" lon="10.5344317"><ele>173.0</ele><time>2026-05-03T08:37:01.601Z</time></trkpt><trkpt lat="45.38036" lon="10.5343333"><ele>174.5</ele><time>2026-05-03T08:37:03.588Z</time></trkpt><trkpt lat="45.38038" lon="10.5342283"><ele>176.0</ele><time>2026-05-03T08:37:05.599Z</time></trkpt><trkpt lat="45.3803883" lon="10.5341117"><ele>176.66666666666666</ele><time>2026-05-03T08:37:07.591Z</time></trkpt><trkpt lat="45.3804117" lon="10.534"><ele>177.33333333333331</ele><time>2026-05-03T08:37:09.593Z</time></trkpt><trkpt lat="45.3804167" lon="10.5339083"><ele>178.0</ele><time>2026-05-03T08:37:12.594Z</time></trkpt><trkpt lat="45.3804083" lon="10.5337833"><ele>178.66666666666666</ele><time>2026-05-03T08:37:16.592Z</time></trkpt><trkpt lat="45.3804" lon="10.5336917"><ele>179.33333333333334</ele><time>2026-05-03T08:37:19.599Z</time></trkpt><trkpt lat="45.3803417" lon="10.533605"><ele>180.0</ele><time>2026-05-03T08:37:25.593Z</time></trkpt><trkpt lat="45.38028" lon="10.53353"><ele>180.0</ele><time>2026-05-03T08:37:28.597Z</time></trkpt><trkpt lat="45.380215" lon="10.5334533"><ele>180.0</ele><time>2026-05-03T08:37:31.599Z</time></trkpt><trkpt lat="45.3802017" lon="10.5333283"><ele>180.0</ele><time>2026-05-03T08:37:36.59Z</time></trkpt><trkpt lat="45.3802383" lon="10.533235"><ele>180.0</ele><time>2026-05-03T08:37:39.589Z</time></trkpt><trkpt lat="45.3802683" lon="10.533155"><ele>180.0</ele><time>2026-05-03T08:37:41.59Z</time></trkpt><trkpt lat="45.38034" lon="10.53307"><ele>180.0</ele><time>2026-05-03T08:37:44.594Z</time></trkpt><trkpt lat="45.3803883" lon="10.533005"><ele>180.0</ele><time>2026-05-03T08:37:46.593Z</time></trkpt><trkpt lat="45.3804383" lon="10.5329267"><ele>180.0</ele><time>2026-05-03T08:37:49.591Z</time></trkpt><trkpt lat="45.380485" lon="10.5328"><ele>180.0</ele><time>2026-05-03T08:37:52.599Z</time></trkpt><trkpt lat="45.3805167" lon="10.532715"><ele>180.0</ele><time>2026-05-03T08:37:54.599Z</time></trkpt><trkpt lat="45.380565" lon="10.53264"><ele>180.0</ele><time>2026-05-03T08:37:56.59Z</time></trkpt><trkpt lat="45.3806067" lon="10.5325617"><ele>180.0</ele><time>2026-05-03T08:37:58.597Z</time></trkpt><trkpt lat="45.3806567" lon="10.5324633"><ele>177.85714285714286</ele><time>2026-05-03T08:38:00.594Z</time></trkpt><trkpt lat="45.3807017" lon="10.5324"><ele>175.71428571428572</ele><time>2026-05-03T08:38:02.594Z</time></trkpt><trkpt lat="45.380755" lon="10.5323233"><ele>173.57142857142858</ele><time>2026-05-03T08:38:05.602Z</time></trkpt><trkpt lat="45.38079" lon="10.532235"><ele>171.42857142857144</ele><time>2026-05-03T08:38:08.589Z</time></trkpt><trkpt lat="45.38082" lon="10.5321333"><ele>169.28571428571428</ele><time>2026-05-03T08:38:11.591Z</time></trkpt><trkpt lat="45.38086" lon="10.5320367"><ele>167.14285714285717</ele><time>2026-05-03T08:38:16.589Z</time></trkpt><trkpt lat="45.380875" lon="10.5319333"><ele>165.0</ele><time>2026-05-03T08:38:19.598Z</time></trkpt><trkpt lat="45.3808967" lon="10.53184"><ele>165.0</ele><time>2026-05-03T08:38:21.593Z</time></trkpt><trkpt lat="45.380925" lon="10.5317267"><ele>165.0</ele><time>2026-05-03T08:38:23.602Z</time></trkpt><trkpt lat="45.3809733" lon="10.5316"><ele>165.0</ele><time>2026-05-03T08:38:25.597Z</time></trkpt><trkpt lat="45.3810083" lon="10.5314817"><ele>165.0</ele><time>2026-05-03T08:38:27.597Z</time></trkpt><trkpt lat="45.3810283" lon="10.5313767"><ele>165.0</ele><time>2026-05-03T08:38:29.589Z</time></trkpt><trkpt lat="45.3810467" lon="10.5312833"><ele>165.0</ele><time>2026-05-03T08:38:31.593Z</time></trkpt><trkpt lat="45.381045" lon="10.5311783"><ele>164.14285714285717</ele><time>2026-05-03T08:38:33.593Z</time></trkpt><trkpt lat="45.3810367" lon="10.531075"><ele>163.28571428571428</ele><time>2026-05-03T08:38:35.601Z</time></trkpt><trkpt lat="45.3810283" lon="10.5309617"><ele>162.42857142857144</ele><time>2026-05-03T08:38:37.59Z</time></trkpt><trkpt lat="45.38101" lon="10.53085"><ele>161.57142857142858</ele><time>2026-05-03T08:38:39.592Z</time></trkpt><trkpt lat="45.3809917" lon="10.5307533"><ele>160.71428571428572</ele><time>2026-05-03T08:38:41.601Z</time></trkpt><trkpt lat="45.38101" lon="10.53066"><ele>159.85714285714286</ele><time>2026-05-03T08:38:43.595Z</time></trkpt><trkpt lat="45.381" lon="10.5305633"><ele>159.0</ele><time>2026-05-03T08:38:45.597Z</time></trkpt><trkpt lat="45.3809433" lon="10.5304817"><ele>157.83333333333334</ele><time>2026-05-03T08:38:48.594Z</time></trkpt><trkpt lat="45.38089" lon="10.530385"><ele>156.66666666666666</ele><time>2026-05-03T08:38:51.591Z</time></trkpt><trkpt lat="45.3808167" lon="10.5303383"><ele>155.5</ele><time>2026-05-03T08:38:55.599Z</time></trkpt><trkpt lat="45.38077" lon="10.5302433"><ele>154.33333333333331</ele><time>2026-05-03T08:38:59.589Z</time></trkpt><trkpt lat="45.380735" lon="10.5301683"><ele>153.16666666666666</ele><time>2026-05-03T08:39:01.599Z</time></trkpt><trkpt lat="45.380725" lon="10.5300717"><ele>152.0</ele><time>2026-05-03T08:39:03.596Z</time></trkpt><trkpt lat="45.3807017" lon="10.52992"><ele>152.0</ele><time>2026-05-03T08:39:05.596Z</time></trkpt><trkpt lat="45.380685" lon="10.52979"><ele>152.0</ele><time>2026-05-03T08:39:07.598Z</time></trkpt><trkpt lat="45.3806717" lon="10.5297017"><ele>152.0</ele><time>2026-05-03T08:39:09.592Z</time></trkpt><trkpt lat="45.3806633" lon="10.529585"><ele>152.0</ele><time>2026-05-03T08:39:11.59Z</time></trkpt><trkpt lat="45.3806683" lon="10.5294783"><ele>152.0</ele><time>2026-05-03T08:39:13.601Z</time></trkpt><trkpt lat="45.3806533" lon="10.5293217"><ele>152.0</ele><time>2026-05-03T08:39:15.59Z</time></trkpt><trkpt lat="45.3806317" lon="10.5291717"><ele>150.4</ele><time>2026-05-03T08:39:17.593Z</time></trkpt><trkpt lat="45.3806317" lon="10.5289983"><ele>148.79999999999998</ele><time>2026-05-03T08:39:19.592Z</time></trkpt><trkpt lat="45.3806283" lon="10.528905"><ele>147.2</ele><time>2026-05-03T08:39:20.59Z</time></trkpt><trkpt lat="45.380585" lon="10.5287567"><ele>145.6</ele><time>2026-05-03T08:39:22.595Z</time></trkpt><trkpt lat="45.3805217" lon="10.5286483"><ele>144.0</ele><time>2026-05-03T08:39:24.593Z</time></trkpt><trkpt lat="45.3804717" lon="10.5285633"><ele>143.33333333333334</ele><time>2026-05-03T08:39:26.599Z</time></trkpt><trkpt lat="45.380425" lon="10.528495"><ele>142.66666666666666</ele><time>2026-05-03T08:39:28.595Z</time></trkpt><trkpt lat="45.3803567" lon="10.5284267"><ele>142.0</ele><time>2026-05-03T08:39:30.596Z</time></trkpt><trkpt lat="45.380295" lon="10.52839"><ele>141.33333333333331</ele><time>2026-05-03T08:39:32.59Z</time></trkpt><trkpt lat="45.3802017" lon="10.5283817"><ele>140.66666666666666</ele><time>2026-05-03T08:39:35.597Z</time></trkpt><trkpt lat="45.3801217" lon="10.5283817"><ele>140.0</ele><time>2026-05-03T08:39:38.597Z</time></trkpt><trkpt lat="45.3800533" lon="10.5283233"><ele>140.0</ele><time>2026-05-03T08:39:41.595Z</time></trkpt><trkpt lat="45.3800017" lon="10.5282133"><ele>140.0</ele><time>2026-05-03T08:39:44.597Z</time></trkpt><trkpt lat="45.3799633" lon="10.5281167"><ele>140.0</ele><time>2026-05-03T08:39:46.599Z</time></trkpt><trkpt lat="45.3799133" lon="10.5279933"><ele>140.0</ele><time>2026-05-03T08:39:48.6Z</time></trkpt><trkpt lat="45.379845" lon="10.527865"><ele>140.0</ele><time>2026-05-03T08:39:50.593Z</time></trkpt><trkpt lat="45.3797867" lon="10.5277083"><ele>138.33333333333331</ele><time>2026-05-03T08:39:52.589Z</time></trkpt><trkpt lat="45.37975" lon="10.5276067"><ele>136.66666666666666</ele><time>2026-05-03T08:39:53.591Z</time></trkpt><trkpt lat="45.3797167" lon="10.527505"><ele>135.0</ele><time>2026-05-03T08:39:54.594Z</time></trkpt><trkpt lat="45.3796683" lon="10.5274"><ele>133.33333333333334</ele><time>2026-05-03T08:39:55.605Z</time></trkpt><trkpt lat="45.3796133" lon="10.52729"><ele>131.66666666666669</ele><time>2026-05-03T08:39:56.593Z</time></trkpt><trkpt lat="45.37955" lon="10.52718"><ele>130.0</ele><time>2026-05-03T08:39:57.594Z</time></trkpt><trkpt lat="45.3795017" lon="10.52708"><ele>128.83333333333334</ele><time>2026-05-03T08:39:58.594Z</time></trkpt><trkpt lat="45.37945" lon="10.5269633"><ele>127.66666666666667</ele><time>2026-05-03T08:39:59.593Z</time></trkpt><trkpt lat="45.3794017" lon="10.526855"><ele>126.5</ele><time>2026-05-03T08:40:00.578Z</time></trkpt><trkpt lat="45.3793533" lon="10.5267433"><ele>125.33333333333334</ele><time>2026-05-03T08:40:01.585Z</time></trkpt><trkpt lat="45.3793067" lon="10.5266467"><ele>124.16666666666667</ele><time>2026-05-03T08:40:02.59Z</time></trkpt><trkpt lat="45.37927" lon="10.5265733"><ele>123.0</ele><time>2026-05-03T08:40:03.587Z</time></trkpt><trkpt lat="45.3792083" lon="10.5264433"><ele>123.0</ele><time>2026-05-03T08:40:05.587Z</time></trkpt><trkpt lat="45.3791833" lon="10.52635"><ele>123.0</ele><time>2026-05-03T08:40:08.59Z</time></trkpt><trkpt lat="45.3791217" lon="10.5262583"><ele>123.0</ele><time>2026-05-03T08:40:12.589Z</time></trkpt><trkpt lat="45.3790667" lon="10.5262083"><ele>123.0</ele><time>2026-05-03T08:40:14.59Z</time></trkpt><trkpt lat="45.3790217" lon="10.5261233"><ele>123.0</ele><time>2026-05-03T08:40:16.598Z</time></trkpt><trkpt lat="45.3789783" lon="10.52603"><ele>123.0</ele><time>2026-05-03T08:40:18.597Z</time></trkpt><trkpt lat="45.3789367" lon="10.5259383"><ele>122.83333333333333</ele><time>2026-05-03T08:40:20.591Z</time></trkpt><trkpt lat="45.378895" lon="10.5258483"><ele>122.66666666666666</ele><time>2026-05-03T08:40:22.596Z</time></trkpt><trkpt lat="45.3788517" lon="10.5257483"><ele>122.5</ele><time>2026-05-03T08:40:24.595Z</time></trkpt><trkpt lat="45.3788167" lon="10.5256533"><ele>122.33333333333333</ele><time>2026-05-03T08:40:26.599Z</time></trkpt><trkpt lat="45.3787833" lon="10.525555"><ele>122.16666666666666</ele><time>2026-05-03T08:40:28.593Z</time></trkpt><trkpt lat="45.3787617" lon="10.5254517"><ele>122.0</ele><time>2026-05-03T08:40:30.598Z</time></trkpt><trkpt lat="45.3787533" lon="10.52534"><ele>122.66666666666666</ele><time>2026-05-03T08:40:32.591Z</time></trkpt><trkpt lat="45.378765" lon="10.5252167"><ele>123.33333333333333</ele><time>2026-05-03T08:40:34.588Z</time></trkpt><trkpt lat="45.3787833" lon="10.5251167"><ele>124.0</ele><time>2026-05-03T08:40:36.594Z</time></trkpt><trkpt lat="45.3787883" lon="10.5250267"><ele>124.66666666666666</ele><time>2026-05-03T08:40:38.597Z</time></trkpt><trkpt lat="45.378795" lon="10.5249217"><ele>125.33333333333333</ele><time>2026-05-03T08:40:40.599Z</time></trkpt><trkpt lat="45.378775" lon="10.5248033"><ele>126.0</ele><time>2026-05-03T08:40:42.593Z</time></trkpt><trkpt lat="45.37875" lon="10.5246617"><ele>125.8</ele><time>2026-05-03T08:40:44.594Z</time></trkpt><trkpt lat="45.3787133" lon="10.5245417"><ele>125.6</ele><time>2026-05-03T08:40:46.598Z</time></trkpt><trkpt lat="45.378695" lon="10.5244283"><ele>125.4</ele><time>2026-05-03T08:40:48.595Z</time></trkpt><trkpt lat="45.3786683" lon="10.524305"><ele>125.2</ele><time>2026-05-03T08:40:50.599Z</time></trkpt><trkpt lat="45.3786483" lon="10.5241767"><ele>125.0</ele><time>2026-05-03T08:40:52.598Z</time></trkpt><trkpt lat="45.37869" lon="10.52405"><ele>125.0</ele><time>2026-05-03T08:40:54.597Z</time></trkpt><trkpt lat="45.37875" lon="10.5239267"><ele>125.0</ele><time>2026-05-03T08:40:56.594Z</time></trkpt><trkpt lat="45.37882" lon="10.5238117"><ele>125.0</ele><time>2026-05-03T08:40:58.595Z</time></trkpt><trkpt lat="45.3788833" lon="10.5236917"><ele>125.0</ele><time>2026-05-03T08:41:00.594Z</time></trkpt><trkpt lat="45.378935" lon="10.5235733"><ele>125.0</ele><time>2026-05-03T08:41:02.598Z</time></trkpt><trkpt lat="45.3789817" lon="10.5234533"><ele>124.6</ele><time>2026-05-03T08:41:04.598Z</time></trkpt><trkpt lat="45.3790267" lon="10.52333"><ele>124.2</ele><time>2026-05-03T08:41:06.59Z</time></trkpt><trkpt lat="45.3790733" lon="10.523215"><ele>123.80000000000001</ele><time>2026-05-03T08:41:08.594Z</time></trkpt><trkpt lat="45.3791233" lon="10.5230833"><ele>123.4</ele><time>2026-05-03T08:41:10.594Z</time></trkpt><trkpt lat="45.3791883" lon="10.5229633"><ele>123.0</ele><time>2026-05-03T08:41:12.595Z</time></trkpt><trkpt lat="45.379265" lon="10.5228583"><ele>123.0</ele><time>2026-05-03T08:41:14.591Z</time></trkpt><trkpt lat="45.3793467" lon="10.5227717"><ele>123.00000000000001</ele><time>2026-05-03T08:41:16.597Z</time></trkpt><trkpt lat="45.379435" lon="10.5227017"><ele>123.00000000000001</ele><time>2026-05-03T08:41:18.593Z</time></trkpt><trkpt lat="45.379525" lon="10.52264"><ele>123.0</ele><time>2026-05-03T08:41:20.597Z</time></trkpt><trkpt lat="45.37961" lon="10.52257"><ele>123.0</ele><time>2026-05-03T08:41:22.599Z</time></trkpt><trkpt lat="45.3796783" lon="10.5224767"><ele>122.60000000000001</ele><time>2026-05-03T08:41:24.599Z</time></trkpt><trkpt lat="45.3797533" lon="10.5223817"><ele>122.20000000000002</ele><time>2026-05-03T08:41:26.598Z</time></trkpt><trkpt lat="45.3798283" lon="10.52229"><ele>121.8</ele><time>2026-05-03T08:41:28.599Z</time></trkpt><trkpt lat="45.3799117" lon="10.5222133"><ele>121.4</ele><time>2026-05-03T08:41:30.597Z</time></trkpt><trkpt lat="45.3800033" lon="10.5221383"><ele>121.0</ele><time>2026-05-03T08:41:32.597Z</time></trkpt><trkpt lat="45.3800917" lon="10.5220667"><ele>121.6</ele><time>2026-05-03T08:41:34.601Z</time></trkpt><trkpt lat="45.3801733" lon="10.5219967"><ele>122.19999999999999</ele><time>2026-05-03T08:41:36.599Z</time></trkpt><trkpt lat="45.3802517" lon="10.5219283"><ele>122.80000000000001</ele><time>2026-05-03T08:41:38.598Z</time></trkpt><trkpt lat="45.38033" lon="10.5218567"><ele>123.4</ele><time>2026-05-03T08:41:40.601Z</time></trkpt><trkpt lat="45.3804017" lon="10.5217767"><ele>124.0</ele><time>2026-05-03T08:41:42.594Z</time></trkpt><trkpt lat="45.3804767" lon="10.5216983"><ele>123.6</ele><time>2026-05-03T08:41:44.594Z</time></trkpt><trkpt lat="45.38055" lon="10.5216183"><ele>123.2</ele><time>2026-05-03T08:41:46.59Z</time></trkpt><trkpt lat="45.380625" lon="10.5215367"><ele>122.79999999999998</ele><time>2026-05-03T08:41:48.591Z</time></trkpt><trkpt lat="45.380695" lon="10.52145"><ele>122.39999999999999</ele><time>2026-05-03T08:41:50.6Z</time></trkpt><trkpt lat="45.3807767" lon="10.5213617"><ele>122.0</ele><time>2026-05-03T08:41:52.593Z</time></trkpt><trkpt lat="45.3808517" lon="10.5212817"><ele>123.66666666666666</ele><time>2026-05-03T08:41:54.598Z</time></trkpt><trkpt lat="45.3809167" lon="10.52121"><ele>125.33333333333333</ele><time>2026-05-03T08:41:56.589Z</time></trkpt><trkpt lat="45.3809567" lon="10.5211117"><ele>127.0</ele><time>2026-05-03T08:41:59.596Z</time></trkpt><trkpt lat="45.3808967" lon="10.5210483"><ele>128.66666666666666</ele><time>2026-05-03T08:42:02.588Z</time></trkpt><trkpt lat="45.3808317" lon="10.521015"><ele>130.33333333333334</ele><time>2026-05-03T08:42:04.587Z</time></trkpt><trkpt lat="45.380765" lon="10.5209767"><ele>132.0</ele><time>2026-05-03T08:42:06.592Z</time></trkpt><trkpt lat="45.3806983" lon="10.5209333"><ele>132.0</ele><time>2026-05-03T08:42:08.59Z</time></trkpt><trkpt lat="45.38063" lon="10.5208767"><ele>132.0</ele><time>2026-05-03T08:42:10.597Z</time></trkpt><trkpt lat="45.380545" lon="10.52084"><ele>132.0</ele><time>2026-05-03T08:42:12.594Z</time></trkpt><trkpt lat="45.3804767" lon="10.5207833"><ele>132.0</ele><time>2026-05-03T08:42:14.596Z</time></trkpt><trkpt lat="45.38041" lon="10.5207383"><ele>132.0</ele><time>2026-05-03T08:42:16.589Z</time></trkpt><trkpt lat="45.38034" lon="10.52069"><ele>132.0</ele><time>2026-05-03T08:42:18.592Z</time></trkpt><trkpt lat="45.38028" lon="10.5206317"><ele>132.0</ele><time>2026-05-03T08:42:20.589Z</time></trkpt><trkpt lat="45.3802083" lon="10.520545"><ele>132.0</ele><time>2026-05-03T08:42:23.599Z</time></trkpt><trkpt lat="45.3801567" lon="10.5204917"><ele>132.0</ele><time>2026-05-03T08:42:25.602Z</time></trkpt><trkpt lat="45.380105" lon="10.5204233"><ele>132.0</ele><time>2026-05-03T08:42:27.587Z</time></trkpt><trkpt lat="45.3800583" lon="10.52035"><ele>132.0</ele><time>2026-05-03T08:42:29.595Z</time></trkpt><trkpt lat="45.38001" lon="10.5202867"><ele>132.0</ele><time>2026-05-03T08:42:31.59Z</time></trkpt><trkpt lat="45.3799517" lon="10.5202183"><ele>132.0</ele><time>2026-05-03T08:42:33.587Z</time></trkpt><trkpt lat="45.3798883" lon="10.5201583"><ele>132.0</ele><time>2026-05-03T08:42:35.598Z</time></trkpt><trkpt lat="45.3798167" lon="10.5201467"><ele>132.0</ele><time>2026-05-03T08:42:37.601Z</time></trkpt><trkpt lat="45.3797467" lon="10.52019"><ele>132.0</ele><time>2026-05-03T08:42:39.588Z</time></trkpt><trkpt lat="45.3796667" lon="10.520235"><ele>132.0</ele><time>2026-05-03T08:42:41.598Z</time></trkpt><trkpt lat="45.379585" lon="10.5202533"><ele>132.0</ele><time>2026-05-03T08:42:43.602Z</time></trkpt><trkpt lat="45.379505" lon="10.5202267"><ele>132.0</ele><time>2026-05-03T08:42:45.598Z</time></trkpt><trkpt lat="45.3794383" lon="10.5201817"><ele>131.85714285714286</ele><time>2026-05-03T08:42:47.598Z</time></trkpt><trkpt lat="45.37938" lon="10.5201317"><ele>131.71428571428572</ele><time>2026-05-03T08:42:49.6Z</time></trkpt><trkpt lat="45.3793217" lon="10.520075"><ele>131.57142857142858</ele><time>2026-05-03T08:42:51.597Z</time></trkpt><trkpt lat="45.379255" lon="10.52002"><ele>131.42857142857144</ele><time>2026-05-03T08:42:53.589Z</time></trkpt><trkpt lat="45.3791917" lon="10.519965"><ele>131.2857142857143</ele><time>2026-05-03T08:42:55.603Z</time></trkpt><trkpt lat="45.3791283" lon="10.519925"><ele>131.14285714285714</ele><time>2026-05-03T08:42:57.596Z</time></trkpt><trkpt lat="45.3790583" lon="10.5198617"><ele>131.0</ele><time>2026-05-03T08:43:00.588Z</time></trkpt><trkpt lat="45.37907" lon="10.51976"><ele>131.0</ele><time>2026-05-03T08:43:04.591Z</time></trkpt><trkpt lat="45.3791167" lon="10.519685"><ele>131.0</ele><time>2026-05-03T08:43:08.596Z</time></trkpt><trkpt lat="45.3791667" lon="10.519605"><ele>131.0</ele><time>2026-05-03T08:43:12.591Z</time></trkpt><trkpt lat="45.3792183" lon="10.51955"><ele>131.0</ele><time>2026-05-03T08:43:15.594Z</time></trkpt><trkpt lat="45.3792733" lon="10.519485"><ele>131.0</ele><time>2026-05-03T08:43:18.594Z</time></trkpt><trkpt lat="45.3793217" lon="10.5194267"><ele>131.0</ele><time>2026-05-03T08:43:21.597Z</time></trkpt><trkpt lat="45.3793233" lon="10.5193183"><ele>131.0</ele><time>2026-05-03T08:43:28.598Z</time></trkpt><trkpt lat="45.3793233" lon="10.5192217"><ele>133.16666666666666</ele><time>2026-05-03T08:43:32.592Z</time></trkpt><trkpt lat="45.379355" lon="10.519055"><ele>135.33333333333331</ele><time>2026-05-03T08:43:39.59Z</time></trkpt><trkpt lat="45.37938" lon="10.5189567"><ele>137.5</ele><time>2026-05-03T08:43:42.59Z</time></trkpt><trkpt lat="45.3794233" lon="10.518885"><ele>139.66666666666666</ele><time>2026-05-03T08:43:45.589Z</time></trkpt><trkpt lat="45.3794617" lon="10.5188133"><ele>141.83333333333334</ele><time>2026-05-03T08:43:48.59Z</time></trkpt><trkpt lat="45.379515" lon="10.518735"><ele>144.0</ele><time>2026-05-03T08:43:51.591Z</time></trkpt><trkpt lat="45.37957" lon="10.51864"><ele>145.5</ele><time>2026-05-03T08:43:54.589Z</time></trkpt><trkpt lat="45.3796117" lon="10.5185267"><ele>147.0</ele><time>2026-05-03T08:43:57.597Z</time></trkpt><trkpt lat="45.37965" lon="10.5184233"><ele>148.5</ele><time>2026-05-03T08:44:00.595Z</time></trkpt><trkpt lat="45.379685" lon="10.5183317"><ele>150.0</ele><time>2026-05-03T08:44:03.592Z</time></trkpt><trkpt lat="45.37973" lon="10.5182533"><ele>151.5</ele><time>2026-05-03T08:44:06.597Z</time></trkpt><trkpt lat="45.3797733" lon="10.5181767"><ele>153.0</ele><time>2026-05-03T08:44:09.595Z</time></trkpt><trkpt lat="45.3798317" lon="10.5181067"><ele>153.0</ele><time>2026-05-03T08:44:12.593Z</time></trkpt><trkpt lat="45.3799017" lon="10.518035"><ele>153.0</ele><time>2026-05-03T08:44:15.591Z</time></trkpt><trkpt lat="45.3799717" lon="10.5179567"><ele>153.0</ele><time>2026-05-03T08:44:18.592Z</time></trkpt><trkpt lat="45.3800283" lon="10.5178683"><ele>153.0</ele><time>2026-05-03T08:44:21.593Z</time></trkpt><trkpt lat="45.3800633" lon="10.5177867"><ele>153.0</ele><time>2026-05-03T08:44:24.593Z</time></trkpt><trkpt lat="45.3801217" lon="10.5177383"><ele>153.0</ele><time>2026-05-03T08:44:27.59Z</time></trkpt><trkpt lat="45.3801917" lon="10.5176967"><ele>154.66666666666666</ele><time>2026-05-03T08:44:29.597Z</time></trkpt><trkpt lat="45.3802667" lon="10.5176417"><ele>156.33333333333334</ele><time>2026-05-03T08:44:31.597Z</time></trkpt><trkpt lat="45.3803383" lon="10.5175683"><ele>158.0</ele><time>2026-05-03T08:44:33.596Z</time></trkpt><trkpt lat="45.3803783" lon="10.5174983"><ele>159.66666666666669</ele><time>2026-05-03T08:44:35.592Z</time></trkpt><trkpt lat="45.38042" lon="10.517415"><ele>161.33333333333334</ele><time>2026-05-03T08:44:38.596Z</time></trkpt><trkpt lat="45.38047" lon="10.5173233"><ele>163.0</ele><time>2026-05-03T08:44:42.598Z</time></trkpt><trkpt lat="45.3805117" lon="10.5172367"><ele>163.14285714285714</ele><time>2026-05-03T08:44:45.596Z</time></trkpt><trkpt lat="45.3805483" lon="10.5171533"><ele>163.28571428571428</ele><time>2026-05-03T08:44:48.596Z</time></trkpt><trkpt lat="45.3805783" lon="10.5170683"><ele>163.42857142857142</ele><time>2026-05-03T08:44:51.597Z</time></trkpt><trkpt lat="45.380615" lon="10.5169617"><ele>163.57142857142856</ele><time>2026-05-03T08:44:56.594Z</time></trkpt><trkpt lat="45.38065" lon="10.5168833"><ele>163.71428571428572</ele><time>2026-05-03T08:44:59.593Z</time></trkpt><trkpt lat="45.380715" lon="10.5168383"><ele>163.85714285714283</ele><time>2026-05-03T08:45:03.593Z</time></trkpt><trkpt lat="45.3807667" lon="10.5167817"><ele>164.0</ele><time>2026-05-03T08:45:06.589Z</time></trkpt><trkpt lat="45.3808133" lon="10.5166967"><ele>164.0</ele><time>2026-05-03T08:45:10.596Z</time></trkpt><trkpt lat="45.380885" lon="10.5166267"><ele>164.0</ele><time>2026-05-03T08:45:13.596Z</time></trkpt><trkpt lat="45.3809533" lon="10.5165817"><ele>164.0</ele><time>2026-05-03T08:45:17.589Z</time></trkpt><trkpt lat="45.3809983" lon="10.5164883"><ele>164.0</ele><time>2026-05-03T08:45:22.587Z</time></trkpt><trkpt lat="45.3810333" lon="10.5164017"><ele>164.0</ele><time>2026-05-03T08:45:25.596Z</time></trkpt><trkpt lat="45.3810817" lon="10.5163083"><ele>164.0</ele><time>2026-05-03T08:45:28.587Z</time></trkpt><trkpt lat="45.3811383" lon="10.5162083"><ele>162.66666666666666</ele><time>2026-05-03T08:45:31.591Z</time></trkpt><trkpt lat="45.3811883" lon="10.516115"><ele>161.33333333333331</ele><time>2026-05-03T08:45:34.586Z</time></trkpt><trkpt lat="45.3812317" lon="10.5160483"><ele>160.0</ele><time>2026-05-03T08:45:39.586Z</time></trkpt><trkpt lat="45.38131" lon="10.515915"><ele>158.66666666666666</ele><time>2026-05-03T08:45:43.589Z</time></trkpt><trkpt lat="45.3813483" lon="10.5158367"><ele>157.33333333333334</ele><time>2026-05-03T08:45:45.587Z</time></trkpt><trkpt lat="45.381395" lon="10.5157333"><ele>156.0</ele><time>2026-05-03T08:45:48.587Z</time></trkpt><trkpt lat="45.3814417" lon="10.515635"><ele>156.0</ele><time>2026-05-03T08:45:51.586Z</time></trkpt><trkpt lat="45.3814967" lon="10.5155383"><ele>156.0</ele><time>2026-05-03T08:45:54.597Z</time></trkpt><trkpt lat="45.38156" lon="10.5154467"><ele>156.0</ele><time>2026-05-03T08:45:57.586Z</time></trkpt><trkpt lat="45.3815983" lon="10.5153667"><ele>156.0</ele><time>2026-05-03T08:45:59.592Z</time></trkpt><trkpt lat="45.3816383" lon="10.515275"><ele>156.0</ele><time>2026-05-03T08:46:02.596Z</time></trkpt><trkpt lat="45.3816783" lon="10.5151717"><ele>156.0</ele><time>2026-05-03T08:46:05.588Z</time></trkpt><trkpt lat="45.3817233" lon="10.515075"><ele>157.33333333333334</ele><time>2026-05-03T08:46:08.589Z</time></trkpt><trkpt lat="45.3817683" lon="10.5149817"><ele>158.66666666666666</ele><time>2026-05-03T08:46:11.594Z</time></trkpt><trkpt lat="45.3818067" lon="10.5148983"><ele>160.0</ele><time>2026-05-03T08:46:14.591Z</time></trkpt><trkpt lat="45.3818483" lon="10.5148033"><ele>161.33333333333331</ele><time>2026-05-03T08:46:17.59Z</time></trkpt><trkpt lat="45.3818783" lon="10.5147067"><ele>162.66666666666666</ele><time>2026-05-03T08:46:19.592Z</time></trkpt><trkpt lat="45.3819317" lon="10.5146017"><ele>164.0</ele><time>2026-05-03T08:46:21.586Z</time></trkpt><trkpt lat="45.3820117" lon="10.5145333"><ele>164.14285714285714</ele><time>2026-05-03T08:46:23.597Z</time></trkpt><trkpt lat="45.382075" lon="10.514465"><ele>164.28571428571428</ele><time>2026-05-03T08:46:25.595Z</time></trkpt><trkpt lat="45.3821317" lon="10.5143867"><ele>164.42857142857144</ele><time>2026-05-03T08:46:27.59Z</time></trkpt><trkpt lat="45.3821883" lon="10.5143217"><ele>164.57142857142856</ele><time>2026-05-03T08:46:29.589Z</time></trkpt><trkpt lat="45.3822417" lon="10.514265"><ele>164.71428571428572</ele><time>2026-05-03T08:46:31.595Z</time></trkpt><trkpt lat="45.3822967" lon="10.5142083"><ele>164.85714285714286</ele><time>2026-05-03T08:46:33.588Z</time></trkpt><trkpt lat="45.38235" lon="10.5141533"><ele>165.0</ele><time>2026-05-03T08:46:35.596Z</time></trkpt><trkpt lat="45.3824033" lon="10.5140883"><ele>164.71428571428572</ele><time>2026-05-03T08:46:37.599Z</time></trkpt><trkpt lat="45.3824517" lon="10.5140217"><ele>164.42857142857144</ele><time>2026-05-03T08:46:39.589Z</time></trkpt><trkpt lat="45.382505" lon="10.51396"><ele>164.14285714285717</ele><time>2026-05-03T08:46:41.589Z</time></trkpt><trkpt lat="45.3825633" lon="10.513905"><ele>163.85714285714286</ele><time>2026-05-03T08:46:43.593Z</time></trkpt><trkpt lat="45.382625" lon="10.5138583"><ele>163.57142857142856</ele><time>2026-05-03T08:46:45.588Z</time></trkpt><trkpt lat="45.38269" lon="10.5138117"><ele>163.2857142857143</ele><time>2026-05-03T08:46:47.592Z</time></trkpt><trkpt lat="45.3827583" lon="10.5137767"><ele>163.0</ele><time>2026-05-03T08:46:49.597Z</time></trkpt><trkpt lat="45.3828383" lon="10.513775"><ele>163.0</ele><time>2026-05-03T08:46:51.587Z</time></trkpt><trkpt lat="45.3829067" lon="10.5138"><ele>163.0</ele><time>2026-05-03T08:46:53.588Z</time></trkpt><trkpt lat="45.3829733" lon="10.513865"><ele>163.0</ele><time>2026-05-03T08:46:55.596Z</time></trkpt><trkpt lat="45.3830233" lon="10.513965"><ele>163.0</ele><time>2026-05-03T08:46:57.588Z</time></trkpt><trkpt lat="45.383075" lon="10.514065"><ele>163.0</ele><time>2026-05-03T08:46:59.593Z</time></trkpt><trkpt lat="45.383125" lon="10.514145"><ele>163.0</ele><time>2026-05-03T08:47:01.597Z</time></trkpt><trkpt lat="45.383185" lon="10.5142283"><ele>163.57142857142858</ele><time>2026-05-03T08:47:04.587Z</time></trkpt><trkpt lat="45.3832083" lon="10.5143267"><ele>164.14285714285714</ele><time>2026-05-03T08:47:08.588Z</time></trkpt><trkpt lat="45.3831783" lon="10.5144217"><ele>164.71428571428572</ele><time>2026-05-03T08:47:11.595Z</time></trkpt><trkpt lat="45.3831833" lon="10.51453"><ele>165.28571428571428</ele><time>2026-05-03T08:47:15.591Z</time></trkpt><trkpt lat="45.3831967" lon="10.51463"><ele>165.85714285714286</ele><time>2026-05-03T08:47:18.591Z</time></trkpt><trkpt lat="45.3832633" lon="10.514655"><ele>166.42857142857142</ele><time>2026-05-03T08:47:25.597Z</time></trkpt><trkpt lat="45.3833067" lon="10.514575"><ele>167.0</ele><time>2026-05-03T08:47:30.592Z</time></trkpt><trkpt lat="45.383355" lon="10.5144833"><ele>167.0</ele><time>2026-05-03T08:47:35.589Z</time></trkpt><trkpt lat="45.383405" lon="10.514425"><ele>167.0</ele><time>2026-05-03T08:47:38.598Z</time></trkpt><trkpt lat="45.3834567" lon="10.5143683"><ele>167.0</ele><time>2026-05-03T08:47:41.589Z</time></trkpt><trkpt lat="45.3835167" lon="10.51431"><ele>167.0</ele><time>2026-05-03T08:47:44.597Z</time></trkpt><trkpt lat="45.3835683" lon="10.5142567"><ele>167.0</ele><time>2026-05-03T08:47:46.597Z</time></trkpt><trkpt lat="45.383635" lon="10.514185"><ele>167.0</ele><time>2026-05-03T08:47:49.599Z</time></trkpt><trkpt lat="45.3836867" lon="10.5141317"><ele>167.0</ele><time>2026-05-03T08:47:51.59Z</time></trkpt><trkpt lat="45.38376" lon="10.514055"><ele>167.0</ele><time>2026-05-03T08:47:54.592Z</time></trkpt><trkpt lat="45.3838283" lon="10.5139833"><ele>167.0</ele><time>2026-05-03T08:47:56.587Z</time></trkpt><trkpt lat="45.3838917" lon="10.51392"><ele>167.0</ele><time>2026-05-03T08:47:58.591Z</time></trkpt><trkpt lat="45.3839583" lon="10.5138617"><ele>167.0</ele><time>2026-05-03T08:48:00.588Z</time></trkpt><trkpt lat="45.3840283" lon="10.513815"><ele>167.0</ele><time>2026-05-03T08:48:02.586Z</time></trkpt><trkpt lat="45.384105" lon="10.5137633"><ele>167.0</ele><time>2026-05-03T08:48:04.585Z</time></trkpt><trkpt lat="45.3841933" lon="10.5136917"><ele>167.33333333333331</ele><time>2026-05-03T08:48:06.592Z</time></trkpt><trkpt lat="45.3842867" lon="10.513615"><ele>167.66666666666666</ele><time>2026-05-03T08:48:08.592Z</time></trkpt><trkpt lat="45.3843633" lon="10.5135467"><ele>168.0</ele><time>2026-05-03T08:48:10.593Z</time></trkpt><trkpt lat="45.3844067" lon="10.5134667"><ele>168.33333333333334</ele><time>2026-05-03T08:48:14.59Z</time></trkpt><trkpt lat="45.384405" lon="10.5133633"><ele>168.66666666666669</ele><time>2026-05-03T08:48:20.594Z</time></trkpt><trkpt lat="45.3844133" lon="10.51322"><ele>169.0</ele><time>2026-05-03T08:48:26.589Z</time></trkpt><trkpt lat="45.3844083" lon="10.5131217"><ele>169.0</ele><time>2026-05-03T08:48:29.59Z</time></trkpt><trkpt lat="45.3843983" lon="10.5130317"><ele>169.0</ele><time>2026-05-03T08:48:31.584Z</time></trkpt><trkpt lat="45.3843833" lon="10.5129433"><ele>169.0</ele><time>2026-05-03T08:48:34.592Z</time></trkpt><trkpt lat="45.3843583" lon="10.5128567"><ele>169.0</ele><time>2026-05-03T08:48:37.588Z</time></trkpt><trkpt lat="45.3843533" lon="10.5127617"><ele>169.0</ele><time>2026-05-03T08:48:40.584Z</time></trkpt><trkpt lat="45.3843333" lon="10.5126583"><ele>169.0</ele><time>2026-05-03T08:48:43.598Z</time></trkpt><trkpt lat="45.384335" lon="10.5125017"><ele>169.0</ele><time>2026-05-03T08:48:49.591Z</time></trkpt><trkpt lat="45.3843367" lon="10.5124033"><ele>169.66666666666669</ele><time>2026-05-03T08:48:51.59Z</time></trkpt><trkpt lat="45.3843167" lon="10.5122983"><ele>170.33333333333334</ele><time>2026-05-03T08:48:54.588Z</time></trkpt><trkpt lat="45.3843067" lon="10.51219"><ele>171.0</ele><time>2026-05-03T08:48:58.588Z</time></trkpt><trkpt lat="45.3843283" lon="10.5120733"><ele>171.66666666666666</ele><time>2026-05-03T08:49:01.592Z</time></trkpt><trkpt lat="45.3843633" lon="10.5119567"><ele>172.33333333333331</ele><time>2026-05-03T08:49:04.592Z</time></trkpt><trkpt lat="45.3843883" lon="10.5118717"><ele>173.0</ele><time>2026-05-03T08:49:06.593Z</time></trkpt><trkpt lat="45.3844017" lon="10.5117617"><ele>174.0</ele><time>2026-05-03T08:49:08.593Z</time></trkpt><trkpt lat="45.3844217" lon="10.5116717"><ele>175.0</ele><time>2026-05-03T08:49:10.591Z</time></trkpt><trkpt lat="45.3844467" lon="10.5115583"><ele>176.0</ele><time>2026-05-03T08:49:13.6Z</time></trkpt><trkpt lat="45.38447" lon="10.5114567"><ele>177.0</ele><time>2026-05-03T08:49:16.594Z</time></trkpt><trkpt lat="45.3844917" lon="10.5113483"><ele>178.0</ele><time>2026-05-03T08:49:19.596Z</time></trkpt><trkpt lat="45.38453" lon="10.5112633"><ele>179.0</ele><time>2026-05-03T08:49:21.592Z</time></trkpt><trkpt lat="45.3845767" lon="10.5112017"><ele>180.0</ele><time>2026-05-03T08:49:23.589Z</time></trkpt><trkpt lat="45.3846333" lon="10.5111217"><ele>180.57142857142856</ele><time>2026-05-03T08:49:25.592Z</time></trkpt><trkpt lat="45.3846717" lon="10.51105"><ele>181.14285714285717</ele><time>2026-05-03T08:49:27.595Z</time></trkpt><trkpt lat="45.3847233" lon="10.510975"><ele>181.71428571428572</ele><time>2026-05-03T08:49:29.595Z</time></trkpt><trkpt lat="45.384785" lon="10.510885"><ele>182.28571428571428</ele><time>2026-05-03T08:49:32.593Z</time></trkpt><trkpt lat="45.3848433" lon="10.5108017"><ele>182.85714285714283</ele><time>2026-05-03T08:49:34.596Z</time></trkpt><trkpt lat="45.384895" lon="10.5107283"><ele>183.42857142857144</ele><time>2026-05-03T08:49:36.593Z</time></trkpt><trkpt lat="45.3849467" lon="10.5106717"><ele>184.0</ele><time>2026-05-03T08:49:38.594Z</time></trkpt><trkpt lat="45.385005" lon="10.510595"><ele>184.5</ele><time>2026-05-03T08:49:41.593Z</time></trkpt><trkpt lat="45.3850567" lon="10.510535"><ele>185.0</ele><time>2026-05-03T08:49:43.599Z</time></trkpt><trkpt lat="45.3851167" lon="10.51044"><ele>185.5</ele><time>2026-05-03T08:49:46.597Z</time></trkpt><trkpt lat="45.3851783" lon="10.510375"><ele>186.0</ele><time>2026-05-03T08:49:49.596Z</time></trkpt><trkpt lat="45.3852467" lon="10.5103183"><ele>186.5</ele><time>2026-05-03T08:49:52.597Z</time></trkpt><trkpt lat="45.38531" lon="10.5102583"><ele>187.0</ele><time>2026-05-03T08:49:54.594Z</time></trkpt><trkpt lat="45.3853883" lon="10.51021"><ele>187.0</ele><time>2026-05-03T08:49:56.59Z</time></trkpt><trkpt lat="45.3854467" lon="10.5101667"><ele>187.0</ele><time>2026-05-03T08:49:57.594Z</time></trkpt><trkpt lat="45.3855583" lon="10.5101083"><ele>187.0</ele><time>2026-05-03T08:49:59.591Z</time></trkpt><trkpt lat="45.3856617" lon="10.51007"><ele>187.0</ele><time>2026-05-03T08:50:01.596Z</time></trkpt><trkpt lat="45.3857517" lon="10.5100467"><ele>187.0</ele><time>2026-05-03T08:50:03.591Z</time></trkpt><trkpt lat="45.3858267" lon="10.5099983"><ele>184.0</ele><time>2026-05-03T08:50:05.594Z</time></trkpt><trkpt lat="45.38592" lon="10.5099483"><ele>181.0</ele><time>2026-05-03T08:50:07.597Z</time></trkpt><trkpt lat="45.38601" lon="10.5098917"><ele>178.0</ele><time>2026-05-03T08:50:09.597Z</time></trkpt><trkpt lat="45.386065" lon="10.50984"><ele>175.0</ele><time>2026-05-03T08:50:11.597Z</time></trkpt><trkpt lat="45.3862217" lon="10.5097183"><ele>172.0</ele><time>2026-05-03T08:50:21.595Z</time></trkpt><trkpt lat="45.38628" lon="10.509655"><ele>170.83333333333334</ele><time>2026-05-03T08:50:23.592Z</time></trkpt><trkpt lat="45.3863617" lon="10.5095783"><ele>169.66666666666669</ele><time>2026-05-03T08:50:25.599Z</time></trkpt><trkpt lat="45.3864317" lon="10.5095217"><ele>168.5</ele><time>2026-05-03T08:50:27.59Z</time></trkpt><trkpt lat="45.386505" lon="10.50947"><ele>167.33333333333334</ele><time>2026-05-03T08:50:31.595Z</time></trkpt><trkpt lat="45.3865833" lon="10.5094267"><ele>166.16666666666666</ele><time>2026-05-03T08:50:34.592Z</time></trkpt><trkpt lat="45.38666" lon="10.509385"><ele>165.0</ele><time>2026-05-03T08:50:36.587Z</time></trkpt><trkpt lat="45.3867467" lon="10.5093467"><ele>165.0</ele><time>2026-05-03T08:50:38.589Z</time></trkpt><trkpt lat="45.386845" lon="10.5092983"><ele>165.0</ele><time>2026-05-03T08:50:40.587Z</time></trkpt><trkpt lat="45.3869483" lon="10.5092483"><ele>165.0</ele><time>2026-05-03T08:50:42.597Z</time></trkpt><trkpt lat="45.38706" lon="10.5091983"><ele>165.0</ele><time>2026-05-03T08:50:44.593Z</time></trkpt><trkpt lat="45.387165" lon="10.5091533"><ele>165.0</ele><time>2026-05-03T08:50:46.597Z</time></trkpt><trkpt lat="45.3872733" lon="10.5091167"><ele>163.8</ele><time>2026-05-03T08:50:48.595Z</time></trkpt><trkpt lat="45.3873833" lon="10.50907"><ele>162.6</ele><time>2026-05-03T08:50:50.595Z</time></trkpt><trkpt lat="45.3874867" lon="10.5090367"><ele>161.4</ele><time>2026-05-03T08:50:52.601Z</time></trkpt><trkpt lat="45.3875933" lon="10.5090483"><ele>160.2</ele><time>2026-05-03T08:50:54.598Z</time></trkpt><trkpt lat="45.3877017" lon="10.50909"><ele>159.0</ele><time>2026-05-03T08:50:56.592Z</time></trkpt><trkpt lat="45.3878083" lon="10.509125"><ele>159.0</ele><time>2026-05-03T08:50:58.587Z</time></trkpt><trkpt lat="45.38791" lon="10.50916"><ele>159.0</ele><time>2026-05-03T08:51:00.588Z</time></trkpt><trkpt lat="45.38801" lon="10.5091933"><ele>159.0</ele><time>2026-05-03T08:51:02.59Z</time></trkpt><trkpt lat="45.3881133" lon="10.5092167"><ele>159.0</ele><time>2026-05-03T08:51:04.59Z</time></trkpt><trkpt lat="45.3882183" lon="10.50924"><ele>159.0</ele><time>2026-05-03T08:51:06.591Z</time></trkpt><trkpt lat="45.3883183" lon="10.509255"><ele>159.0</ele><time>2026-05-03T08:51:08.591Z</time></trkpt><trkpt lat="45.3884117" lon="10.5092733"><ele>159.0</ele><time>2026-05-03T08:51:10.597Z</time></trkpt><trkpt lat="45.388495" lon="10.50929"><ele>159.0</ele><time>2026-05-03T08:51:12.596Z</time></trkpt><trkpt lat="45.3885733" lon="10.5092967"><ele>159.0</ele><time>2026-05-03T08:51:14.596Z</time></trkpt><trkpt lat="45.38864" lon="10.5092983"><ele>159.0</ele><time>2026-05-03T08:51:16.595Z</time></trkpt><trkpt lat="45.3887117" lon="10.50927"><ele>159.0</ele><time>2026-05-03T08:51:18.591Z</time></trkpt><trkpt lat="45.3887883" lon="10.509205"><ele>158.33333333333334</ele><time>2026-05-03T08:51:20.591Z</time></trkpt><trkpt lat="45.38886" lon="10.5091567"><ele>157.66666666666666</ele><time>2026-05-03T08:51:22.592Z</time></trkpt><trkpt lat="45.3889267" lon="10.5091033"><ele>157.0</ele><time>2026-05-03T08:51:24.591Z</time></trkpt><trkpt lat="45.38898" lon="10.5090283"><ele>156.33333333333331</ele><time>2026-05-03T08:51:26.59Z</time></trkpt><trkpt lat="45.38904" lon="10.5089633"><ele>155.66666666666666</ele><time>2026-05-03T08:51:28.591Z</time></trkpt><trkpt lat="45.3891083" lon="10.5088733"><ele>155.0</ele><time>2026-05-03T08:51:30.589Z</time></trkpt><trkpt lat="45.3891767" lon="10.5088"><ele>157.83333333333331</ele><time>2026-05-03T08:51:32.591Z</time></trkpt><trkpt lat="45.38924" lon="10.5087233"><ele>160.66666666666666</ele><time>2026-05-03T08:51:34.592Z</time></trkpt><trkpt lat="45.3893117" lon="10.5086533"><ele>163.5</ele><time>2026-05-03T08:51:36.592Z</time></trkpt><trkpt lat="45.3893817" lon="10.5086017"><ele>166.33333333333334</ele><time>2026-05-03T08:51:38.591Z</time></trkpt><trkpt lat="45.389445" lon="10.50858"><ele>169.16666666666669</ele><time>2026-05-03T08:51:40.591Z</time></trkpt><trkpt lat="45.3895133" lon="10.5085333"><ele>172.0</ele><time>2026-05-03T08:51:42.591Z</time></trkpt><trkpt lat="45.3895767" lon="10.5084967"><ele>172.0</ele><time>2026-05-03T08:51:46.596Z</time></trkpt><trkpt lat="45.38965" lon="10.5084533"><ele>172.0</ele><time>2026-05-03T08:51:50.59Z</time></trkpt><trkpt lat="45.389685" lon="10.5083683"><ele>172.0</ele><time>2026-05-03T08:51:53.587Z</time></trkpt><trkpt lat="45.38973" lon="10.5082917"><ele>172.0</ele><time>2026-05-03T08:51:56.592Z</time></trkpt><trkpt lat="45.3897883" lon="10.5082217"><ele>172.0</ele><time>2026-05-03T08:51:59.594Z</time></trkpt><trkpt lat="45.3898583" lon="10.50813"><ele>172.0</ele><time>2026-05-03T08:52:02.592Z</time></trkpt><trkpt lat="45.389925" lon="10.5080583"><ele>171.5</ele><time>2026-05-03T08:52:05.594Z</time></trkpt><trkpt lat="45.3899733" lon="10.5079917"><ele>171.0</ele><time>2026-05-03T08:52:09.595Z</time></trkpt><trkpt lat="45.3900367" lon="10.5079533"><ele>170.5</ele><time>2026-05-03T08:52:14.592Z</time></trkpt><trkpt lat="45.3900983" lon="10.5078733"><ele>170.0</ele><time>2026-05-03T08:52:19.59Z</time></trkpt><trkpt lat="45.3901517" lon="10.5077967"><ele>169.5</ele><time>2026-05-03T08:52:22.591Z</time></trkpt><trkpt lat="45.3902133" lon="10.5077233"><ele>169.0</ele><time>2026-05-03T08:52:24.59Z</time></trkpt><trkpt lat="45.3902883" lon="10.50765"><ele>169.0</ele><time>2026-05-03T08:52:26.596Z</time></trkpt><trkpt lat="45.390355" lon="10.507565"><ele>169.0</ele><time>2026-05-03T08:52:28.597Z</time></trkpt><trkpt lat="45.3904217" lon="10.5074717"><ele>169.0</ele><time>2026-05-03T08:52:30.594Z</time></trkpt><trkpt lat="45.3904967" lon="10.5074183"><ele>169.0</ele><time>2026-05-03T08:52:32.59Z</time></trkpt><trkpt lat="45.39057" lon="10.5074517"><ele>169.0</ele><time>2026-05-03T08:52:34.595Z</time></trkpt><trkpt lat="45.3906483" lon="10.5074633"><ele>169.0</ele><time>2026-05-03T08:52:38.594Z</time></trkpt><trkpt lat="45.3907067" lon="10.50737"><ele>166.33333333333334</ele><time>2026-05-03T08:52:41.597Z</time></trkpt><trkpt lat="45.3907433" lon="10.50728"><ele>163.66666666666669</ele><time>2026-05-03T08:52:43.598Z</time></trkpt><trkpt lat="45.3907833" lon="10.507185"><ele>161.0</ele><time>2026-05-03T08:52:45.592Z</time></trkpt><trkpt lat="45.3908233" lon="10.507085"><ele>158.33333333333334</ele><time>2026-05-03T08:52:47.594Z</time></trkpt><trkpt lat="45.39086" lon="10.5069783"><ele>155.66666666666666</ele><time>2026-05-03T08:52:49.596Z</time></trkpt><trkpt lat="45.3909033" lon="10.5068717"><ele>153.0</ele><time>2026-05-03T08:52:51.588Z</time></trkpt><trkpt lat="45.3909417" lon="10.5067517"><ele>153.0</ele><time>2026-05-03T08:52:53.596Z</time></trkpt><trkpt lat="45.3909783" lon="10.5066333"><ele>153.0</ele><time>2026-05-03T08:52:55.595Z</time></trkpt><trkpt lat="45.3910217" lon="10.506525"><ele>153.0</ele><time>2026-05-03T08:52:57.594Z</time></trkpt><trkpt lat="45.3910767" lon="10.5064167"><ele>153.0</ele><time>2026-05-03T08:52:59.592Z</time></trkpt><trkpt lat="45.39113" lon="10.5063333"><ele>153.0</ele><time>2026-05-03T08:53:01.596Z</time></trkpt><trkpt lat="45.3911817" lon="10.506245"><ele>153.0</ele><time>2026-05-03T08:53:03.591Z</time></trkpt><trkpt lat="45.391235" lon="10.50617"><ele>153.33333333333334</ele><time>2026-05-03T08:53:05.594Z</time></trkpt><trkpt lat="45.3912917" lon="10.5060917"><ele>153.66666666666666</ele><time>2026-05-03T08:53:07.594Z</time></trkpt><trkpt lat="45.39135" lon="10.5060283"><ele>154.0</ele><time>2026-05-03T08:53:09.591Z</time></trkpt><trkpt lat="45.391405" lon="10.505965"><ele>154.33333333333331</ele><time>2026-05-03T08:53:11.595Z</time></trkpt><trkpt lat="45.39145" lon="10.5058783"><ele>154.66666666666666</ele><time>2026-05-03T08:53:13.6Z</time></trkpt><trkpt lat="45.3914767" lon="10.505755"><ele>155.0</ele><time>2026-05-03T08:53:15.594Z</time></trkpt><trkpt lat="45.391495" lon="10.5055733"><ele>153.0</ele><time>2026-05-03T08:53:17.598Z</time></trkpt><trkpt lat="45.39151" lon="10.5054717"><ele>151.0</ele><time>2026-05-03T08:53:18.594Z</time></trkpt><trkpt lat="45.3915317" lon="10.5053667"><ele>149.0</ele><time>2026-05-03T08:53:19.597Z</time></trkpt><trkpt lat="45.3915533" lon="10.5052567"><ele>147.0</ele><time>2026-05-03T08:53:20.595Z</time></trkpt><trkpt lat="45.3915783" lon="10.5051433"><ele>145.0</ele><time>2026-05-03T08:53:21.594Z</time></trkpt><trkpt lat="45.3916167" lon="10.5050233"><ele>143.0</ele><time>2026-05-03T08:53:22.595Z</time></trkpt><trkpt lat="45.3916717" lon="10.5049033"><ele>142.5</ele><time>2026-05-03T08:53:23.598Z</time></trkpt><trkpt lat="45.39173" lon="10.504765"><ele>142.0</ele><time>2026-05-03T08:53:24.595Z</time></trkpt><trkpt lat="45.391775" lon="10.5046167"><ele>141.5</ele><time>2026-05-03T08:53:25.6Z</time></trkpt><trkpt lat="45.39181" lon="10.50446"><ele>141.0</ele><time>2026-05-03T08:53:26.595Z</time></trkpt><trkpt lat="45.3918367" lon="10.5042933"><ele>140.4</ele><time>2026-05-03T08:53:27.595Z</time></trkpt><trkpt lat="45.3918583" lon="10.5041283"><ele>139.8</ele><time>2026-05-03T08:53:28.59Z</time></trkpt><trkpt lat="45.3918767" lon="10.50397"><ele>139.20000000000002</ele><time>2026-05-03T08:53:29.591Z</time></trkpt><trkpt lat="45.3918967" lon="10.5038417"><ele>138.6</ele><time>2026-05-03T08:53:30.595Z</time></trkpt><trkpt lat="45.391895" lon="10.5037183"><ele>138.0</ele><time>2026-05-03T08:53:31.596Z</time></trkpt><trkpt lat="45.3918967" lon="10.50359"><ele>137.5</ele><time>2026-05-03T08:53:32.594Z</time></trkpt><trkpt lat="45.3919117" lon="10.5034633"><ele>137.0</ele><time>2026-05-03T08:53:33.596Z</time></trkpt><trkpt lat="45.3919533" lon="10.50335"><ele>136.5</ele><time>2026-05-03T08:53:34.593Z</time></trkpt><trkpt lat="45.3920117" lon="10.5032517"><ele>136.0</ele><time>2026-05-03T08:53:35.592Z</time></trkpt><trkpt lat="45.3920633" lon="10.503155"><ele>135.5</ele><time>2026-05-03T08:53:36.59Z</time></trkpt><trkpt lat="45.3921067" lon="10.5030483"><ele>135.0</ele><time>2026-05-03T08:53:37.6Z</time></trkpt><trkpt lat="45.3921467" lon="10.50295"><ele>133.42857142857142</ele><time>2026-05-03T08:53:38.594Z</time></trkpt><trkpt lat="45.392185" lon="10.5028533"><ele>131.85714285714283</ele><time>2026-05-03T08:53:39.589Z</time></trkpt><trkpt lat="45.3922217" lon="10.50277"><ele>130.28571428571428</ele><time>2026-05-03T08:53:40.598Z</time></trkpt><trkpt lat="45.3922583" lon="10.5026917"><ele>128.71428571428572</ele><time>2026-05-03T08:53:41.597Z</time></trkpt><trkpt lat="45.3923067" lon="10.5026233"><ele>127.14285714285715</ele><time>2026-05-03T08:53:42.597Z</time></trkpt><trkpt lat="45.3923733" lon="10.5025633"><ele>125.57142857142858</ele><time>2026-05-03T08:53:43.599Z</time></trkpt><trkpt lat="45.3924433" lon="10.5025117"><ele>124.0</ele><time>2026-05-03T08:53:44.597Z</time></trkpt><trkpt lat="45.392515" lon="10.5024617"><ele>124.00000000000001</ele><time>2026-05-03T08:53:45.594Z</time></trkpt><trkpt lat="45.3925917" lon="10.502415"><ele>124.0</ele><time>2026-05-03T08:53:46.597Z</time></trkpt><trkpt lat="45.3926683" lon="10.50237"><ele>124.0</ele><time>2026-05-03T08:53:47.596Z</time></trkpt><trkpt lat="45.3927483" lon="10.5023217"><ele>124.0</ele><time>2026-05-03T08:53:48.593Z</time></trkpt><trkpt lat="45.39283" lon="10.5022733"><ele>124.00000000000001</ele><time>2026-05-03T08:53:49.596Z</time></trkpt><trkpt lat="45.3929117" lon="10.502225"><ele>124.0</ele><time>2026-05-03T08:53:50.596Z</time></trkpt><trkpt lat="45.392995" lon="10.5021767"><ele>122.80000000000001</ele><time>2026-05-03T08:53:51.594Z</time></trkpt><trkpt lat="45.3930783" lon="10.5021217"><ele>121.60000000000001</ele><time>2026-05-03T08:53:52.597Z</time></trkpt><trkpt lat="45.39319" lon="10.5020633"><ele>120.4</ele><time>2026-05-03T08:53:53.598Z</time></trkpt><trkpt lat="45.39328" lon="10.5020067"><ele>119.2</ele><time>2026-05-03T08:53:54.589Z</time></trkpt><trkpt lat="45.3933567" lon="10.501945"><ele>118.0</ele><time>2026-05-03T08:53:55.591Z</time></trkpt><trkpt lat="45.393425" lon="10.5018933"><ele>117.57142857142857</ele><time>2026-05-03T08:53:56.589Z</time></trkpt><trkpt lat="45.3934867" lon="10.5018483"><ele>117.14285714285714</ele><time>2026-05-03T08:53:57.597Z</time></trkpt><trkpt lat="45.3935433" lon="10.5018067"><ele>116.71428571428571</ele><time>2026-05-03T08:53:58.596Z</time></trkpt><trkpt lat="45.39362" lon="10.5017533"><ele>116.28571428571428</ele><time>2026-05-03T08:54:00.591Z</time></trkpt><trkpt lat="45.3935717" lon="10.5016817"><ele>115.85714285714286</ele><time>2026-05-03T08:54:05.594Z</time></trkpt><trkpt lat="45.3935083" lon="10.5016617"><ele>115.42857142857142</ele><time>2026-05-03T08:54:07.594Z</time></trkpt><trkpt lat="45.3934283" lon="10.501635"><ele>114.99999999999999</ele><time>2026-05-03T08:54:09.589Z</time></trkpt><trkpt lat="45.393355" lon="10.501595"><ele>115.00000000000001</ele><time>2026-05-03T08:54:11.589Z</time></trkpt><trkpt lat="45.3932917" lon="10.5015483"><ele>115.0</ele><time>2026-05-03T08:54:13.601Z</time></trkpt><trkpt lat="45.393225" lon="10.5015017"><ele>115.0</ele><time>2026-05-03T08:54:15.594Z</time></trkpt><trkpt lat="45.3931483" lon="10.501455"><ele>115.0</ele><time>2026-05-03T08:54:17.592Z</time></trkpt><trkpt lat="45.39307" lon="10.5014067"><ele>115.00000000000001</ele><time>2026-05-03T08:54:19.595Z</time></trkpt><trkpt lat="45.3929933" lon="10.501355"><ele>115.0</ele><time>2026-05-03T08:54:21.595Z</time></trkpt><trkpt lat="45.3929167" lon="10.5012933"><ele>116.16666666666667</ele><time>2026-05-03T08:54:23.591Z</time></trkpt><trkpt lat="45.3928483" lon="10.5012283"><ele>117.33333333333334</ele><time>2026-05-03T08:54:25.595Z</time></trkpt><trkpt lat="45.3927867" lon="10.501165"><ele>118.5</ele><time>2026-05-03T08:54:27.598Z</time></trkpt><trkpt lat="45.3927333" lon="10.5010933"><ele>119.66666666666666</ele><time>2026-05-03T08:54:29.594Z</time></trkpt><trkpt lat="45.3926883" lon="10.5010183"><ele>120.83333333333333</ele><time>2026-05-03T08:54:31.597Z</time></trkpt><trkpt lat="45.39263" lon="10.50095"><ele>122.0</ele><time>2026-05-03T08:54:34.594Z</time></trkpt><trkpt lat="45.39256" lon="10.500915"><ele>121.99999999999999</ele><time>2026-05-03T08:54:37.596Z</time></trkpt><trkpt lat="45.3924933" lon="10.50089"><ele>122.0</ele><time>2026-05-03T08:54:40.595Z</time></trkpt><trkpt lat="45.39241" lon="10.50089"><ele>122.0</ele><time>2026-05-03T08:54:44.59Z</time></trkpt><trkpt lat="45.3923333" lon="10.5009"><ele>122.0</ele><time>2026-05-03T08:54:48.596Z</time></trkpt><trkpt lat="45.3922583" lon="10.5008467"><ele>121.99999999999999</ele><time>2026-05-03T08:54:53.597Z</time></trkpt><trkpt lat="45.3922183" lon="10.5007533"><ele>122.0</ele><time>2026-05-03T08:54:57.595Z</time></trkpt><trkpt lat="45.3921733" lon="10.500655"><ele>125.33333333333333</ele><time>2026-05-03T08:55:00.59Z</time></trkpt><trkpt lat="45.392125" lon="10.5005517"><ele>128.66666666666666</ele><time>2026-05-03T08:55:03.591Z</time></trkpt><trkpt lat="45.392085" lon="10.50047"><ele>132.0</ele><time>2026-05-03T08:55:06.594Z</time></trkpt><trkpt lat="45.39205" lon="10.5003817"><ele>135.33333333333334</ele><time>2026-05-03T08:55:10.59Z</time></trkpt><trkpt lat="45.3920333" lon="10.5002633"><ele>138.66666666666669</ele><time>2026-05-03T08:55:14.59Z</time></trkpt><trkpt lat="45.3920433" lon="10.50015"><ele>142.0</ele><time>2026-05-03T08:55:17.595Z</time></trkpt><trkpt lat="45.3920633" lon="10.5000467"><ele>142.16666666666669</ele><time>2026-05-03T08:55:21.59Z</time></trkpt><trkpt lat="45.3921017" lon="10.49994"><ele>142.33333333333334</ele><time>2026-05-03T08:55:25.6Z</time></trkpt><trkpt lat="45.392135" lon="10.49984"><ele>142.5</ele><time>2026-05-03T08:55:28.595Z</time></trkpt><trkpt lat="45.3921633" lon="10.4997517"><ele>142.66666666666666</ele><time>2026-05-03T08:55:30.595Z</time></trkpt><trkpt lat="45.3922033" lon="10.499635"><ele>142.83333333333331</ele><time>2026-05-03T08:55:33.596Z</time></trkpt><trkpt lat="45.3922433" lon="10.4995417"><ele>143.0</ele><time>2026-05-03T08:55:35.59Z</time></trkpt><trkpt lat="45.39227" lon="10.4994517"><ele>141.16666666666666</ele><time>2026-05-03T08:55:38.591Z</time></trkpt><trkpt lat="45.392315" lon="10.4993567"><ele>139.33333333333331</ele><time>2026-05-03T08:55:41.586Z</time></trkpt><trkpt lat="45.392355" lon="10.4992667"><ele>137.5</ele><time>2026-05-03T08:55:44.589Z</time></trkpt><trkpt lat="45.3924183" lon="10.4991617"><ele>135.66666666666666</ele><time>2026-05-03T08:55:47.596Z</time></trkpt><trkpt lat="45.3924667" lon="10.499075"><ele>133.83333333333334</ele><time>2026-05-03T08:55:49.595Z</time></trkpt><trkpt lat="45.3924917" lon="10.49899"><ele>132.0</ele><time>2026-05-03T08:55:51.596Z</time></trkpt><trkpt lat="45.3925133" lon="10.4989017"><ele>132.0</ele><time>2026-05-03T08:55:53.591Z</time></trkpt><trkpt lat="45.3925417" lon="10.4988117"><ele>132.0</ele><time>2026-05-03T08:55:55.597Z</time></trkpt><trkpt lat="45.392575" lon="10.498725"><ele>132.0</ele><time>2026-05-03T08:55:57.594Z</time></trkpt><trkpt lat="45.3926117" lon="10.498635"><ele>132.0</ele><time>2026-05-03T08:55:59.597Z</time></trkpt><trkpt lat="45.3926333" lon="10.4985133"><ele>132.0</ele><time>2026-05-03T08:56:02.596Z</time></trkpt><trkpt lat="45.39262" lon="10.498415"><ele>132.0</ele><time>2026-05-03T08:56:06.586Z</time></trkpt><trkpt lat="45.3925583" lon="10.49839"><ele>132.0</ele><time>2026-05-03T08:56:11.586Z</time></trkpt><trkpt lat="45.3925017" lon="10.4983367"><ele>131.85714285714286</ele><time>2026-05-03T08:56:16.588Z</time></trkpt><trkpt lat="45.392435" lon="10.498285"><ele>131.71428571428572</ele><time>2026-05-03T08:56:20.593Z</time></trkpt><trkpt lat="45.3923717" lon="10.49822"><ele>131.57142857142858</ele><time>2026-05-03T08:56:24.587Z</time></trkpt><trkpt lat="45.3923083" lon="10.4981533"><ele>131.42857142857144</ele><time>2026-05-03T08:56:28.584Z</time></trkpt><trkpt lat="45.39228" lon="10.4980683"><ele>131.2857142857143</ele><time>2026-05-03T08:56:31.587Z</time></trkpt><trkpt lat="45.3922567" lon="10.49798"><ele>131.14285714285714</ele><time>2026-05-03T08:56:34.586Z</time></trkpt><trkpt lat="45.392235" lon="10.4978883"><ele>131.0</ele><time>2026-05-03T08:56:37.595Z</time></trkpt><trkpt lat="45.392225" lon="10.4977533"><ele>131.33333333333331</ele><time>2026-05-03T08:56:40.594Z</time></trkpt><trkpt lat="45.3922133" lon="10.4976433"><ele>131.66666666666666</ele><time>2026-05-03T08:56:42.595Z</time></trkpt><trkpt lat="45.3921883" lon="10.4975333"><ele>132.0</ele><time>2026-05-03T08:56:44.586Z</time></trkpt><trkpt lat="45.3921417" lon="10.4974417"><ele>132.33333333333334</ele><time>2026-05-03T08:56:46.595Z</time></trkpt><trkpt lat="45.3920933" lon="10.4973567"><ele>132.66666666666669</ele><time>2026-05-03T08:56:48.59Z</time></trkpt><trkpt lat="45.3920383" lon="10.4972717"><ele>133.0</ele><time>2026-05-03T08:56:50.59Z</time></trkpt><trkpt lat="45.39198" lon="10.497185"><ele>133.0</ele><time>2026-05-03T08:56:52.594Z</time></trkpt><trkpt lat="45.3919183" lon="10.4971017"><ele>133.0</ele><time>2026-05-03T08:56:54.593Z</time></trkpt><trkpt lat="45.39186" lon="10.497045"><ele>133.0</ele><time>2026-05-03T08:56:56.59Z</time></trkpt><trkpt lat="45.391795" lon="10.4970133"><ele>133.0</ele><time>2026-05-03T08:56:58.594Z</time></trkpt><trkpt lat="45.391715" lon="10.4969933"><ele>133.0</ele><time>2026-05-03T08:57:00.586Z</time></trkpt><trkpt lat="45.3916083" lon="10.4970033"><ele>133.0</ele><time>2026-05-03T08:57:02.597Z</time></trkpt><trkpt lat="45.3914883" lon="10.496995"><ele>131.0</ele><time>2026-05-03T08:57:04.591Z</time></trkpt><trkpt lat="45.3913767" lon="10.4969817"><ele>129.0</ele><time>2026-05-03T08:57:06.598Z</time></trkpt><trkpt lat="45.391255" lon="10.496985"><ele>127.00000000000001</ele><time>2026-05-03T08:57:08.592Z</time></trkpt><trkpt lat="45.3911767" lon="10.496965"><ele>125.0</ele><time>2026-05-03T08:57:09.598Z</time></trkpt><trkpt lat="45.3910967" lon="10.49694"><ele>123.0</ele><time>2026-05-03T08:57:10.598Z</time></trkpt><trkpt lat="45.39103" lon="10.496915"><ele>122.83333333333333</ele><time>2026-05-03T08:57:11.599Z</time></trkpt><trkpt lat="45.390955" lon="10.4969"><ele>122.66666666666666</ele><time>2026-05-03T08:57:12.593Z</time></trkpt><trkpt lat="45.39084" lon="10.496855"><ele>122.5</ele><time>2026-05-03T08:57:14.592Z</time></trkpt><trkpt lat="45.3907633" lon="10.4967867"><ele>122.33333333333333</ele><time>2026-05-03T08:57:16.599Z</time></trkpt><trkpt lat="45.39081" lon="10.4967083"><ele>122.16666666666666</ele><time>2026-05-03T08:57:18.596Z</time></trkpt><trkpt lat="45.3908817" lon="10.496645"><ele>122.0</ele><time>2026-05-03T08:57:20.593Z</time></trkpt><trkpt lat="45.3909783" lon="10.4966183"><ele>121.99999999999999</ele><time>2026-05-03T08:57:22.591Z</time></trkpt><trkpt lat="45.391075" lon="10.4966133"><ele>122.0</ele><time>2026-05-03T08:57:24.596Z</time></trkpt><trkpt lat="45.39117" lon="10.49663"><ele>122.0</ele><time>2026-05-03T08:57:26.591Z</time></trkpt><trkpt lat="45.39125" lon="10.4966433"><ele>122.0</ele><time>2026-05-03T08:57:28.592Z</time></trkpt><trkpt lat="45.3913283" lon="10.4966483"><ele>121.99999999999999</ele><time>2026-05-03T08:57:30.592Z</time></trkpt><trkpt lat="45.3913967" lon="10.4965933"><ele>122.0</ele><time>2026-05-03T08:57:32.586Z</time></trkpt><trkpt lat="45.39142" lon="10.49651"><ele>122.16666666666666</ele><time>2026-05-03T08:57:34.594Z</time></trkpt><trkpt lat="45.3914183" lon="10.49638"><ele>122.33333333333333</ele><time>2026-05-03T08:57:37.595Z</time></trkpt><trkpt lat="45.391435" lon="10.4962883"><ele>122.5</ele><time>2026-05-03T08:57:39.597Z</time></trkpt><trkpt lat="45.391455" lon="10.4961533"><ele>122.66666666666666</ele><time>2026-05-03T08:57:42.595Z</time></trkpt><trkpt lat="45.39147" lon="10.49606"><ele>122.83333333333333</ele><time>2026-05-03T08:57:44.594Z</time></trkpt><trkpt lat="45.3914917" lon="10.49597"><ele>123.0</ele><time>2026-05-03T08:57:46.596Z</time></trkpt><trkpt lat="45.3914967" lon="10.4958733"><ele>123.83333333333333</ele><time>2026-05-03T08:57:48.589Z</time></trkpt><trkpt lat="45.3914717" lon="10.495755"><ele>124.66666666666666</ele><time>2026-05-03T08:57:51.594Z</time></trkpt><trkpt lat="45.3914117" lon="10.4956883"><ele>125.5</ele><time>2026-05-03T08:57:54.595Z</time></trkpt><trkpt lat="45.391315" lon="10.4956767"><ele>126.33333333333333</ele><time>2026-05-03T08:57:57.591Z</time></trkpt><trkpt lat="45.39124" lon="10.495675"><ele>127.16666666666666</ele><time>2026-05-03T08:57:59.596Z</time></trkpt><trkpt lat="45.3911667" lon="10.4956717"><ele>128.0</ele><time>2026-05-03T08:58:01.597Z</time></trkpt><trkpt lat="45.3910933" lon="10.49566"><ele>129.0</ele><time>2026-05-03T08:58:03.594Z</time></trkpt><trkpt lat="45.3910233" lon="10.49565"><ele>130.0</ele><time>2026-05-03T08:58:05.596Z</time></trkpt><trkpt lat="45.3909533" lon="10.4956367"><ele>131.0</ele><time>2026-05-03T08:58:07.597Z</time></trkpt><trkpt lat="45.3908867" lon="10.4956267"><ele>132.0</ele><time>2026-05-03T08:58:09.595Z</time></trkpt><trkpt lat="45.390795" lon="10.49562"><ele>133.0</ele><time>2026-05-03T08:58:12.596Z</time></trkpt><trkpt lat="45.390715" lon="10.4956317"><ele>134.0</ele><time>2026-05-03T08:58:15.598Z</time></trkpt><trkpt lat="45.390625" lon="10.4956567"><ele>134.0</ele><time>2026-05-03T08:58:18.593Z</time></trkpt><trkpt lat="45.3905583" lon="10.495705"><ele>134.0</ele><time>2026-05-03T08:58:20.593Z</time></trkpt><trkpt lat="45.3904733" lon="10.4957433"><ele>134.0</ele><time>2026-05-03T08:58:23.595Z</time></trkpt><trkpt lat="45.3904083" lon="10.495765"><ele>134.0</ele><time>2026-05-03T08:58:25.599Z</time></trkpt><trkpt lat="45.3903367" lon="10.495795"><ele>134.0</ele><time>2026-05-03T08:58:27.592Z</time></trkpt><trkpt lat="45.39026" lon="10.4958267"><ele>134.0</ele><time>2026-05-03T08:58:30.59Z</time></trkpt><trkpt lat="45.3901783" lon="10.4958617"><ele>133.14285714285714</ele><time>2026-05-03T08:58:33.59Z</time></trkpt><trkpt lat="45.390105" lon="10.4959167"><ele>132.28571428571428</ele><time>2026-05-03T08:58:36.592Z</time></trkpt><trkpt lat="45.3900167" lon="10.495955"><ele>131.42857142857142</ele><time>2026-05-03T08:58:39.592Z</time></trkpt><trkpt lat="45.389945" lon="10.4959417"><ele>130.57142857142856</ele><time>2026-05-03T08:58:41.591Z</time></trkpt><trkpt lat="45.38988" lon="10.49593"><ele>129.7142857142857</ele><time>2026-05-03T08:58:43.595Z</time></trkpt><trkpt lat="45.3898183" lon="10.4958983"><ele>128.85714285714286</ele><time>2026-05-03T08:58:45.59Z</time></trkpt><trkpt lat="45.3897633" lon="10.4958367"><ele>128.0</ele><time>2026-05-03T08:58:47.59Z</time></trkpt><trkpt lat="45.3897133" lon="10.4957683"><ele>126.49999999999999</ele><time>2026-05-03T08:58:49.599Z</time></trkpt><trkpt lat="45.3896683" lon="10.4957033"><ele>125.0</ele><time>2026-05-03T08:58:51.593Z</time></trkpt><trkpt lat="45.38964" lon="10.4956083"><ele>123.5</ele><time>2026-05-03T08:58:53.595Z</time></trkpt><trkpt lat="45.3896067" lon="10.4954867"><ele>122.0</ele><time>2026-05-03T08:58:56.59Z</time></trkpt><trkpt lat="45.3895817" lon="10.4953867"><ele>120.49999999999999</ele><time>2026-05-03T08:58:59.593Z</time></trkpt><trkpt lat="45.389565" lon="10.4952967"><ele>119.0</ele><time>2026-05-03T08:59:01.59Z</time></trkpt><trkpt lat="45.3895383" lon="10.4951833"><ele>118.99999999999999</ele><time>2026-05-03T08:59:04.595Z</time></trkpt><trkpt lat="45.38952" lon="10.49509"><ele>119.0</ele><time>2026-05-03T08:59:06.589Z</time></trkpt><trkpt lat="45.3894933" lon="10.494985"><ele>119.0</ele><time>2026-05-03T08:59:09.593Z</time></trkpt><trkpt lat="45.3894917" lon="10.4948633"><ele>119.0</ele><time>2026-05-03T08:59:12.592Z</time></trkpt><trkpt lat="45.3895033" lon="10.49474"><ele>118.99999999999999</ele><time>2026-05-03T08:59:15.585Z</time></trkpt><trkpt lat="45.38954" lon="10.4946533"><ele>119.0</ele><time>2026-05-03T08:59:18.589Z</time></trkpt><trkpt lat="45.3895917" lon="10.4945667"><ele>119.99999999999999</ele><time>2026-05-03T08:59:21.592Z</time></trkpt><trkpt lat="45.3896483" lon="10.4945133"><ele>121.0</ele><time>2026-05-03T08:59:23.592Z</time></trkpt><trkpt lat="45.38972" lon="10.4944417"><ele>122.0</ele><time>2026-05-03T08:59:26.589Z</time></trkpt><trkpt lat="45.3897817" lon="10.4943617"><ele>123.0</ele><time>2026-05-03T08:59:29.592Z</time></trkpt><trkpt lat="45.3898517" lon="10.494285"><ele>123.99999999999999</ele><time>2026-05-03T08:59:32.588Z</time></trkpt><trkpt lat="45.3899367" lon="10.4942517"><ele>125.0</ele><time>2026-05-03T08:59:35.592Z</time></trkpt><trkpt lat="45.3899983" lon="10.4942717"><ele>125.83333333333333</ele><time>2026-05-03T08:59:37.597Z</time></trkpt><trkpt lat="45.39006" lon="10.4943183"><ele>126.66666666666666</ele><time>2026-05-03T08:59:40.586Z</time></trkpt><trkpt lat="45.390105" lon="10.4943967"><ele>127.5</ele><time>2026-05-03T08:59:43.588Z</time></trkpt><trkpt lat="45.3901767" lon="10.4943667"><ele>128.33333333333334</ele><time>2026-05-03T08:59:46.593Z</time></trkpt><trkpt lat="45.3902633" lon="10.494325"><ele>129.16666666666669</ele><time>2026-05-03T08:59:49.598Z</time></trkpt><trkpt lat="45.3903483" lon="10.494295"><ele>130.0</ele><time>2026-05-03T08:59:52.588Z</time></trkpt><trkpt lat="45.3904133" lon="10.4942133"><ele>130.00000000000003</ele><time>2026-05-03T08:59:55.591Z</time></trkpt><trkpt lat="45.3904617" lon="10.4941533"><ele>130.0</ele><time>2026-05-03T08:59:57.591Z</time></trkpt><trkpt lat="45.390515" lon="10.4940967"><ele>130.0</ele><time>2026-05-03T08:59:59.596Z</time></trkpt><trkpt lat="45.390575" lon="10.49404"><ele>130.0</ele><time>2026-05-03T09:00:01.599Z</time></trkpt><trkpt lat="45.3906367" lon="10.493995"><ele>130.0</ele><time>2026-05-03T09:00:03.588Z</time></trkpt><trkpt lat="45.390695" lon="10.493945"><ele>130.00000000000003</ele><time>2026-05-03T09:00:05.597Z</time></trkpt><trkpt lat="45.3907483" lon="10.49389"><ele>130.0</ele><time>2026-05-03T09:00:07.589Z</time></trkpt><trkpt lat="45.3908067" lon="10.4938333"><ele>130.33333333333334</ele><time>2026-05-03T09:00:09.589Z</time></trkpt><trkpt lat="45.390865" lon="10.493785"><ele>130.66666666666669</ele><time>2026-05-03T09:00:11.594Z</time></trkpt><trkpt lat="45.390925" lon="10.4937417"><ele>131.0</ele><time>2026-05-03T09:00:13.597Z</time></trkpt><trkpt lat="45.3909983" lon="10.4936717"><ele>131.33333333333334</ele><time>2026-05-03T09:00:16.587Z</time></trkpt><trkpt lat="45.3910583" lon="10.493595"><ele>131.66666666666666</ele><time>2026-05-03T09:00:19.589Z</time></trkpt><trkpt lat="45.3911333" lon="10.49355"><ele>132.0</ele><time>2026-05-03T09:00:22.592Z</time></trkpt><trkpt lat="45.3912017" lon="10.4935667"><ele>132.0</ele><time>2026-05-03T09:00:25.595Z</time></trkpt><trkpt lat="45.3912117" lon="10.493675"><ele>132.0</ele><time>2026-05-03T09:00:29.592Z</time></trkpt><trkpt lat="45.391215" lon="10.4937917"><ele>132.0</ele><time>2026-05-03T09:00:33.588Z</time></trkpt><trkpt lat="45.39122" lon="10.4938967"><ele>132.0</ele><time>2026-05-03T09:00:36.595Z</time></trkpt><trkpt lat="45.3912183" lon="10.4940017"><ele>132.0</ele><time>2026-05-03T09:00:40.589Z</time></trkpt><trkpt lat="45.3912017" lon="10.494095"><ele>132.0</ele><time>2026-05-03T09:00:44.587Z</time></trkpt><trkpt lat="45.3911733" lon="10.4941817"><ele>132.0</ele><time>2026-05-03T09:00:48.596Z</time></trkpt><trkpt lat="45.3911617" lon="10.49427"><ele>133.85714285714286</ele><time>2026-05-03T09:00:51.585Z</time></trkpt><trkpt lat="45.3911333" lon="10.4943633"><ele>135.71428571428572</ele><time>2026-05-03T09:00:54.594Z</time></trkpt><trkpt lat="45.3911167" lon="10.4944717"><ele>137.57142857142858</ele><time>2026-05-03T09:00:58.596Z</time></trkpt><trkpt lat="45.3910883" lon="10.4945683"><ele>139.42857142857144</ele><time>2026-05-03T09:01:01.588Z</time></trkpt><trkpt lat="45.3910667" lon="10.4946533"><ele>141.2857142857143</ele><time>2026-05-03T09:01:05.588Z</time></trkpt><trkpt lat="45.39108" lon="10.4947583"><ele>143.14285714285714</ele><time>2026-05-03T09:01:12.585Z</time></trkpt><trkpt lat="45.39114" lon="10.4948267"><ele>145.0</ele><time>2026-05-03T09:01:19.588Z</time></trkpt><trkpt lat="45.391205" lon="10.49479"><ele>145.0</ele><time>2026-05-03T09:01:24.594Z</time></trkpt><trkpt lat="45.3912617" lon="10.4947417"><ele>145.0</ele><time>2026-05-03T09:01:28.589Z</time></trkpt><trkpt lat="45.3913367" lon="10.4947217"><ele>145.0</ele><time>2026-05-03T09:01:33.595Z</time></trkpt><trkpt lat="45.3913967" lon="10.49469"><ele>145.0</ele><time>2026-05-03T09:01:36.588Z</time></trkpt><trkpt lat="45.3914583" lon="10.494665"><ele>145.0</ele><time>2026-05-03T09:01:39.591Z</time></trkpt><trkpt lat="45.3915417" lon="10.4946417"><ele>145.0</ele><time>2026-05-03T09:01:43.591Z</time></trkpt><trkpt lat="45.3916133" lon="10.4945933"><ele>145.0</ele><time>2026-05-03T09:01:47.589Z</time></trkpt><trkpt lat="45.3917" lon="10.494595"><ele>145.0</ele><time>2026-05-03T09:01:52.594Z</time></trkpt><trkpt lat="45.3917767" lon="10.4945767"><ele>145.0</ele><time>2026-05-03T09:01:55.588Z</time></trkpt><trkpt lat="45.39184" lon="10.4945633"><ele>145.0</ele><time>2026-05-03T09:01:58.587Z</time></trkpt><trkpt lat="45.391905" lon="10.4945717"><ele>145.0</ele><time>2026-05-03T09:02:01.598Z</time></trkpt><trkpt lat="45.3919717" lon="10.494585"><ele>145.0</ele><time>2026-05-03T09:02:04.595Z</time></trkpt><trkpt lat="45.39204" lon="10.4945917"><ele>145.0</ele><time>2026-05-03T09:02:07.589Z</time></trkpt><trkpt lat="45.3921167" lon="10.49461"><ele>145.0</ele><time>2026-05-03T09:02:11.591Z</time></trkpt><trkpt lat="45.39219" lon="10.4946533"><ele>145.83333333333334</ele><time>2026-05-03T09:02:15.593Z</time></trkpt><trkpt lat="45.392265" lon="10.4946767"><ele>146.66666666666669</ele><time>2026-05-03T09:02:19.589Z</time></trkpt><trkpt lat="45.3923467" lon="10.4946833"><ele>147.5</ele><time>2026-05-03T09:02:22.596Z</time></trkpt><trkpt lat="45.3924133" lon="10.494725"><ele>148.33333333333334</ele><time>2026-05-03T09:02:25.589Z</time></trkpt><trkpt lat="45.3924917" lon="10.4947833"><ele>149.16666666666666</ele><time>2026-05-03T09:02:28.591Z</time></trkpt><trkpt lat="45.3925467" lon="10.49483"><ele>150.0</ele><time>2026-05-03T09:02:30.595Z</time></trkpt><trkpt lat="45.3926167" lon="10.494855"><ele>150.0</ele><time>2026-05-03T09:02:32.595Z</time></trkpt><trkpt lat="45.3926817" lon="10.4948667"><ele>150.0</ele><time>2026-05-03T09:02:34.596Z</time></trkpt><trkpt lat="45.3927667" lon="10.4948417"><ele>150.0</ele><time>2026-05-03T09:02:37.597Z</time></trkpt><trkpt lat="45.3928333" lon="10.4948117"><ele>150.0</ele><time>2026-05-03T09:02:40.595Z</time></trkpt><trkpt lat="45.3929" lon="10.49476"><ele>150.0</ele><time>2026-05-03T09:02:43.592Z</time></trkpt><trkpt lat="45.39299" lon="10.4947017"><ele>150.0</ele><time>2026-05-03T09:02:50.592Z</time></trkpt><trkpt lat="45.3930533" lon="10.494655"><ele>150.16666666666666</ele><time>2026-05-03T09:02:52.576Z</time></trkpt><trkpt lat="45.393115" lon="10.4946033"><ele>150.33333333333334</ele><time>2026-05-03T09:02:54.587Z</time></trkpt><trkpt lat="45.393165" lon="10.4945417"><ele>150.5</ele><time>2026-05-03T09:02:56.591Z</time></trkpt><trkpt lat="45.3932183" lon="10.4944867"><ele>150.66666666666669</ele><time>2026-05-03T09:02:59.588Z</time></trkpt><trkpt lat="45.3932917" lon="10.4944067"><ele>150.83333333333334</ele><time>2026-05-03T09:03:02.585Z</time></trkpt><trkpt lat="45.3933717" lon="10.494335"><ele>151.0</ele><time>2026-05-03T09:03:04.591Z</time></trkpt><trkpt lat="45.3934183" lon="10.49423"><ele>151.00000000000003</ele><time>2026-05-03T09:03:07.595Z</time></trkpt><trkpt lat="45.39343" lon="10.4941283"><ele>151.0</ele><time>2026-05-03T09:03:09.592Z</time></trkpt><trkpt lat="45.3934083" lon="10.4940183"><ele>151.0</ele><time>2026-05-03T09:03:12.594Z</time></trkpt><trkpt lat="45.393385" lon="10.493935"><ele>151.0</ele><time>2026-05-03T09:03:15.591Z</time></trkpt><trkpt lat="45.3933367" lon="10.4938483"><ele>151.0</ele><time>2026-05-03T09:03:18.595Z</time></trkpt><trkpt lat="45.3932767" lon="10.4937917"><ele>151.00000000000003</ele><time>2026-05-03T09:03:20.593Z</time></trkpt><trkpt lat="45.393225" lon="10.4937117"><ele>151.0</ele><time>2026-05-03T09:03:22.594Z</time></trkpt><trkpt lat="45.3932" lon="10.493605"><ele>149.0</ele><time>2026-05-03T09:03:24.589Z</time></trkpt><trkpt lat="45.3932" lon="10.4934767"><ele>147.0</ele><time>2026-05-03T09:03:26.595Z</time></trkpt><trkpt lat="45.3932283" lon="10.4933017"><ele>145.0</ele><time>2026-05-03T09:03:28.595Z</time></trkpt><trkpt lat="45.3932433" lon="10.4932067"><ele>143.0</ele><time>2026-05-03T09:03:29.597Z</time></trkpt><trkpt lat="45.3932633" lon="10.4931117"><ele>141.0</ele><time>2026-05-03T09:03:30.588Z</time></trkpt><trkpt lat="45.3932867" lon="10.4930183"><ele>139.0</ele><time>2026-05-03T09:03:31.588Z</time></trkpt><trkpt lat="45.3933067" lon="10.492925"><ele>137.66666666666669</ele><time>2026-05-03T09:03:32.585Z</time></trkpt><trkpt lat="45.393345" lon="10.4927667"><ele>136.33333333333334</ele><time>2026-05-03T09:03:34.597Z</time></trkpt><trkpt lat="45.3933733" lon="10.4926483"><ele>135.0</ele><time>2026-05-03T09:03:36.59Z</time></trkpt><trkpt lat="45.3934" lon="10.4925383"><ele>133.66666666666666</ele><time>2026-05-03T09:03:39.592Z</time></trkpt><trkpt lat="45.3934383" lon="10.492455"><ele>132.33333333333331</ele><time>2026-05-03T09:03:42.594Z</time></trkpt><trkpt lat="45.3934167" lon="10.49235"><ele>131.0</ele><time>2026-05-03T09:03:46.587Z</time></trkpt><trkpt lat="45.3933567" lon="10.4922683"><ele>131.0</ele><time>2026-05-03T09:04:14.588Z</time></trkpt><trkpt lat="45.393285" lon="10.4921933"><ele>131.0</ele><time>2026-05-03T09:04:17.592Z</time></trkpt><trkpt lat="45.39322" lon="10.492165"><ele>131.0</ele><time>2026-05-03T09:04:19.593Z</time></trkpt><trkpt lat="45.3931517" lon="10.49213"><ele>131.0</ele><time>2026-05-03T09:04:21.594Z</time></trkpt><trkpt lat="45.3930817" lon="10.4921033"><ele>131.0</ele><time>2026-05-03T09:04:23.596Z</time></trkpt><trkpt lat="45.393005" lon="10.4920633"><ele>131.0</ele><time>2026-05-03T09:04:25.596Z</time></trkpt><trkpt lat="45.3929283" lon="10.4920317"><ele>129.85714285714286</ele><time>2026-05-03T09:04:27.595Z</time></trkpt><trkpt lat="45.3928583" lon="10.492015"><ele>128.71428571428572</ele><time>2026-05-03T09:04:29.592Z</time></trkpt><trkpt lat="45.392785" lon="10.49201"><ele>127.57142857142858</ele><time>2026-05-03T09:04:31.596Z</time></trkpt><trkpt lat="45.392715" lon="10.4920217"><ele>126.42857142857144</ele><time>2026-05-03T09:04:33.596Z</time></trkpt><trkpt lat="45.3926533" lon="10.4920417"><ele>125.28571428571429</ele><time>2026-05-03T09:04:35.6Z</time></trkpt><trkpt lat="45.3926067" lon="10.4919683"><ele>124.14285714285717</ele><time>2026-05-03T09:04:39.596Z</time></trkpt><trkpt lat="45.392575" lon="10.4918583"><ele>123.00000000000001</ele><time>2026-05-03T09:04:42.59Z</time></trkpt><trkpt lat="45.392545" lon="10.4917583"><ele>123.0</ele><time>2026-05-03T09:04:45.589Z</time></trkpt><trkpt lat="45.39252" lon="10.4916533"><ele>123.0</ele><time>2026-05-03T09:04:48.598Z</time></trkpt><trkpt lat="45.3924783" lon="10.4915467"><ele>123.0</ele><time>2026-05-03T09:04:50.593Z</time></trkpt><trkpt lat="45.39245" lon="10.4914217"><ele>123.0</ele><time>2026-05-03T09:04:52.595Z</time></trkpt><trkpt lat="45.3924117" lon="10.4912783"><ele>123.0</ele><time>2026-05-03T09:04:54.591Z</time></trkpt><trkpt lat="45.39239" lon="10.49119"><ele>123.0</ele><time>2026-05-03T09:04:55.595Z</time></trkpt><trkpt lat="45.3923617" lon="10.4910967"><ele>122.0</ele><time>2026-05-03T09:04:56.591Z</time></trkpt><trkpt lat="45.39233" lon="10.49101"><ele>121.0</ele><time>2026-05-03T09:04:57.595Z</time></trkpt><trkpt lat="45.3922967" lon="10.49093"><ele>120.0</ele><time>2026-05-03T09:04:58.595Z</time></trkpt><trkpt lat="45.3922267" lon="10.49081"><ele>119.0</ele><time>2026-05-03T09:05:00.587Z</time></trkpt><trkpt lat="45.39217" lon="10.4907117"><ele>118.0</ele><time>2026-05-03T09:05:03.59Z</time></trkpt><trkpt lat="45.3921717" lon="10.4905833"><ele>117.0</ele><time>2026-05-03T09:05:06.595Z</time></trkpt><trkpt lat="45.3922233" lon="10.4905"><ele>116.39999999999999</ele><time>2026-05-03T09:05:08.591Z</time></trkpt><trkpt lat="45.3923083" lon="10.4904267"><ele>115.79999999999998</ele><time>2026-05-03T09:05:10.59Z</time></trkpt><trkpt lat="45.3923933" lon="10.49036"><ele>115.2</ele><time>2026-05-03T09:05:12.598Z</time></trkpt><trkpt lat="45.3924833" lon="10.4902883"><ele>114.6</ele><time>2026-05-03T09:05:14.596Z</time></trkpt><trkpt lat="45.39259" lon="10.4902233"><ele>114.0</ele><time>2026-05-03T09:05:16.596Z</time></trkpt><trkpt lat="45.3926867" lon="10.4901167"><ele>113.16666666666667</ele><time>2026-05-03T09:05:18.595Z</time></trkpt><trkpt lat="45.3927933" lon="10.4900233"><ele>112.33333333333334</ele><time>2026-05-03T09:05:20.598Z</time></trkpt><trkpt lat="45.3928517" lon="10.4899633"><ele>111.5</ele><time>2026-05-03T09:05:21.594Z</time></trkpt><trkpt lat="45.3929067" lon="10.4899033"><ele>110.66666666666667</ele><time>2026-05-03T09:05:22.596Z</time></trkpt><trkpt lat="45.3929617" lon="10.489825"><ele>109.83333333333334</ele><time>2026-05-03T09:05:23.598Z</time></trkpt><trkpt lat="45.3930183" lon="10.4897433"><ele>109.0</ele><time>2026-05-03T09:05:24.593Z</time></trkpt><trkpt lat="45.3930733" lon="10.48968"><ele>108.33333333333334</ele><time>2026-05-03T09:05:25.6Z</time></trkpt><trkpt lat="45.3931383" lon="10.4895983"><ele>107.66666666666667</ele><time>2026-05-03T09:05:27.595Z</time></trkpt><trkpt lat="45.3932033" lon="10.489545"><ele>107.0</ele><time>2026-05-03T09:05:31.595Z</time></trkpt><trkpt lat="45.39321" lon="10.48942"><ele>106.33333333333334</ele><time>2026-05-03T09:05:34.594Z</time></trkpt><trkpt lat="45.3931533" lon="10.4893083"><ele>105.66666666666667</ele><time>2026-05-03T09:05:36.591Z</time></trkpt><trkpt lat="45.3930967" lon="10.4891933"><ele>105.0</ele><time>2026-05-03T09:05:38.597Z</time></trkpt><trkpt lat="45.3930183" lon="10.4890967"><ele>104.66666666666667</ele><time>2026-05-03T09:05:40.597Z</time></trkpt><trkpt lat="45.3929717" lon="10.4889767"><ele>104.33333333333334</ele><time>2026-05-03T09:05:42.595Z</time></trkpt><trkpt lat="45.392985" lon="10.4888383"><ele>104.0</ele><time>2026-05-03T09:05:44.597Z</time></trkpt><trkpt lat="45.3930017" lon="10.4887117"><ele>103.66666666666667</ele><time>2026-05-03T09:05:46.596Z</time></trkpt><trkpt lat="45.3929633" lon="10.4886267"><ele>103.33333333333334</ele><time>2026-05-03T09:05:48.595Z</time></trkpt><trkpt lat="45.3928717" lon="10.48865"><ele>103.0</ele><time>2026-05-03T09:05:51.585Z</time></trkpt><trkpt lat="45.3927967" lon="10.4886367"><ele>103.0</ele><time>2026-05-03T09:05:53.595Z</time></trkpt><trkpt lat="45.3927133" lon="10.4886067"><ele>103.0</ele><time>2026-05-03T09:05:55.595Z</time></trkpt><trkpt lat="45.3926433" lon="10.4885367"><ele>103.0</ele><time>2026-05-03T09:05:57.595Z</time></trkpt><trkpt lat="45.39263" lon="10.4884067"><ele>103.0</ele><time>2026-05-03T09:05:59.591Z</time></trkpt><trkpt lat="45.3926817" lon="10.4882917"><ele>103.0</ele><time>2026-05-03T09:06:01.598Z</time></trkpt><trkpt lat="45.3927233" lon="10.4881783"><ele>103.00000000000001</ele><time>2026-05-03T09:06:03.591Z</time></trkpt><trkpt lat="45.392745" lon="10.4880533"><ele>103.0</ele><time>2026-05-03T09:06:05.596Z</time></trkpt><trkpt lat="45.3927767" lon="10.4879383"><ele>103.0</ele><time>2026-05-03T09:06:07.597Z</time></trkpt><trkpt lat="45.3928" lon="10.48784"><ele>103.0</ele><time>2026-05-03T09:06:09.586Z</time></trkpt><trkpt lat="45.3928083" lon="10.487735"><ele>103.00000000000001</ele><time>2026-05-03T09:06:13.597Z</time></trkpt><trkpt lat="45.3928617" lon="10.4876867"><ele>103.0</ele><time>2026-05-03T09:06:18.593Z</time></trkpt><trkpt lat="45.3929383" lon="10.48767"><ele>103.00000000000001</ele><time>2026-05-03T09:06:21.591Z</time></trkpt><trkpt lat="45.3930167" lon="10.4876533"><ele>103.0</ele><time>2026-05-03T09:06:23.595Z</time></trkpt><trkpt lat="45.3930917" lon="10.487625"><ele>103.0</ele><time>2026-05-03T09:06:25.596Z</time></trkpt><trkpt lat="45.393155" lon="10.487585"><ele>103.0</ele><time>2026-05-03T09:06:27.591Z</time></trkpt><trkpt lat="45.3932267" lon="10.4875567"><ele>103.00000000000001</ele><time>2026-05-03T09:06:29.599Z</time></trkpt><trkpt lat="45.393305" lon="10.4875233"><ele>103.0</ele><time>2026-05-03T09:06:31.595Z</time></trkpt><trkpt lat="45.3933833" lon="10.487465"><ele>102.99999999999999</ele><time>2026-05-03T09:06:33.591Z</time></trkpt><trkpt lat="45.3934533" lon="10.487395"><ele>103.0</ele><time>2026-05-03T09:06:35.593Z</time></trkpt><trkpt lat="45.39351" lon="10.4873467"><ele>103.0</ele><time>2026-05-03T09:06:37.6Z</time></trkpt><trkpt lat="45.3935667" lon="10.48729"><ele>103.0</ele><time>2026-05-03T09:06:39.596Z</time></trkpt><trkpt lat="45.3936167" lon="10.48722"><ele>103.0</ele><time>2026-05-03T09:06:41.597Z</time></trkpt><trkpt lat="45.3936583" lon="10.48714"><ele>102.99999999999999</ele><time>2026-05-03T09:06:43.594Z</time></trkpt><trkpt lat="45.3936983" lon="10.4870483"><ele>103.0</ele><time>2026-05-03T09:06:45.595Z</time></trkpt><trkpt lat="45.393725" lon="10.486925"><ele>102.83333333333334</ele><time>2026-05-03T09:06:48.589Z</time></trkpt><trkpt lat="45.3937233" lon="10.4867883"><ele>102.66666666666667</ele><time>2026-05-03T09:06:51.592Z</time></trkpt><trkpt lat="45.3937133" lon="10.4866917"><ele>102.5</ele><time>2026-05-03T09:06:53.592Z</time></trkpt><trkpt lat="45.3937" lon="10.4865867"><ele>102.33333333333334</ele><time>2026-05-03T09:06:55.599Z</time></trkpt><trkpt lat="45.3936867" lon="10.4864817"><ele>102.16666666666667</ele><time>2026-05-03T09:06:57.588Z</time></trkpt><trkpt lat="45.3936717" lon="10.4863833"><ele>102.0</ele><time>2026-05-03T09:06:59.587Z</time></trkpt><trkpt lat="45.3936367" lon="10.4862617"><ele>102.16666666666667</ele><time>2026-05-03T09:07:02.596Z</time></trkpt><trkpt lat="45.3936117" lon="10.4861583"><ele>102.33333333333334</ele><time>2026-05-03T09:07:04.593Z</time></trkpt><trkpt lat="45.3935883" lon="10.4860567"><ele>102.5</ele><time>2026-05-03T09:07:06.592Z</time></trkpt><trkpt lat="45.3935683" lon="10.4859567"><ele>102.66666666666667</ele><time>2026-05-03T09:07:08.589Z</time></trkpt><trkpt lat="45.3935467" lon="10.48584"><ele>102.83333333333334</ele><time>2026-05-03T09:07:10.592Z</time></trkpt><trkpt lat="45.3935217" lon="10.4857233"><ele>103.0</ele><time>2026-05-03T09:07:12.591Z</time></trkpt><trkpt lat="45.3934967" lon="10.485595"><ele>103.0</ele><time>2026-05-03T09:07:14.589Z</time></trkpt><trkpt lat="45.3934617" lon="10.4854617"><ele>103.0</ele><time>2026-05-03T09:07:16.597Z</time></trkpt><trkpt lat="45.3934133" lon="10.4853183"><ele>103.0</ele><time>2026-05-03T09:07:18.596Z</time></trkpt><trkpt lat="45.3933617" lon="10.485175"><ele>103.0</ele><time>2026-05-03T09:07:20.598Z</time></trkpt><trkpt lat="45.39331" lon="10.485035"><ele>103.0</ele><time>2026-05-03T09:07:22.596Z</time></trkpt><trkpt lat="45.3932533" lon="10.484905"><ele>102.80000000000001</ele><time>2026-05-03T09:07:24.592Z</time></trkpt><trkpt lat="45.393205" lon="10.48478"><ele>102.6</ele><time>2026-05-03T09:07:26.598Z</time></trkpt><trkpt lat="45.3931333" lon="10.4846833"><ele>102.4</ele><time>2026-05-03T09:07:28.597Z</time></trkpt><trkpt lat="45.3930383" lon="10.4846233"><ele>102.19999999999999</ele><time>2026-05-03T09:07:30.595Z</time></trkpt><trkpt lat="45.3929533" lon="10.4845783"><ele>102.0</ele><time>2026-05-03T09:07:32.595Z</time></trkpt><trkpt lat="45.3928617" lon="10.4846217"><ele>101.83333333333333</ele><time>2026-05-03T09:07:34.595Z</time></trkpt><trkpt lat="45.392805" lon="10.48471"><ele>101.66666666666666</ele><time>2026-05-03T09:07:36.597Z</time></trkpt><trkpt lat="45.3927717" lon="10.484825"><ele>101.5</ele><time>2026-05-03T09:07:38.595Z</time></trkpt><trkpt lat="45.3927383" lon="10.4849267"><ele>101.33333333333333</ele><time>2026-05-03T09:07:40.585Z</time></trkpt><trkpt lat="45.3927" lon="10.4850183"><ele>101.16666666666666</ele><time>2026-05-03T09:07:43.598Z</time></trkpt><trkpt lat="45.3926583" lon="10.4850867"><ele>101.0</ele><time>2026-05-03T09:07:48.595Z</time></trkpt><trkpt lat="45.3926033" lon="10.4850333"><ele>100.99999999999999</ele><time>2026-05-03T09:07:51.587Z</time></trkpt><trkpt lat="45.3925483" lon="10.48495"><ele>101.0</ele><time>2026-05-03T09:07:54.586Z</time></trkpt><trkpt lat="45.3924533" lon="10.4848717"><ele>101.0</ele><time>2026-05-03T09:07:55.588Z</time></trkpt><trkpt lat="45.3923867" lon="10.4847583"><ele>101.0</ele><time>2026-05-03T09:07:57.588Z</time></trkpt><trkpt lat="45.3923217" lon="10.484765"><ele>100.99999999999999</ele><time>2026-05-03T09:08:01.583Z</time></trkpt><trkpt lat="45.3922717" lon="10.484845"><ele>101.0</ele><time>2026-05-03T09:08:04.9Z</time></trkpt><trkpt lat="45.392215" lon="10.4849417"><ele>101.16666666666666</ele><time>2026-05-03T09:08:06.898Z</time></trkpt><trkpt lat="45.3921433" lon="10.4850117"><ele>101.33333333333333</ele><time>2026-05-03T09:08:09.11Z</time></trkpt><trkpt lat="45.3920717" lon="10.485095"><ele>101.5</ele><time>2026-05-03T09:08:11.121Z</time></trkpt><trkpt lat="45.3920083" lon="10.4851617"><ele>101.66666666666666</ele><time>2026-05-03T09:08:13.108Z</time></trkpt><trkpt lat="45.3919467" lon="10.4852483"><ele>101.83333333333333</ele><time>2026-05-03T09:08:15.119Z</time></trkpt><trkpt lat="45.391875" lon="10.4853267"><ele>102.0</ele><time>2026-05-03T09:08:17.117Z</time></trkpt><trkpt lat="45.3918267" lon="10.4854383"><ele>102.0</ele><time>2026-05-03T09:08:19.113Z</time></trkpt><trkpt lat="45.3917783" lon="10.4855433"><ele>102.0</ele><time>2026-05-03T09:08:21.12Z</time></trkpt><trkpt lat="45.3917183" lon="10.485645"><ele>102.0</ele><time>2026-05-03T09:08:23.118Z</time></trkpt><trkpt lat="45.39166" lon="10.4857333"><ele>102.0</ele><time>2026-05-03T09:08:25.116Z</time></trkpt><trkpt lat="45.3915883" lon="10.4857933"><ele>102.0</ele><time>2026-05-03T09:08:27.111Z</time></trkpt><trkpt lat="45.39151" lon="10.4858133"><ele>102.0</ele><time>2026-05-03T09:08:29.113Z</time></trkpt><trkpt lat="45.3914367" lon="10.4858067"><ele>100.0</ele><time>2026-05-03T09:08:31.119Z</time></trkpt><trkpt lat="45.391325" lon="10.4857767"><ele>98.0</ele><time>2026-05-03T09:08:33.121Z</time></trkpt><trkpt lat="45.3912633" lon="10.4857583"><ele>96.0</ele><time>2026-05-03T09:08:34.11Z</time></trkpt><trkpt lat="45.3911583" lon="10.48572"><ele>94.0</ele><time>2026-05-03T09:08:36.113Z</time></trkpt><trkpt lat="45.3910533" lon="10.48567"><ele>92.0</ele><time>2026-05-03T09:08:38.119Z</time></trkpt><trkpt lat="45.3909533" lon="10.4856283"><ele>92.0</ele><time>2026-05-03T09:08:40.114Z</time></trkpt><trkpt lat="45.390855" lon="10.4855933"><ele>92.0</ele><time>2026-05-03T09:08:42.122Z</time></trkpt><trkpt lat="45.39076" lon="10.485565"><ele>92.0</ele><time>2026-05-03T09:08:44.118Z</time></trkpt><trkpt lat="45.3906667" lon="10.48554"><ele>92.0</ele><time>2026-05-03T09:08:46.119Z</time></trkpt><trkpt lat="45.3905733" lon="10.4855083"><ele>92.0</ele><time>2026-05-03T09:08:48.116Z</time></trkpt><trkpt lat="45.3904867" lon="10.48545"><ele>92.16666666666667</ele><time>2026-05-03T09:08:50.125Z</time></trkpt><trkpt lat="45.3904033" lon="10.4853967"><ele>92.33333333333334</ele><time>2026-05-03T09:08:52.117Z</time></trkpt><trkpt lat="45.3903283" lon="10.48537"><ele>92.5</ele><time>2026-05-03T09:08:54.123Z</time></trkpt><trkpt lat="45.3902617" lon="10.4853683"><ele>92.66666666666667</ele><time>2026-05-03T09:08:56.121Z</time></trkpt><trkpt lat="45.3901883" lon="10.4854583"><ele>92.83333333333333</ele><time>2026-05-03T09:08:59.12Z</time></trkpt><trkpt lat="45.3901367" lon="10.4855417"><ele>93.0</ele><time>2026-05-03T09:09:01.115Z</time></trkpt><trkpt lat="45.39009" lon="10.48562"><ele>94.16666666666667</ele><time>2026-05-03T09:09:03.12Z</time></trkpt><trkpt lat="45.3900267" lon="10.4856817"><ele>95.33333333333334</ele><time>2026-05-03T09:09:05.115Z</time></trkpt><trkpt lat="45.3899483" lon="10.4856933"><ele>96.5</ele><time>2026-05-03T09:09:07.114Z</time></trkpt><trkpt lat="45.3898617" lon="10.4856817"><ele>97.66666666666667</ele><time>2026-05-03T09:09:09.111Z</time></trkpt><trkpt lat="45.3897667" lon="10.4856933"><ele>98.83333333333334</ele><time>2026-05-03T09:09:11.121Z</time></trkpt><trkpt lat="45.3896683" lon="10.485715"><ele>100.0</ele><time>2026-05-03T09:09:13.119Z</time></trkpt><trkpt lat="45.3895817" lon="10.4857067"><ele>100.4</ele><time>2026-05-03T09:09:15.119Z</time></trkpt><trkpt lat="45.3895067" lon="10.4856867"><ele>100.8</ele><time>2026-05-03T09:09:17.107Z</time></trkpt><trkpt lat="45.389415" lon="10.4856617"><ele>101.19999999999999</ele><time>2026-05-03T09:09:19.115Z</time></trkpt><trkpt lat="45.3893033" lon="10.4856417"><ele>101.6</ele><time>2026-05-03T09:09:21.116Z</time></trkpt><trkpt lat="45.389185" lon="10.4856267"><ele>102.0</ele><time>2026-05-03T09:09:23.119Z</time></trkpt><trkpt lat="45.38907" lon="10.4855717"><ele>102.0</ele><time>2026-05-03T09:09:25.11Z</time></trkpt><trkpt lat="45.3889533" lon="10.4855167"><ele>102.0</ele><time>2026-05-03T09:09:27.119Z</time></trkpt><trkpt lat="45.3888483" lon="10.4854483"><ele>102.0</ele><time>2026-05-03T09:09:29.121Z</time></trkpt><trkpt lat="45.388755" lon="10.485385"><ele>102.0</ele><time>2026-05-03T09:09:31.12Z</time></trkpt><trkpt lat="45.38867" lon="10.48534"><ele>102.0</ele><time>2026-05-03T09:09:33.12Z</time></trkpt><trkpt lat="45.3885967" lon="10.485325"><ele>100.83333333333333</ele><time>2026-05-03T09:09:35.119Z</time></trkpt><trkpt lat="45.3885317" lon="10.4853183"><ele>99.66666666666667</ele><time>2026-05-03T09:09:37.118Z</time></trkpt><trkpt lat="45.3884533" lon="10.4852867"><ele>98.5</ele><time>2026-05-03T09:09:39.122Z</time></trkpt><trkpt lat="45.388355" lon="10.4852117"><ele>97.33333333333334</ele><time>2026-05-03T09:09:41.12Z</time></trkpt><trkpt lat="45.3882683" lon="10.4851567"><ele>96.16666666666667</ele><time>2026-05-03T09:09:43.115Z</time></trkpt><trkpt lat="45.38819" lon="10.4851333"><ele>95.0</ele><time>2026-05-03T09:09:45.12Z</time></trkpt><trkpt lat="45.3881133" lon="10.4851183"><ele>95.0</ele><time>2026-05-03T09:09:47.117Z</time></trkpt><trkpt lat="45.3880433" lon="10.4850817"><ele>95.0</ele><time>2026-05-03T09:09:49.115Z</time></trkpt><trkpt lat="45.3879633" lon="10.4850317"><ele>95.0</ele><time>2026-05-03T09:09:51.119Z</time></trkpt><trkpt lat="45.387885" lon="10.4850133"><ele>95.0</ele><time>2026-05-03T09:09:53.114Z</time></trkpt><trkpt lat="45.3878083" lon="10.4850033"><ele>95.0</ele><time>2026-05-03T09:09:55.118Z</time></trkpt><trkpt lat="45.3877267" lon="10.4849983"><ele>95.0</ele><time>2026-05-03T09:09:57.113Z</time></trkpt><trkpt lat="45.3876267" lon="10.4849617"><ele>95.33333333333334</ele><time>2026-05-03T09:09:59.113Z</time></trkpt><trkpt lat="45.387545" lon="10.4849617"><ele>95.66666666666667</ele><time>2026-05-03T09:10:02.118Z</time></trkpt><trkpt lat="45.3874733" lon="10.4849917"><ele>96.0</ele><time>2026-05-03T09:10:06.113Z</time></trkpt><trkpt lat="45.3873967" lon="10.4849167"><ele>96.33333333333334</ele><time>2026-05-03T09:10:10.116Z</time></trkpt><trkpt lat="45.3873517" lon="10.484795"><ele>96.66666666666667</ele><time>2026-05-03T09:10:12.12Z</time></trkpt><trkpt lat="45.387305" lon="10.484665"><ele>97.0</ele><time>2026-05-03T09:10:14.112Z</time></trkpt><trkpt lat="45.38727" lon="10.4845383"><ele>96.0</ele><time>2026-05-03T09:10:16.109Z</time></trkpt><trkpt lat="45.3872333" lon="10.4843833"><ele>95.0</ele><time>2026-05-03T09:10:18.12Z</time></trkpt><trkpt lat="45.3872167" lon="10.4842233"><ele>94.0</ele><time>2026-05-03T09:10:20.12Z</time></trkpt><trkpt lat="45.3872317" lon="10.484085"><ele>93.0</ele><time>2026-05-03T09:10:22.122Z</time></trkpt><trkpt lat="45.3872483" lon="10.4839517"><ele>92.0</ele><time>2026-05-03T09:10:24.121Z</time></trkpt><trkpt lat="45.3872583" lon="10.4838267"><ele>92.0</ele><time>2026-05-03T09:10:26.119Z</time></trkpt><trkpt lat="45.38726" lon="10.4836867"><ele>92.0</ele><time>2026-05-03T09:10:28.115Z</time></trkpt><trkpt lat="45.387285" lon="10.4835567"><ele>92.0</ele><time>2026-05-03T09:10:30.12Z</time></trkpt><trkpt lat="45.3873283" lon="10.483445"><ele>92.0</ele><time>2026-05-03T09:10:32.12Z</time></trkpt><trkpt lat="45.3873667" lon="10.4833233"><ele>92.0</ele><time>2026-05-03T09:10:34.113Z</time></trkpt><trkpt lat="45.38741" lon="10.4832167"><ele>92.0</ele><time>2026-05-03T09:10:36.123Z</time></trkpt><trkpt lat="45.3874633" lon="10.4831183"><ele>92.0</ele><time>2026-05-03T09:10:38.12Z</time></trkpt><trkpt lat="45.3875283" lon="10.4830167"><ele>92.0</ele><time>2026-05-03T09:10:40.114Z</time></trkpt><trkpt lat="45.3876017" lon="10.4829167"><ele>92.0</ele><time>2026-05-03T09:10:42.117Z</time></trkpt><trkpt lat="45.387675" lon="10.48282"><ele>92.0</ele><time>2026-05-03T09:10:44.117Z</time></trkpt><trkpt lat="45.387745" lon="10.4827167"><ele>92.19999999999999</ele><time>2026-05-03T09:10:46.115Z</time></trkpt><trkpt lat="45.3878067" lon="10.4826133"><ele>92.4</ele><time>2026-05-03T09:10:48.114Z</time></trkpt><trkpt lat="45.3878717" lon="10.4825183"><ele>92.6</ele><time>2026-05-03T09:10:50.126Z</time></trkpt><trkpt lat="45.3879433" lon="10.4824217"><ele>92.80000000000001</ele><time>2026-05-03T09:10:52.115Z</time></trkpt><trkpt lat="45.3880083" lon="10.48232"><ele>93.0</ele><time>2026-05-03T09:10:54.115Z</time></trkpt><trkpt lat="45.3880667" lon="10.4822067"><ele>93.60000000000001</ele><time>2026-05-03T09:10:56.122Z</time></trkpt><trkpt lat="45.38813" lon="10.482095"><ele>94.2</ele><time>2026-05-03T09:10:58.117Z</time></trkpt><trkpt lat="45.3882033" lon="10.482005"><ele>94.8</ele><time>2026-05-03T09:11:00.123Z</time></trkpt><trkpt lat="45.3882817" lon="10.481935"><ele>95.4</ele><time>2026-05-03T09:11:02.125Z</time></trkpt><trkpt lat="45.3883733" lon="10.4819083"><ele>96.0</ele><time>2026-05-03T09:11:04.121Z</time></trkpt><trkpt lat="45.38846" lon="10.4818683"><ele>96.0</ele><time>2026-05-03T09:11:06.122Z</time></trkpt><trkpt lat="45.3885383" lon="10.4818617"><ele>96.0</ele><time>2026-05-03T09:11:08.118Z</time></trkpt><trkpt lat="45.3886183" lon="10.4818917"><ele>96.0</ele><time>2026-05-03T09:11:10.113Z</time></trkpt><trkpt lat="45.388705" lon="10.4819333"><ele>96.0</ele><time>2026-05-03T09:11:12.116Z</time></trkpt><trkpt lat="45.3887933" lon="10.4819783"><ele>96.0</ele><time>2026-05-03T09:11:14.12Z</time></trkpt><trkpt lat="45.3888783" lon="10.48202"><ele>96.0</ele><time>2026-05-03T09:11:16.118Z</time></trkpt><trkpt lat="45.388975" lon="10.4820533"><ele>96.19999999999999</ele><time>2026-05-03T09:11:18.121Z</time></trkpt><trkpt lat="45.3890783" lon="10.4820967"><ele>96.39999999999999</ele><time>2026-05-03T09:11:20.119Z</time></trkpt><trkpt lat="45.3891733" lon="10.482155"><ele>96.6</ele><time>2026-05-03T09:11:22.106Z</time></trkpt><trkpt lat="45.38927" lon="10.482215"><ele>96.8</ele><time>2026-05-03T09:11:24.116Z</time></trkpt><trkpt lat="45.38937" lon="10.4822617"><ele>97.0</ele><time>2026-05-03T09:11:26.121Z</time></trkpt><trkpt lat="45.3894667" lon="10.482305"><ele>97.0</ele><time>2026-05-03T09:11:28.123Z</time></trkpt><trkpt lat="45.3895683" lon="10.4823233"><ele>97.0</ele><time>2026-05-03T09:11:30.121Z</time></trkpt><trkpt lat="45.3896683" lon="10.4823383"><ele>97.0</ele><time>2026-05-03T09:11:32.127Z</time></trkpt><trkpt lat="45.3897683" lon="10.4823517"><ele>97.0</ele><time>2026-05-03T09:11:34.122Z</time></trkpt><trkpt lat="45.3898667" lon="10.4823683"><ele>97.0</ele><time>2026-05-03T09:11:36.111Z</time></trkpt><trkpt lat="45.3899667" lon="10.4823733"><ele>97.39999999999999</ele><time>2026-05-03T09:11:38.122Z</time></trkpt><trkpt lat="45.390065" lon="10.482365"><ele>97.8</ele><time>2026-05-03T09:11:40.117Z</time></trkpt><trkpt lat="45.3901667" lon="10.4823567"><ele>98.2</ele><time>2026-05-03T09:11:42.112Z</time></trkpt><trkpt lat="45.39027" lon="10.4823383"><ele>98.6</ele><time>2026-05-03T09:11:44.123Z</time></trkpt><trkpt lat="45.3903733" lon="10.482305"><ele>99.0</ele><time>2026-05-03T09:11:46.121Z</time></trkpt><trkpt lat="45.3904733" lon="10.4822617"><ele>99.2</ele><time>2026-05-03T09:11:48.115Z</time></trkpt><trkpt lat="45.39058" lon="10.4822483"><ele>99.4</ele><time>2026-05-03T09:11:50.114Z</time></trkpt><trkpt lat="45.390685" lon="10.4822233"><ele>99.6</ele><time>2026-05-03T09:11:52.112Z</time></trkpt><trkpt lat="45.3907867" lon="10.4821783"><ele>99.8</ele><time>2026-05-03T09:11:54.121Z</time></trkpt><trkpt lat="45.3908917" lon="10.482135"><ele>100.0</ele><time>2026-05-03T09:11:56.123Z</time></trkpt><trkpt lat="45.390995" lon="10.4820867"><ele>100.0</ele><time>2026-05-03T09:11:58.119Z</time></trkpt><trkpt lat="45.391095" lon="10.4820333"><ele>100.0</ele><time>2026-05-03T09:12:00.122Z</time></trkpt><trkpt lat="45.3911967" lon="10.4819833"><ele>100.0</ele><time>2026-05-03T09:12:02.121Z</time></trkpt><trkpt lat="45.3913017" lon="10.481945"><ele>100.0</ele><time>2026-05-03T09:12:04.12Z</time></trkpt><trkpt lat="45.3914033" lon="10.48189"><ele>100.0</ele><time>2026-05-03T09:12:06.121Z</time></trkpt><trkpt lat="45.3915117" lon="10.4818483"><ele>100.0</ele><time>2026-05-03T09:12:08.127Z</time></trkpt><trkpt lat="45.3916167" lon="10.481805"><ele>100.0</ele><time>2026-05-03T09:12:10.119Z</time></trkpt><trkpt lat="45.3917267" lon="10.48176"><ele>100.0</ele><time>2026-05-03T09:12:12.121Z</time></trkpt><trkpt lat="45.3918333" lon="10.481715"><ele>100.0</ele><time>2026-05-03T09:12:14.123Z</time></trkpt><trkpt lat="45.3919417" lon="10.4816833"><ele>100.0</ele><time>2026-05-03T09:12:16.12Z</time></trkpt><trkpt lat="45.3920533" lon="10.48167"><ele>100.0</ele><time>2026-05-03T09:12:18.123Z</time></trkpt><trkpt lat="45.392165" lon="10.481665"><ele>100.0</ele><time>2026-05-03T09:12:20.117Z</time></trkpt><trkpt lat="45.3922767" lon="10.48166"><ele>100.0</ele><time>2026-05-03T09:12:22.122Z</time></trkpt><trkpt lat="45.3923833" lon="10.4816733"><ele>100.0</ele><time>2026-05-03T09:12:24.124Z</time></trkpt><trkpt lat="45.39249" lon="10.4817117"><ele>100.0</ele><time>2026-05-03T09:12:26.12Z</time></trkpt><trkpt lat="45.3925967" lon="10.4817533"><ele>100.2</ele><time>2026-05-03T09:12:28.12Z</time></trkpt><trkpt lat="45.3927" lon="10.4817967"><ele>100.4</ele><time>2026-05-03T09:12:30.122Z</time></trkpt><trkpt lat="45.3927983" lon="10.48183"><ele>100.6</ele><time>2026-05-03T09:12:32.12Z</time></trkpt><trkpt lat="45.3929017" lon="10.4818717"><ele>100.8</ele><time>2026-05-03T09:12:34.122Z</time></trkpt><trkpt lat="45.3930033" lon="10.4819183"><ele>101.0</ele><time>2026-05-03T09:12:36.122Z</time></trkpt><trkpt lat="45.3931067" lon="10.4819667"><ele>101.19999999999999</ele><time>2026-05-03T09:12:38.12Z</time></trkpt><trkpt lat="45.393215" lon="10.4820183"><ele>101.39999999999999</ele><time>2026-05-03T09:12:40.123Z</time></trkpt><trkpt lat="45.39332" lon="10.4820617"><ele>101.6</ele><time>2026-05-03T09:12:42.122Z</time></trkpt><trkpt lat="45.3934267" lon="10.4820967"><ele>101.8</ele><time>2026-05-03T09:12:44.125Z</time></trkpt><trkpt lat="45.3935317" lon="10.482145"><ele>102.0</ele><time>2026-05-03T09:12:46.12Z</time></trkpt><trkpt lat="45.3936083" lon="10.4821933"><ele>102.19999999999999</ele><time>2026-05-03T09:12:48.116Z</time></trkpt><trkpt lat="45.3936733" lon="10.4822517"><ele>102.4</ele><time>2026-05-03T09:12:50.122Z</time></trkpt><trkpt lat="45.3937567" lon="10.4823083"><ele>102.6</ele><time>2026-05-03T09:12:52.115Z</time></trkpt><trkpt lat="45.3938483" lon="10.482365"><ele>102.80000000000001</ele><time>2026-05-03T09:12:54.123Z</time></trkpt><trkpt lat="45.3939383" lon="10.4824133"><ele>103.0</ele><time>2026-05-03T09:12:56.121Z</time></trkpt><trkpt lat="45.3940217" lon="10.4824783"><ele>103.2</ele><time>2026-05-03T09:12:58.121Z</time></trkpt><trkpt lat="45.394085" lon="10.4825783"><ele>103.4</ele><time>2026-05-03T09:13:00.116Z</time></trkpt><trkpt lat="45.3941167" lon="10.482695"><ele>103.60000000000001</ele><time>2026-05-03T09:13:02.124Z</time></trkpt><trkpt lat="45.3941317" lon="10.4828283"><ele>103.80000000000001</ele><time>2026-05-03T09:13:04.119Z</time></trkpt><trkpt lat="45.3941483" lon="10.482985"><ele>104.0</ele><time>2026-05-03T09:13:06.121Z</time></trkpt><trkpt lat="45.3941767" lon="10.4831433"><ele>104.0</ele><time>2026-05-03T09:13:08.126Z</time></trkpt><trkpt lat="45.394215" lon="10.4833017"><ele>104.0</ele><time>2026-05-03T09:13:10.113Z</time></trkpt><trkpt lat="45.394255" lon="10.4834633"><ele>104.0</ele><time>2026-05-03T09:13:12.124Z</time></trkpt><trkpt lat="45.3942833" lon="10.483615"><ele>104.0</ele><time>2026-05-03T09:13:14.127Z</time></trkpt><trkpt lat="45.3943017" lon="10.4837667"><ele>104.0</ele><time>2026-05-03T09:13:16.118Z</time></trkpt><trkpt lat="45.394315" lon="10.4839183"><ele>104.0</ele><time>2026-05-03T09:13:18.121Z</time></trkpt><trkpt lat="45.3943217" lon="10.4840667"><ele>104.0</ele><time>2026-05-03T09:13:20.122Z</time></trkpt><trkpt lat="45.3943267" lon="10.4842067"><ele>104.0</ele><time>2026-05-03T09:13:22.117Z</time></trkpt><trkpt lat="45.3943233" lon="10.4843467"><ele>104.0</ele><time>2026-05-03T09:13:24.12Z</time></trkpt><trkpt lat="45.3943333" lon="10.48448"><ele>104.2</ele><time>2026-05-03T09:13:26.12Z</time></trkpt><trkpt lat="45.3943533" lon="10.4846033"><ele>104.4</ele><time>2026-05-03T09:13:28.113Z</time></trkpt><trkpt lat="45.3943767" lon="10.4847283"><ele>104.6</ele><time>2026-05-03T09:13:30.115Z</time></trkpt><trkpt lat="45.394395" lon="10.4848583"><ele>104.8</ele><time>2026-05-03T09:13:32.124Z</time></trkpt><trkpt lat="45.3944183" lon="10.4849767"><ele>105.0</ele><time>2026-05-03T09:13:34.121Z</time></trkpt><trkpt lat="45.39444" lon="10.4851033"><ele>105.0</ele><time>2026-05-03T09:13:36.117Z</time></trkpt><trkpt lat="45.3944583" lon="10.4852367"><ele>105.0</ele><time>2026-05-03T09:13:38.12Z</time></trkpt><trkpt lat="45.394485" lon="10.4853683"><ele>105.0</ele><time>2026-05-03T09:13:40.117Z</time></trkpt><trkpt lat="45.3945167" lon="10.48549"><ele>105.0</ele><time>2026-05-03T09:13:42.117Z</time></trkpt><trkpt lat="45.3945417" lon="10.485615"><ele>105.0</ele><time>2026-05-03T09:13:44.12Z</time></trkpt><trkpt lat="45.3945817" lon="10.485755"><ele>105.2</ele><time>2026-05-03T09:13:46.12Z</time></trkpt><trkpt lat="45.3946167" lon="10.4859017"><ele>105.4</ele><time>2026-05-03T09:13:48.121Z</time></trkpt><trkpt lat="45.3946333" lon="10.4860717"><ele>105.6</ele><time>2026-05-03T09:13:50.12Z</time></trkpt><trkpt lat="45.39464" lon="10.4862183"><ele>105.8</ele><time>2026-05-03T09:13:52.121Z</time></trkpt><trkpt lat="45.394655" lon="10.4863467"><ele>106.0</ele><time>2026-05-03T09:13:54.114Z</time></trkpt><trkpt lat="45.3946567" lon="10.48645"><ele>106.33333333333334</ele><time>2026-05-03T09:13:56.117Z</time></trkpt><trkpt lat="45.3946483" lon="10.4865883"><ele>106.66666666666667</ele><time>2026-05-03T09:13:59.119Z</time></trkpt><trkpt lat="45.3946833" lon="10.4867"><ele>107.0</ele><time>2026-05-03T09:14:01.113Z</time></trkpt><trkpt lat="45.3947067" lon="10.4868133"><ele>107.33333333333334</ele><time>2026-05-03T09:14:03.114Z</time></trkpt><trkpt lat="45.39473" lon="10.4869083"><ele>107.66666666666667</ele><time>2026-05-03T09:14:05.115Z</time></trkpt><trkpt lat="45.3947783" lon="10.4870233"><ele>108.0</ele><time>2026-05-03T09:14:08.118Z</time></trkpt><trkpt lat="45.394825" lon="10.4871233"><ele>108.4</ele><time>2026-05-03T09:14:10.118Z</time></trkpt><trkpt lat="45.3948833" lon="10.4872367"><ele>108.80000000000001</ele><time>2026-05-03T09:14:12.121Z</time></trkpt><trkpt lat="45.39492" lon="10.4873633"><ele>109.2</ele><time>2026-05-03T09:14:14.124Z</time></trkpt><trkpt lat="45.39496" lon="10.48749"><ele>109.6</ele><time>2026-05-03T09:14:16.12Z</time></trkpt><trkpt lat="45.3950067" lon="10.4876133"><ele>110.0</ele><time>2026-05-03T09:14:18.122Z</time></trkpt><trkpt lat="45.3950467" lon="10.4877417"><ele>110.0</ele><time>2026-05-03T09:14:20.121Z</time></trkpt><trkpt lat="45.395085" lon="10.4878733"><ele>110.0</ele><time>2026-05-03T09:14:22.12Z</time></trkpt><trkpt lat="45.395125" lon="10.4879933"><ele>110.0</ele><time>2026-05-03T09:14:24.122Z</time></trkpt><trkpt lat="45.3951617" lon="10.4881417"><ele>110.0</ele><time>2026-05-03T09:14:26.122Z</time></trkpt><trkpt lat="45.39519" lon="10.4883"><ele>110.0</ele><time>2026-05-03T09:14:28.115Z</time></trkpt><trkpt lat="45.3952183" lon="10.488445"><ele>109.8</ele><time>2026-05-03T09:14:30.12Z</time></trkpt><trkpt lat="45.3952717" lon="10.488575"><ele>109.6</ele><time>2026-05-03T09:14:32.127Z</time></trkpt><trkpt lat="45.3953133" lon="10.4887083"><ele>109.4</ele><time>2026-05-03T09:14:34.115Z</time></trkpt><trkpt lat="45.395345" lon="10.4888333"><ele>109.2</ele><time>2026-05-03T09:14:36.124Z</time></trkpt><trkpt lat="45.3953783" lon="10.4889517"><ele>109.0</ele><time>2026-05-03T09:14:38.123Z</time></trkpt><trkpt lat="45.3954167" lon="10.4890617"><ele>109.33333333333334</ele><time>2026-05-03T09:14:40.118Z</time></trkpt><trkpt lat="45.395455" lon="10.4891617"><ele>109.66666666666667</ele><time>2026-05-03T09:14:42.12Z</time></trkpt><trkpt lat="45.3955067" lon="10.48928"><ele>110.0</ele><time>2026-05-03T09:14:44.121Z</time></trkpt><trkpt lat="45.3955533" lon="10.489385"><ele>110.33333333333334</ele><time>2026-05-03T09:14:46.12Z</time></trkpt><trkpt lat="45.3956083" lon="10.4894717"><ele>110.66666666666667</ele><time>2026-05-03T09:14:48.116Z</time></trkpt><trkpt lat="45.3956833" lon="10.4895483"><ele>111.0</ele><time>2026-05-03T09:14:50.12Z</time></trkpt><trkpt lat="45.395755" lon="10.4896383"><ele>111.8</ele><time>2026-05-03T09:14:52.116Z</time></trkpt><trkpt lat="45.3958233" lon="10.4897233"><ele>112.6</ele><time>2026-05-03T09:14:54.116Z</time></trkpt><trkpt lat="45.3958967" lon="10.4898"><ele>113.4</ele><time>2026-05-03T09:14:56.121Z</time></trkpt><trkpt lat="45.395975" lon="10.4898767"><ele>114.2</ele><time>2026-05-03T09:14:58.117Z</time></trkpt><trkpt lat="45.3960533" lon="10.48994"><ele>115.0</ele><time>2026-05-03T09:15:00.117Z</time></trkpt><trkpt lat="45.3961417" lon="10.489975"><ele>115.0</ele><time>2026-05-03T09:15:02.121Z</time></trkpt><trkpt lat="45.3962267" lon="10.4900017"><ele>115.0</ele><time>2026-05-03T09:15:04.119Z</time></trkpt><trkpt lat="45.3963117" lon="10.49004"><ele>115.0</ele><time>2026-05-03T09:15:06.122Z</time></trkpt><trkpt lat="45.3964" lon="10.4900867"><ele>115.0</ele><time>2026-05-03T09:15:08.123Z</time></trkpt><trkpt lat="45.3964883" lon="10.4901183"><ele>115.0</ele><time>2026-05-03T09:15:10.121Z</time></trkpt><trkpt lat="45.396575" lon="10.49015"><ele>115.50000000000001</ele><time>2026-05-03T09:15:12.116Z</time></trkpt><trkpt lat="45.3966583" lon="10.4901817"><ele>116.0</ele><time>2026-05-03T09:15:14.119Z</time></trkpt><trkpt lat="45.39674" lon="10.4902133"><ele>116.5</ele><time>2026-05-03T09:15:16.113Z</time></trkpt><trkpt lat="45.3968167" lon="10.4902483"><ele>117.0</ele><time>2026-05-03T09:15:18.114Z</time></trkpt><trkpt lat="45.3968867" lon="10.49029"><ele>117.50000000000001</ele><time>2026-05-03T09:15:20.118Z</time></trkpt><trkpt lat="45.3969583" lon="10.49032"><ele>118.0</ele><time>2026-05-03T09:15:22.113Z</time></trkpt><trkpt lat="45.3970367" lon="10.49035"><ele>118.00000000000001</ele><time>2026-05-03T09:15:24.121Z</time></trkpt><trkpt lat="45.3971167" lon="10.4903717"><ele>118.0</ele><time>2026-05-03T09:15:26.12Z</time></trkpt><trkpt lat="45.3971933" lon="10.4903783"><ele>118.0</ele><time>2026-05-03T09:15:28.113Z</time></trkpt><trkpt lat="45.3972767" lon="10.490385"><ele>118.0</ele><time>2026-05-03T09:15:30.113Z</time></trkpt><trkpt lat="45.39736" lon="10.4903783"><ele>118.00000000000001</ele><time>2026-05-03T09:15:32.111Z</time></trkpt><trkpt lat="45.3974367" lon="10.49037"><ele>118.0</ele><time>2026-05-03T09:15:34.12Z</time></trkpt><trkpt lat="45.3975183" lon="10.4903883"><ele>118.42857142857142</ele><time>2026-05-03T09:15:36.113Z</time></trkpt><trkpt lat="45.3975967" lon="10.4903883"><ele>118.85714285714286</ele><time>2026-05-03T09:15:38.114Z</time></trkpt><trkpt lat="45.3976683" lon="10.490395"><ele>119.28571428571428</ele><time>2026-05-03T09:15:40.103Z</time></trkpt><trkpt lat="45.3977467" lon="10.49041"><ele>119.71428571428571</ele><time>2026-05-03T09:15:42.114Z</time></trkpt><trkpt lat="45.3978133" lon="10.4904133"><ele>120.14285714285714</ele><time>2026-05-03T09:15:44.113Z</time></trkpt><trkpt lat="45.3978833" lon="10.4904083"><ele>120.57142857142857</ele><time>2026-05-03T09:15:46.105Z</time></trkpt><trkpt lat="45.3979583" lon="10.490405"><ele>121.0</ele><time>2026-05-03T09:15:48.114Z</time></trkpt><trkpt lat="45.3980367" lon="10.49039"><ele>121.83333333333334</ele><time>2026-05-03T09:15:50.121Z</time></trkpt><trkpt lat="45.3981117" lon="10.4903767"><ele>122.66666666666667</ele><time>2026-05-03T09:15:52.114Z</time></trkpt><trkpt lat="45.3981833" lon="10.490345"><ele>123.5</ele><time>2026-05-03T09:15:54.123Z</time></trkpt><trkpt lat="45.398255" lon="10.490325"><ele>124.33333333333334</ele><time>2026-05-03T09:15:56.123Z</time></trkpt><trkpt lat="45.39833" lon="10.49031"><ele>125.16666666666667</ele><time>2026-05-03T09:15:58.118Z</time></trkpt><trkpt lat="45.3984067" lon="10.4902983"><ele>126.0</ele><time>2026-05-03T09:16:00.119Z</time></trkpt><trkpt lat="45.3984833" lon="10.49029"><ele>126.0</ele><time>2026-05-03T09:16:02.118Z</time></trkpt><trkpt lat="45.3985617" lon="10.490275"><ele>126.0</ele><time>2026-05-03T09:16:04.113Z</time></trkpt><trkpt lat="45.3986417" lon="10.49025"><ele>126.0</ele><time>2026-05-03T09:16:06.118Z</time></trkpt><trkpt lat="45.3987183" lon="10.4902417"><ele>126.0</ele><time>2026-05-03T09:16:08.123Z</time></trkpt><trkpt lat="45.3988" lon="10.4902317"><ele>126.0</ele><time>2026-05-03T09:16:10.116Z</time></trkpt><trkpt lat="45.3988817" lon="10.4902267"><ele>126.0</ele><time>2026-05-03T09:16:12.114Z</time></trkpt><trkpt lat="45.3989683" lon="10.4902133"><ele>126.71428571428572</ele><time>2026-05-03T09:16:14.121Z</time></trkpt><trkpt lat="45.399045" lon="10.4902033"><ele>127.42857142857143</ele><time>2026-05-03T09:16:16.119Z</time></trkpt><trkpt lat="45.399125" lon="10.4901933"><ele>128.14285714285714</ele><time>2026-05-03T09:16:18.118Z</time></trkpt><trkpt lat="45.3991983" lon="10.4901883"><ele>128.85714285714286</ele><time>2026-05-03T09:16:20.111Z</time></trkpt><trkpt lat="45.39927" lon="10.490185"><ele>129.57142857142858</ele><time>2026-05-03T09:16:22.117Z</time></trkpt><trkpt lat="45.399335" lon="10.49019"><ele>130.28571428571428</ele><time>2026-05-03T09:16:24.119Z</time></trkpt><trkpt lat="45.3994" lon="10.4901917"><ele>131.0</ele><time>2026-05-03T09:16:27.115Z</time></trkpt><trkpt lat="45.3994633" lon="10.4901717"><ele>131.0</ele><time>2026-05-03T09:16:29.118Z</time></trkpt><trkpt lat="45.3995433" lon="10.4901567"><ele>131.0</ele><time>2026-05-03T09:16:31.118Z</time></trkpt><trkpt lat="45.3996333" lon="10.490135"><ele>131.0</ele><time>2026-05-03T09:16:33.115Z</time></trkpt><trkpt lat="45.3997467" lon="10.4901367"><ele>131.0</ele><time>2026-05-03T09:16:35.119Z</time></trkpt><trkpt lat="45.399865" lon="10.4901467"><ele>131.0</ele><time>2026-05-03T09:16:37.119Z</time></trkpt><trkpt lat="45.3999833" lon="10.490145"><ele>130.6</ele><time>2026-05-03T09:16:39.119Z</time></trkpt><trkpt lat="45.4001017" lon="10.4901467"><ele>130.2</ele><time>2026-05-03T09:16:41.121Z</time></trkpt><trkpt lat="45.4002167" lon="10.4901517"><ele>129.8</ele><time>2026-05-03T09:16:43.118Z</time></trkpt><trkpt lat="45.4003267" lon="10.49015"><ele>129.4</ele><time>2026-05-03T09:16:45.115Z</time></trkpt><trkpt lat="45.4004317" lon="10.49014"><ele>129.0</ele><time>2026-05-03T09:16:47.118Z</time></trkpt><trkpt lat="45.4005367" lon="10.4901233"><ele>128.8</ele><time>2026-05-03T09:16:49.121Z</time></trkpt><trkpt lat="45.4006417" lon="10.4901017"><ele>128.60000000000002</ele><time>2026-05-03T09:16:51.122Z</time></trkpt><trkpt lat="45.40075" lon="10.4900867"><ele>128.4</ele><time>2026-05-03T09:16:53.119Z</time></trkpt><trkpt lat="45.4008533" lon="10.4900583"><ele>128.20000000000002</ele><time>2026-05-03T09:16:55.119Z</time></trkpt><trkpt lat="45.4009667" lon="10.4900283"><ele>128.0</ele><time>2026-05-03T09:16:57.119Z</time></trkpt><trkpt lat="45.4010933" lon="10.49002"><ele>127.99999999999999</ele><time>2026-05-03T09:16:59.119Z</time></trkpt><trkpt lat="45.4011583" lon="10.4900183"><ele>128.0</ele><time>2026-05-03T09:17:00.121Z</time></trkpt><trkpt lat="45.401225" lon="10.49002"><ele>128.0</ele><time>2026-05-03T09:17:01.119Z</time></trkpt><trkpt lat="45.4012917" lon="10.490025"><ele>128.0</ele><time>2026-05-03T09:17:02.119Z</time></trkpt><trkpt lat="45.4013583" lon="10.490025"><ele>127.99999999999999</ele><time>2026-05-03T09:17:03.121Z</time></trkpt><trkpt lat="45.4014233" lon="10.490025"><ele>128.0</ele><time>2026-05-03T09:17:04.119Z</time></trkpt><trkpt lat="45.4015467" lon="10.4900217"><ele>127.5</ele><time>2026-05-03T09:17:06.119Z</time></trkpt><trkpt lat="45.401665" lon="10.49002"><ele>127.0</ele><time>2026-05-03T09:17:08.119Z</time></trkpt><trkpt lat="45.4017817" lon="10.4900167"><ele>126.5</ele><time>2026-05-03T09:17:10.12Z</time></trkpt><trkpt lat="45.4018967" lon="10.4900017"><ele>126.0</ele><time>2026-05-03T09:17:12.117Z</time></trkpt><trkpt lat="45.4020083" lon="10.49"><ele>126.0</ele><time>2026-05-03T09:17:14.125Z</time></trkpt><trkpt lat="45.4021183" lon="10.490005"><ele>126.0</ele><time>2026-05-03T09:17:16.122Z</time></trkpt><trkpt lat="45.40223" lon="10.490015"><ele>126.0</ele><time>2026-05-03T09:17:18.121Z</time></trkpt><trkpt lat="45.4023467" lon="10.490045"><ele>126.0</ele><time>2026-05-03T09:17:20.119Z</time></trkpt><trkpt lat="45.4024667" lon="10.49007"><ele>126.5</ele><time>2026-05-03T09:17:22.12Z</time></trkpt><trkpt lat="45.4025833" lon="10.490085"><ele>127.0</ele><time>2026-05-03T09:17:24.112Z</time></trkpt><trkpt lat="45.4026967" lon="10.4901083"><ele>127.5</ele><time>2026-05-03T09:17:26.123Z</time></trkpt><trkpt lat="45.40282" lon="10.4901467"><ele>128.0</ele><time>2026-05-03T09:17:28.119Z</time></trkpt><trkpt lat="45.4029383" lon="10.4901733"><ele>127.80000000000001</ele><time>2026-05-03T09:17:30.12Z</time></trkpt><trkpt lat="45.403055" lon="10.4902"><ele>127.60000000000001</ele><time>2026-05-03T09:17:32.124Z</time></trkpt><trkpt lat="45.403165" lon="10.4902167"><ele>127.39999999999999</ele><time>2026-05-03T09:17:34.116Z</time></trkpt><trkpt lat="45.4032767" lon="10.490245"><ele>127.19999999999999</ele><time>2026-05-03T09:17:36.122Z</time></trkpt><trkpt lat="45.4033767" lon="10.4902767"><ele>127.0</ele><time>2026-05-03T09:17:38.121Z</time></trkpt><trkpt lat="45.4034767" lon="10.49033"><ele>127.0</ele><time>2026-05-03T09:17:40.117Z</time></trkpt><trkpt lat="45.4035817" lon="10.4903983"><ele>126.99999999999999</ele><time>2026-05-03T09:17:42.12Z</time></trkpt><trkpt lat="45.4036917" lon="10.4904617"><ele>126.99999999999999</ele><time>2026-05-03T09:17:44.12Z</time></trkpt><trkpt lat="45.4038067" lon="10.4904867"><ele>127.0</ele><time>2026-05-03T09:17:46.114Z</time></trkpt><trkpt lat="45.4038717" lon="10.4904917"><ele>127.0</ele><time>2026-05-03T09:17:47.118Z</time></trkpt><trkpt lat="45.4039367" lon="10.4905017"><ele>126.66666666666667</ele><time>2026-05-03T09:17:48.115Z</time></trkpt><trkpt lat="45.404005" lon="10.49051"><ele>126.33333333333334</ele><time>2026-05-03T09:17:49.111Z</time></trkpt><trkpt lat="45.4040717" lon="10.49052"><ele>126.0</ele><time>2026-05-03T09:17:50.121Z</time></trkpt><trkpt lat="45.4041367" lon="10.4905267"><ele>125.66666666666666</ele><time>2026-05-03T09:17:51.12Z</time></trkpt><trkpt lat="45.4042" lon="10.4905283"><ele>125.33333333333333</ele><time>2026-05-03T09:17:52.121Z</time></trkpt><trkpt lat="45.404325" lon="10.49054"><ele>125.0</ele><time>2026-05-03T09:17:54.12Z</time></trkpt><trkpt lat="45.4044483" lon="10.490555"><ele>125.0</ele><time>2026-05-03T09:17:56.125Z</time></trkpt><trkpt lat="45.4045117" lon="10.4905617"><ele>125.0</ele><time>2026-05-03T09:17:57.122Z</time></trkpt><trkpt lat="45.4046333" lon="10.4905667"><ele>125.0</ele><time>2026-05-03T09:17:59.118Z</time></trkpt><trkpt lat="45.404755" lon="10.4905733"><ele>125.0</ele><time>2026-05-03T09:18:01.115Z</time></trkpt><trkpt lat="45.4048733" lon="10.4905817"><ele>125.0</ele><time>2026-05-03T09:18:03.115Z</time></trkpt><trkpt lat="45.4049917" lon="10.4905817"><ele>124.8</ele><time>2026-05-03T09:18:05.111Z</time></trkpt><trkpt lat="45.4051117" lon="10.4905867"><ele>124.6</ele><time>2026-05-03T09:18:07.122Z</time></trkpt><trkpt lat="45.4052367" lon="10.4905983"><ele>124.4</ele><time>2026-05-03T09:18:09.119Z</time></trkpt><trkpt lat="45.4053" lon="10.4906067"><ele>124.2</ele><time>2026-05-03T09:18:10.119Z</time></trkpt><trkpt lat="45.405365" lon="10.490615"><ele>124.0</ele><time>2026-05-03T09:18:11.12Z</time></trkpt><trkpt lat="45.40549" lon="10.4906283"><ele>124.0</ele><time>2026-05-03T09:18:13.116Z</time></trkpt><trkpt lat="45.4056117" lon="10.490635"><ele>124.0</ele><time>2026-05-03T09:18:15.121Z</time></trkpt><trkpt lat="45.4057333" lon="10.4906483"><ele>124.0</ele><time>2026-05-03T09:18:17.12Z</time></trkpt><trkpt lat="45.4057967" lon="10.490655"><ele>124.0</ele><time>2026-05-03T09:18:18.121Z</time></trkpt><trkpt lat="45.40592" lon="10.49067"><ele>124.0</ele><time>2026-05-03T09:18:20.12Z</time></trkpt><trkpt lat="45.4059833" lon="10.490675"><ele>124.0</ele><time>2026-05-03T09:18:21.111Z</time></trkpt><trkpt lat="45.406105" lon="10.4906883"><ele>124.0</ele><time>2026-05-03T09:18:23.121Z</time></trkpt><trkpt lat="45.4062217" lon="10.4906967"><ele>124.0</ele><time>2026-05-03T09:18:25.12Z</time></trkpt><trkpt lat="45.4063333" lon="10.4907"><ele>124.0</ele><time>2026-05-03T09:18:27.12Z</time></trkpt><trkpt lat="45.40644" lon="10.4907333"><ele>124.0</ele><time>2026-05-03T09:18:29.12Z</time></trkpt><trkpt lat="45.406525" lon="10.490845"><ele>124.00000000000001</ele><time>2026-05-03T09:18:31.114Z</time></trkpt><trkpt lat="45.4065583" lon="10.4909233"><ele>124.0</ele><time>2026-05-03T09:18:32.123Z</time></trkpt><trkpt lat="45.4065933" lon="10.491005"><ele>124.0</ele><time>2026-05-03T09:18:33.12Z</time></trkpt><trkpt lat="45.4066267" lon="10.491085"><ele>124.00000000000001</ele><time>2026-05-03T09:18:34.119Z</time></trkpt><trkpt lat="45.4066567" lon="10.491165"><ele>124.0</ele><time>2026-05-03T09:18:35.119Z</time></trkpt><trkpt lat="45.4066883" lon="10.4912433"><ele>124.0</ele><time>2026-05-03T09:18:36.121Z</time></trkpt><trkpt lat="45.4067433" lon="10.4913967"><ele>124.4</ele><time>2026-05-03T09:18:38.121Z</time></trkpt><trkpt lat="45.406795" lon="10.491535"><ele>124.80000000000001</ele><time>2026-05-03T09:18:40.118Z</time></trkpt><trkpt lat="45.4068417" lon="10.4916683"><ele>125.19999999999999</ele><time>2026-05-03T09:18:42.118Z</time></trkpt><trkpt lat="45.406885" lon="10.4917933"><ele>125.6</ele><time>2026-05-03T09:18:44.12Z</time></trkpt><trkpt lat="45.406935" lon="10.491885"><ele>126.0</ele><time>2026-05-03T09:18:46.12Z</time></trkpt><trkpt lat="45.4070267" lon="10.4918667"><ele>126.0</ele><time>2026-05-03T09:18:49.118Z</time></trkpt><trkpt lat="45.40709" lon="10.49183"><ele>126.0</ele><time>2026-05-03T09:18:51.116Z</time></trkpt><trkpt lat="45.4071567" lon="10.49183"><ele>126.0</ele><time>2026-05-03T09:18:53.11Z</time></trkpt><trkpt lat="45.4072817" lon="10.4918567"><ele>126.0</ele><time>2026-05-03T09:20:00.122Z</time></trkpt><trkpt lat="45.4072217" lon="10.491885"><ele>126.0</ele><time>2026-05-03T09:20:03.113Z</time></trkpt><trkpt lat="45.40716" lon="10.4918617"><ele>126.0</ele><time>2026-05-03T09:20:05.118Z</time></trkpt><trkpt lat="45.4070933" lon="10.49186"><ele>126.0</ele><time>2026-05-03T09:20:07.119Z</time></trkpt><trkpt lat="45.4070283" lon="10.491875"><ele>126.0</ele><time>2026-05-03T09:20:09.115Z</time></trkpt><trkpt lat="45.4069383" lon="10.4918983"><ele>126.0</ele><time>2026-05-03T09:20:12.116Z</time></trkpt><trkpt lat="45.4069117" lon="10.49198"><ele>126.0</ele><time>2026-05-03T09:20:15.121Z</time></trkpt><trkpt lat="45.4069017" lon="10.4918867"><ele>126.0</ele><time>2026-05-03T09:20:23.121Z</time></trkpt><trkpt lat="45.4068617" lon="10.49178"><ele>126.0</ele><time>2026-05-03T09:20:27.116Z</time></trkpt><trkpt lat="45.406825" lon="10.4916917"><ele>126.0</ele><time>2026-05-03T09:20:30.12Z</time></trkpt><trkpt lat="45.4067883" lon="10.4915867"><ele>126.0</ele><time>2026-05-03T09:20:33.115Z</time></trkpt><trkpt lat="45.406755" lon="10.4915067"><ele>126.0</ele><time>2026-05-03T09:20:35.116Z</time></trkpt><trkpt lat="45.4067233" lon="10.49142"><ele>126.0</ele><time>2026-05-03T09:20:37.111Z</time></trkpt><trkpt lat="45.4066867" lon="10.4913317"><ele>126.0</ele><time>2026-05-03T09:20:39.109Z</time></trkpt><trkpt lat="45.40665" lon="10.491245"><ele>126.0</ele><time>2026-05-03T09:20:41.114Z</time></trkpt><trkpt lat="45.40661" lon="10.4911617"><ele>126.0</ele><time>2026-05-03T09:20:43.116Z</time></trkpt><trkpt lat="45.4065767" lon="10.4910767"><ele>126.0</ele><time>2026-05-03T09:20:45.118Z</time></trkpt><trkpt lat="45.40655" lon="10.4909933"><ele>125.66666666666667</ele><time>2026-05-03T09:20:47.112Z</time></trkpt><trkpt lat="45.40652" lon="10.49091"><ele>125.33333333333334</ele><time>2026-05-03T09:20:49.117Z</time></trkpt><trkpt lat="45.4065133" lon="10.4908117"><ele>125.0</ele><time>2026-05-03T09:20:51.115Z</time></trkpt><trkpt lat="45.40656" lon="10.490735"><ele>124.66666666666667</ele><time>2026-05-03T09:20:53.114Z</time></trkpt><trkpt lat="45.4066383" lon="10.4907067"><ele>124.33333333333334</ele><time>2026-05-03T09:20:55.12Z</time></trkpt><trkpt lat="45.4067167" lon="10.4906633"><ele>124.0</ele><time>2026-05-03T09:20:57.112Z</time></trkpt><trkpt lat="45.406805" lon="10.4906383"><ele>124.0</ele><time>2026-05-03T09:20:59.114Z</time></trkpt><trkpt lat="45.4068983" lon="10.4906267"><ele>124.0</ele><time>2026-05-03T09:21:01.115Z</time></trkpt><trkpt lat="45.4070083" lon="10.49062"><ele>124.0</ele><time>2026-05-03T09:21:03.121Z</time></trkpt><trkpt lat="45.4071117" lon="10.4905883"><ele>124.0</ele><time>2026-05-03T09:21:05.123Z</time></trkpt><trkpt lat="45.407215" lon="10.4905483"><ele>124.0</ele><time>2026-05-03T09:21:07.121Z</time></trkpt><trkpt lat="45.4073167" lon="10.4905167"><ele>124.2</ele><time>2026-05-03T09:21:09.12Z</time></trkpt><trkpt lat="45.407425" lon="10.4905167"><ele>124.4</ele><time>2026-05-03T09:21:11.119Z</time></trkpt><trkpt lat="45.407525" lon="10.490565"><ele>124.6</ele><time>2026-05-03T09:21:13.12Z</time></trkpt><trkpt lat="45.40761" lon="10.4906367"><ele>124.8</ele><time>2026-05-03T09:21:15.12Z</time></trkpt><trkpt lat="45.4076833" lon="10.4907283"><ele>125.0</ele><time>2026-05-03T09:21:17.115Z</time></trkpt><trkpt lat="45.4077567" lon="10.4908283"><ele>125.0</ele><time>2026-05-03T09:21:19.121Z</time></trkpt><trkpt lat="45.4078233" lon="10.4909317"><ele>125.0</ele><time>2026-05-03T09:21:21.12Z</time></trkpt><trkpt lat="45.4078883" lon="10.4910317"><ele>125.0</ele><time>2026-05-03T09:21:23.119Z</time></trkpt><trkpt lat="45.4079483" lon="10.4911267"><ele>125.0</ele><time>2026-05-03T09:21:25.119Z</time></trkpt><trkpt lat="45.4080117" lon="10.4912183"><ele>125.0</ele><time>2026-05-03T09:21:27.121Z</time></trkpt><trkpt lat="45.4080783" lon="10.4912933"><ele>125.99999999999999</ele><time>2026-05-03T09:21:29.123Z</time></trkpt><trkpt lat="45.4081417" lon="10.49137"><ele>127.0</ele><time>2026-05-03T09:21:31.119Z</time></trkpt><trkpt lat="45.4082083" lon="10.49144"><ele>128.0</ele><time>2026-05-03T09:21:33.115Z</time></trkpt><trkpt lat="45.408285" lon="10.4914883"><ele>129.0</ele><time>2026-05-03T09:21:35.115Z</time></trkpt><trkpt lat="45.40835" lon="10.49153"><ele>130.0</ele><time>2026-05-03T09:21:37.116Z</time></trkpt><trkpt lat="45.408415" lon="10.4915783"><ele>131.0</ele><time>2026-05-03T09:21:39.116Z</time></trkpt><trkpt lat="45.4084933" lon="10.4916317"><ele>131.0</ele><time>2026-05-03T09:21:41.117Z</time></trkpt><trkpt lat="45.4085767" lon="10.4916767"><ele>131.0</ele><time>2026-05-03T09:21:43.117Z</time></trkpt><trkpt lat="45.4086617" lon="10.4917267"><ele>131.0</ele><time>2026-05-03T09:21:45.116Z</time></trkpt><trkpt lat="45.4087517" lon="10.4917933"><ele>131.0</ele><time>2026-05-03T09:21:47.119Z</time></trkpt><trkpt lat="45.4088367" lon="10.4918667"><ele>131.0</ele><time>2026-05-03T09:21:49.117Z</time></trkpt><trkpt lat="45.408915" lon="10.491925"><ele>131.0</ele><time>2026-05-03T09:21:51.122Z</time></trkpt><trkpt lat="45.4089967" lon="10.4919717"><ele>131.0</ele><time>2026-05-03T09:21:53.121Z</time></trkpt><trkpt lat="45.4090767" lon="10.4920317"><ele>131.0</ele><time>2026-05-03T09:21:55.115Z</time></trkpt><trkpt lat="45.4091517" lon="10.4920933"><ele>131.0</ele><time>2026-05-03T09:21:57.121Z</time></trkpt><trkpt lat="45.4092317" lon="10.4921483"><ele>131.0</ele><time>2026-05-03T09:21:59.12Z</time></trkpt><trkpt lat="45.4093167" lon="10.4922283"><ele>130.66666666666666</ele><time>2026-05-03T09:22:01.114Z</time></trkpt><trkpt lat="45.4093867" lon="10.4923133"><ele>130.33333333333331</ele><time>2026-05-03T09:22:03.124Z</time></trkpt><trkpt lat="45.4094533" lon="10.49239"><ele>130.0</ele><time>2026-05-03T09:22:05.111Z</time></trkpt><trkpt lat="45.409535" lon="10.492465"><ele>129.66666666666666</ele><time>2026-05-03T09:22:07.123Z</time></trkpt><trkpt lat="45.4096017" lon="10.492505"><ele>129.33333333333334</ele><time>2026-05-03T09:22:09.116Z</time></trkpt><trkpt lat="45.4096683" lon="10.4925517"><ele>129.0</ele><time>2026-05-03T09:22:11.114Z</time></trkpt><trkpt lat="45.4097333" lon="10.492625"><ele>129.0</ele><time>2026-05-03T09:22:13.122Z</time></trkpt><trkpt lat="45.4098" lon="10.4927517"><ele>129.0</ele><time>2026-05-03T09:22:15.121Z</time></trkpt><trkpt lat="45.4098683" lon="10.49289"><ele>129.0</ele><time>2026-05-03T09:22:17.119Z</time></trkpt><trkpt lat="45.4099217" lon="10.49304"><ele>129.0</ele><time>2026-05-03T09:22:19.122Z</time></trkpt><trkpt lat="45.4099767" lon="10.4931833"><ele>130.0</ele><time>2026-05-03T09:22:21.121Z</time></trkpt><trkpt lat="45.410045" lon="10.4933267"><ele>131.0</ele><time>2026-05-03T09:22:23.122Z</time></trkpt><trkpt lat="45.4101167" lon="10.493465"><ele>132.0</ele><time>2026-05-03T09:22:25.121Z</time></trkpt><trkpt lat="45.4101917" lon="10.493595"><ele>133.0</ele><time>2026-05-03T09:22:27.12Z</time></trkpt><trkpt lat="45.4102767" lon="10.493705"><ele>132.0</ele><time>2026-05-03T09:22:29.123Z</time></trkpt><trkpt lat="45.4103583" lon="10.493815"><ele>131.0</ele><time>2026-05-03T09:22:31.121Z</time></trkpt><trkpt lat="45.4104317" lon="10.49393"><ele>130.0</ele><time>2026-05-03T09:22:33.122Z</time></trkpt><trkpt lat="45.4104917" lon="10.4940383"><ele>129.0</ele><time>2026-05-03T09:22:35.119Z</time></trkpt><trkpt lat="45.4105367" lon="10.4941517"><ele>128.0</ele><time>2026-05-03T09:22:37.116Z</time></trkpt><trkpt lat="45.4105683" lon="10.494275"><ele>128.0</ele><time>2026-05-03T09:22:39.114Z</time></trkpt><trkpt lat="45.4106033" lon="10.4943883"><ele>128.0</ele><time>2026-05-03T09:22:41.119Z</time></trkpt><trkpt lat="45.4106517" lon="10.494495"><ele>128.0</ele><time>2026-05-03T09:22:43.115Z</time></trkpt><trkpt lat="45.41071" lon="10.4945917"><ele>128.0</ele><time>2026-05-03T09:22:45.114Z</time></trkpt><trkpt lat="45.410785" lon="10.4946683"><ele>128.0</ele><time>2026-05-03T09:22:47.119Z</time></trkpt><trkpt lat="45.4108767" lon="10.4947483"><ele>128.0</ele><time>2026-05-03T09:22:49.115Z</time></trkpt><trkpt lat="45.4109767" lon="10.4948333"><ele>128.0</ele><time>2026-05-03T09:22:51.121Z</time></trkpt><trkpt lat="45.4110683" lon="10.494915"><ele>128.0</ele><time>2026-05-03T09:22:53.117Z</time></trkpt><trkpt lat="45.41116" lon="10.4950017"><ele>128.0</ele><time>2026-05-03T09:22:55.122Z</time></trkpt><trkpt lat="45.4112567" lon="10.4950867"><ele>128.0</ele><time>2026-05-03T09:22:57.122Z</time></trkpt><trkpt lat="45.4113533" lon="10.495175"><ele>128.0</ele><time>2026-05-03T09:22:59.115Z</time></trkpt><trkpt lat="45.41145" lon="10.4952583"><ele>128.0</ele><time>2026-05-03T09:23:01.121Z</time></trkpt><trkpt lat="45.4115467" lon="10.49534"><ele>128.0</ele><time>2026-05-03T09:23:03.115Z</time></trkpt><trkpt lat="45.411645" lon="10.4954183"><ele>128.0</ele><time>2026-05-03T09:23:05.12Z</time></trkpt><trkpt lat="45.4117433" lon="10.495495"><ele>128.8</ele><time>2026-05-03T09:23:07.123Z</time></trkpt><trkpt lat="45.41184" lon="10.4955717"><ele>129.60000000000002</ele><time>2026-05-03T09:23:09.111Z</time></trkpt><trkpt lat="45.4119367" lon="10.4956417"><ele>130.39999999999998</ele><time>2026-05-03T09:23:11.122Z</time></trkpt><trkpt lat="45.412025" lon="10.4957"><ele>131.2</ele><time>2026-05-03T09:23:13.121Z</time></trkpt><trkpt lat="45.4121033" lon="10.49571"><ele>132.0</ele><time>2026-05-03T09:23:15.12Z</time></trkpt><trkpt lat="45.4121733" lon="10.49562"><ele>131.85714285714286</ele><time>2026-05-03T09:23:17.116Z</time></trkpt><trkpt lat="45.4122133" lon="10.4955483"><ele>131.71428571428572</ele><time>2026-05-03T09:23:18.124Z</time></trkpt><trkpt lat="45.412255" lon="10.4954767"><ele>131.57142857142858</ele><time>2026-05-03T09:23:19.122Z</time></trkpt><trkpt lat="45.4122967" lon="10.4954033"><ele>131.42857142857144</ele><time>2026-05-03T09:23:20.124Z</time></trkpt><trkpt lat="45.4123317" lon="10.4953283"><ele>131.2857142857143</ele><time>2026-05-03T09:23:21.122Z</time></trkpt><trkpt lat="45.4123683" lon="10.4952533"><ele>131.14285714285714</ele><time>2026-05-03T09:23:22.121Z</time></trkpt><trkpt lat="45.4124067" lon="10.49509"><ele>131.0</ele><time>2026-05-03T09:23:24.122Z</time></trkpt><trkpt lat="45.4124067" lon="10.4949167"><ele>131.0</ele><time>2026-05-03T09:23:26.125Z</time></trkpt><trkpt lat="45.4124217" lon="10.4947567"><ele>131.0</ele><time>2026-05-03T09:23:28.118Z</time></trkpt><trkpt lat="45.41248" lon="10.4946217"><ele>131.0</ele><time>2026-05-03T09:23:30.122Z</time></trkpt><trkpt lat="45.4125683" lon="10.4945083"><ele>131.0</ele><time>2026-05-03T09:23:32.12Z</time></trkpt><trkpt lat="45.4126183" lon="10.4944517"><ele>131.0</ele><time>2026-05-03T09:23:33.121Z</time></trkpt><trkpt lat="45.4126717" lon="10.494395"><ele>130.57142857142858</ele><time>2026-05-03T09:23:34.116Z</time></trkpt><trkpt lat="45.412725" lon="10.49434"><ele>130.14285714285717</ele><time>2026-05-03T09:23:35.12Z</time></trkpt><trkpt lat="45.4127783" lon="10.4942867"><ele>129.71428571428572</ele><time>2026-05-03T09:23:36.124Z</time></trkpt><trkpt lat="45.4128333" lon="10.494235"><ele>129.28571428571428</ele><time>2026-05-03T09:23:37.12Z</time></trkpt><trkpt lat="45.41289" lon="10.494185"><ele>128.85714285714283</ele><time>2026-05-03T09:23:38.121Z</time></trkpt><trkpt lat="45.4129467" lon="10.4941367"><ele>128.42857142857142</ele><time>2026-05-03T09:23:39.122Z</time></trkpt><trkpt lat="45.4130033" lon="10.49409"><ele>128.0</ele><time>2026-05-03T09:23:40.118Z</time></trkpt><trkpt lat="45.4130617" lon="10.4940467"><ele>127.4</ele><time>2026-05-03T09:23:41.116Z</time></trkpt><trkpt lat="45.4131183" lon="10.4940033"><ele>126.80000000000001</ele><time>2026-05-03T09:23:42.121Z</time></trkpt><trkpt lat="45.4132267" lon="10.4939117"><ele>126.2</ele><time>2026-05-03T09:23:44.119Z</time></trkpt><trkpt lat="45.4133267" lon="10.4938183"><ele>125.6</ele><time>2026-05-03T09:23:46.122Z</time></trkpt><trkpt lat="45.4134267" lon="10.4937117"><ele>125.0</ele><time>2026-05-03T09:23:48.121Z</time></trkpt><trkpt lat="45.41348" lon="10.493655"><ele>124.57142857142857</ele><time>2026-05-03T09:23:49.111Z</time></trkpt><trkpt lat="45.41353" lon="10.4935917"><ele>124.14285714285714</ele><time>2026-05-03T09:23:50.121Z</time></trkpt><trkpt lat="45.413575" lon="10.49352"><ele>123.71428571428571</ele><time>2026-05-03T09:23:51.121Z</time></trkpt><trkpt lat="45.4136167" lon="10.4934467"><ele>123.28571428571428</ele><time>2026-05-03T09:23:52.117Z</time></trkpt><trkpt lat="45.4136583" lon="10.49337"><ele>122.85714285714286</ele><time>2026-05-03T09:23:53.122Z</time></trkpt><trkpt lat="45.4137" lon="10.493295"><ele>122.42857142857142</ele><time>2026-05-03T09:23:54.117Z</time></trkpt><trkpt lat="45.41374" lon="10.493215"><ele>121.99999999999999</ele><time>2026-05-03T09:23:55.12Z</time></trkpt><trkpt lat="45.4137783" lon="10.4931383"><ele>122.0</ele><time>2026-05-03T09:23:56.121Z</time></trkpt><trkpt lat="45.413815" lon="10.49306"><ele>121.99999999999999</ele><time>2026-05-03T09:23:57.12Z</time></trkpt><trkpt lat="45.4138533" lon="10.4929867"><ele>121.99999999999999</ele><time>2026-05-03T09:23:58.121Z</time></trkpt><trkpt lat="45.413935" lon="10.492855"><ele>122.0</ele><time>2026-05-03T09:24:00.122Z</time></trkpt><trkpt lat="45.4140333" lon="10.4927533"><ele>122.0</ele><time>2026-05-03T09:24:02.12Z</time></trkpt><trkpt lat="45.414145" lon="10.49273"><ele>122.19999999999999</ele><time>2026-05-03T09:24:04.114Z</time></trkpt><trkpt lat="45.4142233" lon="10.4926717"><ele>122.39999999999999</ele><time>2026-05-03T09:24:06.115Z</time></trkpt><trkpt lat="45.4142083" lon="10.492575"><ele>122.60000000000001</ele><time>2026-05-03T09:24:08.12Z</time></trkpt><trkpt lat="45.4141417" lon="10.4924633"><ele>122.80000000000001</ele><time>2026-05-03T09:24:10.122Z</time></trkpt><trkpt lat="45.4140967" lon="10.49231"><ele>123.0</ele><time>2026-05-03T09:24:12.123Z</time></trkpt><trkpt lat="45.4140533" lon="10.4921467"><ele>123.0</ele><time>2026-05-03T09:24:14.121Z</time></trkpt><trkpt lat="45.4140117" lon="10.49198"><ele>123.00000000000001</ele><time>2026-05-03T09:24:16.121Z</time></trkpt><trkpt lat="45.41399" lon="10.491895"><ele>123.00000000000001</ele><time>2026-05-03T09:24:17.12Z</time></trkpt><trkpt lat="45.4139483" lon="10.491725"><ele>123.0</ele><time>2026-05-03T09:24:19.123Z</time></trkpt><trkpt lat="45.41393" lon="10.4916367"><ele>123.0</ele><time>2026-05-03T09:24:20.12Z</time></trkpt><trkpt lat="45.4139017" lon="10.4914633"><ele>123.0</ele><time>2026-05-03T09:24:22.122Z</time></trkpt><trkpt lat="45.413875" lon="10.49129"><ele>123.0</ele><time>2026-05-03T09:24:24.117Z</time></trkpt><trkpt lat="45.4138517" lon="10.4911183"><ele>123.0</ele><time>2026-05-03T09:24:26.126Z</time></trkpt><trkpt lat="45.4138317" lon="10.4909467"><ele>123.0</ele><time>2026-05-03T09:24:28.119Z</time></trkpt><trkpt lat="45.4138167" lon="10.4907717"><ele>122.25</ele><time>2026-05-03T09:24:30.121Z</time></trkpt><trkpt lat="45.4138067" lon="10.4905983"><ele>121.5</ele><time>2026-05-03T09:24:32.124Z</time></trkpt><trkpt lat="45.413805" lon="10.4904333"><ele>120.75</ele><time>2026-05-03T09:24:34.12Z</time></trkpt><trkpt lat="45.4138017" lon="10.4902683"><ele>120.0</ele><time>2026-05-03T09:24:36.118Z</time></trkpt><trkpt lat="45.4138017" lon="10.4900967"><ele>120.0</ele><time>2026-05-03T09:24:38.126Z</time></trkpt><trkpt lat="45.4138" lon="10.4899233"><ele>120.0</ele><time>2026-05-03T09:24:40.118Z</time></trkpt><trkpt lat="45.4138017" lon="10.4897667"><ele>120.0</ele><time>2026-05-03T09:24:42.12Z</time></trkpt><trkpt lat="45.413805" lon="10.48962"><ele>120.0</ele><time>2026-05-03T09:24:44.122Z</time></trkpt><trkpt lat="45.4138083" lon="10.489465"><ele>120.0</ele><time>2026-05-03T09:24:46.12Z</time></trkpt><trkpt lat="45.413805" lon="10.4893033"><ele>120.5</ele><time>2026-05-03T09:24:48.12Z</time></trkpt><trkpt lat="45.4138033" lon="10.4891333"><ele>121.0</ele><time>2026-05-03T09:24:50.121Z</time></trkpt><trkpt lat="45.413805" lon="10.4889717"><ele>121.5</ele><time>2026-05-03T09:24:52.123Z</time></trkpt><trkpt lat="45.4138067" lon="10.48882"><ele>122.0</ele><time>2026-05-03T09:24:54.12Z</time></trkpt><trkpt lat="45.4138083" lon="10.48866"><ele>122.19999999999999</ele><time>2026-05-03T09:24:56.125Z</time></trkpt><trkpt lat="45.4138067" lon="10.4885017"><ele>122.39999999999999</ele><time>2026-05-03T09:24:58.12Z</time></trkpt><trkpt lat="45.4137933" lon="10.4883483"><ele>122.60000000000001</ele><time>2026-05-03T09:25:00.124Z</time></trkpt><trkpt lat="45.4137917" lon="10.4881867"><ele>122.80000000000001</ele><time>2026-05-03T09:25:02.125Z</time></trkpt><trkpt lat="45.4138017" lon="10.4880317"><ele>123.0</ele><time>2026-05-03T09:25:04.119Z</time></trkpt><trkpt lat="45.4138167" lon="10.4878767"><ele>123.4</ele><time>2026-05-03T09:25:06.125Z</time></trkpt><trkpt lat="45.4138283" lon="10.4877283"><ele>123.80000000000001</ele><time>2026-05-03T09:25:08.119Z</time></trkpt><trkpt lat="45.4138233" lon="10.487575"><ele>124.2</ele><time>2026-05-03T09:25:10.121Z</time></trkpt><trkpt lat="45.4138217" lon="10.48744"><ele>124.6</ele><time>2026-05-03T09:25:12.123Z</time></trkpt><trkpt lat="45.41383" lon="10.4873"><ele>125.0</ele><time>2026-05-03T09:25:14.124Z</time></trkpt><trkpt lat="45.413835" lon="10.48714"><ele>124.4</ele><time>2026-05-03T09:25:16.115Z</time></trkpt><trkpt lat="45.4138433" lon="10.4869633"><ele>123.8</ele><time>2026-05-03T09:25:18.124Z</time></trkpt><trkpt lat="45.41383" lon="10.486865"><ele>123.19999999999999</ele><time>2026-05-03T09:25:19.118Z</time></trkpt><trkpt lat="45.4137983" lon="10.4866983"><ele>122.6</ele><time>2026-05-03T09:25:21.12Z</time></trkpt><trkpt lat="45.413765" lon="10.4865433"><ele>122.0</ele><time>2026-05-03T09:25:23.122Z</time></trkpt><trkpt lat="45.4137467" lon="10.4863933"><ele>123.0</ele><time>2026-05-03T09:25:25.121Z</time></trkpt><trkpt lat="45.4137267" lon="10.48623"><ele>124.0</ele><time>2026-05-03T09:25:27.121Z</time></trkpt><trkpt lat="45.4137167" lon="10.48607"><ele>125.0</ele><time>2026-05-03T09:25:29.115Z</time></trkpt><trkpt lat="45.4136933" lon="10.4859083"><ele>126.0</ele><time>2026-05-03T09:25:31.122Z</time></trkpt><trkpt lat="45.4136567" lon="10.48574"><ele>126.0</ele><time>2026-05-03T09:25:33.115Z</time></trkpt><trkpt lat="45.4136317" lon="10.48565"><ele>126.0</ele><time>2026-05-03T09:25:34.119Z</time></trkpt><trkpt lat="45.4136083" lon="10.4855617"><ele>126.0</ele><time>2026-05-03T09:25:35.116Z</time></trkpt><trkpt lat="45.4135917" lon="10.48547"><ele>126.0</ele><time>2026-05-03T09:25:36.121Z</time></trkpt><trkpt lat="45.4135567" lon="10.4852917"><ele>126.0</ele><time>2026-05-03T09:25:38.119Z</time></trkpt><trkpt lat="45.4135317" lon="10.4851917"><ele>126.0</ele><time>2026-05-03T09:25:39.121Z</time></trkpt><trkpt lat="45.4135067" lon="10.4851067"><ele>125.57142857142857</ele><time>2026-05-03T09:25:40.117Z</time></trkpt><trkpt lat="45.413475" lon="10.4850167"><ele>125.14285714285714</ele><time>2026-05-03T09:25:41.118Z</time></trkpt><trkpt lat="45.4134467" lon="10.4849333"><ele>124.71428571428572</ele><time>2026-05-03T09:25:42.122Z</time></trkpt><trkpt lat="45.41342" lon="10.48485"><ele>124.28571428571429</ele><time>2026-05-03T09:25:43.116Z</time></trkpt><trkpt lat="45.4133783" lon="10.484755"><ele>123.85714285714286</ele><time>2026-05-03T09:25:44.118Z</time></trkpt><trkpt lat="45.4133467" lon="10.4846583"><ele>123.42857142857144</ele><time>2026-05-03T09:25:45.121Z</time></trkpt><trkpt lat="45.41332" lon="10.48457"><ele>123.00000000000001</ele><time>2026-05-03T09:25:46.121Z</time></trkpt><trkpt lat="45.4132917" lon="10.4844867"><ele>121.80000000000001</ele><time>2026-05-03T09:25:47.114Z</time></trkpt><trkpt lat="45.41326" lon="10.4844083"><ele>120.60000000000001</ele><time>2026-05-03T09:25:48.12Z</time></trkpt><trkpt lat="45.41321" lon="10.4842533"><ele>119.39999999999999</ele><time>2026-05-03T09:25:50.117Z</time></trkpt><trkpt lat="45.4131617" lon="10.4841067"><ele>118.19999999999999</ele><time>2026-05-03T09:25:52.113Z</time></trkpt><trkpt lat="45.4131183" lon="10.4839567"><ele>117.0</ele><time>2026-05-03T09:25:54.114Z</time></trkpt><trkpt lat="45.4130617" lon="10.4838033"><ele>116.8</ele><time>2026-05-03T09:25:56.122Z</time></trkpt><trkpt lat="45.413" lon="10.4836417"><ele>116.6</ele><time>2026-05-03T09:25:58.114Z</time></trkpt><trkpt lat="45.4129667" lon="10.4835633"><ele>116.39999999999999</ele><time>2026-05-03T09:25:59.12Z</time></trkpt><trkpt lat="45.4129333" lon="10.4834867"><ele>116.19999999999999</ele><time>2026-05-03T09:26:00.124Z</time></trkpt><trkpt lat="45.41288" lon="10.4833333"><ele>116.0</ele><time>2026-05-03T09:26:02.125Z</time></trkpt><trkpt lat="45.412825" lon="10.4831867"><ele>116.0</ele><time>2026-05-03T09:26:04.121Z</time></trkpt><trkpt lat="45.41277" lon="10.4830383"><ele>116.0</ele><time>2026-05-03T09:26:06.12Z</time></trkpt><trkpt lat="45.4127233" lon="10.4828833"><ele>116.0</ele><time>2026-05-03T09:26:08.124Z</time></trkpt><trkpt lat="45.41267" lon="10.4827283"><ele>116.0</ele><time>2026-05-03T09:26:10.12Z</time></trkpt><trkpt lat="45.41262" lon="10.482575"><ele>116.25</ele><time>2026-05-03T09:26:12.119Z</time></trkpt><trkpt lat="45.4125667" lon="10.4824267"><ele>116.5</ele><time>2026-05-03T09:26:14.121Z</time></trkpt><trkpt lat="45.412515" lon="10.4822783"><ele>116.75</ele><time>2026-05-03T09:26:16.118Z</time></trkpt><trkpt lat="45.4124833" lon="10.482125"><ele>117.0</ele><time>2026-05-03T09:26:18.122Z</time></trkpt><trkpt lat="45.412495" lon="10.481975"><ele>117.0</ele><time>2026-05-03T09:26:20.121Z</time></trkpt><trkpt lat="45.41254" lon="10.4818633"><ele>117.0</ele><time>2026-05-03T09:26:22.118Z</time></trkpt><trkpt lat="45.412635" lon="10.4817933"><ele>117.0</ele><time>2026-05-03T09:26:24.122Z</time></trkpt><trkpt lat="45.4127383" lon="10.48173"><ele>117.0</ele><time>2026-05-03T09:26:26.123Z</time></trkpt><trkpt lat="45.4128" lon="10.4817033"><ele>117.0</ele><time>2026-05-03T09:26:27.12Z</time></trkpt><trkpt lat="45.4128583" lon="10.4816683"><ele>117.0</ele><time>2026-05-03T09:26:28.12Z</time></trkpt><trkpt lat="45.4129783" lon="10.4816083"><ele>116.6</ele><time>2026-05-03T09:26:30.121Z</time></trkpt><trkpt lat="45.4130883" lon="10.4815533"><ele>116.19999999999999</ele><time>2026-05-03T09:26:32.123Z</time></trkpt><trkpt lat="45.4131867" lon="10.4814867"><ele>115.8</ele><time>2026-05-03T09:26:34.122Z</time></trkpt><trkpt lat="45.4132817" lon="10.481425"><ele>115.4</ele><time>2026-05-03T09:26:36.122Z</time></trkpt><trkpt lat="45.4133733" lon="10.48136"><ele>115.0</ele><time>2026-05-03T09:26:38.121Z</time></trkpt><trkpt lat="45.4134583" lon="10.4812867"><ele>115.0</ele><time>2026-05-03T09:26:40.119Z</time></trkpt><trkpt lat="45.41354" lon="10.48119"><ele>115.0</ele><time>2026-05-03T09:26:42.122Z</time></trkpt><trkpt lat="45.4136283" lon="10.4810883"><ele>115.0</ele><time>2026-05-03T09:26:44.116Z</time></trkpt><trkpt lat="45.4137133" lon="10.4809817"><ele>115.0</ele><time>2026-05-03T09:26:46.12Z</time></trkpt><trkpt lat="45.4138017" lon="10.48087"><ele>115.5</ele><time>2026-05-03T09:26:48.117Z</time></trkpt><trkpt lat="45.4138883" lon="10.480755"><ele>116.0</ele><time>2026-05-03T09:26:50.12Z</time></trkpt><trkpt lat="45.4139767" lon="10.4806433"><ele>116.5</ele><time>2026-05-03T09:26:52.12Z</time></trkpt><trkpt lat="45.4140467" lon="10.480515"><ele>117.0</ele><time>2026-05-03T09:26:54.117Z</time></trkpt><trkpt lat="45.4141117" lon="10.4803833"><ele>117.0</ele><time>2026-05-03T09:26:56.124Z</time></trkpt><trkpt lat="45.4141883" lon="10.4802683"><ele>116.99999999999999</ele><time>2026-05-03T09:26:58.122Z</time></trkpt><trkpt lat="45.4142667" lon="10.480175"><ele>116.99999999999999</ele><time>2026-05-03T09:27:00.122Z</time></trkpt><trkpt lat="45.4143483" lon="10.4801033"><ele>117.0</ele><time>2026-05-03T09:27:02.124Z</time></trkpt><trkpt lat="45.4144383" lon="10.4800467"><ele>117.0</ele><time>2026-05-03T09:27:04.122Z</time></trkpt><trkpt lat="45.4145233" lon="10.4800033"><ele>117.0</ele><time>2026-05-03T09:27:06.123Z</time></trkpt><trkpt lat="45.4146" lon="10.479975"><ele>117.00000000000001</ele><time>2026-05-03T09:27:08.12Z</time></trkpt><trkpt lat="45.4146683" lon="10.47996"><ele>117.0</ele><time>2026-05-03T09:27:11.114Z</time></trkpt><trkpt lat="45.41469" lon="10.4798717"><ele>117.0</ele><time>2026-05-03T09:27:16.116Z</time></trkpt><trkpt lat="45.4146867" lon="10.4797767"><ele>117.00000000000001</ele><time>2026-05-03T09:27:18.116Z</time></trkpt><trkpt lat="45.4146983" lon="10.4796667"><ele>117.0</ele><time>2026-05-03T09:27:20.122Z</time></trkpt><trkpt lat="45.414705" lon="10.479555"><ele>117.0</ele><time>2026-05-03T09:27:22.113Z</time></trkpt><trkpt lat="45.4147267" lon="10.4794517"><ele>117.19999999999999</ele><time>2026-05-03T09:27:24.124Z</time></trkpt><trkpt lat="45.4148017" lon="10.4794267"><ele>117.39999999999999</ele><time>2026-05-03T09:27:26.12Z</time></trkpt><trkpt lat="45.4149067" lon="10.47947"><ele>117.60000000000001</ele><time>2026-05-03T09:27:28.116Z</time></trkpt><trkpt lat="45.4150067" lon="10.4794933"><ele>117.80000000000001</ele><time>2026-05-03T09:27:30.115Z</time></trkpt><trkpt lat="45.4151133" lon="10.47952"><ele>118.0</ele><time>2026-05-03T09:27:32.124Z</time></trkpt><trkpt lat="45.41522" lon="10.4795433"><ele>118.0</ele><time>2026-05-03T09:27:34.122Z</time></trkpt><trkpt lat="45.4153233" lon="10.4795833"><ele>118.00000000000001</ele><time>2026-05-03T09:27:36.122Z</time></trkpt><trkpt lat="45.4154233" lon="10.4796133"><ele>118.00000000000001</ele><time>2026-05-03T09:27:38.124Z</time></trkpt><trkpt lat="45.41553" lon="10.479645"><ele>118.0</ele><time>2026-05-03T09:27:40.119Z</time></trkpt><trkpt lat="45.41564" lon="10.4796933"><ele>118.0</ele><time>2026-05-03T09:27:42.116Z</time></trkpt><trkpt lat="45.41575" lon="10.4797433"><ele>119.25</ele><time>2026-05-03T09:27:44.121Z</time></trkpt><trkpt lat="45.415865" lon="10.4797933"><ele>120.5</ele><time>2026-05-03T09:27:46.113Z</time></trkpt><trkpt lat="45.4159783" lon="10.479855"><ele>121.75</ele><time>2026-05-03T09:27:48.117Z</time></trkpt><trkpt lat="45.41609" lon="10.4798917"><ele>123.0</ele><time>2026-05-03T09:27:50.125Z</time></trkpt><trkpt lat="45.4162" lon="10.479935"><ele>123.0</ele><time>2026-05-03T09:27:52.121Z</time></trkpt><trkpt lat="45.41631" lon="10.4799867"><ele>123.00000000000001</ele><time>2026-05-03T09:27:54.12Z</time></trkpt><trkpt lat="45.41637" lon="10.48002"><ele>123.00000000000001</ele><time>2026-05-03T09:27:55.122Z</time></trkpt><trkpt lat="45.41647" lon="10.4801"><ele>123.0</ele><time>2026-05-03T09:27:57.118Z</time></trkpt><trkpt lat="45.416575" lon="10.480205"><ele>123.0</ele><time>2026-05-03T09:27:59.125Z</time></trkpt><trkpt lat="45.416615" lon="10.480275"><ele>122.83333333333333</ele><time>2026-05-03T09:28:00.119Z</time></trkpt><trkpt lat="45.41669" lon="10.4804183"><ele>122.66666666666666</ele><time>2026-05-03T09:28:02.124Z</time></trkpt><trkpt lat="45.416755" lon="10.480555"><ele>122.5</ele><time>2026-05-03T09:28:04.113Z</time></trkpt><trkpt lat="45.4167933" lon="10.4806267"><ele>122.33333333333333</ele><time>2026-05-03T09:28:05.12Z</time></trkpt><trkpt lat="45.4168333" lon="10.4807033"><ele>122.16666666666666</ele><time>2026-05-03T09:28:06.121Z</time></trkpt><trkpt lat="45.4168733" lon="10.4807767"><ele>122.0</ele><time>2026-05-03T09:28:07.116Z</time></trkpt><trkpt lat="45.4169483" lon="10.4809083"><ele>122.0</ele><time>2026-05-03T09:28:09.111Z</time></trkpt><trkpt lat="45.41703" lon="10.481035"><ele>121.99999999999999</ele><time>2026-05-03T09:28:11.121Z</time></trkpt><trkpt lat="45.4171317" lon="10.4811267"><ele>121.99999999999999</ele><time>2026-05-03T09:28:13.122Z</time></trkpt><trkpt lat="45.4172317" lon="10.481205"><ele>122.0</ele><time>2026-05-03T09:28:15.121Z</time></trkpt><trkpt lat="45.4172917" lon="10.481245"><ele>122.0</ele><time>2026-05-03T09:28:16.121Z</time></trkpt><trkpt lat="45.4174117" lon="10.48132"><ele>123.0</ele><time>2026-05-03T09:28:18.122Z</time></trkpt><trkpt lat="45.417525" lon="10.48139"><ele>124.0</ele><time>2026-05-03T09:28:20.118Z</time></trkpt><trkpt lat="45.4176367" lon="10.4814567"><ele>125.0</ele><time>2026-05-03T09:28:22.122Z</time></trkpt><trkpt lat="45.41775" lon="10.48152"><ele>126.0</ele><time>2026-05-03T09:28:24.116Z</time></trkpt><trkpt lat="45.4178667" lon="10.48158"><ele>126.0</ele><time>2026-05-03T09:28:26.105Z</time></trkpt><trkpt lat="45.4179283" lon="10.481615"><ele>126.0</ele><time>2026-05-03T09:28:27.11Z</time></trkpt><trkpt lat="45.4179883" lon="10.481645"><ele>126.0</ele><time>2026-05-03T09:28:28.12Z</time></trkpt><trkpt lat="45.4180467" lon="10.48168"><ele>126.0</ele><time>2026-05-03T09:28:29.114Z</time></trkpt><trkpt lat="45.4181067" lon="10.4817133"><ele>126.0</ele><time>2026-05-03T09:28:30.113Z</time></trkpt><trkpt lat="45.4181683" lon="10.4817367"><ele>126.0</ele><time>2026-05-03T09:28:31.111Z</time></trkpt><trkpt lat="45.4182867" lon="10.4817933"><ele>126.0</ele><time>2026-05-03T09:28:33.114Z</time></trkpt><trkpt lat="45.4183483" lon="10.4818217"><ele>125.6</ele><time>2026-05-03T09:28:34.12Z</time></trkpt><trkpt lat="45.41841" lon="10.4818483"><ele>125.19999999999999</ele><time>2026-05-03T09:28:35.12Z</time></trkpt><trkpt lat="45.4185283" lon="10.4818833"><ele>124.80000000000001</ele><time>2026-05-03T09:28:37.12Z</time></trkpt><trkpt lat="45.4186433" lon="10.4819117"><ele>124.4</ele><time>2026-05-03T09:28:39.12Z</time></trkpt><trkpt lat="45.4187467" lon="10.4819867"><ele>124.0</ele><time>2026-05-03T09:28:41.123Z</time></trkpt><trkpt lat="45.4188117" lon="10.4820933"><ele>124.00000000000001</ele><time>2026-05-03T09:28:43.121Z</time></trkpt><trkpt lat="45.418815" lon="10.4822483"><ele>124.0</ele><time>2026-05-03T09:28:45.121Z</time></trkpt><trkpt lat="45.4188117" lon="10.4823517"><ele>124.0</ele><time>2026-05-03T09:28:46.118Z</time></trkpt><trkpt lat="45.418815" lon="10.4824483"><ele>124.0</ele><time>2026-05-03T09:28:47.12Z</time></trkpt><trkpt lat="45.4188183" lon="10.4825383"><ele>124.00000000000001</ele><time>2026-05-03T09:28:48.124Z</time></trkpt><trkpt lat="45.4188233" lon="10.4826967"><ele>124.0</ele><time>2026-05-03T09:28:50.127Z</time></trkpt><trkpt lat="45.4188317" lon="10.48285"><ele>124.16666666666667</ele><time>2026-05-03T09:28:52.116Z</time></trkpt><trkpt lat="45.4188567" lon="10.48298"><ele>124.33333333333334</ele><time>2026-05-03T09:28:54.122Z</time></trkpt><trkpt lat="45.41889" lon="10.4830767"><ele>124.5</ele><time>2026-05-03T09:28:56.109Z</time></trkpt><trkpt lat="45.4188817" lon="10.4832167"><ele>124.66666666666666</ele><time>2026-05-03T09:28:59.12Z</time></trkpt><trkpt lat="45.418855" lon="10.4833217"><ele>124.83333333333333</ele><time>2026-05-03T09:29:01.113Z</time></trkpt><trkpt lat="45.4188317" lon="10.4834267"><ele>125.0</ele><time>2026-05-03T09:29:03.113Z</time></trkpt><trkpt lat="45.4188217" lon="10.48354"><ele>125.66666666666666</ele><time>2026-05-03T09:29:05.116Z</time></trkpt><trkpt lat="45.41881" lon="10.4836517"><ele>126.33333333333333</ele><time>2026-05-03T09:29:07.111Z</time></trkpt><trkpt lat="45.4188017" lon="10.4837633"><ele>127.0</ele><time>2026-05-03T09:29:09.115Z</time></trkpt><trkpt lat="45.4187983" lon="10.4838783"><ele>127.66666666666666</ele><time>2026-05-03T09:29:11.116Z</time></trkpt><trkpt lat="45.4188" lon="10.4839933"><ele>128.33333333333334</ele><time>2026-05-03T09:29:13.12Z</time></trkpt><trkpt lat="45.41881" lon="10.4841033"><ele>129.0</ele><time>2026-05-03T09:29:15.114Z</time></trkpt><trkpt lat="45.4188067" lon="10.4842233"><ele>129.0</ele><time>2026-05-03T09:29:18.112Z</time></trkpt><trkpt lat="45.4188067" lon="10.4843133"><ele>129.0</ele><time>2026-05-03T09:29:22.116Z</time></trkpt><trkpt lat="45.4188067" lon="10.4842033"><ele>129.0</ele><time>2026-05-03T09:29:28.105Z</time></trkpt><trkpt lat="45.41879" lon="10.4841017"><ele>129.0</ele><time>2026-05-03T09:29:30.117Z</time></trkpt><trkpt lat="45.4187967" lon="10.4839783"><ele>129.0</ele><time>2026-05-03T09:29:32.113Z</time></trkpt><trkpt lat="45.4187967" lon="10.4838433"><ele>129.0</ele><time>2026-05-03T09:29:34.115Z</time></trkpt><trkpt lat="45.41879" lon="10.4837167"><ele>129.0</ele><time>2026-05-03T09:29:36.118Z</time></trkpt><trkpt lat="45.4187983" lon="10.4835833"><ele>129.0</ele><time>2026-05-03T09:29:38.123Z</time></trkpt><trkpt lat="45.4188033" lon="10.4834433"><ele>129.0</ele><time>2026-05-03T09:29:40.122Z</time></trkpt><trkpt lat="45.41881" lon="10.4832917"><ele>129.0</ele><time>2026-05-03T09:29:42.118Z</time></trkpt><trkpt lat="45.41882" lon="10.48316"><ele>129.0</ele><time>2026-05-03T09:29:44.125Z</time></trkpt><trkpt lat="45.4188683" lon="10.483085"><ele>128.33333333333334</ele><time>2026-05-03T09:29:46.117Z</time></trkpt><trkpt lat="45.4189417" lon="10.4831083"><ele>127.66666666666666</ele><time>2026-05-03T09:29:48.12Z</time></trkpt><trkpt lat="45.4190017" lon="10.48318"><ele>127.0</ele><time>2026-05-03T09:29:50.121Z</time></trkpt><trkpt lat="45.4190633" lon="10.4832517"><ele>126.33333333333333</ele><time>2026-05-03T09:29:52.12Z</time></trkpt><trkpt lat="45.4191367" lon="10.48332"><ele>125.66666666666666</ele><time>2026-05-03T09:29:54.117Z</time></trkpt><trkpt lat="45.4192183" lon="10.483415"><ele>125.0</ele><time>2026-05-03T09:29:56.116Z</time></trkpt><trkpt lat="45.419295" lon="10.483505"><ele>125.0</ele><time>2026-05-03T09:29:58.121Z</time></trkpt><trkpt lat="45.41936" lon="10.483615"><ele>125.0</ele><time>2026-05-03T09:30:00.116Z</time></trkpt><trkpt lat="45.4193983" lon="10.4837467"><ele>125.0</ele><time>2026-05-03T09:30:02.121Z</time></trkpt><trkpt lat="45.4194017" lon="10.4838933"><ele>125.0</ele><time>2026-05-03T09:30:04.111Z</time></trkpt><trkpt lat="45.4193833" lon="10.484035"><ele>125.0</ele><time>2026-05-03T09:30:06.118Z</time></trkpt><trkpt lat="45.4193717" lon="10.4841883"><ele>125.75</ele><time>2026-05-03T09:30:08.122Z</time></trkpt><trkpt lat="45.4193633" lon="10.4843433"><ele>126.5</ele><time>2026-05-03T09:30:10.115Z</time></trkpt><trkpt lat="45.419385" lon="10.4845"><ele>127.25</ele><time>2026-05-03T09:30:12.122Z</time></trkpt><trkpt lat="45.4194367" lon="10.4846417"><ele>128.0</ele><time>2026-05-03T09:30:14.12Z</time></trkpt><trkpt lat="45.41951" lon="10.4847733"><ele>128.0</ele><time>2026-05-03T09:30:16.119Z</time></trkpt><trkpt lat="45.4195933" lon="10.48489"><ele>128.0</ele><time>2026-05-03T09:30:18.124Z</time></trkpt><trkpt lat="45.4196783" lon="10.485"><ele>128.0</ele><time>2026-05-03T09:30:20.122Z</time></trkpt><trkpt lat="45.41977" lon="10.4851017"><ele>128.0</ele><time>2026-05-03T09:30:22.117Z</time></trkpt><trkpt lat="45.419825" lon="10.4851483"><ele>128.0</ele><time>2026-05-03T09:30:23.121Z</time></trkpt><trkpt lat="45.4199167" lon="10.4852267"><ele>128.0</ele><time>2026-05-03T09:30:25.119Z</time></trkpt><trkpt lat="45.4200033" lon="10.485295"><ele>128.0</ele><time>2026-05-03T09:30:27.12Z</time></trkpt><trkpt lat="45.4200967" lon="10.4853533"><ele>128.0</ele><time>2026-05-03T09:30:29.115Z</time></trkpt><trkpt lat="45.42019" lon="10.4854"><ele>128.0</ele><time>2026-05-03T09:30:31.121Z</time></trkpt><trkpt lat="45.4202817" lon="10.485425"><ele>128.0</ele><time>2026-05-03T09:30:33.119Z</time></trkpt><trkpt lat="45.4203717" lon="10.4854483"><ele>130.20000000000002</ele><time>2026-05-03T09:30:35.121Z</time></trkpt><trkpt lat="45.420465" lon="10.48547"><ele>132.4</ele><time>2026-05-03T09:30:37.115Z</time></trkpt><trkpt lat="45.42057" lon="10.485485"><ele>134.60000000000002</ele><time>2026-05-03T09:30:39.119Z</time></trkpt><trkpt lat="45.42068" lon="10.485475"><ele>136.8</ele><time>2026-05-03T09:30:41.12Z</time></trkpt><trkpt lat="45.4207967" lon="10.48547"><ele>139.0</ele><time>2026-05-03T09:30:43.121Z</time></trkpt><trkpt lat="45.42086" lon="10.4854467"><ele>139.2</ele><time>2026-05-03T09:30:44.121Z</time></trkpt><trkpt lat="45.4209817" lon="10.4854117"><ele>139.4</ele><time>2026-05-03T09:30:46.119Z</time></trkpt><trkpt lat="45.42109" lon="10.4853983"><ele>139.6</ele><time>2026-05-03T09:30:48.122Z</time></trkpt><trkpt lat="45.4211883" lon="10.4853917"><ele>139.8</ele><time>2026-05-03T09:30:50.125Z</time></trkpt><trkpt lat="45.421275" lon="10.4854217"><ele>140.0</ele><time>2026-05-03T09:30:52.118Z</time></trkpt><trkpt lat="45.4213767" lon="10.485445"><ele>140.0</ele><time>2026-05-03T09:30:54.116Z</time></trkpt><trkpt lat="45.4214833" lon="10.4854783"><ele>140.0</ele><time>2026-05-03T09:30:56.12Z</time></trkpt><trkpt lat="45.42158" lon="10.4855267"><ele>140.0</ele><time>2026-05-03T09:30:58.122Z</time></trkpt><trkpt lat="45.4216817" lon="10.4855683"><ele>140.0</ele><time>2026-05-03T09:31:00.117Z</time></trkpt><trkpt lat="45.4218" lon="10.485625"><ele>140.0</ele><time>2026-05-03T09:31:02.12Z</time></trkpt><trkpt lat="45.4219217" lon="10.48569"><ele>140.0</ele><time>2026-05-03T09:31:04.12Z</time></trkpt><trkpt lat="45.4220267" lon="10.485745"><ele>140.0</ele><time>2026-05-03T09:31:06.121Z</time></trkpt><trkpt lat="45.4221183" lon="10.48583"><ele>140.0</ele><time>2026-05-03T09:31:08.116Z</time></trkpt><trkpt lat="45.4221983" lon="10.4859533"><ele>140.0</ele><time>2026-05-03T09:31:10.119Z</time></trkpt><trkpt lat="45.4222717" lon="10.4860717"><ele>140.4</ele><time>2026-05-03T09:31:12.12Z</time></trkpt><trkpt lat="45.4223383" lon="10.4861917"><ele>140.8</ele><time>2026-05-03T09:31:14.121Z</time></trkpt><trkpt lat="45.4223867" lon="10.4863017"><ele>141.2</ele><time>2026-05-03T09:31:16.12Z</time></trkpt><trkpt lat="45.42243" lon="10.4864317"><ele>141.6</ele><time>2026-05-03T09:31:18.12Z</time></trkpt><trkpt lat="45.4224567" lon="10.4865583"><ele>142.0</ele><time>2026-05-03T09:31:20.119Z</time></trkpt><trkpt lat="45.4224717" lon="10.486685"><ele>142.4</ele><time>2026-05-03T09:31:22.115Z</time></trkpt><trkpt lat="45.42247" lon="10.4868033"><ele>142.79999999999998</ele><time>2026-05-03T09:31:24.121Z</time></trkpt><trkpt lat="45.4224533" lon="10.4869283"><ele>143.2</ele><time>2026-05-03T09:31:26.123Z</time></trkpt><trkpt lat="45.4224467" lon="10.48706"><ele>143.6</ele><time>2026-05-03T09:31:28.113Z</time></trkpt><trkpt lat="45.42243" lon="10.4871917"><ele>144.0</ele><time>2026-05-03T09:31:30.113Z</time></trkpt><trkpt lat="45.4224283" lon="10.4873383"><ele>144.6</ele><time>2026-05-03T09:31:32.117Z</time></trkpt><trkpt lat="45.4224317" lon="10.4874833"><ele>145.2</ele><time>2026-05-03T09:31:34.111Z</time></trkpt><trkpt lat="45.4224483" lon="10.4876183"><ele>145.79999999999998</ele><time>2026-05-03T09:31:36.119Z</time></trkpt><trkpt lat="45.4224867" lon="10.487745"><ele>146.4</ele><time>2026-05-03T09:31:38.123Z</time></trkpt><trkpt lat="45.42253" lon="10.4878733"><ele>147.0</ele><time>2026-05-03T09:31:40.119Z</time></trkpt><trkpt lat="45.422565" lon="10.4879917"><ele>147.5</ele><time>2026-05-03T09:31:42.114Z</time></trkpt><trkpt lat="45.4225967" lon="10.48811"><ele>148.0</ele><time>2026-05-03T09:31:44.116Z</time></trkpt><trkpt lat="45.4226333" lon="10.488205"><ele>148.5</ele><time>2026-05-03T09:31:46.117Z</time></trkpt><trkpt lat="45.42267" lon="10.48828"><ele>149.0</ele><time>2026-05-03T09:31:48.113Z</time></trkpt><trkpt lat="45.422725" lon="10.4883367"><ele>149.5</ele><time>2026-05-03T09:31:50.121Z</time></trkpt><trkpt lat="45.4227883" lon="10.4884017"><ele>150.0</ele><time>2026-05-03T09:31:52.113Z</time></trkpt><trkpt lat="45.4228633" lon="10.4884433"><ele>150.0</ele><time>2026-05-03T09:31:54.118Z</time></trkpt><trkpt lat="45.4229417" lon="10.4884933"><ele>150.0</ele><time>2026-05-03T09:31:56.117Z</time></trkpt><trkpt lat="45.4230233" lon="10.4885433"><ele>150.0</ele><time>2026-05-03T09:31:58.119Z</time></trkpt><trkpt lat="45.423105" lon="10.4886217"><ele>150.0</ele><time>2026-05-03T09:32:00.11Z</time></trkpt><trkpt lat="45.42319" lon="10.4887"><ele>150.0</ele><time>2026-05-03T09:32:02.113Z</time></trkpt><trkpt lat="45.4232667" lon="10.4887667"><ele>150.6</ele><time>2026-05-03T09:32:04.116Z</time></trkpt><trkpt lat="45.4233483" lon="10.4888367"><ele>151.2</ele><time>2026-05-03T09:32:06.119Z</time></trkpt><trkpt lat="45.4234367" lon="10.4888983"><ele>151.8</ele><time>2026-05-03T09:32:08.534Z</time></trkpt><trkpt lat="45.423535" lon="10.4889833"><ele>152.4</ele><time>2026-05-03T09:32:10.538Z</time></trkpt><trkpt lat="45.4236233" lon="10.4890567"><ele>153.0</ele><time>2026-05-03T09:32:12.536Z</time></trkpt><trkpt lat="45.42371" lon="10.4891517"><ele>153.0</ele><time>2026-05-03T09:32:14.541Z</time></trkpt><trkpt lat="45.4238" lon="10.4892667"><ele>153.0</ele><time>2026-05-03T09:32:16.53Z</time></trkpt><trkpt lat="45.4238767" lon="10.4893767"><ele>153.0</ele><time>2026-05-03T09:32:18.544Z</time></trkpt><trkpt lat="45.4239517" lon="10.4894817"><ele>153.0</ele><time>2026-05-03T09:32:20.537Z</time></trkpt><trkpt lat="45.42402" lon="10.4895567"><ele>153.0</ele><time>2026-05-03T09:32:22.533Z</time></trkpt><trkpt lat="45.424085" lon="10.4896333"><ele>152.83333333333334</ele><time>2026-05-03T09:32:24.537Z</time></trkpt><trkpt lat="45.424145" lon="10.4896933"><ele>152.66666666666666</ele><time>2026-05-03T09:32:26.538Z</time></trkpt><trkpt lat="45.4242167" lon="10.4897817"><ele>152.5</ele><time>2026-05-03T09:32:28.536Z</time></trkpt><trkpt lat="45.4242817" lon="10.489865"><ele>152.33333333333331</ele><time>2026-05-03T09:32:30.535Z</time></trkpt><trkpt lat="45.4243417" lon="10.4899483"><ele>152.16666666666666</ele><time>2026-05-03T09:32:32.537Z</time></trkpt><trkpt lat="45.4243967" lon="10.4900333"><ele>152.0</ele><time>2026-05-03T09:32:34.538Z</time></trkpt><trkpt lat="45.4244683" lon="10.4901183"><ele>152.0</ele><time>2026-05-03T09:32:36.534Z</time></trkpt><trkpt lat="45.424545" lon="10.490205"><ele>152.0</ele><time>2026-05-03T09:32:38.538Z</time></trkpt><trkpt lat="45.4246183" lon="10.4902933"><ele>152.0</ele><time>2026-05-03T09:32:40.529Z</time></trkpt><trkpt lat="45.4246917" lon="10.4903817"><ele>152.0</ele><time>2026-05-03T09:32:42.532Z</time></trkpt><trkpt lat="45.4247783" lon="10.490475"><ele>152.0</ele><time>2026-05-03T09:32:44.542Z</time></trkpt><trkpt lat="45.4248467" lon="10.4905667"><ele>154.5</ele><time>2026-05-03T09:32:46.534Z</time></trkpt><trkpt lat="45.4249133" lon="10.49067"><ele>157.0</ele><time>2026-05-03T09:32:48.535Z</time></trkpt><trkpt lat="45.42247" lon="10.4868033"><ele>155.0</ele><time>2026-05-03T09:31:24.121Z</time></trkpt><trkpt lat="45.4224533" lon="10.4869283"><ele>153.0</ele><time>2026-05-03T09:31:26.123Z</time></trkpt><trkpt lat="45.4224467" lon="10.48706"><ele>151.0</ele><time>2026-05-03T09:31:28.113Z</time></trkpt><trkpt lat="45.42243" lon="10.4871917"><ele>149.0</ele><time>2026-05-03T09:31:30.113Z</time></trkpt><trkpt lat="45.4224283" lon="10.4873383"><ele>147.0</ele><time>2026-05-03T09:31:32.117Z</time></trkpt><trkpt lat="45.4224317" lon="10.4874833"><ele>147.0</ele><time>2026-05-03T09:31:34.111Z</time></trkpt><trkpt lat="45.4224483" lon="10.4876183"><ele>147.0</ele><time>2026-05-03T09:31:36.119Z</time></trkpt><trkpt lat="45.4224867" lon="10.487745"><ele>147.0</ele><time>2026-05-03T09:31:38.123Z</time></trkpt><trkpt lat="45.42253" lon="10.4878733"><ele>147.0</ele><time>2026-05-03T09:31:40.119Z</time></trkpt><trkpt lat="45.422565" lon="10.4879917"><ele>147.0</ele><time>2026-05-03T09:31:42.114Z</time></trkpt><trkpt lat="45.4225967" lon="10.48811"><ele>147.5</ele><time>2026-05-03T09:31:44.116Z</time></trkpt><trkpt lat="45.4226333" lon="10.488205"><ele>148.0</ele><time>2026-05-03T09:31:46.117Z</time></trkpt><trkpt lat="45.42267" lon="10.48828"><ele>148.5</ele><time>2026-05-03T09:31:48.113Z</time></trkpt><trkpt lat="45.422725" lon="10.4883367"><ele>149.0</ele><time>2026-05-03T09:31:50.121Z</time></trkpt><trkpt lat="45.4227883" lon="10.4884017"><ele>149.5</ele><time>2026-05-03T09:31:52.113Z</time></trkpt><trkpt lat="45.4228633" lon="10.4884433"><ele>150.0</ele><time>2026-05-03T09:31:54.118Z</time></trkpt><trkpt lat="45.4229417" lon="10.4884933"><ele>150.0</ele><time>2026-05-03T09:31:56.117Z</time></trkpt><trkpt lat="45.4230233" lon="10.4885433"><ele>150.0</ele><time>2026-05-03T09:31:58.119Z</time></trkpt><trkpt lat="45.423105" lon="10.4886217"><ele>150.0</ele><time>2026-05-03T09:32:00.11Z</time></trkpt><trkpt lat="45.42319" lon="10.4887"><ele>150.0</ele><time>2026-05-03T09:32:02.113Z</time></trkpt><trkpt lat="45.4232667" lon="10.4887667"><ele>150.0</ele><time>2026-05-03T09:32:04.116Z</time></trkpt><trkpt lat="45.4233483" lon="10.4888367"><ele>150.6</ele><time>2026-05-03T09:32:06.119Z</time></trkpt><trkpt lat="45.4234367" lon="10.4888983"><ele>151.2</ele><time>2026-05-03T09:32:08.534Z</time></trkpt><trkpt lat="45.423535" lon="10.4889833"><ele>151.8</ele><time>2026-05-03T09:32:10.538Z</time></trkpt><trkpt lat="45.4236233" lon="10.4890567"><ele>152.4</ele><time>2026-05-03T09:32:12.536Z</time></trkpt><trkpt lat="45.42371" lon="10.4891517"><ele>153.0</ele><time>2026-05-03T09:32:14.541Z</time></trkpt><trkpt lat="45.4238" lon="10.4892667"><ele>153.0</ele><time>2026-05-03T09:32:16.53Z</time></trkpt><trkpt lat="45.4238767" lon="10.4893767"><ele>153.0</ele><time>2026-05-03T09:32:18.544Z</time></trkpt><trkpt lat="45.4239517" lon="10.4894817"><ele>153.0</ele><time>2026-05-03T09:32:20.537Z</time></trkpt><trkpt lat="45.42402" lon="10.4895567"><ele>153.0</ele><time>2026-05-03T09:32:22.533Z</time></trkpt><trkpt lat="45.424085" lon="10.4896333"><ele>153.0</ele><time>2026-05-03T09:32:24.537Z</time></trkpt><trkpt lat="45.424145" lon="10.4896933"><ele>152.83333333333334</ele><time>2026-05-03T09:32:26.538Z</time></trkpt><trkpt lat="45.4242167" lon="10.4897817"><ele>152.66666666666666</ele><time>2026-05-03T09:32:28.536Z</time></trkpt><trkpt lat="45.4242817" lon="10.489865"><ele>152.5</ele><time>2026-05-03T09:32:30.535Z</time></trkpt><trkpt lat="45.4243417" lon="10.4899483"><ele>152.33333333333331</ele><time>2026-05-03T09:32:32.537Z</time></trkpt><trkpt lat="45.4243967" lon="10.4900333"><ele>152.16666666666666</ele><time>2026-05-03T09:32:34.538Z</time></trkpt><trkpt lat="45.4244683" lon="10.4901183"><ele>152.0</ele><time>2026-05-03T09:32:36.534Z</time></trkpt><trkpt lat="45.424545" lon="10.490205"><ele>152.0</ele><time>2026-05-03T09:32:38.538Z</time></trkpt><trkpt lat="45.4246183" lon="10.4902933"><ele>152.0</ele><time>2026-05-03T09:32:40.529Z</time></trkpt><trkpt lat="45.4246917" lon="10.4903817"><ele>152.0</ele><time>2026-05-03T09:32:42.532Z</time></trkpt><trkpt lat="45.4247783" lon="10.490475"><ele>152.0</ele><time>2026-05-03T09:32:44.542Z</time></trkpt><trkpt lat="45.4248467" lon="10.4905667"><ele>152.0</ele><time>2026-05-03T09:32:46.534Z</time></trkpt><trkpt lat="45.4249133" lon="10.49067"><ele>152.16666666666666</ele><time>2026-05-03T09:32:48.535Z</time></trkpt><trkpt lat="45.42497" lon="10.4907817"><ele>152.33333333333331</ele><time>2026-05-03T09:32:50.541Z</time></trkpt><trkpt lat="45.425025" lon="10.4909017"><ele>152.5</ele><time>2026-05-03T09:32:52.537Z</time></trkpt><trkpt lat="45.4250667" lon="10.491"><ele>152.66666666666666</ele><time>2026-05-03T09:32:54.531Z</time></trkpt><trkpt lat="45.4251" lon="10.4910767"><ele>152.83333333333334</ele><time>2026-05-03T09:32:56.539Z</time></trkpt><trkpt lat="45.425135" lon="10.491155"><ele>153.0</ele><time>2026-05-03T09:32:58.533Z</time></trkpt><trkpt lat="45.4251717" lon="10.491275"><ele>153.0</ele><time>2026-05-03T09:33:01.53Z</time></trkpt><trkpt lat="45.4251833" lon="10.4913767"><ele>153.0</ele><time>2026-05-03T09:33:03.528Z</time></trkpt><trkpt lat="45.425185" lon="10.4915317"><ele>153.0</ele><time>2026-05-03T09:33:05.529Z</time></trkpt><trkpt lat="45.4251933" lon="10.4916617"><ele>153.0</ele><time>2026-05-03T09:33:07.537Z</time></trkpt><trkpt lat="45.4252167" lon="10.4917733"><ele>153.0</ele><time>2026-05-03T09:33:09.539Z</time></trkpt><trkpt lat="45.4252367" lon="10.4918717"><ele>153.0</ele><time>2026-05-03T09:33:11.536Z</time></trkpt><trkpt lat="45.4252783" lon="10.4919617"><ele>153.0</ele><time>2026-05-03T09:33:13.532Z</time></trkpt><trkpt lat="45.425335" lon="10.4920533"><ele>153.0</ele><time>2026-05-03T09:33:15.537Z</time></trkpt><trkpt lat="45.42539" lon="10.4921217"><ele>153.0</ele><time>2026-05-03T09:33:17.53Z</time></trkpt><trkpt lat="45.4254717" lon="10.492185"><ele>153.0</ele><time>2026-05-03T09:33:20.539Z</time></trkpt><trkpt lat="45.42555" lon="10.4922383"><ele>153.0</ele><time>2026-05-03T09:33:23.533Z</time></trkpt><trkpt lat="45.4256367" lon="10.4922717"><ele>153.0</ele><time>2026-05-03T09:33:26.54Z</time></trkpt><trkpt lat="45.4257333" lon="10.4922883"><ele>153.85714285714286</ele><time>2026-05-03T09:33:29.538Z</time></trkpt><trkpt lat="45.4258033" lon="10.4923"><ele>154.71428571428572</ele><time>2026-05-03T09:33:31.534Z</time></trkpt><trkpt lat="45.4258767" lon="10.4922867"><ele>155.57142857142856</ele><time>2026-05-03T09:33:33.531Z</time></trkpt><trkpt lat="45.4259467" lon="10.492255"><ele>156.42857142857144</ele><time>2026-05-03T09:33:35.531Z</time></trkpt><trkpt lat="45.4260083" lon="10.4922"><ele>157.2857142857143</ele><time>2026-05-03T09:33:37.536Z</time></trkpt><trkpt lat="45.4260683" lon="10.49216"><ele>158.14285714285714</ele><time>2026-05-03T09:33:39.533Z</time></trkpt><trkpt lat="45.426135" lon="10.4921233"><ele>159.0</ele><time>2026-05-03T09:33:41.53Z</time></trkpt><trkpt lat="45.42622" lon="10.4920817"><ele>159.83333333333334</ele><time>2026-05-03T09:33:43.533Z</time></trkpt><trkpt lat="45.4263083" lon="10.49202"><ele>160.66666666666666</ele><time>2026-05-03T09:33:45.538Z</time></trkpt><trkpt lat="45.4264017" lon="10.491975"><ele>161.5</ele><time>2026-05-03T09:33:47.527Z</time></trkpt><trkpt lat="45.42649" lon="10.4919283"><ele>162.33333333333331</ele><time>2026-05-03T09:33:49.532Z</time></trkpt><trkpt lat="45.4265633" lon="10.4918933"><ele>163.16666666666666</ele><time>2026-05-03T09:33:51.533Z</time></trkpt><trkpt lat="45.4266267" lon="10.49184"><ele>164.0</ele><time>2026-05-03T09:33:53.54Z</time></trkpt><trkpt lat="45.42668" lon="10.4917717"><ele>165.16666666666666</ele><time>2026-05-03T09:33:55.537Z</time></trkpt><trkpt lat="45.4267317" lon="10.4916983"><ele>166.33333333333331</ele><time>2026-05-03T09:33:57.54Z</time></trkpt><trkpt lat="45.4267917" lon="10.4916233"><ele>167.5</ele><time>2026-05-03T09:33:59.536Z</time></trkpt><trkpt lat="45.4268583" lon="10.4915333"><ele>168.66666666666666</ele><time>2026-05-03T09:34:01.542Z</time></trkpt><trkpt lat="45.4268917" lon="10.4914333"><ele>169.83333333333334</ele><time>2026-05-03T09:34:03.533Z</time></trkpt><trkpt lat="45.4269067" lon="10.49133"><ele>171.0</ele><time>2026-05-03T09:34:05.534Z</time></trkpt><trkpt lat="45.4269383" lon="10.4912183"><ele>171.66666666666666</ele><time>2026-05-03T09:34:07.54Z</time></trkpt><trkpt lat="45.42696" lon="10.4911233"><ele>172.33333333333334</ele><time>2026-05-03T09:34:09.531Z</time></trkpt><trkpt lat="45.4269633" lon="10.4910033"><ele>173.0</ele><time>2026-05-03T09:34:12.534Z</time></trkpt><trkpt lat="45.4269517" lon="10.4908983"><ele>173.66666666666669</ele><time>2026-05-03T09:34:14.535Z</time></trkpt><trkpt lat="45.4269367" lon="10.490795"><ele>174.33333333333334</ele><time>2026-05-03T09:34:16.537Z</time></trkpt><trkpt lat="45.4269233" lon="10.4907"><ele>175.0</ele><time>2026-05-03T09:34:18.535Z</time></trkpt><trkpt lat="45.42691" lon="10.4905633"><ele>175.0</ele><time>2026-05-03T09:34:21.531Z</time></trkpt><trkpt lat="45.4269167" lon="10.4904617"><ele>175.0</ele><time>2026-05-03T09:34:23.534Z</time></trkpt><trkpt lat="45.426935" lon="10.4903583"><ele>175.0</ele><time>2026-05-03T09:34:25.533Z</time></trkpt><trkpt lat="45.4269867" lon="10.4902533"><ele>175.0</ele><time>2026-05-03T09:34:27.53Z</time></trkpt><trkpt lat="45.4270433" lon="10.4901483"><ele>175.0</ele><time>2026-05-03T09:34:29.533Z</time></trkpt><trkpt lat="45.4271083" lon="10.490045"><ele>175.0</ele><time>2026-05-03T09:34:31.537Z</time></trkpt><trkpt lat="45.4271717" lon="10.4899417"><ele>174.0</ele><time>2026-05-03T09:34:33.532Z</time></trkpt><trkpt lat="45.4272183" lon="10.48984"><ele>173.0</ele><time>2026-05-03T09:34:35.54Z</time></trkpt><trkpt lat="45.427275" lon="10.4897633"><ele>172.0</ele><time>2026-05-03T09:34:37.535Z</time></trkpt><trkpt lat="45.42733" lon="10.4896983"><ele>171.0</ele><time>2026-05-03T09:34:39.532Z</time></trkpt><trkpt lat="45.42649" lon="10.4919283"><ele>171.0</ele><time>2026-05-03T09:33:49.532Z</time></trkpt><trkpt lat="45.4265633" lon="10.4918933"><ele>171.0</ele><time>2026-05-03T09:33:51.533Z</time></trkpt><trkpt lat="45.4266267" lon="10.49184"><ele>171.0</ele><time>2026-05-03T09:33:53.54Z</time></trkpt><trkpt lat="45.42668" lon="10.4917717"><ele>171.0</ele><time>2026-05-03T09:33:55.537Z</time></trkpt><trkpt lat="45.4267317" lon="10.4916983"><ele>171.0</ele><time>2026-05-03T09:33:57.54Z</time></trkpt><trkpt lat="45.4267917" lon="10.4916233"><ele>171.0</ele><time>2026-05-03T09:33:59.536Z</time></trkpt><trkpt lat="45.4268583" lon="10.4915333"><ele>171.0</ele><time>2026-05-03T09:34:01.542Z</time></trkpt><trkpt lat="45.4268917" lon="10.4914333"><ele>171.0</ele><time>2026-05-03T09:34:03.533Z</time></trkpt><trkpt lat="45.4269067" lon="10.49133"><ele>171.0</ele><time>2026-05-03T09:34:05.534Z</time></trkpt><trkpt lat="45.4269383" lon="10.4912183"><ele>171.0</ele><time>2026-05-03T09:34:07.54Z</time></trkpt><trkpt lat="45.42696" lon="10.4911233"><ele>171.0</ele><time>2026-05-03T09:34:09.531Z</time></trkpt><trkpt lat="45.4269633" lon="10.4910033"><ele>171.0</ele><time>2026-05-03T09:34:12.534Z</time></trkpt><trkpt lat="45.4269517" lon="10.4908983"><ele>171.66666666666666</ele><time>2026-05-03T09:34:14.535Z</time></trkpt><trkpt lat="45.4269367" lon="10.490795"><ele>172.33333333333334</ele><time>2026-05-03T09:34:16.537Z</time></trkpt><trkpt lat="45.4269233" lon="10.4907"><ele>173.0</ele><time>2026-05-03T09:34:18.535Z</time></trkpt><trkpt lat="45.42691" lon="10.4905633"><ele>173.66666666666669</ele><time>2026-05-03T09:34:21.531Z</time></trkpt><trkpt lat="45.4269167" lon="10.4904617"><ele>174.33333333333334</ele><time>2026-05-03T09:34:23.534Z</time></trkpt><trkpt lat="45.426935" lon="10.4903583"><ele>175.0</ele><time>2026-05-03T09:34:25.533Z</time></trkpt><trkpt lat="45.4269867" lon="10.4902533"><ele>175.4</ele><time>2026-05-03T09:34:27.53Z</time></trkpt><trkpt lat="45.4270433" lon="10.4901483"><ele>175.8</ele><time>2026-05-03T09:34:29.533Z</time></trkpt><trkpt lat="45.4271083" lon="10.490045"><ele>176.2</ele><time>2026-05-03T09:34:31.537Z</time></trkpt><trkpt lat="45.4271717" lon="10.4899417"><ele>176.6</ele><time>2026-05-03T09:34:33.532Z</time></trkpt><trkpt lat="45.4272183" lon="10.48984"><ele>177.0</ele><time>2026-05-03T09:34:35.54Z</time></trkpt><trkpt lat="45.427275" lon="10.4897633"><ele>177.66666666666666</ele><time>2026-05-03T09:34:37.535Z</time></trkpt><trkpt lat="45.42733" lon="10.4896983"><ele>178.33333333333334</ele><time>2026-05-03T09:34:39.532Z</time></trkpt><trkpt lat="45.427405" lon="10.48963"><ele>179.0</ele><time>2026-05-03T09:34:42.532Z</time></trkpt><trkpt lat="45.4274733" lon="10.489625"><ele>179.66666666666669</ele><time>2026-05-03T09:34:44.53Z</time></trkpt><trkpt lat="45.4275483" lon="10.48969"><ele>180.33333333333334</ele><time>2026-05-03T09:34:46.531Z</time></trkpt><trkpt lat="45.4276017" lon="10.4897767"><ele>181.0</ele><time>2026-05-03T09:34:48.533Z</time></trkpt><trkpt lat="45.4276617" lon="10.4898683"><ele>181.0</ele><time>2026-05-03T09:34:50.537Z</time></trkpt><trkpt lat="45.427725" lon="10.4899667"><ele>181.0</ele><time>2026-05-03T09:34:52.528Z</time></trkpt><trkpt lat="45.4277717" lon="10.490035"><ele>181.0</ele><time>2026-05-03T09:34:54.537Z</time></trkpt><trkpt lat="45.4278367" lon="10.4900983"><ele>181.0</ele><time>2026-05-03T09:34:56.544Z</time></trkpt><trkpt lat="45.4279183" lon="10.490175"><ele>181.0</ele><time>2026-05-03T09:34:59.54Z</time></trkpt><trkpt lat="45.4279833" lon="10.490245"><ele>181.0</ele><time>2026-05-03T09:35:01.538Z</time></trkpt><trkpt lat="45.428035" lon="10.4902983"><ele>181.5</ele><time>2026-05-03T09:35:03.534Z</time></trkpt><trkpt lat="45.4280917" lon="10.4903533"><ele>182.0</ele><time>2026-05-03T09:35:05.54Z</time></trkpt><trkpt lat="45.4281717" lon="10.490415"><ele>182.5</ele><time>2026-05-03T09:35:07.54Z</time></trkpt><trkpt lat="45.4282517" lon="10.4904333"><ele>183.0</ele><time>2026-05-03T09:35:09.663Z</time></trkpt><trkpt lat="45.428325" lon="10.49049"><ele>183.5</ele><time>2026-05-03T09:35:11.662Z</time></trkpt><trkpt lat="45.4284083" lon="10.4905733"><ele>184.0</ele><time>2026-05-03T09:35:13.657Z</time></trkpt><trkpt lat="45.428485" lon="10.4906533"><ele>184.0</ele><time>2026-05-03T09:35:15.659Z</time></trkpt><trkpt lat="45.42857" lon="10.4907967"><ele>184.0</ele><time>2026-05-03T09:35:17.659Z</time></trkpt><trkpt lat="45.4286117" lon="10.4908767"><ele>184.0</ele><time>2026-05-03T09:35:18.654Z</time></trkpt><trkpt lat="45.42864" lon="10.4909583"><ele>184.0</ele><time>2026-05-03T09:35:19.66Z</time></trkpt><trkpt lat="45.4286667" lon="10.49104"><ele>184.0</ele><time>2026-05-03T09:35:20.661Z</time></trkpt><trkpt lat="45.42868" lon="10.4911967"><ele>184.0</ele><time>2026-05-03T09:35:22.653Z</time></trkpt><trkpt lat="45.4287" lon="10.4913483"><ele>183.5</ele><time>2026-05-03T09:35:24.653Z</time></trkpt><trkpt lat="45.4287383" lon="10.4914483"><ele>183.0</ele><time>2026-05-03T09:35:26.66Z</time></trkpt><trkpt lat="45.4287883" lon="10.4915233"><ele>182.5</ele><time>2026-05-03T09:35:28.652Z</time></trkpt><trkpt lat="45.42884" lon="10.49161"><ele>182.0</ele><time>2026-05-03T09:35:30.655Z</time></trkpt><trkpt lat="45.42889" lon="10.491705"><ele>181.5</ele><time>2026-05-03T09:35:32.661Z</time></trkpt><trkpt lat="45.4289233" lon="10.4917917"><ele>181.0</ele><time>2026-05-03T09:35:34.654Z</time></trkpt><trkpt lat="45.4289717" lon="10.4918967"><ele>181.0</ele><time>2026-05-03T09:35:36.655Z</time></trkpt><trkpt lat="45.42901" lon="10.4920117"><ele>181.0</ele><time>2026-05-03T09:35:38.66Z</time></trkpt><trkpt lat="45.42904" lon="10.4921233"><ele>181.0</ele><time>2026-05-03T09:35:40.653Z</time></trkpt><trkpt lat="45.4290633" lon="10.49221"><ele>181.0</ele><time>2026-05-03T09:35:42.654Z</time></trkpt><trkpt lat="45.4291117" lon="10.49231"><ele>181.0</ele><time>2026-05-03T09:35:45.654Z</time></trkpt><trkpt lat="45.4291683" lon="10.4923867"><ele>181.0</ele><time>2026-05-03T09:35:47.653Z</time></trkpt><trkpt lat="45.4292217" lon="10.49246"><ele>179.33333333333334</ele><time>2026-05-03T09:35:49.653Z</time></trkpt><trkpt lat="45.42927" lon="10.4925583"><ele>177.66666666666669</ele><time>2026-05-03T09:35:51.658Z</time></trkpt><trkpt lat="45.429325" lon="10.4926133"><ele>176.0</ele><time>2026-05-03T09:35:53.659Z</time></trkpt><trkpt lat="45.4293967" lon="10.4926467"><ele>174.33333333333334</ele><time>2026-05-03T09:35:55.659Z</time></trkpt><trkpt lat="45.42946" lon="10.4926817"><ele>172.66666666666666</ele><time>2026-05-03T09:35:57.654Z</time></trkpt><trkpt lat="45.429545" lon="10.4927467"><ele>171.0</ele><time>2026-05-03T09:35:59.655Z</time></trkpt><trkpt lat="45.4296317" lon="10.4928233"><ele>170.8</ele><time>2026-05-03T09:36:01.654Z</time></trkpt><trkpt lat="45.4297233" lon="10.4928817"><ele>170.60000000000002</ele><time>2026-05-03T09:36:03.655Z</time></trkpt><trkpt lat="45.429815" lon="10.4929267"><ele>170.4</ele><time>2026-05-03T09:36:05.659Z</time></trkpt><trkpt lat="45.4299" lon="10.4929683"><ele>170.2</ele><time>2026-05-03T09:36:07.659Z</time></trkpt><trkpt lat="45.429985" lon="10.4929983"><ele>170.0</ele><time>2026-05-03T09:36:09.658Z</time></trkpt><trkpt lat="45.4300667" lon="10.4930383"><ele>170.0</ele><time>2026-05-03T09:36:11.659Z</time></trkpt><trkpt lat="45.4301817" lon="10.4931083"><ele>170.0</ele><time>2026-05-03T09:36:13.658Z</time></trkpt><trkpt lat="45.4302467" lon="10.49314"><ele>170.0</ele><time>2026-05-03T09:36:14.658Z</time></trkpt><trkpt lat="45.4303467" lon="10.4932033"><ele>170.0</ele><time>2026-05-03T09:36:16.661Z</time></trkpt><trkpt lat="45.4304383" lon="10.4932567"><ele>170.0</ele><time>2026-05-03T09:36:18.657Z</time></trkpt><trkpt lat="45.4305017" lon="10.4932967"><ele>171.0</ele><time>2026-05-03T09:36:20.656Z</time></trkpt><trkpt lat="45.43056" lon="10.4933417"><ele>172.0</ele><time>2026-05-03T09:36:23.658Z</time></trkpt><trkpt lat="45.4306317" lon="10.4933917"><ele>173.0</ele><time>2026-05-03T09:36:26.653Z</time></trkpt><trkpt lat="45.4306883" lon="10.49345"><ele>174.0</ele><time>2026-05-03T09:36:28.654Z</time></trkpt><trkpt lat="45.430745" lon="10.4935033"><ele>175.0</ele><time>2026-05-03T09:36:30.649Z</time></trkpt><trkpt lat="45.43068" lon="10.49351"><ele>176.0</ele><time>2026-05-03T09:36:36.658Z</time></trkpt><trkpt lat="45.4306133" lon="10.4935033"><ele>177.0</ele><time>2026-05-03T09:36:39.654Z</time></trkpt><trkpt lat="45.4306033" lon="10.4933933"><ele>177.0</ele><time>2026-05-03T09:36:42.659Z</time></trkpt><trkpt lat="45.430605" lon="10.4932833"><ele>177.0</ele><time>2026-05-03T09:36:45.659Z</time></trkpt><trkpt lat="45.430605" lon="10.4931783"><ele>177.0</ele><time>2026-05-03T09:36:48.654Z</time></trkpt><trkpt lat="45.430595" lon="10.4930517"><ele>177.0</ele><time>2026-05-03T09:36:52.654Z</time></trkpt><trkpt lat="45.4305867" lon="10.4929517"><ele>177.0</ele><time>2026-05-03T09:36:55.654Z</time></trkpt><trkpt lat="45.4305583" lon="10.492845"><ele>177.0</ele><time>2026-05-03T09:36:58.653Z</time></trkpt><trkpt lat="45.4305333" lon="10.492725"><ele>177.14285714285714</ele><time>2026-05-03T09:37:01.65Z</time></trkpt><trkpt lat="45.43051" lon="10.492635"><ele>177.28571428571428</ele><time>2026-05-03T09:37:03.652Z</time></trkpt><trkpt lat="45.4304817" lon="10.4925533"><ele>177.42857142857142</ele><time>2026-05-03T09:37:05.659Z</time></trkpt><trkpt lat="45.4304467" lon="10.492455"><ele>177.57142857142856</ele><time>2026-05-03T09:37:07.657Z</time></trkpt><trkpt lat="45.4304117" lon="10.4923467"><ele>177.71428571428572</ele><time>2026-05-03T09:37:09.65Z</time></trkpt><trkpt lat="45.4303817" lon="10.4922433"><ele>177.85714285714283</ele><time>2026-05-03T09:37:11.649Z</time></trkpt><trkpt lat="45.4303633" lon="10.4921567"><ele>178.0</ele><time>2026-05-03T09:37:13.658Z</time></trkpt><trkpt lat="45.4303083" lon="10.49205"><ele>179.33333333333334</ele><time>2026-05-03T09:37:16.653Z</time></trkpt><trkpt lat="45.4302717" lon="10.4919467"><ele>180.66666666666669</ele><time>2026-05-03T09:37:19.65Z</time></trkpt><trkpt lat="45.4302517" lon="10.491825"><ele>182.0</ele><time>2026-05-03T09:37:22.652Z</time></trkpt><trkpt lat="45.4302283" lon="10.4916983"><ele>183.33333333333334</ele><time>2026-05-03T09:37:25.662Z</time></trkpt><trkpt lat="45.4302167" lon="10.4916083"><ele>184.66666666666666</ele><time>2026-05-03T09:37:27.654Z</time></trkpt><trkpt lat="45.4302267" lon="10.49148"><ele>186.0</ele><time>2026-05-03T09:37:30.652Z</time></trkpt><trkpt lat="45.430225" lon="10.4913867"><ele>186.00000000000003</ele><time>2026-05-03T09:37:32.66Z</time></trkpt><trkpt lat="45.4302217" lon="10.4912933"><ele>186.0</ele><time>2026-05-03T09:37:34.653Z</time></trkpt><trkpt lat="45.4302433" lon="10.4911917"><ele>186.0</ele><time>2026-05-03T09:37:36.661Z</time></trkpt><trkpt lat="45.4303" lon="10.4911017"><ele>186.0</ele><time>2026-05-03T09:37:38.661Z</time></trkpt><trkpt lat="45.430365" lon="10.4910667"><ele>186.0</ele><time>2026-05-03T09:37:41.649Z</time></trkpt><trkpt lat="45.430435" lon="10.4910267"><ele>186.00000000000003</ele><time>2026-05-03T09:37:46.653Z</time></trkpt><trkpt lat="45.4305033" lon="10.4909867"><ele>186.0</ele><time>2026-05-03T09:37:49.651Z</time></trkpt><trkpt lat="45.4305633" lon="10.4909333"><ele>188.14285714285717</ele><time>2026-05-03T09:37:52.653Z</time></trkpt><trkpt lat="45.4306267" lon="10.4909033"><ele>190.28571428571428</ele><time>2026-05-03T09:37:55.651Z</time></trkpt><trkpt lat="45.4306967" lon="10.49092"><ele>192.42857142857144</ele><time>2026-05-03T09:38:00.657Z</time></trkpt><trkpt lat="45.4307683" lon="10.49096"><ele>194.57142857142858</ele><time>2026-05-03T09:38:05.659Z</time></trkpt><trkpt lat="45.43083" lon="10.4910017"><ele>196.71428571428572</ele><time>2026-05-03T09:38:07.653Z</time></trkpt><trkpt lat="45.430885" lon="10.4910633"><ele>198.85714285714286</ele><time>2026-05-03T09:38:09.66Z</time></trkpt><trkpt lat="45.43094" lon="10.4911533"><ele>201.0</ele><time>2026-05-03T09:38:12.651Z</time></trkpt><trkpt lat="45.4309867" lon="10.4912317"><ele>200.42857142857142</ele><time>2026-05-03T09:38:16.659Z</time></trkpt><trkpt lat="45.43104" lon="10.4912817"><ele>199.85714285714286</ele><time>2026-05-03T09:38:19.659Z</time></trkpt><trkpt lat="45.4310967" lon="10.4913317"><ele>199.28571428571428</ele><time>2026-05-03T09:38:22.653Z</time></trkpt><trkpt lat="45.43115" lon="10.4913917"><ele>198.71428571428572</ele><time>2026-05-03T09:38:25.657Z</time></trkpt><trkpt lat="45.4311867" lon="10.4914783"><ele>198.14285714285717</ele><time>2026-05-03T09:38:28.655Z</time></trkpt><trkpt lat="45.43124" lon="10.4915633"><ele>197.57142857142858</ele><time>2026-05-03T09:38:31.661Z</time></trkpt><trkpt lat="45.4313067" lon="10.49165"><ele>197.0</ele><time>2026-05-03T09:38:34.66Z</time></trkpt><trkpt lat="45.4313933" lon="10.4917033"><ele>199.66666666666669</ele><time>2026-05-03T09:38:37.656Z</time></trkpt><trkpt lat="45.4314667" lon="10.4917383"><ele>202.33333333333334</ele><time>2026-05-03T09:38:40.658Z</time></trkpt><trkpt lat="45.4315567" lon="10.4917917"><ele>205.0</ele><time>2026-05-03T09:38:46.657Z</time></trkpt><trkpt lat="45.43162" lon="10.4917733"><ele>207.66666666666669</ele><time>2026-05-03T09:38:50.659Z</time></trkpt><trkpt lat="45.431685" lon="10.4917217"><ele>210.33333333333334</ele><time>2026-05-03T09:38:54.658Z</time></trkpt><trkpt lat="45.4317367" lon="10.4916567"><ele>213.0</ele><time>2026-05-03T09:38:57.655Z</time></trkpt><trkpt lat="45.431815" lon="10.491615"><ele>212.99999999999997</ele><time>2026-05-03T09:39:00.65Z</time></trkpt><trkpt lat="45.43189" lon="10.4916383"><ele>213.0</ele><time>2026-05-03T09:39:04.651Z</time></trkpt><trkpt lat="45.4319383" lon="10.49171"><ele>213.0</ele><time>2026-05-03T09:39:06.659Z</time></trkpt><trkpt lat="45.4319867" lon="10.4917717"><ele>213.0</ele><time>2026-05-03T09:39:09.65Z</time></trkpt><trkpt lat="45.4320333" lon="10.4918417"><ele>213.0</ele><time>2026-05-03T09:39:13.651Z</time></trkpt><trkpt lat="45.4320817" lon="10.491925"><ele>212.99999999999997</ele><time>2026-05-03T09:39:16.658Z</time></trkpt><trkpt lat="45.4321533" lon="10.4919867"><ele>213.0</ele><time>2026-05-03T09:39:19.662Z</time></trkpt><trkpt lat="45.4322283" lon="10.49204"><ele>213.42857142857142</ele><time>2026-05-03T09:39:22.658Z</time></trkpt><trkpt lat="45.4322783" lon="10.4921483"><ele>213.85714285714286</ele><time>2026-05-03T09:39:25.656Z</time></trkpt><trkpt lat="45.4323333" lon="10.49221"><ele>214.28571428571428</ele><time>2026-05-03T09:39:28.653Z</time></trkpt><trkpt lat="45.432405" lon="10.4922683"><ele>214.71428571428572</ele><time>2026-05-03T09:39:31.656Z</time></trkpt><trkpt lat="45.4324667" lon="10.4923"><ele>215.14285714285714</ele><time>2026-05-03T09:39:33.659Z</time></trkpt><trkpt lat="45.4325217" lon="10.492365"><ele>215.57142857142856</ele><time>2026-05-03T09:39:35.163Z</time></trkpt><trkpt lat="45.4325583" lon="10.4924467"><ele>216.0</ele><time>2026-05-03T09:39:37.164Z</time></trkpt><trkpt lat="45.4325867" lon="10.4925433"><ele>216.0</ele><time>2026-05-03T09:39:39.161Z</time></trkpt><trkpt lat="45.4326383" lon="10.4926433"><ele>216.0</ele><time>2026-05-03T09:39:42.24Z</time></trkpt><trkpt lat="45.432675" lon="10.4927233"><ele>216.0</ele><time>2026-05-03T09:39:44.242Z</time></trkpt><trkpt lat="45.4327183" lon="10.4928283"><ele>216.0</ele><time>2026-05-03T09:39:46.235Z</time></trkpt><trkpt lat="45.4327717" lon="10.4929233"><ele>216.0</ele><time>2026-05-03T09:39:48.238Z</time></trkpt><trkpt lat="45.4328217" lon="10.4929783"><ele>216.0</ele><time>2026-05-03T09:39:51.235Z</time></trkpt><trkpt lat="45.4328767" lon="10.4930567"><ele>217.0</ele><time>2026-05-03T09:39:54.246Z</time></trkpt><trkpt lat="45.432925" lon="10.49316"><ele>218.0</ele><time>2026-05-03T09:39:57.237Z</time></trkpt><trkpt lat="45.4329817" lon="10.4932433"><ele>219.0</ele><time>2026-05-03T09:40:00.237Z</time></trkpt><trkpt lat="45.433035" lon="10.49332"><ele>220.0</ele><time>2026-05-03T09:40:03.238Z</time></trkpt><trkpt lat="45.4330983" lon="10.4933683"><ele>221.0</ele><time>2026-05-03T09:40:06.238Z</time></trkpt><trkpt lat="45.433175" lon="10.4934233"><ele>222.0</ele><time>2026-05-03T09:40:09.242Z</time></trkpt><trkpt lat="45.4332417" lon="10.493455"><ele>222.0</ele><time>2026-05-03T09:40:11.238Z</time></trkpt><trkpt lat="45.4333033" lon="10.4935117"><ele>222.0</ele><time>2026-05-03T09:40:13.237Z</time></trkpt><trkpt lat="45.4333733" lon="10.4935583"><ele>222.0</ele><time>2026-05-03T09:40:15.238Z</time></trkpt><trkpt lat="45.4334483" lon="10.4936183"><ele>222.0</ele><time>2026-05-03T09:40:17.237Z</time></trkpt><trkpt lat="45.433525" lon="10.4936817"><ele>222.0</ele><time>2026-05-03T09:40:19.237Z</time></trkpt><trkpt lat="45.4336067" lon="10.49374"><ele>222.0</ele><time>2026-05-03T09:40:21.242Z</time></trkpt><trkpt lat="45.43371" lon="10.49378"><ele>221.33333333333334</ele><time>2026-05-03T09:40:23.238Z</time></trkpt><trkpt lat="45.4337933" lon="10.493835"><ele>220.66666666666669</ele><time>2026-05-03T09:40:25.238Z</time></trkpt><trkpt lat="45.4338567" lon="10.4939033"><ele>220.0</ele><time>2026-05-03T09:40:28.238Z</time></trkpt><trkpt lat="45.4339117" lon="10.4939583"><ele>219.33333333333334</ele><time>2026-05-03T09:40:31.242Z</time></trkpt><trkpt lat="45.4339733" lon="10.4940017"><ele>218.66666666666669</ele><time>2026-05-03T09:40:34.233Z</time></trkpt><trkpt lat="45.4340433" lon="10.49406"><ele>218.0</ele><time>2026-05-03T09:40:37.245Z</time></trkpt><trkpt lat="45.434125" lon="10.4940917"><ele>218.00000000000003</ele><time>2026-05-03T09:40:40.237Z</time></trkpt><trkpt lat="45.4342033" lon="10.4941267"><ele>218.0</ele><time>2026-05-03T09:40:43.244Z</time></trkpt><trkpt lat="45.4342767" lon="10.4941867"><ele>218.0</ele><time>2026-05-03T09:40:46.241Z</time></trkpt><trkpt lat="45.4343267" lon="10.494245"><ele>218.0</ele><time>2026-05-03T09:40:49.228Z</time></trkpt><trkpt lat="45.4343967" lon="10.494325"><ele>218.00000000000003</ele><time>2026-05-03T09:40:52.226Z</time></trkpt><trkpt lat="45.4344467" lon="10.4943833"><ele>218.0</ele><time>2026-05-03T09:40:55.222Z</time></trkpt><trkpt lat="45.434515" lon="10.4944717"><ele>218.0</ele><time>2026-05-03T09:41:21.217Z</time></trkpt><trkpt lat="45.434595" lon="10.4945783"><ele>218.0</ele><time>2026-05-03T09:41:37.225Z</time></trkpt><trkpt lat="45.4347583" lon="10.49463"><ele>218.0</ele><time>2026-05-03T09:41:54.225Z</time></trkpt><trkpt lat="45.4348173" lon="10.4946664"><ele>218.0</ele><time>2026-05-03T09:41:59.221Z</time></trkpt><trkpt lat="45.434885" lon="10.4947188"><ele>218.0</ele><time>2026-05-03T09:42:12.219Z</time></trkpt><trkpt lat="45.4349293" lon="10.4948008"><ele>219.60000000000002</ele><time>2026-05-03T09:42:15.224Z</time></trkpt><trkpt lat="45.434982" lon="10.4949249"><ele>221.20000000000002</ele><time>2026-05-03T09:42:18.229Z</time></trkpt><trkpt lat="45.4350437" lon="10.4950253"><ele>222.8</ele><time>2026-05-03T09:42:20.229Z</time></trkpt><trkpt lat="45.4351027" lon="10.495089"><ele>224.4</ele><time>2026-05-03T09:42:22.223Z</time></trkpt><trkpt lat="45.4351936" lon="10.4951528"><ele>226.0</ele><time>2026-05-03T09:42:25.227Z</time></trkpt><trkpt lat="45.4352545" lon="10.495233"><ele>225.99999999999997</ele><time>2026-05-03T09:42:27.227Z</time></trkpt><trkpt lat="45.4353116" lon="10.4953055"><ele>226.0</ele><time>2026-05-03T09:42:29.229Z</time></trkpt><trkpt lat="45.4353846" lon="10.4953454"><ele>226.0</ele><time>2026-05-03T09:42:31.226Z</time></trkpt><trkpt lat="45.4354603" lon="10.4953612"><ele>226.0</ele><time>2026-05-03T09:42:33.228Z</time></trkpt><trkpt lat="45.4355266" lon="10.4953662"><ele>225.99999999999997</ele><time>2026-05-03T09:42:35.227Z</time></trkpt><trkpt lat="45.4355992" lon="10.4953582"><ele>226.0</ele><time>2026-05-03T09:42:39.227Z</time></trkpt><trkpt lat="45.4356825" lon="10.4953271"><ele>225.66666666666666</ele><time>2026-05-03T09:42:43.228Z</time></trkpt><trkpt lat="45.4357756" lon="10.4952985"><ele>225.33333333333331</ele><time>2026-05-03T09:42:45.222Z</time></trkpt><trkpt lat="45.4358764" lon="10.4952457"><ele>225.0</ele><time>2026-05-03T09:42:47.227Z</time></trkpt><trkpt lat="45.4359549" lon="10.4951843"><ele>224.66666666666669</ele><time>2026-05-03T09:42:49.224Z</time></trkpt><trkpt lat="45.4360241" lon="10.4951428"><ele>224.33333333333334</ele><time>2026-05-03T09:42:51.222Z</time></trkpt><trkpt lat="45.4360968" lon="10.4951034"><ele>224.0</ele><time>2026-05-03T09:42:54.229Z</time></trkpt><trkpt lat="45.4361692" lon="10.4950685"><ele>224.00000000000003</ele><time>2026-05-03T09:42:57.228Z</time></trkpt><trkpt lat="45.4362505" lon="10.4950597"><ele>224.0</ele><time>2026-05-03T09:43:00.225Z</time></trkpt><trkpt lat="45.4363208" lon="10.4950552"><ele>224.0</ele><time>2026-05-03T09:43:03.223Z</time></trkpt><trkpt lat="45.4364144" lon="10.4950516"><ele>224.0</ele><time>2026-05-03T09:43:06.224Z</time></trkpt><trkpt lat="45.4365001" lon="10.4950768"><ele>224.00000000000003</ele><time>2026-05-03T09:43:08.228Z</time></trkpt><trkpt lat="45.4365909" lon="10.4951581"><ele>224.0</ele><time>2026-05-03T09:43:10.223Z</time></trkpt><trkpt lat="45.4366564" lon="10.4952373"><ele>224.0</ele><time>2026-05-03T09:43:12.226Z</time></trkpt><trkpt lat="45.4367047" lon="10.4952968"><ele>224.0</ele><time>2026-05-03T09:43:14.228Z</time></trkpt><trkpt lat="45.4367587" lon="10.495354"><ele>224.0</ele><time>2026-05-03T09:43:16.223Z</time></trkpt><trkpt lat="45.4368078" lon="10.4954153"><ele>224.0</ele><time>2026-05-03T09:43:18.229Z</time></trkpt><trkpt lat="45.4368658" lon="10.4954874"><ele>224.0</ele><time>2026-05-03T09:43:20.228Z</time></trkpt><trkpt lat="45.4369266" lon="10.4955655"><ele>224.0</ele><time>2026-05-03T09:43:22.221Z</time></trkpt><trkpt lat="45.436991" lon="10.495629"><ele>224.0</ele><time>2026-05-03T09:43:24.222Z</time></trkpt><trkpt lat="45.4370827" lon="10.4955958"><ele>223.39999999999998</ele><time>2026-05-03T09:43:27.223Z</time></trkpt><trkpt lat="45.4371671" lon="10.4955273"><ele>222.79999999999998</ele><time>2026-05-03T09:43:29.226Z</time></trkpt><trkpt lat="45.4372682" lon="10.495474"><ele>222.20000000000002</ele><time>2026-05-03T09:43:31.228Z</time></trkpt><trkpt lat="45.4373812" lon="10.495414"><ele>221.60000000000002</ele><time>2026-05-03T09:43:33.231Z</time></trkpt><trkpt lat="45.437444" lon="10.4953801"><ele>221.0</ele><time>2026-05-03T09:43:34.228Z</time></trkpt><trkpt lat="45.4375091" lon="10.4953422"><ele>221.00000000000003</ele><time>2026-05-03T09:43:35.227Z</time></trkpt><trkpt lat="45.4375706" lon="10.4952987"><ele>221.0</ele><time>2026-05-03T09:43:36.228Z</time></trkpt><trkpt lat="45.4376727" lon="10.4952511"><ele>221.0</ele><time>2026-05-03T09:43:38.233Z</time></trkpt><trkpt lat="45.4377431" lon="10.495238"><ele>221.0</ele><time>2026-05-03T09:43:40.225Z</time></trkpt><trkpt lat="45.4378306" lon="10.4952575"><ele>221.00000000000003</ele><time>2026-05-03T09:43:43.231Z</time></trkpt><trkpt lat="45.4378365" lon="10.4953598"><ele>221.0</ele><time>2026-05-03T09:43:46.228Z</time></trkpt><trkpt lat="45.4377901" lon="10.4954284"><ele>221.0</ele><time>2026-05-03T09:43:49.218Z</time></trkpt><trkpt lat="45.4377917" lon="10.4955685"><ele>221.00000000000003</ele><time>2026-05-03T09:43:52.224Z</time></trkpt><trkpt lat="45.4377898" lon="10.495698"><ele>221.00000000000003</ele><time>2026-05-03T09:43:54.227Z</time></trkpt><trkpt lat="45.4377921" lon="10.4958347"><ele>221.0</ele><time>2026-05-03T09:43:56.229Z</time></trkpt><trkpt lat="45.4377875" lon="10.4959862"><ele>221.0</ele><time>2026-05-03T09:43:58.222Z</time></trkpt><trkpt lat="45.4378037" lon="10.4961444"><ele>221.00000000000003</ele><time>2026-05-03T09:44:00.228Z</time></trkpt><trkpt lat="45.4378227" lon="10.4962398"><ele>221.0</ele><time>2026-05-03T09:44:01.223Z</time></trkpt><trkpt lat="45.4378462" lon="10.4963425"><ele>221.0</ele><time>2026-05-03T09:44:02.227Z</time></trkpt><trkpt lat="45.4378668" lon="10.4964427"><ele>221.0</ele><time>2026-05-03T09:44:03.224Z</time></trkpt><trkpt lat="45.4379039" lon="10.4965867"><ele>221.00000000000003</ele><time>2026-05-03T09:44:05.226Z</time></trkpt><trkpt lat="45.43793" lon="10.4966963"><ele>221.0</ele><time>2026-05-03T09:44:08.226Z</time></trkpt><trkpt lat="45.4379544" lon="10.4967992"><ele>221.14285714285717</ele><time>2026-05-03T09:44:11.224Z</time></trkpt><trkpt lat="45.4379958" lon="10.4968805"><ele>221.28571428571428</ele><time>2026-05-03T09:44:13.227Z</time></trkpt><trkpt lat="45.4380418" lon="10.4969514"><ele>221.42857142857144</ele><time>2026-05-03T09:44:15.226Z</time></trkpt><trkpt lat="45.4380608" lon="10.497039"><ele>221.57142857142858</ele><time>2026-05-03T09:44:18.224Z</time></trkpt><trkpt lat="45.4379944" lon="10.4970671"><ele>221.71428571428572</ele><time>2026-05-03T09:44:20.225Z</time></trkpt><trkpt lat="45.437918" lon="10.4970644"><ele>221.85714285714286</ele><time>2026-05-03T09:44:23.229Z</time></trkpt><trkpt lat="45.4379086" lon="10.4971685"><ele>222.0</ele><time>2026-05-03T09:44:26.225Z</time></trkpt><trkpt lat="45.4379332" lon="10.4972821"><ele>221.6</ele><time>2026-05-03T09:44:28.227Z</time></trkpt><trkpt lat="45.4379483" lon="10.4974077"><ele>221.2</ele><time>2026-05-03T09:44:30.223Z</time></trkpt><trkpt lat="45.4379493" lon="10.4975417"><ele>220.8</ele><time>2026-05-03T09:44:32.229Z</time></trkpt><trkpt lat="45.4379452" lon="10.4976781"><ele>220.4</ele><time>2026-05-03T09:44:34.223Z</time></trkpt><trkpt lat="45.437922" lon="10.4978139"><ele>220.0</ele><time>2026-05-03T09:44:36.224Z</time></trkpt><trkpt lat="45.4378834" lon="10.4979505"><ele>217.99999999999997</ele><time>2026-05-03T09:44:38.231Z</time></trkpt><trkpt lat="45.4378515" lon="10.4980283"><ele>216.0</ele><time>2026-05-03T09:44:39.22Z</time></trkpt><trkpt lat="45.4377852" lon="10.4981582"><ele>214.0</ele><time>2026-05-03T09:44:41.23Z</time></trkpt><trkpt lat="45.4377482" lon="10.4982552"><ele>212.0</ele><time>2026-05-03T09:44:43.224Z</time></trkpt><trkpt lat="45.4377917" lon="10.4981532"><ele>209.99999999999997</ele><time>2026-05-03T09:44:51.228Z</time></trkpt><trkpt lat="45.4378171" lon="10.4980584"><ele>208.0</ele><time>2026-05-03T09:44:53.222Z</time></trkpt><trkpt lat="45.4377734" lon="10.4979735"><ele>207.99999999999997</ele><time>2026-05-03T09:44:56.229Z</time></trkpt><trkpt lat="45.4377292" lon="10.4980553"><ele>208.0</ele><time>2026-05-03T09:44:59.227Z</time></trkpt><trkpt lat="45.4376879" lon="10.4981716"><ele>208.0</ele><time>2026-05-03T09:45:02.229Z</time></trkpt><trkpt lat="45.4376461" lon="10.4982811"><ele>208.0</ele><time>2026-05-03T09:45:05.228Z</time></trkpt><trkpt lat="45.4376066" lon="10.4983887"><ele>207.99999999999997</ele><time>2026-05-03T09:45:08.223Z</time></trkpt><trkpt lat="45.4375605" lon="10.4984791"><ele>208.0</ele><time>2026-05-03T09:45:11.228Z</time></trkpt><trkpt lat="45.4374919" lon="10.4985043"><ele>207.99999999999997</ele><time>2026-05-03T09:45:13.226Z</time></trkpt><trkpt lat="45.4374126" lon="10.498503"><ele>208.0</ele><time>2026-05-03T09:45:15.222Z</time></trkpt><trkpt lat="45.4373328" lon="10.4984709"><ele>208.0</ele><time>2026-05-03T09:45:17.227Z</time></trkpt><trkpt lat="45.437263" lon="10.4984278"><ele>208.0</ele><time>2026-05-03T09:45:19.228Z</time></trkpt><trkpt lat="45.4371956" lon="10.4983754"><ele>207.99999999999997</ele><time>2026-05-03T09:45:21.224Z</time></trkpt><trkpt lat="45.4371313" lon="10.4983125"><ele>208.0</ele><time>2026-05-03T09:45:23.228Z</time></trkpt><trkpt lat="45.4370761" lon="10.498249"><ele>207.14285714285714</ele><time>2026-05-03T09:45:25.225Z</time></trkpt><trkpt lat="45.4370168" lon="10.4981914"><ele>206.2857142857143</ele><time>2026-05-03T09:45:27.218Z</time></trkpt><trkpt lat="45.4369681" lon="10.4981309"><ele>205.42857142857144</ele><time>2026-05-03T09:45:29.219Z</time></trkpt><trkpt lat="45.4369221" lon="10.4980548"><ele>204.57142857142856</ele><time>2026-05-03T09:45:33.216Z</time></trkpt><trkpt lat="45.4368545" lon="10.4980175"><ele>203.71428571428572</ele><time>2026-05-03T09:45:36.23Z</time></trkpt><trkpt lat="45.4367916" lon="10.4980337"><ele>202.85714285714286</ele><time>2026-05-03T09:45:41.222Z</time></trkpt><trkpt lat="45.4367266" lon="10.4980527"><ele>202.0</ele><time>2026-05-03T09:45:45.22Z</time></trkpt><trkpt lat="45.4366597" lon="10.4980637"><ele>202.0</ele><time>2026-05-03T09:45:49.23Z</time></trkpt><trkpt lat="45.4365775" lon="10.4980405"><ele>202.0</ele><time>2026-05-03T09:45:53.228Z</time></trkpt><trkpt lat="45.4365078" lon="10.4980155"><ele>202.0</ele><time>2026-05-03T09:45:56.224Z</time></trkpt><trkpt lat="45.4364285" lon="10.4980183"><ele>202.0</ele><time>2026-05-03T09:46:00.227Z</time></trkpt><trkpt lat="45.4363661" lon="10.4980407"><ele>202.0</ele><time>2026-05-03T09:46:02.228Z</time></trkpt><trkpt lat="45.436303" lon="10.4980492"><ele>202.0</ele><time>2026-05-03T09:46:04.222Z</time></trkpt><trkpt lat="45.4363066" lon="10.4981596"><ele>202.0</ele><time>2026-05-03T09:46:35.223Z</time></trkpt><trkpt lat="45.4363825" lon="10.4982449"><ele>201.99999999999997</ele><time>2026-05-03T09:46:38.226Z</time></trkpt><trkpt lat="45.4364545" lon="10.4982856"><ele>202.0</ele><time>2026-05-03T09:46:40.228Z</time></trkpt><trkpt lat="45.436545" lon="10.4983179"><ele>202.0</ele><time>2026-05-03T09:46:43.229Z</time></trkpt><trkpt lat="45.4366317" lon="10.4983654"><ele>202.0</ele><time>2026-05-03T09:46:46.224Z</time></trkpt><trkpt lat="45.4366974" lon="10.498396"><ele>201.99999999999997</ele><time>2026-05-03T09:46:48.229Z</time></trkpt><trkpt lat="45.4367711" lon="10.4984335"><ele>202.0</ele><time>2026-05-03T09:46:50.232Z</time></trkpt><trkpt lat="45.4368391" lon="10.4984801"><ele>201.99999999999997</ele><time>2026-05-03T09:46:52.221Z</time></trkpt><trkpt lat="45.4369072" lon="10.49852"><ele>202.0</ele><time>2026-05-03T09:46:54.224Z</time></trkpt><trkpt lat="45.4369818" lon="10.4985593"><ele>202.0</ele><time>2026-05-03T09:46:56.229Z</time></trkpt><trkpt lat="45.4370636" lon="10.4986016"><ele>202.0</ele><time>2026-05-03T09:46:58.227Z</time></trkpt><trkpt lat="45.4371408" lon="10.4986412"><ele>201.99999999999997</ele><time>2026-05-03T09:47:00.228Z</time></trkpt><trkpt lat="45.4372106" lon="10.4986744"><ele>202.0</ele><time>2026-05-03T09:47:02.228Z</time></trkpt><trkpt lat="45.4372807" lon="10.4986866"><ele>202.99999999999997</ele><time>2026-05-03T09:47:04.221Z</time></trkpt><trkpt lat="45.4373762" lon="10.4986485"><ele>204.0</ele><time>2026-05-03T09:47:07.231Z</time></trkpt><trkpt lat="45.4374455" lon="10.4985971"><ele>205.0</ele><time>2026-05-03T09:47:09.222Z</time></trkpt><trkpt lat="45.4375101" lon="10.4985346"><ele>206.0</ele><time>2026-05-03T09:47:12.223Z</time></trkpt><trkpt lat="45.4375677" lon="10.4984542"><ele>206.99999999999997</ele><time>2026-05-03T09:47:15.232Z</time></trkpt><trkpt lat="45.4376171" lon="10.4983641"><ele>208.0</ele><time>2026-05-03T09:47:19.224Z</time></trkpt><trkpt lat="45.437664" lon="10.4982605"><ele>207.99999999999997</ele><time>2026-05-03T09:47:22.23Z</time></trkpt><trkpt lat="45.4377014" lon="10.4981598"><ele>208.0</ele><time>2026-05-03T09:47:25.222Z</time></trkpt><trkpt lat="45.4377437" lon="10.4980788"><ele>208.0</ele><time>2026-05-03T09:47:28.222Z</time></trkpt><trkpt lat="45.4377701" lon="10.4979773"><ele>208.0</ele><time>2026-05-03T09:47:31.224Z</time></trkpt><trkpt lat="45.4378346" lon="10.4979396"><ele>207.99999999999997</ele><time>2026-05-03T09:47:35.231Z</time></trkpt><trkpt lat="45.4379019" lon="10.4979816"><ele>208.0</ele><time>2026-05-03T09:47:37.221Z</time></trkpt><trkpt lat="45.4379793" lon="10.4980364"><ele>205.2</ele><time>2026-05-03T09:47:39.227Z</time></trkpt><trkpt lat="45.438038" lon="10.4981218"><ele>202.4</ele><time>2026-05-03T09:47:41.218Z</time></trkpt><trkpt lat="45.4380673" lon="10.4982226"><ele>199.6</ele><time>2026-05-03T09:47:43.223Z</time></trkpt><trkpt lat="45.4380744" lon="10.4983398"><ele>196.79999999999998</ele><time>2026-05-03T09:47:45.226Z</time></trkpt><trkpt lat="45.4380567" lon="10.4984895"><ele>194.0</ele><time>2026-05-03T09:47:47.229Z</time></trkpt><trkpt lat="45.4380247" lon="10.4986443"><ele>193.83333333333334</ele><time>2026-05-03T09:47:49.231Z</time></trkpt><trkpt lat="45.4379882" lon="10.4987814"><ele>193.66666666666669</ele><time>2026-05-03T09:47:51.224Z</time></trkpt><trkpt lat="45.4379495" lon="10.4989089"><ele>193.5</ele><time>2026-05-03T09:47:53.229Z</time></trkpt><trkpt lat="45.437897" lon="10.4990489"><ele>193.33333333333331</ele><time>2026-05-03T09:47:55.23Z</time></trkpt><trkpt lat="45.4378722" lon="10.4991314"><ele>193.16666666666666</ele><time>2026-05-03T09:47:56.231Z</time></trkpt><trkpt lat="45.4378469" lon="10.4992169"><ele>193.0</ele><time>2026-05-03T09:47:57.231Z</time></trkpt><trkpt lat="45.4378228" lon="10.4993147"><ele>192.99999999999997</ele><time>2026-05-03T09:47:58.23Z</time></trkpt><trkpt lat="45.4377929" lon="10.4994182"><ele>193.0</ele><time>2026-05-03T09:47:59.23Z</time></trkpt><trkpt lat="45.4377652" lon="10.4995308"><ele>193.0</ele><time>2026-05-03T09:48:00.223Z</time></trkpt><trkpt lat="45.4377407" lon="10.4996411"><ele>193.0</ele><time>2026-05-03T09:48:01.218Z</time></trkpt><trkpt lat="45.4377197" lon="10.4997394"><ele>192.99999999999997</ele><time>2026-05-03T09:48:02.224Z</time></trkpt><trkpt lat="45.437702" lon="10.4998808"><ele>193.0</ele><time>2026-05-03T09:48:04.219Z</time></trkpt><trkpt lat="45.4377173" lon="10.4999729"><ele>191.33333333333331</ele><time>2026-05-03T09:48:06.228Z</time></trkpt><trkpt lat="45.4378038" lon="10.5000338"><ele>189.66666666666666</ele><time>2026-05-03T09:48:09.222Z</time></trkpt><trkpt lat="45.4378789" lon="10.500018"><ele>188.0</ele><time>2026-05-03T09:48:11.229Z</time></trkpt><trkpt lat="45.4379582" lon="10.4999964"><ele>186.33333333333331</ele><time>2026-05-03T09:48:13.217Z</time></trkpt><trkpt lat="45.4380212" lon="10.5000551"><ele>184.66666666666666</ele><time>2026-05-03T09:48:16.228Z</time></trkpt><trkpt lat="45.4379707" lon="10.5001467"><ele>183.0</ele><time>2026-05-03T09:48:19.229Z</time></trkpt><trkpt lat="45.4379002" lon="10.5002244"><ele>183.0</ele><time>2026-05-03T09:48:21.225Z</time></trkpt><trkpt lat="45.4378131" lon="10.5002863"><ele>183.0</ele><time>2026-05-03T09:48:23.225Z</time></trkpt><trkpt lat="45.4377366" lon="10.5003293"><ele>183.0</ele><time>2026-05-03T09:48:25.229Z</time></trkpt><trkpt lat="45.4376538" lon="10.5003868"><ele>183.0</ele><time>2026-05-03T09:48:27.229Z</time></trkpt><trkpt lat="45.4375589" lon="10.500439"><ele>183.0</ele><time>2026-05-03T09:48:29.23Z</time></trkpt><trkpt lat="45.4374779" lon="10.5004761"><ele>182.16666666666666</ele><time>2026-05-03T09:48:31.217Z</time></trkpt><trkpt lat="45.4373943" lon="10.5005226"><ele>181.33333333333334</ele><time>2026-05-03T09:48:33.223Z</time></trkpt><trkpt lat="45.4373263" lon="10.5005532"><ele>180.5</ele><time>2026-05-03T09:48:35.23Z</time></trkpt><trkpt lat="45.4372817" lon="10.5006295"><ele>179.66666666666669</ele><time>2026-05-03T09:48:39.228Z</time></trkpt><trkpt lat="45.4372126" lon="10.5006893"><ele>178.83333333333334</ele><time>2026-05-03T09:48:43.222Z</time></trkpt><trkpt lat="45.4371206" lon="10.5007095"><ele>178.0</ele><time>2026-05-03T09:48:46.228Z</time></trkpt><trkpt lat="45.4371994" lon="10.5006657"><ele>178.0</ele><time>2026-05-03T09:49:16.226Z</time></trkpt><trkpt lat="45.4372706" lon="10.5005855"><ele>178.0</ele><time>2026-05-03T09:49:19.229Z</time></trkpt><trkpt lat="45.4373414" lon="10.5005042"><ele>178.0</ele><time>2026-05-03T09:49:22.221Z</time></trkpt><trkpt lat="45.4374137" lon="10.5004591"><ele>178.0</ele><time>2026-05-03T09:49:24.226Z</time></trkpt><trkpt lat="45.437485" lon="10.5004267"><ele>178.0</ele><time>2026-05-03T09:49:26.221Z</time></trkpt><trkpt lat="45.4375467" lon="10.5004"><ele>178.0</ele><time>2026-05-03T09:49:28.227Z</time></trkpt><trkpt lat="45.4376133" lon="10.500375"><ele>178.0</ele><time>2026-05-03T09:49:31.228Z</time></trkpt><trkpt lat="45.437645" lon="10.50047"><ele>178.0</ele><time>2026-05-03T09:49:35.219Z</time></trkpt><trkpt lat="45.4377433" lon="10.5006217"><ele>178.0</ele><time>2026-05-03T09:49:49.22Z</time></trkpt><trkpt lat="45.4378117" lon="10.5006733"><ele>178.0</ele><time>2026-05-03T09:49:54.227Z</time></trkpt><trkpt lat="45.4378733" lon="10.5007283"><ele>178.0</ele><time>2026-05-03T09:49:57.22Z</time></trkpt><trkpt lat="45.4379117" lon="10.5008017"><ele>178.0</ele><time>2026-05-03T09:49:59.223Z</time></trkpt><trkpt lat="45.43797" lon="10.5009"><ele>177.2</ele><time>2026-05-03T09:50:02.229Z</time></trkpt><trkpt lat="45.43802" lon="10.50096"><ele>176.4</ele><time>2026-05-03T09:50:05.219Z</time></trkpt><trkpt lat="45.4380917" lon="10.50107"><ele>175.6</ele><time>2026-05-03T09:50:11.219Z</time></trkpt><trkpt lat="45.4380917" lon="10.501265"><ele>174.79999999999998</ele><time>2026-05-03T09:50:29.219Z</time></trkpt><trkpt lat="45.4381183" lon="10.5013483"><ele>174.0</ele><time>2026-05-03T09:50:34.229Z</time></trkpt><trkpt lat="45.4382067" lon="10.5013467"><ele>172.57142857142856</ele><time>2026-05-03T09:50:38.22Z</time></trkpt><trkpt lat="45.4382517" lon="10.5014283"><ele>171.14285714285714</ele><time>2026-05-03T09:50:40.218Z</time></trkpt><trkpt lat="45.4382667" lon="10.50154"><ele>169.71428571428572</ele><time>2026-05-03T09:50:42.224Z</time></trkpt><trkpt lat="45.4382567" lon="10.5016317"><ele>168.28571428571428</ele><time>2026-05-03T09:50:45.229Z</time></trkpt><trkpt lat="45.43825" lon="10.5017217"><ele>166.85714285714286</ele><time>2026-05-03T09:50:49.217Z</time></trkpt><trkpt lat="45.4382533" lon="10.501855"><ele>165.42857142857142</ele><time>2026-05-03T09:50:52.228Z</time></trkpt><trkpt lat="45.438265" lon="10.5019433"><ele>164.0</ele><time>2026-05-03T09:50:54.221Z</time></trkpt><trkpt lat="45.4382733" lon="10.5020517"><ele>163.83333333333331</ele><time>2026-05-03T09:50:56.227Z</time></trkpt><trkpt lat="45.43827" lon="10.50216"><ele>163.66666666666666</ele><time>2026-05-03T09:50:58.222Z</time></trkpt><trkpt lat="45.4382733" lon="10.5022667"><ele>163.5</ele><time>2026-05-03T09:51:00.229Z</time></trkpt><trkpt lat="45.4382767" lon="10.5023733"><ele>163.33333333333334</ele><time>2026-05-03T09:51:02.226Z</time></trkpt><trkpt lat="45.4382933" lon="10.5024933"><ele>163.16666666666669</ele><time>2026-05-03T09:51:04.228Z</time></trkpt><trkpt lat="45.4382833" lon="10.5026"><ele>163.0</ele><time>2026-05-03T09:51:06.223Z</time></trkpt><trkpt lat="45.4382383" lon="10.5026633"><ele>164.0</ele><time>2026-05-03T09:51:08.228Z</time></trkpt><trkpt lat="45.4381183" lon="10.5013483"><ele>164.0</ele><time>2026-05-03T09:50:34.229Z</time></trkpt><trkpt lat="45.4382067" lon="10.5013467"><ele>164.0</ele><time>2026-05-03T09:50:38.22Z</time></trkpt><trkpt lat="45.4382517" lon="10.5014283"><ele>164.0</ele><time>2026-05-03T09:50:40.218Z</time></trkpt><trkpt lat="45.4382667" lon="10.50154"><ele>164.0</ele><time>2026-05-03T09:50:42.224Z</time></trkpt><trkpt lat="45.4382567" lon="10.5016317"><ele>164.0</ele><time>2026-05-03T09:50:45.229Z</time></trkpt><trkpt lat="45.43825" lon="10.5017217"><ele>164.0</ele><time>2026-05-03T09:50:49.217Z</time></trkpt><trkpt lat="45.4382533" lon="10.501855"><ele>164.0</ele><time>2026-05-03T09:50:52.228Z</time></trkpt><trkpt lat="45.438265" lon="10.5019433"><ele>164.0</ele><time>2026-05-03T09:50:54.221Z</time></trkpt><trkpt lat="45.4382733" lon="10.5020517"><ele>164.0</ele><time>2026-05-03T09:50:56.227Z</time></trkpt><trkpt lat="45.43827" lon="10.50216"><ele>164.0</ele><time>2026-05-03T09:50:58.222Z</time></trkpt><trkpt lat="45.4382733" lon="10.5022667"><ele>164.0</ele><time>2026-05-03T09:51:00.229Z</time></trkpt><trkpt lat="45.4382767" lon="10.5023733"><ele>164.0</ele><time>2026-05-03T09:51:02.226Z</time></trkpt><trkpt lat="45.4382933" lon="10.5024933"><ele>163.85714285714283</ele><time>2026-05-03T09:51:04.228Z</time></trkpt><trkpt lat="45.4382833" lon="10.5026"><ele>163.71428571428572</ele><time>2026-05-03T09:51:06.223Z</time></trkpt><trkpt lat="45.4382383" lon="10.5026633"><ele>163.57142857142856</ele><time>2026-05-03T09:51:08.228Z</time></trkpt><trkpt lat="45.4381767" lon="10.5026867"><ele>163.42857142857142</ele><time>2026-05-03T09:51:10.217Z</time></trkpt><trkpt lat="45.438085" lon="10.5027067"><ele>163.28571428571428</ele><time>2026-05-03T09:51:13.229Z</time></trkpt><trkpt lat="45.4380083" lon="10.502725"><ele>163.14285714285714</ele><time>2026-05-03T09:51:15.222Z</time></trkpt><trkpt lat="45.43794" lon="10.5027283"><ele>163.0</ele><time>2026-05-03T09:51:17.227Z</time></trkpt><trkpt lat="45.43788" lon="10.5027967"><ele>163.0</ele><time>2026-05-03T09:51:20.221Z</time></trkpt><trkpt lat="45.4378717" lon="10.502895"><ele>163.0</ele><time>2026-05-03T09:51:22.223Z</time></trkpt><trkpt lat="45.4378667" lon="10.5029967"><ele>163.0</ele><time>2026-05-03T09:51:24.221Z</time></trkpt><trkpt lat="45.4378617" lon="10.5031317"><ele>163.0</ele><time>2026-05-03T09:51:26.227Z</time></trkpt><trkpt lat="45.437855" lon="10.5032833"><ele>163.0</ele><time>2026-05-03T09:51:28.222Z</time></trkpt><trkpt lat="45.43785" lon="10.503435"><ele>163.0</ele><time>2026-05-03T09:51:30.223Z</time></trkpt><trkpt lat="45.4378467" lon="10.50358"><ele>162.8</ele><time>2026-05-03T09:51:32.235Z</time></trkpt><trkpt lat="45.4378483" lon="10.5037333"><ele>162.60000000000002</ele><time>2026-05-03T09:51:34.225Z</time></trkpt><trkpt lat="45.4378317" lon="10.5038767"><ele>162.39999999999998</ele><time>2026-05-03T09:51:36.229Z</time></trkpt><trkpt lat="45.437835" lon="10.5040067"><ele>162.2</ele><time>2026-05-03T09:51:38.231Z</time></trkpt><trkpt lat="45.437835" lon="10.504135"><ele>162.0</ele><time>2026-05-03T09:51:40.227Z</time></trkpt><trkpt lat="45.4378283" lon="10.5042733"><ele>162.0</ele><time>2026-05-03T09:51:42.229Z</time></trkpt><trkpt lat="45.437815" lon="10.5044117"><ele>162.0</ele><time>2026-05-03T09:51:44.227Z</time></trkpt><trkpt lat="45.437795" lon="10.5045317"><ele>162.0</ele><time>2026-05-03T09:51:46.229Z</time></trkpt><trkpt lat="45.437785" lon="10.5046233"><ele>162.0</ele><time>2026-05-03T09:51:48.225Z</time></trkpt><trkpt lat="45.4377617" lon="10.50473"><ele>162.0</ele><time>2026-05-03T09:51:52.219Z</time></trkpt><trkpt lat="45.4377933" lon="10.504835"><ele>162.0</ele><time>2026-05-03T09:52:42.219Z</time></trkpt><trkpt lat="45.437825" lon="10.5049617"><ele>163.33333333333334</ele><time>2026-05-03T09:52:45.223Z</time></trkpt><trkpt lat="45.4378283" lon="10.50507"><ele>164.66666666666666</ele><time>2026-05-03T09:52:47.228Z</time></trkpt><trkpt lat="45.43784" lon="10.5051667"><ele>166.0</ele><time>2026-05-03T09:52:49.22Z</time></trkpt><trkpt lat="45.43786" lon="10.50529"><ele>167.33333333333331</ele><time>2026-05-03T09:52:52.22Z</time></trkpt><trkpt lat="45.4378833" lon="10.5054017"><ele>168.66666666666666</ele><time>2026-05-03T09:52:55.218Z</time></trkpt><trkpt lat="45.437905" lon="10.505535"><ele>170.0</ele><time>2026-05-03T09:52:58.227Z</time></trkpt><trkpt lat="45.4379483" lon="10.5056117"><ele>169.66666666666666</ele><time>2026-05-03T09:53:00.228Z</time></trkpt><trkpt lat="45.4380183" lon="10.5056217"><ele>169.33333333333331</ele><time>2026-05-03T09:53:02.219Z</time></trkpt><trkpt lat="45.4380983" lon="10.5056517"><ele>169.0</ele><time>2026-05-03T09:53:04.228Z</time></trkpt><trkpt lat="45.4381633" lon="10.50574"><ele>168.66666666666666</ele><time>2026-05-03T09:53:06.228Z</time></trkpt><trkpt lat="45.4382183" lon="10.505855"><ele>168.33333333333334</ele><time>2026-05-03T09:53:08.231Z</time></trkpt><trkpt lat="45.438265" lon="10.5059783"><ele>168.0</ele><time>2026-05-03T09:53:10.226Z</time></trkpt><trkpt lat="45.438295" lon="10.5061233"><ele>168.8</ele><time>2026-05-03T09:53:12.228Z</time></trkpt><trkpt lat="45.4383233" lon="10.50627"><ele>169.60000000000002</ele><time>2026-05-03T09:53:14.229Z</time></trkpt><trkpt lat="45.4383517" lon="10.5064083"><ele>170.39999999999998</ele><time>2026-05-03T09:53:16.227Z</time></trkpt><trkpt lat="45.438385" lon="10.506545"><ele>171.2</ele><time>2026-05-03T09:53:18.229Z</time></trkpt><trkpt lat="45.438415" lon="10.5066833"><ele>172.0</ele><time>2026-05-03T09:53:20.229Z</time></trkpt><trkpt lat="45.43844" lon="10.5068183"><ele>172.0</ele><time>2026-05-03T09:53:22.223Z</time></trkpt><trkpt lat="45.4384583" lon="10.5069417"><ele>172.0</ele><time>2026-05-03T09:53:24.224Z</time></trkpt><trkpt lat="45.4384783" lon="10.5070567"><ele>172.0</ele><time>2026-05-03T09:53:26.226Z</time></trkpt><trkpt lat="45.438495" lon="10.5071683"><ele>172.0</ele><time>2026-05-03T09:53:28.227Z</time></trkpt><trkpt lat="45.4385033" lon="10.5072767"><ele>172.0</ele><time>2026-05-03T09:53:30.221Z</time></trkpt><trkpt lat="45.4385233" lon="10.5073833"><ele>172.0</ele><time>2026-05-03T09:53:32.23Z</time></trkpt><trkpt lat="45.4385483" lon="10.5074983"><ele>172.83333333333334</ele><time>2026-05-03T09:53:34.22Z</time></trkpt><trkpt lat="45.4385767" lon="10.5076117"><ele>173.66666666666669</ele><time>2026-05-03T09:53:36.218Z</time></trkpt><trkpt lat="45.4386067" lon="10.50773"><ele>174.5</ele><time>2026-05-03T09:53:38.231Z</time></trkpt><trkpt lat="45.4386383" lon="10.5078417"><ele>175.33333333333334</ele><time>2026-05-03T09:53:40.224Z</time></trkpt><trkpt lat="45.438675" lon="10.507955"><ele>176.16666666666666</ele><time>2026-05-03T09:53:42.228Z</time></trkpt><trkpt lat="45.438715" lon="10.5080683"><ele>177.0</ele><time>2026-05-03T09:53:44.228Z</time></trkpt><trkpt lat="45.4387517" lon="10.50817"><ele>177.0</ele><time>2026-05-03T09:53:46.225Z</time></trkpt><trkpt lat="45.4387817" lon="10.5082633"><ele>177.0</ele><time>2026-05-03T09:53:48.221Z</time></trkpt><trkpt lat="45.4388283" lon="10.5083717"><ele>177.0</ele><time>2026-05-03T09:53:51.222Z</time></trkpt><trkpt lat="45.4388767" lon="10.5084383"><ele>177.0</ele><time>2026-05-03T09:53:53.223Z</time></trkpt><trkpt lat="45.43893" lon="10.508505"><ele>177.0</ele><time>2026-05-03T09:53:55.226Z</time></trkpt><trkpt lat="45.438975" lon="10.5085767"><ele>177.0</ele><time>2026-05-03T09:53:57.227Z</time></trkpt><trkpt lat="45.4390233" lon="10.5086467"><ele>177.0</ele><time>2026-05-03T09:53:59.223Z</time></trkpt><trkpt lat="45.43906" lon="10.508725"><ele>178.66666666666666</ele><time>2026-05-03T09:54:01.219Z</time></trkpt><trkpt lat="45.4391017" lon="10.5088133"><ele>180.33333333333334</ele><time>2026-05-03T09:54:03.211Z</time></trkpt><trkpt lat="45.4391283" lon="10.508905"><ele>182.0</ele><time>2026-05-03T09:54:05.223Z</time></trkpt><trkpt lat="45.439175" lon="10.5089817"><ele>183.66666666666669</ele><time>2026-05-03T09:54:07.223Z</time></trkpt><trkpt lat="45.4392333" lon="10.5090867"><ele>185.33333333333334</ele><time>2026-05-03T09:54:10.221Z</time></trkpt><trkpt lat="45.4392917" lon="10.5091717"><ele>187.0</ele><time>2026-05-03T09:54:13.217Z</time></trkpt><trkpt lat="45.4393433" lon="10.5092517"><ele>187.0</ele><time>2026-05-03T09:54:17.221Z</time></trkpt><trkpt lat="45.4394217" lon="10.5092683"><ele>187.0</ele><time>2026-05-03T09:54:20.218Z</time></trkpt><trkpt lat="45.43949" lon="10.50925"><ele>187.0</ele><time>2026-05-03T09:54:24.222Z</time></trkpt><trkpt lat="45.43949" lon="10.5093433"><ele>187.0</ele><time>2026-05-03T09:54:28.221Z</time></trkpt><trkpt lat="45.4394183" lon="10.5093717"><ele>187.0</ele><time>2026-05-03T09:54:31.221Z</time></trkpt><trkpt lat="45.4393367" lon="10.5093633"><ele>187.0</ele><time>2026-05-03T09:54:34.217Z</time></trkpt><trkpt lat="45.4392517" lon="10.509325"><ele>187.0</ele><time>2026-05-03T09:54:37.216Z</time></trkpt><trkpt lat="45.439175" lon="10.509255"><ele>187.0</ele><time>2026-05-03T09:54:40.224Z</time></trkpt><trkpt lat="45.4391183" lon="10.5092067"><ele>187.0</ele><time>2026-05-03T09:54:42.218Z</time></trkpt><trkpt lat="45.43906" lon="10.5091467"><ele>187.0</ele><time>2026-05-03T09:54:44.227Z</time></trkpt><trkpt lat="45.4390033" lon="10.5090967"><ele>187.0</ele><time>2026-05-03T09:54:46.218Z</time></trkpt><trkpt lat="45.4389433" lon="10.50906"><ele>187.0</ele><time>2026-05-03T09:54:48.22Z</time></trkpt><trkpt lat="45.4388783" lon="10.5090217"><ele>187.0</ele><time>2026-05-03T09:54:50.229Z</time></trkpt><trkpt lat="45.4388117" lon="10.5089983"><ele>185.42857142857142</ele><time>2026-05-03T09:54:52.221Z</time></trkpt><trkpt lat="45.438745" lon="10.5089917"><ele>183.85714285714286</ele><time>2026-05-03T09:54:54.221Z</time></trkpt><trkpt lat="45.4386767" lon="10.5089933"><ele>182.28571428571428</ele><time>2026-05-03T09:54:56.227Z</time></trkpt><trkpt lat="45.4386117" lon="10.5089867"><ele>180.71428571428572</ele><time>2026-05-03T09:54:58.221Z</time></trkpt><trkpt lat="45.4385317" lon="10.5089633"><ele>179.14285714285714</ele><time>2026-05-03T09:55:01.227Z</time></trkpt><trkpt lat="45.4385683" lon="10.509055"><ele>177.57142857142858</ele><time>2026-05-03T09:55:37.22Z</time></trkpt><trkpt lat="45.4386233" lon="10.5091233"><ele>176.0</ele><time>2026-05-03T09:59:54.227Z</time></trkpt><trkpt lat="45.4386067" lon="10.5090183"><ele>176.0</ele><time>2026-05-03T09:59:58.223Z</time></trkpt><trkpt lat="45.4385583" lon="10.50894"><ele>176.0</ele><time>2026-05-03T10:00:09.219Z</time></trkpt><trkpt lat="45.4385067" lon="10.5088717"><ele>176.0</ele><time>2026-05-03T10:00:13.22Z</time></trkpt><trkpt lat="45.4384633" lon="10.50879"><ele>176.0</ele><time>2026-05-03T10:00:19.22Z</time></trkpt><trkpt lat="45.4384433" lon="10.5087033"><ele>176.0</ele><time>2026-05-03T10:00:27.215Z</time></trkpt><trkpt lat="45.438445" lon="10.5086033"><ele>176.0</ele><time>2026-05-03T10:00:39.225Z</time></trkpt><trkpt lat="45.43839" lon="10.508515"><ele>176.0</ele><time>2026-05-03T10:00:44.218Z</time></trkpt><trkpt lat="45.43834" lon="10.5084167"><ele>176.16666666666666</ele><time>2026-05-03T10:00:47.223Z</time></trkpt><trkpt lat="45.438305" lon="10.50834"><ele>176.33333333333331</ele><time>2026-05-03T10:00:49.215Z</time></trkpt><trkpt lat="45.4382583" lon="10.5082433"><ele>176.5</ele><time>2026-05-03T10:00:51.22Z</time></trkpt><trkpt lat="45.4382067" lon="10.5081267"><ele>176.66666666666666</ele><time>2026-05-03T10:00:53.226Z</time></trkpt><trkpt lat="45.43816" lon="10.5080133"><ele>176.83333333333334</ele><time>2026-05-03T10:00:55.223Z</time></trkpt><trkpt lat="45.43811" lon="10.5079283"><ele>177.0</ele><time>2026-05-03T10:00:57.225Z</time></trkpt><trkpt lat="45.4380467" lon="10.507905"><ele>177.0</ele><time>2026-05-03T10:01:02.226Z</time></trkpt><trkpt lat="45.4380067" lon="10.507785"><ele>177.0</ele><time>2026-05-03T10:01:17.225Z</time></trkpt><trkpt lat="45.4379533" lon="10.5076917"><ele>177.0</ele><time>2026-05-03T10:01:20.218Z</time></trkpt><trkpt lat="45.4379033" lon="10.5075967"><ele>177.0</ele><time>2026-05-03T10:01:23.217Z</time></trkpt><trkpt lat="45.4378683" lon="10.5075133"><ele>177.0</ele><time>2026-05-03T10:01:25.217Z</time></trkpt><trkpt lat="45.4378317" lon="10.507415"><ele>177.0</ele><time>2026-05-03T10:01:27.221Z</time></trkpt><trkpt lat="45.4377917" lon="10.5073167"><ele>176.16666666666666</ele><time>2026-05-03T10:01:29.226Z</time></trkpt><trkpt lat="45.43775" lon="10.507205"><ele>175.33333333333334</ele><time>2026-05-03T10:01:31.224Z</time></trkpt><trkpt lat="45.4377" lon="10.5071"><ele>174.5</ele><time>2026-05-03T10:01:33.215Z</time></trkpt><trkpt lat="45.437655" lon="10.5070083"><ele>173.66666666666669</ele><time>2026-05-03T10:01:35.222Z</time></trkpt><trkpt lat="45.437625" lon="10.5069217"><ele>172.83333333333334</ele><time>2026-05-03T10:01:37.221Z</time></trkpt><trkpt lat="45.43758" lon="10.5068183"><ele>172.0</ele><time>2026-05-03T10:01:40.221Z</time></trkpt><trkpt lat="45.4375367" lon="10.5067417"><ele>172.0</ele><time>2026-05-03T10:01:43.219Z</time></trkpt><trkpt lat="45.43748" lon="10.5066583"><ele>172.0</ele><time>2026-05-03T10:01:48.221Z</time></trkpt><trkpt lat="45.4374217" lon="10.506575"><ele>172.0</ele><time>2026-05-03T10:01:52.221Z</time></trkpt><trkpt lat="45.4373683" lon="10.5064917"><ele>172.0</ele><time>2026-05-03T10:01:56.219Z</time></trkpt><trkpt lat="45.4372933" lon="10.5064617"><ele>172.0</ele><time>2026-05-03T10:01:59.22Z</time></trkpt><trkpt lat="45.43722" lon="10.5064467"><ele>172.0</ele><time>2026-05-03T10:02:02.225Z</time></trkpt><trkpt lat="45.4371333" lon="10.5064217"><ele>170.66666666666669</ele><time>2026-05-03T10:02:06.227Z</time></trkpt><trkpt lat="45.4370533" lon="10.50641"><ele>169.33333333333334</ele><time>2026-05-03T10:02:08.225Z</time></trkpt><trkpt lat="45.4369583" lon="10.50641"><ele>168.0</ele><time>2026-05-03T10:02:10.221Z</time></trkpt><trkpt lat="45.4368633" lon="10.5064"><ele>166.66666666666666</ele><time>2026-05-03T10:02:12.221Z</time></trkpt><trkpt lat="45.4367783" lon="10.5063983"><ele>165.33333333333331</ele><time>2026-05-03T10:02:14.223Z</time></trkpt><trkpt lat="45.4366883" lon="10.5063983"><ele>164.0</ele><time>2026-05-03T10:02:16.221Z</time></trkpt><trkpt lat="45.4366" lon="10.5064183"><ele>164.0</ele><time>2026-05-03T10:02:18.227Z</time></trkpt><trkpt lat="45.4365217" lon="10.506445"><ele>164.0</ele><time>2026-05-03T10:02:20.226Z</time></trkpt><trkpt lat="45.4364517" lon="10.5064667"><ele>164.0</ele><time>2026-05-03T10:02:22.224Z</time></trkpt><trkpt lat="45.4363683" lon="10.5065083"><ele>164.0</ele><time>2026-05-03T10:02:25.225Z</time></trkpt><trkpt lat="45.4362933" lon="10.5065617"><ele>164.0</ele><time>2026-05-03T10:02:28.221Z</time></trkpt><trkpt lat="45.4362167" lon="10.50657"><ele>164.0</ele><time>2026-05-03T10:02:49.222Z</time></trkpt><trkpt lat="45.43613" lon="10.5065367"><ele>162.6</ele><time>2026-05-03T10:02:52.219Z</time></trkpt><trkpt lat="45.4360483" lon="10.5065067"><ele>161.2</ele><time>2026-05-03T10:02:54.225Z</time></trkpt><trkpt lat="45.4359533" lon="10.5064817"><ele>159.79999999999998</ele><time>2026-05-03T10:02:56.225Z</time></trkpt><trkpt lat="45.43586" lon="10.5064483"><ele>158.39999999999998</ele><time>2026-05-03T10:02:58.225Z</time></trkpt><trkpt lat="45.4357617" lon="10.5064033"><ele>157.0</ele><time>2026-05-03T10:03:00.222Z</time></trkpt><trkpt lat="45.4356633" lon="10.506345"><ele>157.0</ele><time>2026-05-03T10:03:02.219Z</time></trkpt><trkpt lat="45.435565" lon="10.5062983"><ele>157.0</ele><time>2026-05-03T10:03:04.213Z</time></trkpt><trkpt lat="45.4354717" lon="10.506265"><ele>157.0</ele><time>2026-05-03T10:03:06.227Z</time></trkpt><trkpt lat="45.435385" lon="10.506235"><ele>157.0</ele><time>2026-05-03T10:03:08.228Z</time></trkpt><trkpt lat="45.435285" lon="10.5062183"><ele>157.0</ele><time>2026-05-03T10:03:10.223Z</time></trkpt><trkpt lat="45.43518" lon="10.506195"><ele>157.2</ele><time>2026-05-03T10:03:12.222Z</time></trkpt><trkpt lat="45.4350817" lon="10.5061917"><ele>157.39999999999998</ele><time>2026-05-03T10:03:14.228Z</time></trkpt><trkpt lat="45.43498" lon="10.5061817"><ele>157.60000000000002</ele><time>2026-05-03T10:03:16.226Z</time></trkpt><trkpt lat="45.434875" lon="10.50615"><ele>157.8</ele><time>2026-05-03T10:03:18.228Z</time></trkpt><trkpt lat="45.434805" lon="10.506115"><ele>158.0</ele><time>2026-05-03T10:03:20.227Z</time></trkpt><trkpt lat="45.43476" lon="10.5060283"><ele>158.00000000000003</ele><time>2026-05-03T10:03:51.222Z</time></trkpt><trkpt lat="45.434795" lon="10.505935"><ele>158.0</ele><time>2026-05-03T10:03:54.22Z</time></trkpt><trkpt lat="45.434825" lon="10.505845"><ele>158.0</ele><time>2026-05-03T10:03:56.225Z</time></trkpt><trkpt lat="45.4348567" lon="10.5057467"><ele>158.0</ele><time>2026-05-03T10:03:58.221Z</time></trkpt><trkpt lat="45.4348883" lon="10.5056533"><ele>158.0</ele><time>2026-05-03T10:04:00.22Z</time></trkpt><trkpt lat="45.4349217" lon="10.50556"><ele>158.00000000000003</ele><time>2026-05-03T10:04:02.223Z</time></trkpt><trkpt lat="45.4349617" lon="10.5054633"><ele>158.0</ele><time>2026-05-03T10:04:04.221Z</time></trkpt><trkpt lat="45.434995" lon="10.5053617"><ele>158.16666666666666</ele><time>2026-05-03T10:04:06.226Z</time></trkpt><trkpt lat="45.4350183" lon="10.5052583"><ele>158.33333333333331</ele><time>2026-05-03T10:04:08.225Z</time></trkpt><trkpt lat="45.4350367" lon="10.50515"><ele>158.5</ele><time>2026-05-03T10:04:10.226Z</time></trkpt><trkpt lat="45.43504" lon="10.5050367"><ele>158.66666666666666</ele><time>2026-05-03T10:04:12.223Z</time></trkpt><trkpt lat="45.43503" lon="10.50492"><ele>158.83333333333334</ele><time>2026-05-03T10:04:14.226Z</time></trkpt><trkpt lat="45.4350283" lon="10.5047967"><ele>159.0</ele><time>2026-05-03T10:04:16.22Z</time></trkpt><trkpt lat="45.4350217" lon="10.5046767"><ele>159.0</ele><time>2026-05-03T10:04:18.23Z</time></trkpt><trkpt lat="45.434985" lon="10.5045933"><ele>159.0</ele><time>2026-05-03T10:04:21.221Z</time></trkpt><trkpt lat="45.4349217" lon="10.50456"><ele>159.0</ele><time>2026-05-03T10:04:23.225Z</time></trkpt><trkpt lat="45.434845" lon="10.5045483"><ele>159.0</ele><time>2026-05-03T10:04:25.225Z</time></trkpt><trkpt lat="45.434755" lon="10.5045317"><ele>159.0</ele><time>2026-05-03T10:04:27.217Z</time></trkpt><trkpt lat="45.4346533" lon="10.5045167"><ele>159.0</ele><time>2026-05-03T10:04:29.227Z</time></trkpt><trkpt lat="45.4345533" lon="10.5044783"><ele>158.0</ele><time>2026-05-03T10:04:31.221Z</time></trkpt><trkpt lat="45.4344533" lon="10.5044117"><ele>157.0</ele><time>2026-05-03T10:04:33.222Z</time></trkpt><trkpt lat="45.43435" lon="10.5043267"><ele>156.0</ele><time>2026-05-03T10:04:35.222Z</time></trkpt><trkpt lat="45.4342367" lon="10.5042717"><ele>155.0</ele><time>2026-05-03T10:04:37.226Z</time></trkpt><trkpt lat="45.43412" lon="10.5042333"><ele>155.0</ele><time>2026-05-03T10:04:39.229Z</time></trkpt><trkpt lat="45.434" lon="10.5042217"><ele>155.0</ele><time>2026-05-03T10:04:41.228Z</time></trkpt><trkpt lat="45.4338767" lon="10.5042283"><ele>155.0</ele><time>2026-05-03T10:04:43.227Z</time></trkpt><trkpt lat="45.4337567" lon="10.5042383"><ele>155.0</ele><time>2026-05-03T10:04:45.222Z</time></trkpt><trkpt lat="45.4336417" lon="10.5042383"><ele>154.83333333333331</ele><time>2026-05-03T10:04:47.226Z</time></trkpt><trkpt lat="45.43352" lon="10.5042167"><ele>154.66666666666666</ele><time>2026-05-03T10:04:49.227Z</time></trkpt><trkpt lat="45.433455" lon="10.5042033"><ele>154.5</ele><time>2026-05-03T10:04:50.232Z</time></trkpt><trkpt lat="45.4333933" lon="10.5041817"><ele>154.33333333333334</ele><time>2026-05-03T10:04:51.226Z</time></trkpt><trkpt lat="45.4333283" lon="10.5041633"><ele>154.16666666666669</ele><time>2026-05-03T10:04:52.22Z</time></trkpt><trkpt lat="45.433265" lon="10.5041317"><ele>154.0</ele><time>2026-05-03T10:04:53.228Z</time></trkpt><trkpt lat="45.4332033" lon="10.504095"><ele>154.0</ele><time>2026-05-03T10:04:54.228Z</time></trkpt><trkpt lat="45.4331467" lon="10.504045"><ele>154.0</ele><time>2026-05-03T10:04:55.225Z</time></trkpt><trkpt lat="45.4330983" lon="10.503985"><ele>154.0</ele><time>2026-05-03T10:04:56.227Z</time></trkpt><trkpt lat="45.43305" lon="10.5039267"><ele>154.0</ele><time>2026-05-03T10:04:57.225Z</time></trkpt><trkpt lat="45.4329983" lon="10.50387"><ele>154.0</ele><time>2026-05-03T10:04:58.226Z</time></trkpt><trkpt lat="45.43295" lon="10.5038117"><ele>154.0</ele><time>2026-05-03T10:04:59.226Z</time></trkpt><trkpt lat="45.4328483" lon="10.50371"><ele>154.0</ele><time>2026-05-03T10:05:01.222Z</time></trkpt><trkpt lat="45.432745" lon="10.503605"><ele>153.5</ele><time>2026-05-03T10:05:03.225Z</time></trkpt><trkpt lat="45.432695" lon="10.503545"><ele>153.0</ele><time>2026-05-03T10:05:04.225Z</time></trkpt><trkpt lat="45.4326433" lon="10.5034883"><ele>152.5</ele><time>2026-05-03T10:05:05.229Z</time></trkpt><trkpt lat="45.4325383" lon="10.503395"><ele>152.0</ele><time>2026-05-03T10:05:07.227Z</time></trkpt><trkpt lat="45.432485" lon="10.503345"><ele>151.5</ele><time>2026-05-03T10:05:08.228Z</time></trkpt><trkpt lat="45.4324283" lon="10.5032967"><ele>151.0</ele><time>2026-05-03T10:05:09.225Z</time></trkpt><trkpt lat="45.4323717" lon="10.5032483"><ele>151.0</ele><time>2026-05-03T10:05:10.226Z</time></trkpt><trkpt lat="45.4323167" lon="10.5032"><ele>151.0</ele><time>2026-05-03T10:05:11.226Z</time></trkpt><trkpt lat="45.432215" lon="10.5031133"><ele>151.0</ele><time>2026-05-03T10:05:13.224Z</time></trkpt><trkpt lat="45.4321117" lon="10.5030317"><ele>151.0</ele><time>2026-05-03T10:05:15.227Z</time></trkpt><trkpt lat="45.43201" lon="10.50294"><ele>151.0</ele><time>2026-05-03T10:05:17.218Z</time></trkpt><trkpt lat="45.4319067" lon="10.5028383"><ele>150.83333333333334</ele><time>2026-05-03T10:05:19.227Z</time></trkpt><trkpt lat="45.43181" lon="10.5027283"><ele>150.66666666666669</ele><time>2026-05-03T10:05:21.222Z</time></trkpt><trkpt lat="45.431715" lon="10.5026133"><ele>150.5</ele><time>2026-05-03T10:05:23.228Z</time></trkpt><trkpt lat="45.4316633" lon="10.5025567"><ele>150.33333333333334</ele><time>2026-05-03T10:05:24.226Z</time></trkpt><trkpt lat="45.4316117" lon="10.5024967"><ele>150.16666666666666</ele><time>2026-05-03T10:05:25.226Z</time></trkpt><trkpt lat="45.43156" lon="10.5024417"><ele>150.0</ele><time>2026-05-03T10:05:26.229Z</time></trkpt><trkpt lat="45.4315067" lon="10.5023867"><ele>150.0</ele><time>2026-05-03T10:05:27.228Z</time></trkpt><trkpt lat="45.4314533" lon="10.502335"><ele>150.0</ele><time>2026-05-03T10:05:28.223Z</time></trkpt><trkpt lat="45.4314" lon="10.502285"><ele>150.0</ele><time>2026-05-03T10:05:29.217Z</time></trkpt><trkpt lat="45.4313467" lon="10.502235"><ele>150.0</ele><time>2026-05-03T10:05:30.219Z</time></trkpt><trkpt lat="45.4312933" lon="10.5021867"><ele>150.0</ele><time>2026-05-03T10:05:31.218Z</time></trkpt><trkpt lat="45.4311883" lon="10.50209"><ele>150.0</ele><time>2026-05-03T10:05:33.222Z</time></trkpt><trkpt lat="45.4310817" lon="10.5020017"><ele>149.25</ele><time>2026-05-03T10:05:35.225Z</time></trkpt><trkpt lat="45.4309817" lon="10.501905"><ele>148.5</ele><time>2026-05-03T10:05:37.227Z</time></trkpt><trkpt lat="45.4308867" lon="10.50181"><ele>147.75</ele><time>2026-05-03T10:05:39.226Z</time></trkpt><trkpt lat="45.43079" lon="10.5017117"><ele>147.0</ele><time>2026-05-03T10:05:41.223Z</time></trkpt><trkpt lat="45.430685" lon="10.5016167"><ele>147.0</ele><time>2026-05-03T10:05:43.226Z</time></trkpt><trkpt lat="45.4305867" lon="10.5015167"><ele>147.0</ele><time>2026-05-03T10:05:45.229Z</time></trkpt><trkpt lat="45.43049" lon="10.5014133"><ele>147.0</ele><time>2026-05-03T10:05:47.227Z</time></trkpt><trkpt lat="45.43039" lon="10.501315"><ele>147.0</ele><time>2026-05-03T10:05:49.217Z</time></trkpt><trkpt lat="45.4302917" lon="10.5012183"><ele>146.5</ele><time>2026-05-03T10:05:51.221Z</time></trkpt><trkpt lat="45.4301917" lon="10.5011167"><ele>146.0</ele><time>2026-05-03T10:05:53.228Z</time></trkpt><trkpt lat="45.4300917" lon="10.5010183"><ele>145.5</ele><time>2026-05-03T10:05:55.221Z</time></trkpt><trkpt lat="45.429995" lon="10.50092"><ele>145.0</ele><time>2026-05-03T10:05:57.227Z</time></trkpt><trkpt lat="45.429905" lon="10.500825"><ele>145.0</ele><time>2026-05-03T10:05:59.226Z</time></trkpt><trkpt lat="45.4298117" lon="10.500785"><ele>145.0</ele><time>2026-05-03T10:06:01.225Z</time></trkpt><trkpt lat="45.4297333" lon="10.500835"><ele>145.0</ele><time>2026-05-03T10:06:03.225Z</time></trkpt><trkpt lat="45.42967" lon="10.5009517"><ele>145.0</ele><time>2026-05-03T10:06:05.225Z</time></trkpt><trkpt lat="45.4296083" lon="10.5010833"><ele>145.0</ele><time>2026-05-03T10:06:07.226Z</time></trkpt><trkpt lat="45.4295533" lon="10.5012167"><ele>146.2</ele><time>2026-05-03T10:06:09.225Z</time></trkpt><trkpt lat="45.42949" lon="10.5013317"><ele>147.4</ele><time>2026-05-03T10:06:11.226Z</time></trkpt><trkpt lat="45.4294267" lon="10.50144"><ele>148.6</ele><time>2026-05-03T10:06:13.228Z</time></trkpt><trkpt lat="45.4293533" lon="10.50154"><ele>149.8</ele><time>2026-05-03T10:06:15.228Z</time></trkpt><trkpt lat="45.4292817" lon="10.5016367"><ele>151.0</ele><time>2026-05-03T10:06:17.225Z</time></trkpt><trkpt lat="45.4292267" lon="10.5017383"><ele>151.0</ele><time>2026-05-03T10:06:19.226Z</time></trkpt><trkpt lat="45.429175" lon="10.5018533"><ele>151.0</ele><time>2026-05-03T10:06:21.219Z</time></trkpt><trkpt lat="45.4291417" lon="10.501975"><ele>151.0</ele><time>2026-05-03T10:06:23.224Z</time></trkpt><trkpt lat="45.429085" lon="10.5021033"><ele>151.0</ele><time>2026-05-03T10:06:25.225Z</time></trkpt><trkpt lat="45.4290383" lon="10.50222"><ele>151.0</ele><time>2026-05-03T10:06:27.221Z</time></trkpt><trkpt lat="45.4289917" lon="10.50234"><ele>150.8</ele><time>2026-05-03T10:06:29.221Z</time></trkpt><trkpt lat="45.428955" lon="10.50247"><ele>150.6</ele><time>2026-05-03T10:06:31.218Z</time></trkpt><trkpt lat="45.4289167" lon="10.5026"><ele>150.4</ele><time>2026-05-03T10:06:33.226Z</time></trkpt><trkpt lat="45.428865" lon="10.5027267"><ele>150.2</ele><time>2026-05-03T10:06:35.227Z</time></trkpt><trkpt lat="45.4288133" lon="10.5028533"><ele>150.0</ele><time>2026-05-03T10:06:37.227Z</time></trkpt><trkpt lat="45.4287517" lon="10.5029733"><ele>150.0</ele><time>2026-05-03T10:06:39.226Z</time></trkpt><trkpt lat="45.42867" lon="10.50306"><ele>150.0</ele><time>2026-05-03T10:06:41.228Z</time></trkpt><trkpt lat="45.4285733" lon="10.50313"><ele>150.0</ele><time>2026-05-03T10:06:43.225Z</time></trkpt><trkpt lat="45.4284767" lon="10.5031883"><ele>150.0</ele><time>2026-05-03T10:06:45.22Z</time></trkpt><trkpt lat="45.4283767" lon="10.5032683"><ele>150.0</ele><time>2026-05-03T10:06:47.227Z</time></trkpt><trkpt lat="45.4283233" lon="10.5033167"><ele>150.0</ele><time>2026-05-03T10:06:48.227Z</time></trkpt><trkpt lat="45.428275" lon="10.5033783"><ele>150.0</ele><time>2026-05-03T10:06:49.227Z</time></trkpt><trkpt lat="45.428235" lon="10.5034483"><ele>150.0</ele><time>2026-05-03T10:06:50.23Z</time></trkpt><trkpt lat="45.428175" lon="10.50359"><ele>150.0</ele><time>2026-05-03T10:06:52.227Z</time></trkpt><trkpt lat="45.42812" lon="10.503705"><ele>150.0</ele><time>2026-05-03T10:06:54.225Z</time></trkpt><trkpt lat="45.42803" lon="10.503795"><ele>147.8</ele><time>2026-05-03T10:06:56.228Z</time></trkpt><trkpt lat="45.4279217" lon="10.5038367"><ele>145.6</ele><time>2026-05-03T10:06:58.219Z</time></trkpt><trkpt lat="45.427825" lon="10.5038933"><ele>143.4</ele><time>2026-05-03T10:07:00.232Z</time></trkpt><trkpt lat="45.4277317" lon="10.50399"><ele>141.2</ele><time>2026-05-03T10:07:02.226Z</time></trkpt><trkpt lat="45.4276483" lon="10.5040767"><ele>139.0</ele><time>2026-05-03T10:07:04.227Z</time></trkpt><trkpt lat="45.4275583" lon="10.5041317"><ele>139.0</ele><time>2026-05-03T10:07:06.228Z</time></trkpt><trkpt lat="45.4274633" lon="10.5041717"><ele>139.0</ele><time>2026-05-03T10:07:08.224Z</time></trkpt><trkpt lat="45.4273567" lon="10.5041933"><ele>139.0</ele><time>2026-05-03T10:07:10.226Z</time></trkpt><trkpt lat="45.4272333" lon="10.504195"><ele>139.0</ele><time>2026-05-03T10:07:12.222Z</time></trkpt><trkpt lat="45.4271083" lon="10.50418"><ele>139.2</ele><time>2026-05-03T10:07:14.228Z</time></trkpt><trkpt lat="45.4269817" lon="10.50416"><ele>139.4</ele><time>2026-05-03T10:07:16.226Z</time></trkpt><trkpt lat="45.4268583" lon="10.50413"><ele>139.6</ele><time>2026-05-03T10:07:18.227Z</time></trkpt><trkpt lat="45.426795" lon="10.5041233"><ele>139.8</ele><time>2026-05-03T10:07:19.226Z</time></trkpt><trkpt lat="45.4267283" lon="10.50412"><ele>140.0</ele><time>2026-05-03T10:07:20.223Z</time></trkpt><trkpt lat="45.42666" lon="10.5041167"><ele>140.0</ele><time>2026-05-03T10:07:21.221Z</time></trkpt><trkpt lat="45.4265933" lon="10.5041033"><ele>140.0</ele><time>2026-05-03T10:07:22.226Z</time></trkpt><trkpt lat="45.4265283" lon="10.5040783"><ele>140.0</ele><time>2026-05-03T10:07:23.22Z</time></trkpt><trkpt lat="45.4264583" lon="10.50405"><ele>140.0</ele><time>2026-05-03T10:07:24.23Z</time></trkpt><trkpt lat="45.426385" lon="10.5040333"><ele>140.0</ele><time>2026-05-03T10:07:25.217Z</time></trkpt><trkpt lat="45.42631" lon="10.50403"><ele>140.0</ele><time>2026-05-03T10:07:26.225Z</time></trkpt><trkpt lat="45.4262433" lon="10.5040383"><ele>140.0</ele><time>2026-05-03T10:07:27.227Z</time></trkpt><trkpt lat="45.4261783" lon="10.504045"><ele>139.6</ele><time>2026-05-03T10:07:28.22Z</time></trkpt><trkpt lat="45.4261117" lon="10.50405"><ele>139.2</ele><time>2026-05-03T10:07:29.22Z</time></trkpt><trkpt lat="45.4259883" lon="10.5040583"><ele>138.8</ele><time>2026-05-03T10:07:31.22Z</time></trkpt><trkpt lat="45.42587" lon="10.5040467"><ele>138.4</ele><time>2026-05-03T10:07:33.22Z</time></trkpt><trkpt lat="45.4257483" lon="10.504045"><ele>138.0</ele><time>2026-05-03T10:07:35.222Z</time></trkpt><trkpt lat="45.4256283" lon="10.5040633"><ele>138.0</ele><time>2026-05-03T10:07:37.227Z</time></trkpt><trkpt lat="45.42551" lon="10.5040883"><ele>138.0</ele><time>2026-05-03T10:07:39.225Z</time></trkpt><trkpt lat="45.425415" lon="10.5041267"><ele>138.0</ele><time>2026-05-03T10:07:41.227Z</time></trkpt><trkpt lat="45.4253267" lon="10.5041733"><ele>138.0</ele><time>2026-05-03T10:07:43.226Z</time></trkpt><trkpt lat="45.425235" lon="10.5041883"><ele>138.0</ele><time>2026-05-03T10:07:45.222Z</time></trkpt><trkpt lat="45.4251333" lon="10.5041583"><ele>136.75</ele><time>2026-05-03T10:07:47.226Z</time></trkpt><trkpt lat="45.4250233" lon="10.5041367"><ele>135.5</ele><time>2026-05-03T10:07:49.226Z</time></trkpt><trkpt lat="45.4249083" lon="10.5041267"><ele>134.25</ele><time>2026-05-03T10:07:51.224Z</time></trkpt><trkpt lat="45.4247867" lon="10.5041267"><ele>133.0</ele><time>2026-05-03T10:07:53.222Z</time></trkpt><trkpt lat="45.4246633" lon="10.50412"><ele>132.75</ele><time>2026-05-03T10:07:55.224Z</time></trkpt><trkpt lat="45.4245467" lon="10.5041033"><ele>132.5</ele><time>2026-05-03T10:07:57.218Z</time></trkpt><trkpt lat="45.4244367" lon="10.5040817"><ele>132.25</ele><time>2026-05-03T10:07:59.22Z</time></trkpt><trkpt lat="45.424325" lon="10.5040683"><ele>132.0</ele><time>2026-05-03T10:08:01.227Z</time></trkpt><trkpt lat="45.42421" lon="10.504035"><ele>132.0</ele><time>2026-05-03T10:08:03.226Z</time></trkpt><trkpt lat="45.4240983" lon="10.50399"><ele>132.0</ele><time>2026-05-03T10:08:05.225Z</time></trkpt><trkpt lat="45.423985" lon="10.5039433"><ele>132.0</ele><time>2026-05-03T10:08:07.226Z</time></trkpt><trkpt lat="45.423865" lon="10.5038983"><ele>132.0</ele><time>2026-05-03T10:08:09.229Z</time></trkpt><trkpt lat="45.4237433" lon="10.503845"><ele>131.0</ele><time>2026-05-03T10:08:11.226Z</time></trkpt><trkpt lat="45.423625" lon="10.5037933"><ele>130.0</ele><time>2026-05-03T10:08:13.225Z</time></trkpt><trkpt lat="45.42351" lon="10.503755"><ele>129.0</ele><time>2026-05-03T10:08:15.226Z</time></trkpt><trkpt lat="45.4233983" lon="10.503715"><ele>128.0</ele><time>2026-05-03T10:08:17.225Z</time></trkpt><trkpt lat="45.4232883" lon="10.503675"><ele>128.0</ele><time>2026-05-03T10:08:19.226Z</time></trkpt><trkpt lat="45.4231733" lon="10.50363"><ele>128.0</ele><time>2026-05-03T10:08:21.221Z</time></trkpt><trkpt lat="45.4230533" lon="10.503585"><ele>128.0</ele><time>2026-05-03T10:08:23.226Z</time></trkpt><trkpt lat="45.422935" lon="10.5035367"><ele>128.0</ele><time>2026-05-03T10:08:25.226Z</time></trkpt><trkpt lat="45.4228733" lon="10.5035067"><ele>128.0</ele><time>2026-05-03T10:08:26.229Z</time></trkpt><trkpt lat="45.4228133" lon="10.5034767"><ele>127.83333333333333</ele><time>2026-05-03T10:08:27.225Z</time></trkpt><trkpt lat="45.4227517" lon="10.503445"><ele>127.66666666666666</ele><time>2026-05-03T10:08:28.225Z</time></trkpt><trkpt lat="45.4226483" lon="10.5034167"><ele>127.5</ele><time>2026-05-03T10:08:30.226Z</time></trkpt><trkpt lat="45.4225883" lon="10.503505"><ele>127.33333333333334</ele><time>2026-05-03T10:08:32.225Z</time></trkpt><trkpt lat="45.42258" lon="10.5036467"><ele>127.16666666666667</ele><time>2026-05-03T10:08:34.227Z</time></trkpt><trkpt lat="45.4225667" lon="10.503765"><ele>127.0</ele><time>2026-05-03T10:08:36.23Z</time></trkpt><trkpt lat="45.4224867" lon="10.5038217"><ele>127.0</ele><time>2026-05-03T10:08:38.222Z</time></trkpt><trkpt lat="45.4223917" lon="10.50379"><ele>126.99999999999999</ele><time>2026-05-03T10:08:40.218Z</time></trkpt><trkpt lat="45.422285" lon="10.5037467"><ele>126.99999999999999</ele><time>2026-05-03T10:08:42.225Z</time></trkpt><trkpt lat="45.4221717" lon="10.5037"><ele>127.0</ele><time>2026-05-03T10:08:44.224Z</time></trkpt><trkpt lat="45.422055" lon="10.5036633"><ele>127.0</ele><time>2026-05-03T10:08:46.224Z</time></trkpt><trkpt lat="45.42194" lon="10.5036133"><ele>126.39999999999999</ele><time>2026-05-03T10:08:48.22Z</time></trkpt><trkpt lat="45.4218233" lon="10.503565"><ele>125.79999999999998</ele><time>2026-05-03T10:08:50.227Z</time></trkpt><trkpt lat="45.42172" lon="10.5034983"><ele>125.2</ele><time>2026-05-03T10:08:52.226Z</time></trkpt><trkpt lat="45.4216333" lon="10.5034067"><ele>124.6</ele><time>2026-05-03T10:08:54.226Z</time></trkpt><trkpt lat="45.421555" lon="10.5033083"><ele>124.0</ele><time>2026-05-03T10:08:56.225Z</time></trkpt><trkpt lat="45.4214767" lon="10.5032133"><ele>124.0</ele><time>2026-05-03T10:08:58.223Z</time></trkpt><trkpt lat="45.4214" lon="10.5031233"><ele>124.0</ele><time>2026-05-03T10:09:00.223Z</time></trkpt><trkpt lat="45.4213117" lon="10.5030967"><ele>124.0</ele><time>2026-05-03T10:09:02.225Z</time></trkpt><trkpt lat="45.4212317" lon="10.5031783"><ele>124.0</ele><time>2026-05-03T10:09:04.225Z</time></trkpt><trkpt lat="45.4211867" lon="10.5033167"><ele>124.0</ele><time>2026-05-03T10:09:06.224Z</time></trkpt><trkpt lat="45.421155" lon="10.503465"><ele>124.0</ele><time>2026-05-03T10:09:08.228Z</time></trkpt><trkpt lat="45.421115" lon="10.50362"><ele>124.0</ele><time>2026-05-03T10:09:10.224Z</time></trkpt><trkpt lat="45.4210817" lon="10.50378"><ele>124.0</ele><time>2026-05-03T10:09:12.227Z</time></trkpt><trkpt lat="45.421055" lon="10.5038833"><ele>124.0</ele><time>2026-05-03T10:09:14.227Z</time></trkpt><trkpt lat="45.4210083" lon="10.503985"><ele>124.0</ele><time>2026-05-03T10:09:17.217Z</time></trkpt><trkpt lat="45.4209717" lon="10.50406"><ele>124.00000000000001</ele><time>2026-05-03T10:09:19.225Z</time></trkpt><trkpt lat="45.420925" lon="10.5041417"><ele>124.0</ele><time>2026-05-03T10:09:21.224Z</time></trkpt><trkpt lat="45.4208667" lon="10.504215"><ele>124.0</ele><time>2026-05-03T10:09:24.215Z</time></trkpt><trkpt lat="45.4207933" lon="10.5042133"><ele>124.0</ele><time>2026-05-03T10:09:27.22Z</time></trkpt><trkpt lat="45.4206983" lon="10.504225"><ele>124.00000000000001</ele><time>2026-05-03T10:09:30.218Z</time></trkpt><trkpt lat="45.4206283" lon="10.50423"><ele>124.0</ele><time>2026-05-03T10:09:32.22Z</time></trkpt><trkpt lat="45.42055" lon="10.5042217"><ele>124.00000000000001</ele><time>2026-05-03T10:09:34.224Z</time></trkpt><trkpt lat="45.4204567" lon="10.5042183"><ele>124.0</ele><time>2026-05-03T10:09:37.217Z</time></trkpt><trkpt lat="45.4203733" lon="10.5042267"><ele>124.0</ele><time>2026-05-03T10:09:40.216Z</time></trkpt><trkpt lat="45.42031" lon="10.5042317"><ele>124.0</ele><time>2026-05-03T10:09:43.224Z</time></trkpt><trkpt lat="45.42023" lon="10.5042217"><ele>124.00000000000001</ele><time>2026-05-03T10:09:46.223Z</time></trkpt><trkpt lat="45.4201417" lon="10.50421"><ele>124.0</ele><time>2026-05-03T10:09:49.215Z</time></trkpt><trkpt lat="45.420055" lon="10.5042083"><ele>124.00000000000001</ele><time>2026-05-03T10:09:52.215Z</time></trkpt><trkpt lat="45.4199817" lon="10.5041867"><ele>124.0</ele><time>2026-05-03T10:09:55.225Z</time></trkpt><trkpt lat="45.41991" lon="10.5041433"><ele>124.0</ele><time>2026-05-03T10:09:59.222Z</time></trkpt><trkpt lat="45.4198467" lon="10.5041133"><ele>124.0</ele><time>2026-05-03T10:10:02.218Z</time></trkpt><trkpt lat="45.4197833" lon="10.5040567"><ele>124.00000000000001</ele><time>2026-05-03T10:10:05.213Z</time></trkpt><trkpt lat="45.4197483" lon="10.5039583"><ele>124.0</ele><time>2026-05-03T10:10:08.224Z</time></trkpt><trkpt lat="45.4196917" lon="10.5038617"><ele>124.16666666666667</ele><time>2026-05-03T10:10:11.223Z</time></trkpt><trkpt lat="45.41961" lon="10.5037967"><ele>124.33333333333334</ele><time>2026-05-03T10:10:14.215Z</time></trkpt><trkpt lat="45.419525" lon="10.5037317"><ele>124.5</ele><time>2026-05-03T10:10:17.217Z</time></trkpt><trkpt lat="45.41946" lon="10.503685"><ele>124.66666666666666</ele><time>2026-05-03T10:10:19.224Z</time></trkpt><trkpt lat="45.4193967" lon="10.5036333"><ele>124.83333333333333</ele><time>2026-05-03T10:10:21.225Z</time></trkpt><trkpt lat="45.4193333" lon="10.5035817"><ele>125.0</ele><time>2026-05-03T10:10:23.219Z</time></trkpt><trkpt lat="45.4192683" lon="10.5035233"><ele>125.0</ele><time>2026-05-03T10:10:25.222Z</time></trkpt><trkpt lat="45.4192017" lon="10.50346"><ele>125.0</ele><time>2026-05-03T10:10:27.22Z</time></trkpt><trkpt lat="45.4191317" lon="10.5034033"><ele>125.0</ele><time>2026-05-03T10:10:29.223Z</time></trkpt><trkpt lat="45.41906" lon="10.5033617"><ele>125.0</ele><time>2026-05-03T10:10:31.219Z</time></trkpt><trkpt lat="45.41899" lon="10.503325"><ele>125.0</ele><time>2026-05-03T10:10:33.224Z</time></trkpt><trkpt lat="45.4189333" lon="10.5032733"><ele>125.0</ele><time>2026-05-03T10:10:35.22Z</time></trkpt><trkpt lat="45.4188967" lon="10.503195"><ele>125.0</ele><time>2026-05-03T10:10:37.216Z</time></trkpt><trkpt lat="45.4188683" lon="10.5031067"><ele>124.99999999999999</ele><time>2026-05-03T10:10:39.219Z</time></trkpt><trkpt lat="45.4188433" lon="10.503015"><ele>125.0</ele><time>2026-05-03T10:10:41.216Z</time></trkpt><trkpt lat="45.4188117" lon="10.5029283"><ele>125.0</ele><time>2026-05-03T10:10:43.217Z</time></trkpt><trkpt lat="45.4187367" lon="10.5028633"><ele>125.0</ele><time>2026-05-03T10:10:46.222Z</time></trkpt><trkpt lat="45.4186633" lon="10.5028833"><ele>124.99999999999999</ele><time>2026-05-03T10:10:48.223Z</time></trkpt><trkpt lat="45.418575" lon="10.5029017"><ele>125.0</ele><time>2026-05-03T10:10:50.224Z</time></trkpt><trkpt lat="45.4184883" lon="10.502875"><ele>124.99999999999999</ele><time>2026-05-03T10:10:52.219Z</time></trkpt><trkpt lat="45.4184183" lon="10.502825"><ele>125.0</ele><time>2026-05-03T10:10:54.214Z</time></trkpt><trkpt lat="45.4183533" lon="10.5027733"><ele>125.0</ele><time>2026-05-03T10:10:56.219Z</time></trkpt><trkpt lat="45.4182833" lon="10.502705"><ele>125.0</ele><time>2026-05-03T10:10:58.218Z</time></trkpt><trkpt lat="45.418215" lon="10.5026333"><ele>124.99999999999999</ele><time>2026-05-03T10:11:00.224Z</time></trkpt><trkpt lat="45.4181367" lon="10.5025683"><ele>125.0</ele><time>2026-05-03T10:11:02.218Z</time></trkpt><trkpt lat="45.41806" lon="10.502505"><ele>124.2</ele><time>2026-05-03T10:11:04.216Z</time></trkpt><trkpt lat="45.4179817" lon="10.50244"><ele>123.4</ele><time>2026-05-03T10:11:06.216Z</time></trkpt><trkpt lat="45.417905" lon="10.50236"><ele>122.6</ele><time>2026-05-03T10:11:08.216Z</time></trkpt><trkpt lat="45.4178317" lon="10.502265"><ele>121.8</ele><time>2026-05-03T10:11:10.219Z</time></trkpt><trkpt lat="45.4177767" lon="10.502175"><ele>121.0</ele><time>2026-05-03T10:11:12.229Z</time></trkpt><trkpt lat="45.4177217" lon="10.50209"><ele>121.50000000000001</ele><time>2026-05-03T10:11:14.217Z</time></trkpt><trkpt lat="45.417665" lon="10.502"><ele>122.0</ele><time>2026-05-03T10:11:16.216Z</time></trkpt><trkpt lat="45.4176117" lon="10.5019033"><ele>122.5</ele><time>2026-05-03T10:11:18.218Z</time></trkpt><trkpt lat="45.417565" lon="10.5017933"><ele>123.0</ele><time>2026-05-03T10:11:20.219Z</time></trkpt><trkpt lat="45.4175283" lon="10.501685"><ele>123.50000000000001</ele><time>2026-05-03T10:11:22.221Z</time></trkpt><trkpt lat="45.417495" lon="10.501595"><ele>124.0</ele><time>2026-05-03T10:11:24.22Z</time></trkpt><trkpt lat="45.4174567" lon="10.5015233"><ele>124.00000000000001</ele><time>2026-05-03T10:11:26.219Z</time></trkpt><trkpt lat="45.4173867" lon="10.5014717"><ele>124.0</ele><time>2026-05-03T10:11:29.223Z</time></trkpt><trkpt lat="45.4173367" lon="10.5015717"><ele>124.0</ele><time>2026-05-03T10:11:32.218Z</time></trkpt><trkpt lat="45.4173483" lon="10.50168"><ele>124.0</ele><time>2026-05-03T10:11:34.22Z</time></trkpt><trkpt lat="45.4173717" lon="10.5018033"><ele>124.00000000000001</ele><time>2026-05-03T10:11:36.221Z</time></trkpt><trkpt lat="45.4174167" lon="10.5019383"><ele>124.0</ele><time>2026-05-03T10:11:38.217Z</time></trkpt><trkpt lat="45.417465" lon="10.5020783"><ele>123.4</ele><time>2026-05-03T10:11:40.217Z</time></trkpt><trkpt lat="45.4175183" lon="10.502225"><ele>122.80000000000001</ele><time>2026-05-03T10:11:42.224Z</time></trkpt><trkpt lat="45.4175733" lon="10.5023767"><ele>122.19999999999999</ele><time>2026-05-03T10:11:44.228Z</time></trkpt><trkpt lat="45.4176433" lon="10.502525"><ele>121.6</ele><time>2026-05-03T10:11:46.225Z</time></trkpt><trkpt lat="45.417675" lon="10.5026033"><ele>121.0</ele><time>2026-05-03T10:11:47.225Z</time></trkpt><trkpt lat="45.4177267" lon="10.5027583"><ele>121.0</ele><time>2026-05-03T10:11:49.219Z</time></trkpt><trkpt lat="45.417785" lon="10.50291"><ele>121.0</ele><time>2026-05-03T10:11:51.226Z</time></trkpt><trkpt lat="45.4178367" lon="10.5030683"><ele>121.0</ele><time>2026-05-03T10:11:53.226Z</time></trkpt><trkpt lat="45.41786" lon="10.5031533"><ele>121.0</ele><time>2026-05-03T10:11:54.225Z</time></trkpt><trkpt lat="45.417905" lon="10.5033117"><ele>121.0</ele><time>2026-05-03T10:11:56.228Z</time></trkpt><trkpt lat="45.4179617" lon="10.5034683"><ele>120.5</ele><time>2026-05-03T10:11:58.226Z</time></trkpt><trkpt lat="45.4180233" lon="10.5036233"><ele>120.0</ele><time>2026-05-03T10:12:00.225Z</time></trkpt><trkpt lat="45.4180733" lon="10.5037833"><ele>119.5</ele><time>2026-05-03T10:12:02.224Z</time></trkpt><trkpt lat="45.418115" lon="10.5039517"><ele>119.0</ele><time>2026-05-03T10:12:04.221Z</time></trkpt><trkpt lat="45.4181617" lon="10.5041117"><ele>118.75</ele><time>2026-05-03T10:12:06.226Z</time></trkpt><trkpt lat="45.41822" lon="10.5042667"><ele>118.5</ele><time>2026-05-03T10:12:08.224Z</time></trkpt><trkpt lat="45.41828" lon="10.5044117"><ele>118.25</ele><time>2026-05-03T10:12:10.22Z</time></trkpt><trkpt lat="45.4183533" lon="10.5045517"><ele>118.0</ele><time>2026-05-03T10:12:12.219Z</time></trkpt><trkpt lat="45.4184233" lon="10.504695"><ele>118.0</ele><time>2026-05-03T10:12:14.224Z</time></trkpt><trkpt lat="45.4184933" lon="10.5048283"><ele>118.0</ele><time>2026-05-03T10:12:16.223Z</time></trkpt><trkpt lat="45.4185617" lon="10.5049583"><ele>118.0</ele><time>2026-05-03T10:12:18.221Z</time></trkpt><trkpt lat="45.418635" lon="10.5050933"><ele>118.0</ele><time>2026-05-03T10:12:20.224Z</time></trkpt><trkpt lat="45.4187267" lon="10.50521"><ele>118.0</ele><time>2026-05-03T10:12:22.227Z</time></trkpt><trkpt lat="45.418825" lon="10.5053167"><ele>118.00000000000001</ele><time>2026-05-03T10:12:24.227Z</time></trkpt><trkpt lat="45.4188783" lon="10.5053667"><ele>118.00000000000001</ele><time>2026-05-03T10:12:25.226Z</time></trkpt><trkpt lat="45.418975" lon="10.5054667"><ele>118.0</ele><time>2026-05-03T10:12:27.226Z</time></trkpt><trkpt lat="45.4190683" lon="10.5055733"><ele>118.0</ele><time>2026-05-03T10:12:29.224Z</time></trkpt><trkpt lat="45.4191617" lon="10.5056833"><ele>118.25</ele><time>2026-05-03T10:12:31.219Z</time></trkpt><trkpt lat="45.4192533" lon="10.5058017"><ele>118.5</ele><time>2026-05-03T10:12:33.217Z</time></trkpt><trkpt lat="45.419335" lon="10.505925"><ele>118.75</ele><time>2026-05-03T10:12:35.224Z</time></trkpt><trkpt lat="45.419415" lon="10.5060433"><ele>119.0</ele><time>2026-05-03T10:12:37.225Z</time></trkpt><trkpt lat="45.4194867" lon="10.5061617"><ele>118.75</ele><time>2026-05-03T10:12:39.22Z</time></trkpt><trkpt lat="45.41955" lon="10.506295"><ele>118.5</ele><time>2026-05-03T10:12:41.225Z</time></trkpt><trkpt lat="45.4196167" lon="10.506425"><ele>118.25</ele><time>2026-05-03T10:12:43.226Z</time></trkpt><trkpt lat="45.419685" lon="10.5065533"><ele>118.0</ele><time>2026-05-03T10:12:45.221Z</time></trkpt><trkpt lat="45.419755" lon="10.5066817"><ele>118.2</ele><time>2026-05-03T10:12:47.219Z</time></trkpt><trkpt lat="45.41981" lon="10.5067933"><ele>118.4</ele><time>2026-05-03T10:12:49.22Z</time></trkpt><trkpt lat="45.41987" lon="10.5069"><ele>118.60000000000001</ele><time>2026-05-03T10:12:51.223Z</time></trkpt><trkpt lat="45.4199383" lon="10.5070133"><ele>118.80000000000001</ele><time>2026-05-03T10:12:53.228Z</time></trkpt><trkpt lat="45.42" lon="10.5071483"><ele>119.0</ele><time>2026-05-03T10:12:55.227Z</time></trkpt><trkpt lat="45.4200567" lon="10.5072783"><ele>119.0</ele><time>2026-05-03T10:12:57.224Z</time></trkpt><trkpt lat="45.42012" lon="10.5074217"><ele>119.0</ele><time>2026-05-03T10:12:59.22Z</time></trkpt><trkpt lat="45.4201917" lon="10.507545"><ele>119.0</ele><time>2026-05-03T10:13:01.226Z</time></trkpt><trkpt lat="45.4202717" lon="10.5076833"><ele>119.0</ele><time>2026-05-03T10:13:03.219Z</time></trkpt><trkpt lat="45.42034" lon="10.507835"><ele>118.85714285714286</ele><time>2026-05-03T10:13:05.223Z</time></trkpt><trkpt lat="45.42037" lon="10.507915"><ele>118.71428571428572</ele><time>2026-05-03T10:13:06.226Z</time></trkpt><trkpt lat="45.4204017" lon="10.5079933"><ele>118.57142857142857</ele><time>2026-05-03T10:13:07.224Z</time></trkpt><trkpt lat="45.4204317" lon="10.5080767"><ele>118.42857142857143</ele><time>2026-05-03T10:13:08.228Z</time></trkpt><trkpt lat="45.4204583" lon="10.5081633"><ele>118.28571428571429</ele><time>2026-05-03T10:13:09.223Z</time></trkpt><trkpt lat="45.4204833" lon="10.50825"><ele>118.14285714285714</ele><time>2026-05-03T10:13:10.225Z</time></trkpt><trkpt lat="45.420515" lon="10.5083317"><ele>118.0</ele><time>2026-05-03T10:13:11.226Z</time></trkpt><trkpt lat="45.420545" lon="10.5084133"><ele>118.33333333333334</ele><time>2026-05-03T10:13:12.226Z</time></trkpt><trkpt lat="45.4205733" lon="10.5084967"><ele>118.66666666666667</ele><time>2026-05-03T10:13:13.224Z</time></trkpt><trkpt lat="45.4205983" lon="10.508585"><ele>119.0</ele><time>2026-05-03T10:13:14.224Z</time></trkpt><trkpt lat="45.4206233" lon="10.5086717"><ele>119.33333333333334</ele><time>2026-05-03T10:13:15.217Z</time></trkpt><trkpt lat="45.4206517" lon="10.508755"><ele>119.66666666666667</ele><time>2026-05-03T10:13:16.216Z</time></trkpt><trkpt lat="45.420695" lon="10.5089217"><ele>120.0</ele><time>2026-05-03T10:13:18.226Z</time></trkpt><trkpt lat="45.4207317" lon="10.5090883"><ele>119.6</ele><time>2026-05-03T10:13:20.226Z</time></trkpt><trkpt lat="45.4207733" lon="10.5092583"><ele>119.2</ele><time>2026-05-03T10:13:22.22Z</time></trkpt><trkpt lat="45.4207967" lon="10.5093433"><ele>118.80000000000001</ele><time>2026-05-03T10:13:23.225Z</time></trkpt><trkpt lat="45.42082" lon="10.5094267"><ele>118.4</ele><time>2026-05-03T10:13:24.228Z</time></trkpt><trkpt lat="45.4208717" lon="10.50958"><ele>118.0</ele><time>2026-05-03T10:13:26.226Z</time></trkpt><trkpt lat="45.42093" lon="10.5097183"><ele>118.0</ele><time>2026-05-03T10:13:28.222Z</time></trkpt><trkpt lat="45.421005" lon="10.5098417"><ele>118.0</ele><time>2026-05-03T10:13:30.222Z</time></trkpt><trkpt lat="45.4211" lon="10.5099483"><ele>118.0</ele><time>2026-05-03T10:13:32.225Z</time></trkpt><trkpt lat="45.4211983" lon="10.5100333"><ele>118.0</ele><time>2026-05-03T10:13:34.218Z</time></trkpt><trkpt lat="45.4212783" lon="10.5101417"><ele>118.0</ele><time>2026-05-03T10:13:36.22Z</time></trkpt><trkpt lat="45.4213117" lon="10.510285"><ele>118.00000000000001</ele><time>2026-05-03T10:13:38.23Z</time></trkpt><trkpt lat="45.4212567" lon="10.5103867"><ele>118.00000000000001</ele><time>2026-05-03T10:13:40.226Z</time></trkpt><trkpt lat="45.4211583" lon="10.5104"><ele>118.0</ele><time>2026-05-03T10:13:42.221Z</time></trkpt><trkpt lat="45.4210683" lon="10.510385"><ele>118.0</ele><time>2026-05-03T10:13:44.227Z</time></trkpt><trkpt lat="45.4209917" lon="10.5104033"><ele>118.80000000000001</ele><time>2026-05-03T10:13:46.222Z</time></trkpt><trkpt lat="45.4209117" lon="10.5104617"><ele>119.60000000000001</ele><time>2026-05-03T10:13:48.219Z</time></trkpt><trkpt lat="45.4208383" lon="10.51053"><ele>120.39999999999999</ele><time>2026-05-03T10:13:50.223Z</time></trkpt><trkpt lat="45.4207683" lon="10.5106183"><ele>121.19999999999999</ele><time>2026-05-03T10:13:52.221Z</time></trkpt><trkpt lat="45.4206983" lon="10.510715"><ele>122.0</ele><time>2026-05-03T10:13:54.227Z</time></trkpt><trkpt lat="45.420645" lon="10.510825"><ele>121.99999999999999</ele><time>2026-05-03T10:13:56.225Z</time></trkpt><trkpt lat="45.4205967" lon="10.51092"><ele>122.0</ele><time>2026-05-03T10:13:58.224Z</time></trkpt><trkpt lat="45.42053" lon="10.5109833"><ele>122.0</ele><time>2026-05-03T10:14:00.223Z</time></trkpt><trkpt lat="45.420455" lon="10.511035"><ele>122.0</ele><time>2026-05-03T10:14:02.224Z</time></trkpt><trkpt lat="45.4204383" lon="10.5111483"><ele>121.99999999999999</ele><time>2026-05-03T10:14:04.223Z</time></trkpt><trkpt lat="45.420445" lon="10.51128"><ele>122.0</ele><time>2026-05-03T10:14:06.221Z</time></trkpt><trkpt lat="45.420425" lon="10.51138"><ele>121.83333333333333</ele><time>2026-05-03T10:14:08.223Z</time></trkpt><trkpt lat="45.42044" lon="10.5114983"><ele>121.66666666666666</ele><time>2026-05-03T10:14:10.218Z</time></trkpt><trkpt lat="45.4204283" lon="10.5116117"><ele>121.5</ele><time>2026-05-03T10:14:12.224Z</time></trkpt><trkpt lat="45.420365" lon="10.5116567"><ele>121.33333333333334</ele><time>2026-05-03T10:14:14.226Z</time></trkpt><trkpt lat="45.4202817" lon="10.5116267"><ele>121.16666666666667</ele><time>2026-05-03T10:14:16.225Z</time></trkpt><trkpt lat="45.4201883" lon="10.51159"><ele>121.0</ele><time>2026-05-03T10:14:18.228Z</time></trkpt><trkpt lat="45.4200883" lon="10.511565"><ele>121.0</ele><time>2026-05-03T10:14:20.224Z</time></trkpt><trkpt lat="45.4199917" lon="10.511535"><ele>121.0</ele><time>2026-05-03T10:14:22.219Z</time></trkpt><trkpt lat="45.4198933" lon="10.5115"><ele>121.0</ele><time>2026-05-03T10:14:24.228Z</time></trkpt><trkpt lat="45.4198" lon="10.51148"><ele>121.0</ele><time>2026-05-03T10:14:26.228Z</time></trkpt><trkpt lat="45.4197117" lon="10.5114517"><ele>121.0</ele><time>2026-05-03T10:14:28.223Z</time></trkpt><trkpt lat="45.4196333" lon="10.5114067"><ele>121.16666666666667</ele><time>2026-05-03T10:14:30.221Z</time></trkpt><trkpt lat="45.4196033" lon="10.5115033"><ele>121.33333333333334</ele><time>2026-05-03T10:14:35.218Z</time></trkpt><trkpt lat="45.41961" lon="10.51163"><ele>121.5</ele><time>2026-05-03T10:14:38.225Z</time></trkpt><trkpt lat="45.419605" lon="10.5117367"><ele>121.66666666666666</ele><time>2026-05-03T10:14:40.216Z</time></trkpt><trkpt lat="45.41961" lon="10.5118567"><ele>121.83333333333333</ele><time>2026-05-03T10:14:42.223Z</time></trkpt><trkpt lat="45.4196167" lon="10.5119817"><ele>122.0</ele><time>2026-05-03T10:14:44.22Z</time></trkpt><trkpt lat="45.4196333" lon="10.5121117"><ele>121.99999999999999</ele><time>2026-05-03T10:14:46.223Z</time></trkpt><trkpt lat="45.4196433" lon="10.51224"><ele>122.0</ele><time>2026-05-03T10:14:48.226Z</time></trkpt><trkpt lat="45.41965" lon="10.5123733"><ele>122.0</ele><time>2026-05-03T10:14:50.224Z</time></trkpt><trkpt lat="45.419655" lon="10.5124933"><ele>122.0</ele><time>2026-05-03T10:14:52.215Z</time></trkpt><trkpt lat="45.4196583" lon="10.5125983"><ele>121.99999999999999</ele><time>2026-05-03T10:14:54.217Z</time></trkpt><trkpt lat="45.4196267" lon="10.51269"><ele>122.0</ele><time>2026-05-03T10:14:57.214Z</time></trkpt><trkpt lat="45.4195517" lon="10.5127317"><ele>121.99999999999999</ele><time>2026-05-03T10:14:59.217Z</time></trkpt><trkpt lat="45.4194733" lon="10.512745"><ele>122.0</ele><time>2026-05-03T10:15:01.218Z</time></trkpt><trkpt lat="45.4194" lon="10.51275"><ele>122.0</ele><time>2026-05-03T10:15:03.227Z</time></trkpt><trkpt lat="45.4193183" lon="10.512765"><ele>122.0</ele><time>2026-05-03T10:15:05.215Z</time></trkpt><trkpt lat="45.4192333" lon="10.5127767"><ele>121.99999999999999</ele><time>2026-05-03T10:15:07.219Z</time></trkpt><trkpt lat="45.4191467" lon="10.51279"><ele>122.0</ele><time>2026-05-03T10:15:09.22Z</time></trkpt><trkpt lat="45.4190583" lon="10.5127917"><ele>121.99999999999999</ele><time>2026-05-03T10:15:11.218Z</time></trkpt><trkpt lat="45.4189717" lon="10.5127883"><ele>122.0</ele><time>2026-05-03T10:15:13.218Z</time></trkpt><trkpt lat="45.4188867" lon="10.5127967"><ele>122.0</ele><time>2026-05-03T10:15:15.218Z</time></trkpt><trkpt lat="45.4188083" lon="10.5128033"><ele>122.0</ele><time>2026-05-03T10:15:17.214Z</time></trkpt><trkpt lat="45.4187233" lon="10.5128183"><ele>121.99999999999999</ele><time>2026-05-03T10:15:19.218Z</time></trkpt><trkpt lat="45.4186417" lon="10.51283"><ele>122.0</ele><time>2026-05-03T10:15:21.214Z</time></trkpt><trkpt lat="45.418555" lon="10.51283"><ele>121.16666666666666</ele><time>2026-05-03T10:15:23.217Z</time></trkpt><trkpt lat="45.4184683" lon="10.5128367"><ele>120.33333333333333</ele><time>2026-05-03T10:15:25.219Z</time></trkpt><trkpt lat="45.41838" lon="10.5128367"><ele>119.5</ele><time>2026-05-03T10:15:27.224Z</time></trkpt><trkpt lat="45.4182917" lon="10.5128433"><ele>118.66666666666666</ele><time>2026-05-03T10:15:29.213Z</time></trkpt><trkpt lat="45.4182083" lon="10.5128417"><ele>117.83333333333333</ele><time>2026-05-03T10:15:31.235Z</time></trkpt><trkpt lat="45.418125" lon="10.5128383"><ele>117.0</ele><time>2026-05-03T10:15:33.216Z</time></trkpt><trkpt lat="45.41804" lon="10.5128483"><ele>116.71428571428572</ele><time>2026-05-03T10:15:35.222Z</time></trkpt><trkpt lat="45.4179683" lon="10.5128567"><ele>116.42857142857144</ele><time>2026-05-03T10:15:37.225Z</time></trkpt><trkpt lat="45.417905" lon="10.5128533"><ele>116.14285714285714</ele><time>2026-05-03T10:15:39.217Z</time></trkpt><trkpt lat="45.4178117" lon="10.512875"><ele>115.85714285714286</ele><time>2026-05-03T10:15:42.225Z</time></trkpt><trkpt lat="45.4177433" lon="10.5128933"><ele>115.57142857142857</ele><time>2026-05-03T10:15:44.216Z</time></trkpt><trkpt lat="45.4176717" lon="10.5128967"><ele>115.28571428571428</ele><time>2026-05-03T10:15:46.214Z</time></trkpt><trkpt lat="45.4176067" lon="10.5128967"><ele>114.99999999999999</ele><time>2026-05-03T10:15:48.219Z</time></trkpt><trkpt lat="45.4175167" lon="10.5129"><ele>115.00000000000001</ele><time>2026-05-03T10:15:51.219Z</time></trkpt><trkpt lat="45.4174267" lon="10.5128983"><ele>115.0</ele><time>2026-05-03T10:15:54.218Z</time></trkpt><trkpt lat="45.4173517" lon="10.5129"><ele>115.0</ele><time>2026-05-03T10:15:56.215Z</time></trkpt><trkpt lat="45.4172733" lon="10.5129067"><ele>115.0</ele><time>2026-05-03T10:15:58.212Z</time></trkpt><trkpt lat="45.41719" lon="10.5129167"><ele>115.00000000000001</ele><time>2026-05-03T10:16:00.217Z</time></trkpt><trkpt lat="45.417105" lon="10.5129233"><ele>115.0</ele><time>2026-05-03T10:16:02.222Z</time></trkpt><trkpt lat="45.4170217" lon="10.512925"><ele>114.83333333333334</ele><time>2026-05-03T10:16:04.212Z</time></trkpt><trkpt lat="45.4169367" lon="10.5129283"><ele>114.66666666666667</ele><time>2026-05-03T10:16:06.216Z</time></trkpt><trkpt lat="45.4168517" lon="10.512925"><ele>114.5</ele><time>2026-05-03T10:16:08.215Z</time></trkpt><trkpt lat="45.41677" lon="10.5129183"><ele>114.33333333333334</ele><time>2026-05-03T10:16:10.215Z</time></trkpt><trkpt lat="45.4166767" lon="10.5129383"><ele>114.16666666666667</ele><time>2026-05-03T10:16:12.212Z</time></trkpt><trkpt lat="45.4165883" lon="10.512945"><ele>114.0</ele><time>2026-05-03T10:16:14.223Z</time></trkpt><trkpt lat="45.416495" lon="10.512955"><ele>114.0</ele><time>2026-05-03T10:16:16.219Z</time></trkpt><trkpt lat="45.4164" lon="10.512965"><ele>114.0</ele><time>2026-05-03T10:16:18.213Z</time></trkpt><trkpt lat="45.4163033" lon="10.51298"><ele>114.0</ele><time>2026-05-03T10:16:20.218Z</time></trkpt><trkpt lat="45.416205" lon="10.5129867"><ele>114.0</ele><time>2026-05-03T10:16:22.223Z</time></trkpt><trkpt lat="45.4161117" lon="10.51299"><ele>114.0</ele><time>2026-05-03T10:16:24.226Z</time></trkpt><trkpt lat="45.41601" lon="10.513005"><ele>114.4</ele><time>2026-05-03T10:16:26.227Z</time></trkpt><trkpt lat="45.4159117" lon="10.5130167"><ele>114.80000000000001</ele><time>2026-05-03T10:16:28.22Z</time></trkpt><trkpt lat="45.4158167" lon="10.5130083"><ele>115.19999999999999</ele><time>2026-05-03T10:16:30.225Z</time></trkpt><trkpt lat="45.4157083" lon="10.5130033"><ele>115.6</ele><time>2026-05-03T10:16:32.224Z</time></trkpt><trkpt lat="45.4155967" lon="10.5129967"><ele>116.0</ele><time>2026-05-03T10:16:34.22Z</time></trkpt><trkpt lat="45.4154867" lon="10.5129917"><ele>116.19999999999999</ele><time>2026-05-03T10:16:36.226Z</time></trkpt><trkpt lat="45.4153767" lon="10.5129783"><ele>116.39999999999999</ele><time>2026-05-03T10:16:38.224Z</time></trkpt><trkpt lat="45.4152717" lon="10.512965"><ele>116.6</ele><time>2026-05-03T10:16:40.216Z</time></trkpt><trkpt lat="45.4151733" lon="10.5129617"><ele>116.8</ele><time>2026-05-03T10:16:42.22Z</time></trkpt><trkpt lat="45.4150883" lon="10.512955"><ele>117.0</ele><time>2026-05-03T10:16:44.223Z</time></trkpt><trkpt lat="45.41501" lon="10.5130283"><ele>117.0</ele><time>2026-05-03T10:16:47.218Z</time></trkpt><trkpt lat="45.4149983" lon="10.5131783"><ele>116.99999999999999</ele><time>2026-05-03T10:16:49.216Z</time></trkpt><trkpt lat="45.414995" lon="10.5133167"><ele>116.99999999999999</ele><time>2026-05-03T10:16:51.222Z</time></trkpt><trkpt lat="45.4149783" lon="10.5134483"><ele>117.0</ele><time>2026-05-03T10:16:53.219Z</time></trkpt><trkpt lat="45.4149683" lon="10.5135933"><ele>117.0</ele><time>2026-05-03T10:16:55.214Z</time></trkpt><trkpt lat="45.4149867" lon="10.5137433"><ele>116.8</ele><time>2026-05-03T10:16:57.219Z</time></trkpt><trkpt lat="45.414975" lon="10.5138917"><ele>116.6</ele><time>2026-05-03T10:16:59.223Z</time></trkpt><trkpt lat="45.414905" lon="10.5140083"><ele>116.39999999999999</ele><time>2026-05-03T10:17:01.22Z</time></trkpt><trkpt lat="45.41478" lon="10.5140317"><ele>116.19999999999999</ele><time>2026-05-03T10:17:03.223Z</time></trkpt><trkpt lat="45.414715" lon="10.5140283"><ele>116.0</ele><time>2026-05-03T10:17:04.225Z</time></trkpt><trkpt lat="45.414595" lon="10.5140267"><ele>116.0</ele><time>2026-05-03T10:17:06.225Z</time></trkpt><trkpt lat="45.4144767" lon="10.5140167"><ele>116.0</ele><time>2026-05-03T10:17:08.226Z</time></trkpt><trkpt lat="45.41436" lon="10.5140167"><ele>116.0</ele><time>2026-05-03T10:17:10.22Z</time></trkpt><trkpt lat="45.41424" lon="10.5140433"><ele>116.0</ele><time>2026-05-03T10:17:12.223Z</time></trkpt><trkpt lat="45.41413" lon="10.5141017"><ele>116.0</ele><time>2026-05-03T10:17:14.227Z</time></trkpt><trkpt lat="45.414075" lon="10.51415"><ele>116.0</ele><time>2026-05-03T10:17:15.221Z</time></trkpt><trkpt lat="45.4140217" lon="10.5141983"><ele>116.0</ele><time>2026-05-03T10:17:16.224Z</time></trkpt><trkpt lat="45.41391" lon="10.5142617"><ele>116.0</ele><time>2026-05-03T10:17:18.224Z</time></trkpt><trkpt lat="45.413795" lon="10.5142967"><ele>116.0</ele><time>2026-05-03T10:17:20.226Z</time></trkpt><trkpt lat="45.413685" lon="10.5143283"><ele>116.0</ele><time>2026-05-03T10:17:22.224Z</time></trkpt><trkpt lat="45.4135767" lon="10.51437"><ele>116.0</ele><time>2026-05-03T10:17:24.225Z</time></trkpt><trkpt lat="45.4134883" lon="10.5144433"><ele>116.0</ele><time>2026-05-03T10:17:26.224Z</time></trkpt><trkpt lat="45.4134283" lon="10.5145783"><ele>116.0</ele><time>2026-05-03T10:17:28.221Z</time></trkpt><trkpt lat="45.4134033" lon="10.514725"><ele>116.0</ele><time>2026-05-03T10:17:30.222Z</time></trkpt><trkpt lat="45.4133783" lon="10.514875"><ele>116.0</ele><time>2026-05-03T10:17:32.223Z</time></trkpt><trkpt lat="45.4133517" lon="10.515025"><ele>116.0</ele><time>2026-05-03T10:17:34.223Z</time></trkpt><trkpt lat="45.4133283" lon="10.5151817"><ele>116.0</ele><time>2026-05-03T10:17:36.225Z</time></trkpt><trkpt lat="45.4132917" lon="10.5153267"><ele>116.0</ele><time>2026-05-03T10:17:38.222Z</time></trkpt><trkpt lat="45.413245" lon="10.5154817"><ele>116.0</ele><time>2026-05-03T10:17:40.221Z</time></trkpt><trkpt lat="45.4131983" lon="10.5156417"><ele>116.0</ele><time>2026-05-03T10:17:42.218Z</time></trkpt><trkpt lat="45.4131517" lon="10.5157983"><ele>116.0</ele><time>2026-05-03T10:17:44.227Z</time></trkpt><trkpt lat="45.4130967" lon="10.51595"><ele>116.0</ele><time>2026-05-03T10:17:46.224Z</time></trkpt><trkpt lat="45.4130417" lon="10.516105"><ele>116.0</ele><time>2026-05-03T10:17:48.225Z</time></trkpt><trkpt lat="45.412985" lon="10.5162617"><ele>115.5</ele><time>2026-05-03T10:17:50.224Z</time></trkpt><trkpt lat="45.4129283" lon="10.516415"><ele>115.0</ele><time>2026-05-03T10:17:52.217Z</time></trkpt><trkpt lat="45.41288" lon="10.5165783"><ele>114.5</ele><time>2026-05-03T10:17:54.217Z</time></trkpt><trkpt lat="45.41283" lon="10.5167333"><ele>114.0</ele><time>2026-05-03T10:17:56.224Z</time></trkpt><trkpt lat="45.41278" lon="10.5168867"><ele>114.0</ele><time>2026-05-03T10:17:58.217Z</time></trkpt><trkpt lat="45.4127333" lon="10.51704"><ele>114.0</ele><time>2026-05-03T10:18:00.219Z</time></trkpt><trkpt lat="45.4126883" lon="10.5171917"><ele>114.0</ele><time>2026-05-03T10:18:02.215Z</time></trkpt><trkpt lat="45.4126517" lon="10.5173433"><ele>114.0</ele><time>2026-05-03T10:18:04.215Z</time></trkpt><trkpt lat="45.412585" lon="10.5174833"><ele>114.0</ele><time>2026-05-03T10:18:06.224Z</time></trkpt><trkpt lat="45.412505" lon="10.5176033"><ele>114.0</ele><time>2026-05-03T10:18:08.224Z</time></trkpt><trkpt lat="45.4124217" lon="10.5177067"><ele>114.0</ele><time>2026-05-03T10:18:10.224Z</time></trkpt><trkpt lat="45.4123433" lon="10.5178017"><ele>114.0</ele><time>2026-05-03T10:18:12.22Z</time></trkpt><trkpt lat="45.4122667" lon="10.517885"><ele>114.0</ele><time>2026-05-03T10:18:14.223Z</time></trkpt><trkpt lat="45.4121917" lon="10.517965"><ele>115.0</ele><time>2026-05-03T10:18:16.223Z</time></trkpt><trkpt lat="45.4121117" lon="10.51804"><ele>116.0</ele><time>2026-05-03T10:18:18.217Z</time></trkpt><trkpt lat="45.4120267" lon="10.518135"><ele>117.0</ele><time>2026-05-03T10:18:20.23Z</time></trkpt><trkpt lat="45.4119467" lon="10.5182417"><ele>118.0</ele><time>2026-05-03T10:18:22.218Z</time></trkpt><trkpt lat="45.4118817" lon="10.5183683"><ele>119.0</ele><time>2026-05-03T10:18:24.225Z</time></trkpt><trkpt lat="45.41182" lon="10.5185083"><ele>118.99999999999999</ele><time>2026-05-03T10:18:26.23Z</time></trkpt><trkpt lat="45.4117567" lon="10.5186317"><ele>119.0</ele><time>2026-05-03T10:18:28.224Z</time></trkpt><trkpt lat="45.4116983" lon="10.5187383"><ele>119.0</ele><time>2026-05-03T10:18:30.222Z</time></trkpt><trkpt lat="45.41165" lon="10.518835"><ele>119.0</ele><time>2026-05-03T10:18:32.223Z</time></trkpt><trkpt lat="45.4116017" lon="10.5189167"><ele>118.99999999999999</ele><time>2026-05-03T10:18:34.222Z</time></trkpt><trkpt lat="45.4115583" lon="10.5190017"><ele>119.0</ele><time>2026-05-03T10:18:36.217Z</time></trkpt><trkpt lat="45.4115183" lon="10.5190783"><ele>118.99999999999999</ele><time>2026-05-03T10:18:38.222Z</time></trkpt><trkpt lat="45.4114617" lon="10.5191583"><ele>119.0</ele><time>2026-05-03T10:18:41.218Z</time></trkpt><trkpt lat="45.411425" lon="10.5192833"><ele>119.0</ele><time>2026-05-03T10:18:44.222Z</time></trkpt><trkpt lat="45.4114583" lon="10.5194"><ele>119.0</ele><time>2026-05-03T10:18:46.216Z</time></trkpt><trkpt lat="45.4115017" lon="10.5194917"><ele>118.99999999999999</ele><time>2026-05-03T10:18:48.223Z</time></trkpt><trkpt lat="45.411565" lon="10.5195917"><ele>119.0</ele><time>2026-05-03T10:18:50.222Z</time></trkpt><trkpt lat="45.411595" lon="10.5197183"><ele>118.6</ele><time>2026-05-03T10:18:52.223Z</time></trkpt><trkpt lat="45.4116033" lon="10.5198633"><ele>118.2</ele><time>2026-05-03T10:18:54.226Z</time></trkpt><trkpt lat="45.411605" lon="10.5200133"><ele>117.79999999999998</ele><time>2026-05-03T10:18:56.229Z</time></trkpt><trkpt lat="45.4116" lon="10.5201683"><ele>117.39999999999999</ele><time>2026-05-03T10:18:58.223Z</time></trkpt><trkpt lat="45.411595" lon="10.5203283"><ele>117.0</ele><time>2026-05-03T10:19:00.222Z</time></trkpt><trkpt lat="45.41159" lon="10.52049"><ele>116.8</ele><time>2026-05-03T10:19:02.224Z</time></trkpt><trkpt lat="45.4115817" lon="10.5206517"><ele>116.6</ele><time>2026-05-03T10:19:04.221Z</time></trkpt><trkpt lat="45.4115933" lon="10.52081"><ele>116.39999999999999</ele><time>2026-05-03T10:19:06.218Z</time></trkpt><trkpt lat="45.411645" lon="10.5209467"><ele>116.19999999999999</ele><time>2026-05-03T10:19:08.226Z</time></trkpt><trkpt lat="45.4117317" lon="10.5210433"><ele>116.0</ele><time>2026-05-03T10:19:10.219Z</time></trkpt><trkpt lat="45.4118333" lon="10.5211133"><ele>116.0</ele><time>2026-05-03T10:19:12.226Z</time></trkpt><trkpt lat="45.4119417" lon="10.5211667"><ele>116.0</ele><time>2026-05-03T10:19:14.228Z</time></trkpt><trkpt lat="45.412045" lon="10.5212317"><ele>116.0</ele><time>2026-05-03T10:19:16.222Z</time></trkpt><trkpt lat="45.4121317" lon="10.5213383"><ele>116.0</ele><time>2026-05-03T10:19:18.222Z</time></trkpt><trkpt lat="45.412175" lon="10.5215083"><ele>116.16666666666666</ele><time>2026-05-03T10:19:20.222Z</time></trkpt><trkpt lat="45.4121817" lon="10.5216033"><ele>116.33333333333333</ele><time>2026-05-03T10:19:21.225Z</time></trkpt><trkpt lat="45.41218" lon="10.5216983"><ele>116.5</ele><time>2026-05-03T10:19:22.224Z</time></trkpt><trkpt lat="45.41217" lon="10.5217883"><ele>116.66666666666666</ele><time>2026-05-03T10:19:23.222Z</time></trkpt><trkpt lat="45.4121417" lon="10.5219583"><ele>116.83333333333333</ele><time>2026-05-03T10:19:25.218Z</time></trkpt><trkpt lat="45.4120917" lon="10.5221033"><ele>117.0</ele><time>2026-05-03T10:19:27.221Z</time></trkpt><trkpt lat="45.411995" lon="10.5221683"><ele>117.0</ele><time>2026-05-03T10:19:29.223Z</time></trkpt><trkpt lat="45.41189" lon="10.5221267"><ele>116.99999999999999</ele><time>2026-05-03T10:19:31.219Z</time></trkpt><trkpt lat="45.4117933" lon="10.5220583"><ele>116.99999999999999</ele><time>2026-05-03T10:19:33.224Z</time></trkpt><trkpt lat="45.4116933" lon="10.522"><ele>117.0</ele><time>2026-05-03T10:19:35.221Z</time></trkpt><trkpt lat="45.41159" lon="10.52196"><ele>117.0</ele><time>2026-05-03T10:19:37.225Z</time></trkpt><trkpt lat="45.4114833" lon="10.521935"><ele>117.0</ele><time>2026-05-03T10:19:39.225Z</time></trkpt><trkpt lat="45.411375" lon="10.5219283"><ele>116.99999999999999</ele><time>2026-05-03T10:19:41.222Z</time></trkpt><trkpt lat="45.4112717" lon="10.5219317"><ele>116.99999999999999</ele><time>2026-05-03T10:19:43.217Z</time></trkpt><trkpt lat="45.4111633" lon="10.5219533"><ele>117.0</ele><time>2026-05-03T10:19:45.225Z</time></trkpt><trkpt lat="45.4110583" lon="10.52198"><ele>117.0</ele><time>2026-05-03T10:19:47.226Z</time></trkpt><trkpt lat="45.4109583" lon="10.5219983"><ele>117.0</ele><time>2026-05-03T10:19:49.226Z</time></trkpt><trkpt lat="45.4108683" lon="10.5220417"><ele>117.0</ele><time>2026-05-03T10:19:51.224Z</time></trkpt><trkpt lat="45.4107633" lon="10.52208"><ele>117.0</ele><time>2026-05-03T10:19:53.223Z</time></trkpt><trkpt lat="45.41217" lon="10.5217883"><ele>117.0</ele><time>2026-05-03T10:19:23.222Z</time></trkpt><trkpt lat="45.4121417" lon="10.5219583"><ele>117.0</ele><time>2026-05-03T10:19:25.218Z</time></trkpt><trkpt lat="45.4120917" lon="10.5221033"><ele>117.0</ele><time>2026-05-03T10:19:27.221Z</time></trkpt><trkpt lat="45.411995" lon="10.5221683"><ele>117.0</ele><time>2026-05-03T10:19:29.223Z</time></trkpt><trkpt lat="45.41189" lon="10.5221267"><ele>117.0</ele><time>2026-05-03T10:19:31.219Z</time></trkpt><trkpt lat="45.4117933" lon="10.5220583"><ele>116.99999999999999</ele><time>2026-05-03T10:19:33.224Z</time></trkpt><trkpt lat="45.4116933" lon="10.522"><ele>116.99999999999999</ele><time>2026-05-03T10:19:35.221Z</time></trkpt><trkpt lat="45.41159" lon="10.52196"><ele>117.0</ele><time>2026-05-03T10:19:37.225Z</time></trkpt><trkpt lat="45.4114833" lon="10.521935"><ele>117.0</ele><time>2026-05-03T10:19:39.225Z</time></trkpt><trkpt lat="45.411375" lon="10.5219283"><ele>117.19999999999999</ele><time>2026-05-03T10:19:41.222Z</time></trkpt><trkpt lat="45.4112717" lon="10.5219317"><ele>117.39999999999999</ele><time>2026-05-03T10:19:43.217Z</time></trkpt><trkpt lat="45.4111633" lon="10.5219533"><ele>117.60000000000001</ele><time>2026-05-03T10:19:45.225Z</time></trkpt><trkpt lat="45.4110583" lon="10.52198"><ele>117.80000000000001</ele><time>2026-05-03T10:19:47.226Z</time></trkpt><trkpt lat="45.4109583" lon="10.5219983"><ele>118.0</ele><time>2026-05-03T10:19:49.226Z</time></trkpt><trkpt lat="45.4108683" lon="10.5220417"><ele>117.80000000000001</ele><time>2026-05-03T10:19:51.224Z</time></trkpt><trkpt lat="45.4107633" lon="10.52208"><ele>117.60000000000001</ele><time>2026-05-03T10:19:53.223Z</time></trkpt><trkpt lat="45.4106517" lon="10.5221267"><ele>117.39999999999999</ele><time>2026-05-03T10:19:55.215Z</time></trkpt><trkpt lat="45.4105467" lon="10.5221733"><ele>117.19999999999999</ele><time>2026-05-03T10:19:57.218Z</time></trkpt><trkpt lat="45.4104417" lon="10.522235"><ele>117.0</ele><time>2026-05-03T10:19:59.223Z</time></trkpt><trkpt lat="45.4103317" lon="10.52229"><ele>117.6</ele><time>2026-05-03T10:20:01.225Z</time></trkpt><trkpt lat="45.41023" lon="10.5223317"><ele>118.19999999999999</ele><time>2026-05-03T10:20:03.221Z</time></trkpt><trkpt lat="45.4101233" lon="10.5223733"><ele>118.8</ele><time>2026-05-03T10:20:05.219Z</time></trkpt><trkpt lat="45.4100167" lon="10.52242"><ele>119.4</ele><time>2026-05-03T10:20:07.218Z</time></trkpt><trkpt lat="45.40991" lon="10.5224633"><ele>120.0</ele><time>2026-05-03T10:20:09.225Z</time></trkpt><trkpt lat="45.4098033" lon="10.52251"><ele>120.0</ele><time>2026-05-03T10:20:11.223Z</time></trkpt><trkpt lat="45.4096967" lon="10.522555"><ele>120.0</ele><time>2026-05-03T10:20:13.22Z</time></trkpt><trkpt lat="45.4095967" lon="10.5225983"><ele>120.0</ele><time>2026-05-03T10:20:15.218Z</time></trkpt><trkpt lat="45.4094983" lon="10.5226333"><ele>120.0</ele><time>2026-05-03T10:20:17.218Z</time></trkpt><trkpt lat="45.409405" lon="10.5226733"><ele>120.0</ele><time>2026-05-03T10:20:19.225Z</time></trkpt><trkpt lat="45.4093183" lon="10.522715"><ele>119.83333333333333</ele><time>2026-05-03T10:20:21.223Z</time></trkpt><trkpt lat="45.40923" lon="10.5227567"><ele>119.66666666666666</ele><time>2026-05-03T10:20:23.219Z</time></trkpt><trkpt lat="45.4091483" lon="10.5227967"><ele>119.5</ele><time>2026-05-03T10:20:25.224Z</time></trkpt><trkpt lat="45.4090667" lon="10.522835"><ele>119.33333333333333</ele><time>2026-05-03T10:20:27.222Z</time></trkpt><trkpt lat="45.408995" lon="10.52286"><ele>119.16666666666666</ele><time>2026-05-03T10:20:29.222Z</time></trkpt><trkpt lat="45.40892" lon="10.52289"><ele>119.0</ele><time>2026-05-03T10:20:31.222Z</time></trkpt><trkpt lat="45.4088317" lon="10.5229217"><ele>120.33333333333333</ele><time>2026-05-03T10:20:33.222Z</time></trkpt><trkpt lat="45.408745" lon="10.52297"><ele>121.66666666666666</ele><time>2026-05-03T10:20:35.225Z</time></trkpt><trkpt lat="45.4086583" lon="10.523015"><ele>123.0</ele><time>2026-05-03T10:20:37.214Z</time></trkpt><trkpt lat="45.4085667" lon="10.5230467"><ele>124.33333333333334</ele><time>2026-05-03T10:20:39.214Z</time></trkpt><trkpt lat="45.408485" lon="10.5230517"><ele>125.66666666666667</ele><time>2026-05-03T10:20:41.218Z</time></trkpt><trkpt lat="45.4084067" lon="10.5230733"><ele>127.0</ele><time>2026-05-03T10:20:43.214Z</time></trkpt><trkpt lat="45.4083317" lon="10.52312"><ele>127.0</ele><time>2026-05-03T10:20:45.209Z</time></trkpt><trkpt lat="45.4082517" lon="10.52317"><ele>126.99999999999999</ele><time>2026-05-03T10:20:47.222Z</time></trkpt><trkpt lat="45.4081717" lon="10.5232283"><ele>126.99999999999999</ele><time>2026-05-03T10:20:49.216Z</time></trkpt><trkpt lat="45.4080883" lon="10.5232833"><ele>127.0</ele><time>2026-05-03T10:20:51.214Z</time></trkpt><trkpt lat="45.4080117" lon="10.5233467"><ele>127.0</ele><time>2026-05-03T10:20:53.218Z</time></trkpt><trkpt lat="45.40793" lon="10.52342"><ele>127.39999999999999</ele><time>2026-05-03T10:20:55.214Z</time></trkpt><trkpt lat="45.40785" lon="10.5234783"><ele>127.79999999999998</ele><time>2026-05-03T10:20:57.213Z</time></trkpt><trkpt lat="45.40777" lon="10.52354"><ele>128.2</ele><time>2026-05-03T10:20:59.225Z</time></trkpt><trkpt lat="45.407685" lon="10.523605"><ele>128.6</ele><time>2026-05-03T10:21:01.216Z</time></trkpt><trkpt lat="45.407605" lon="10.5236633"><ele>129.0</ele><time>2026-05-03T10:21:03.212Z</time></trkpt><trkpt lat="45.407525" lon="10.5237383"><ele>129.2</ele><time>2026-05-03T10:21:05.222Z</time></trkpt><trkpt lat="45.4074383" lon="10.5238233"><ele>129.4</ele><time>2026-05-03T10:21:07.218Z</time></trkpt><trkpt lat="45.4073483" lon="10.5238933"><ele>129.6</ele><time>2026-05-03T10:21:09.219Z</time></trkpt><trkpt lat="45.4072633" lon="10.523965"><ele>129.8</ele><time>2026-05-03T10:21:11.219Z</time></trkpt><trkpt lat="45.407175" lon="10.5240317"><ele>130.0</ele><time>2026-05-03T10:21:13.222Z</time></trkpt><trkpt lat="45.40709" lon="10.5240883"><ele>130.8</ele><time>2026-05-03T10:21:15.226Z</time></trkpt><trkpt lat="45.4070083" lon="10.5241333"><ele>131.6</ele><time>2026-05-03T10:21:17.22Z</time></trkpt><trkpt lat="45.406925" lon="10.5241867"><ele>132.4</ele><time>2026-05-03T10:21:19.224Z</time></trkpt><trkpt lat="45.4068383" lon="10.524255"><ele>133.2</ele><time>2026-05-03T10:21:21.223Z</time></trkpt><trkpt lat="45.4067417" lon="10.5243217"><ele>134.0</ele><time>2026-05-03T10:21:23.222Z</time></trkpt><trkpt lat="45.406645" lon="10.52439"><ele>134.0</ele><time>2026-05-03T10:21:25.222Z</time></trkpt><trkpt lat="45.40655" lon="10.52446"><ele>134.0</ele><time>2026-05-03T10:21:27.222Z</time></trkpt><trkpt lat="45.4064583" lon="10.5245333"><ele>134.0</ele><time>2026-05-03T10:21:29.222Z</time></trkpt><trkpt lat="45.4063683" lon="10.5246217"><ele>134.0</ele><time>2026-05-03T10:21:31.222Z</time></trkpt><trkpt lat="45.4062817" lon="10.52471"><ele>134.0</ele><time>2026-05-03T10:21:33.22Z</time></trkpt><trkpt lat="45.4062033" lon="10.524845"><ele>133.33333333333331</ele><time>2026-05-03T10:21:35.222Z</time></trkpt><trkpt lat="45.40616" lon="10.5249233"><ele>132.66666666666666</ele><time>2026-05-03T10:21:36.217Z</time></trkpt><trkpt lat="45.4061133" lon="10.5250117"><ele>132.0</ele><time>2026-05-03T10:21:37.216Z</time></trkpt><trkpt lat="45.40606" lon="10.5250933"><ele>131.33333333333334</ele><time>2026-05-03T10:21:38.222Z</time></trkpt><trkpt lat="45.406" lon="10.5251717"><ele>130.66666666666669</ele><time>2026-05-03T10:21:39.224Z</time></trkpt><trkpt lat="45.4059383" lon="10.5252467"><ele>130.0</ele><time>2026-05-03T10:21:40.22Z</time></trkpt><trkpt lat="45.405875" lon="10.5253167"><ele>130.0</ele><time>2026-05-03T10:21:41.221Z</time></trkpt><trkpt lat="45.4058117" lon="10.525385"><ele>130.0</ele><time>2026-05-03T10:21:42.219Z</time></trkpt><trkpt lat="45.405755" lon="10.52545"><ele>130.0</ele><time>2026-05-03T10:21:43.224Z</time></trkpt><trkpt lat="45.4057" lon="10.525515"><ele>130.0</ele><time>2026-05-03T10:21:44.222Z</time></trkpt><trkpt lat="45.4056517" lon="10.5255767"><ele>130.0</ele><time>2026-05-03T10:21:45.22Z</time></trkpt><trkpt lat="45.405575" lon="10.5256983"><ele>130.0</ele><time>2026-05-03T10:21:47.222Z</time></trkpt><trkpt lat="45.4055" lon="10.5258033"><ele>130.4</ele><time>2026-05-03T10:21:49.218Z</time></trkpt><trkpt lat="45.4054217" lon="10.5259117"><ele>130.8</ele><time>2026-05-03T10:21:51.222Z</time></trkpt><trkpt lat="45.40535" lon="10.5260267"><ele>131.2</ele><time>2026-05-03T10:21:53.221Z</time></trkpt><trkpt lat="45.4052667" lon="10.5261533"><ele>131.6</ele><time>2026-05-03T10:21:55.221Z</time></trkpt><trkpt lat="45.4052183" lon="10.526215"><ele>132.0</ele><time>2026-05-03T10:21:56.223Z</time></trkpt><trkpt lat="45.4051633" lon="10.52628"><ele>132.0</ele><time>2026-05-03T10:21:57.217Z</time></trkpt><trkpt lat="45.4051117" lon="10.5263433"><ele>132.0</ele><time>2026-05-03T10:21:58.22Z</time></trkpt><trkpt lat="45.40506" lon="10.5264083"><ele>132.0</ele><time>2026-05-03T10:21:59.224Z</time></trkpt><trkpt lat="45.4050083" lon="10.52647"><ele>132.0</ele><time>2026-05-03T10:22:00.221Z</time></trkpt><trkpt lat="45.404955" lon="10.52653"><ele>132.0</ele><time>2026-05-03T10:22:01.216Z</time></trkpt><trkpt lat="45.4049017" lon="10.52659"><ele>132.0</ele><time>2026-05-03T10:22:02.225Z</time></trkpt><trkpt lat="45.4048533" lon="10.5266517"><ele>132.0</ele><time>2026-05-03T10:22:03.222Z</time></trkpt><trkpt lat="45.4047667" lon="10.52677"><ele>132.0</ele><time>2026-05-03T10:22:05.225Z</time></trkpt><trkpt lat="45.4046833" lon="10.52689"><ele>132.0</ele><time>2026-05-03T10:22:07.223Z</time></trkpt><trkpt lat="45.404595" lon="10.5270067"><ele>132.0</ele><time>2026-05-03T10:22:09.222Z</time></trkpt><trkpt lat="45.40455" lon="10.5270717"><ele>132.0</ele><time>2026-05-03T10:22:10.222Z</time></trkpt><trkpt lat="45.4045067" lon="10.5271417"><ele>132.0</ele><time>2026-05-03T10:22:11.219Z</time></trkpt><trkpt lat="45.404465" lon="10.52721"><ele>132.0</ele><time>2026-05-03T10:22:12.22Z</time></trkpt><trkpt lat="45.40442" lon="10.5272733"><ele>132.2</ele><time>2026-05-03T10:22:13.226Z</time></trkpt><trkpt lat="45.4043383" lon="10.5273933"><ele>132.39999999999998</ele><time>2026-05-03T10:22:15.223Z</time></trkpt><trkpt lat="45.40426" lon="10.527505"><ele>132.60000000000002</ele><time>2026-05-03T10:22:17.225Z</time></trkpt><trkpt lat="45.4041817" lon="10.5276133"><ele>132.8</ele><time>2026-05-03T10:22:19.222Z</time></trkpt><trkpt lat="45.4041033" lon="10.527705"><ele>133.0</ele><time>2026-05-03T10:22:21.218Z</time></trkpt><trkpt lat="45.4040133" lon="10.5277517"><ele>133.0</ele><time>2026-05-03T10:22:23.218Z</time></trkpt><trkpt lat="45.4039117" lon="10.5277517"><ele>133.0</ele><time>2026-05-03T10:22:25.224Z</time></trkpt><trkpt lat="45.4037917" lon="10.5277383"><ele>133.0</ele><time>2026-05-03T10:22:27.222Z</time></trkpt><trkpt lat="45.4036833" lon="10.5277417"><ele>133.0</ele><time>2026-05-03T10:22:29.219Z</time></trkpt><trkpt lat="45.4035767" lon="10.5277583"><ele>133.0</ele><time>2026-05-03T10:22:31.219Z</time></trkpt><trkpt lat="45.40347" lon="10.5277833"><ele>133.4</ele><time>2026-05-03T10:22:33.225Z</time></trkpt><trkpt lat="45.403355" lon="10.5278167"><ele>133.8</ele><time>2026-05-03T10:22:35.224Z</time></trkpt><trkpt lat="45.4032433" lon="10.5278467"><ele>134.2</ele><time>2026-05-03T10:22:37.225Z</time></trkpt><trkpt lat="45.4031533" lon="10.5278717"><ele>134.6</ele><time>2026-05-03T10:22:39.214Z</time></trkpt><trkpt lat="45.403045" lon="10.527895"><ele>135.0</ele><time>2026-05-03T10:22:41.226Z</time></trkpt><trkpt lat="45.402945" lon="10.5279167"><ele>135.6</ele><time>2026-05-03T10:22:43.222Z</time></trkpt><trkpt lat="45.4028533" lon="10.5279433"><ele>136.2</ele><time>2026-05-03T10:22:45.223Z</time></trkpt><trkpt lat="45.402755" lon="10.5279983"><ele>136.8</ele><time>2026-05-03T10:22:47.221Z</time></trkpt><trkpt lat="45.402655" lon="10.5280867"><ele>137.4</ele><time>2026-05-03T10:22:49.219Z</time></trkpt><trkpt lat="45.40256" lon="10.5281667"><ele>138.0</ele><time>2026-05-03T10:22:51.224Z</time></trkpt><trkpt lat="45.402505" lon="10.5282117"><ele>138.0</ele><time>2026-05-03T10:22:52.221Z</time></trkpt><trkpt lat="45.4024467" lon="10.5282617"><ele>138.0</ele><time>2026-05-03T10:22:53.217Z</time></trkpt><trkpt lat="45.4023467" lon="10.5283467"><ele>138.0</ele><time>2026-05-03T10:22:55.219Z</time></trkpt><trkpt lat="45.4022483" lon="10.5284333"><ele>138.0</ele><time>2026-05-03T10:22:57.221Z</time></trkpt><trkpt lat="45.402145" lon="10.5285183"><ele>138.0</ele><time>2026-05-03T10:22:59.222Z</time></trkpt><trkpt lat="45.40204" lon="10.5286083"><ele>138.0</ele><time>2026-05-03T10:23:01.219Z</time></trkpt><trkpt lat="45.4019367" lon="10.52869"><ele>138.0</ele><time>2026-05-03T10:23:03.223Z</time></trkpt><trkpt lat="45.4018383" lon="10.5287667"><ele>138.0</ele><time>2026-05-03T10:23:05.241Z</time></trkpt><trkpt lat="45.4017383" lon="10.5288517"><ele>138.0</ele><time>2026-05-03T10:23:07.215Z</time></trkpt><trkpt lat="45.4016283" lon="10.5289433"><ele>137.8</ele><time>2026-05-03T10:23:09.214Z</time></trkpt><trkpt lat="45.4015733" lon="10.5289883"><ele>137.60000000000002</ele><time>2026-05-03T10:23:10.216Z</time></trkpt><trkpt lat="45.40147" lon="10.5290767"><ele>137.39999999999998</ele><time>2026-05-03T10:23:12.223Z</time></trkpt><trkpt lat="45.4013733" lon="10.5291567"><ele>137.2</ele><time>2026-05-03T10:23:14.224Z</time></trkpt><trkpt lat="45.4012733" lon="10.5292417"><ele>137.0</ele><time>2026-05-03T10:23:16.222Z</time></trkpt><trkpt lat="45.4011667" lon="10.529325"><ele>136.75</ele><time>2026-05-03T10:23:18.225Z</time></trkpt><trkpt lat="45.4010617" lon="10.529405"><ele>136.5</ele><time>2026-05-03T10:23:20.225Z</time></trkpt><trkpt lat="45.4009533" lon="10.5294883"><ele>136.25</ele><time>2026-05-03T10:23:22.216Z</time></trkpt><trkpt lat="45.400855" lon="10.5295783"><ele>136.0</ele><time>2026-05-03T10:23:24.219Z</time></trkpt><trkpt lat="45.4007667" lon="10.52966"><ele>135.8</ele><time>2026-05-03T10:23:26.222Z</time></trkpt><trkpt lat="45.4007233" lon="10.529775"><ele>135.6</ele><time>2026-05-03T10:23:28.221Z</time></trkpt><trkpt lat="45.4007517" lon="10.5298983"><ele>135.4</ele><time>2026-05-03T10:23:30.217Z</time></trkpt><trkpt lat="45.4007933" lon="10.530015"><ele>135.2</ele><time>2026-05-03T10:23:32.225Z</time></trkpt><trkpt lat="45.400835" lon="10.5301467"><ele>135.0</ele><time>2026-05-03T10:23:34.213Z</time></trkpt><trkpt lat="45.4008717" lon="10.530285"><ele>134.8</ele><time>2026-05-03T10:23:36.219Z</time></trkpt><trkpt lat="45.4009083" lon="10.5304267"><ele>134.6</ele><time>2026-05-03T10:23:38.23Z</time></trkpt><trkpt lat="45.4009433" lon="10.5305667"><ele>134.4</ele><time>2026-05-03T10:23:40.222Z</time></trkpt><trkpt lat="45.4009833" lon="10.5307083"><ele>134.2</ele><time>2026-05-03T10:23:42.222Z</time></trkpt><trkpt lat="45.4010167" lon="10.5308517"><ele>134.0</ele><time>2026-05-03T10:23:44.222Z</time></trkpt><trkpt lat="45.4010517" lon="10.5309867"><ele>134.0</ele><time>2026-05-03T10:23:46.222Z</time></trkpt><trkpt lat="45.4010767" lon="10.5311333"><ele>134.0</ele><time>2026-05-03T10:23:48.222Z</time></trkpt><trkpt lat="45.4011017" lon="10.531285"><ele>134.0</ele><time>2026-05-03T10:23:50.226Z</time></trkpt><trkpt lat="45.401105" lon="10.5314517"><ele>134.0</ele><time>2026-05-03T10:23:52.224Z</time></trkpt><trkpt lat="45.4011017" lon="10.5315417"><ele>134.0</ele><time>2026-05-03T10:23:53.223Z</time></trkpt><trkpt lat="45.4011017" lon="10.5316333"><ele>133.57142857142858</ele><time>2026-05-03T10:23:54.223Z</time></trkpt><trkpt lat="45.4011117" lon="10.5317283"><ele>133.14285714285714</ele><time>2026-05-03T10:23:55.219Z</time></trkpt><trkpt lat="45.401125" lon="10.531825"><ele>132.71428571428572</ele><time>2026-05-03T10:23:56.223Z</time></trkpt><trkpt lat="45.40115" lon="10.53191"><ele>132.28571428571428</ele><time>2026-05-03T10:23:57.217Z</time></trkpt><trkpt lat="45.4011883" lon="10.53199"><ele>131.85714285714286</ele><time>2026-05-03T10:23:58.221Z</time></trkpt><trkpt lat="45.401235" lon="10.5320617"><ele>131.42857142857144</ele><time>2026-05-03T10:23:59.218Z</time></trkpt><trkpt lat="45.4012867" lon="10.5321317"><ele>131.0</ele><time>2026-05-03T10:24:00.221Z</time></trkpt><trkpt lat="45.40134" lon="10.532195"><ele>130.33333333333331</ele><time>2026-05-03T10:24:01.222Z</time></trkpt><trkpt lat="45.4013967" lon="10.532255"><ele>129.66666666666666</ele><time>2026-05-03T10:24:02.225Z</time></trkpt><trkpt lat="45.4014633" lon="10.5323117"><ele>129.0</ele><time>2026-05-03T10:24:03.222Z</time></trkpt><trkpt lat="45.401535" lon="10.5323633"><ele>128.33333333333334</ele><time>2026-05-03T10:24:04.219Z</time></trkpt><trkpt lat="45.401605" lon="10.5324133"><ele>127.66666666666667</ele><time>2026-05-03T10:24:05.218Z</time></trkpt><trkpt lat="45.4016767" lon="10.532465"><ele>127.0</ele><time>2026-05-03T10:24:06.217Z</time></trkpt><trkpt lat="45.40175" lon="10.53252"><ele>127.00000000000001</ele><time>2026-05-03T10:24:07.219Z</time></trkpt><trkpt lat="45.401825" lon="10.53257"><ele>127.0</ele><time>2026-05-03T10:24:08.224Z</time></trkpt><trkpt lat="45.4019067" lon="10.53261"><ele>127.0</ele><time>2026-05-03T10:24:09.223Z</time></trkpt><trkpt lat="45.4019917" lon="10.53264"><ele>127.0</ele><time>2026-05-03T10:24:10.222Z</time></trkpt><trkpt lat="45.402075" lon="10.532665"><ele>127.00000000000001</ele><time>2026-05-03T10:24:11.221Z</time></trkpt><trkpt lat="45.4021583" lon="10.5326833"><ele>127.0</ele><time>2026-05-03T10:24:12.222Z</time></trkpt><trkpt lat="45.4022383" lon="10.5327"><ele>126.83333333333334</ele><time>2026-05-03T10:24:13.217Z</time></trkpt><trkpt lat="45.402315" lon="10.5327167"><ele>126.66666666666667</ele><time>2026-05-03T10:24:14.221Z</time></trkpt><trkpt lat="45.40239" lon="10.532735"><ele>126.5</ele><time>2026-05-03T10:24:15.223Z</time></trkpt><trkpt lat="45.4024567" lon="10.5327667"><ele>126.33333333333334</ele><time>2026-05-03T10:24:16.223Z</time></trkpt><trkpt lat="45.402515" lon="10.53282"><ele>126.16666666666667</ele><time>2026-05-03T10:24:17.222Z</time></trkpt><trkpt lat="45.40256" lon="10.532885"><ele>126.0</ele><time>2026-05-03T10:24:18.217Z</time></trkpt><trkpt lat="45.4026183" lon="10.5330017"><ele>125.71428571428572</ele><time>2026-05-03T10:24:20.224Z</time></trkpt><trkpt lat="45.4026633" lon="10.5330883"><ele>125.42857142857143</ele><time>2026-05-03T10:24:22.22Z</time></trkpt><trkpt lat="45.4027217" lon="10.5331883"><ele>125.14285714285714</ele><time>2026-05-03T10:24:25.221Z</time></trkpt><trkpt lat="45.4027617" lon="10.5332583"><ele>124.85714285714286</ele><time>2026-05-03T10:24:27.223Z</time></trkpt><trkpt lat="45.402805" lon="10.533335"><ele>124.57142857142858</ele><time>2026-05-03T10:24:29.218Z</time></trkpt><trkpt lat="45.40285" lon="10.53341"><ele>124.28571428571429</ele><time>2026-05-03T10:24:31.219Z</time></trkpt><trkpt lat="45.4029067" lon="10.5334867"><ele>124.0</ele><time>2026-05-03T10:24:33.216Z</time></trkpt><trkpt lat="45.4029683" lon="10.5335567"><ele>123.80000000000001</ele><time>2026-05-03T10:24:35.217Z</time></trkpt><trkpt lat="45.4030333" lon="10.533625"><ele>123.60000000000001</ele><time>2026-05-03T10:24:37.218Z</time></trkpt><trkpt lat="45.4030983" lon="10.5337033"><ele>123.4</ele><time>2026-05-03T10:24:39.216Z</time></trkpt><trkpt lat="45.4031667" lon="10.5337867"><ele>123.2</ele><time>2026-05-03T10:24:41.214Z</time></trkpt><trkpt lat="45.4032417" lon="10.5338783"><ele>123.0</ele><time>2026-05-03T10:24:43.218Z</time></trkpt><trkpt lat="45.4033283" lon="10.533985"><ele>122.66666666666667</ele><time>2026-05-03T10:24:45.218Z</time></trkpt><trkpt lat="45.4034183" lon="10.5340583"><ele>122.33333333333334</ele><time>2026-05-03T10:24:47.223Z</time></trkpt><trkpt lat="45.4035217" lon="10.534085"><ele>122.0</ele><time>2026-05-03T10:24:49.218Z</time></trkpt><trkpt lat="45.4035833" lon="10.5341083"><ele>121.66666666666667</ele><time>2026-05-03T10:24:50.224Z</time></trkpt><trkpt lat="45.4036467" lon="10.5341383"><ele>121.33333333333334</ele><time>2026-05-03T10:24:51.222Z</time></trkpt><trkpt lat="45.403715" lon="10.5341683"><ele>121.0</ele><time>2026-05-03T10:24:52.219Z</time></trkpt><trkpt lat="45.403785" lon="10.5342017"><ele>120.50000000000001</ele><time>2026-05-03T10:24:53.225Z</time></trkpt><trkpt lat="45.40386" lon="10.534235"><ele>120.0</ele><time>2026-05-03T10:24:54.224Z</time></trkpt><trkpt lat="45.40394" lon="10.534265"><ele>119.5</ele><time>2026-05-03T10:24:55.223Z</time></trkpt><trkpt lat="45.4040183" lon="10.5343"><ele>119.0</ele><time>2026-05-03T10:24:56.225Z</time></trkpt><trkpt lat="45.4040967" lon="10.5343417"><ele>118.50000000000001</ele><time>2026-05-03T10:24:57.223Z</time></trkpt><trkpt lat="45.4041767" lon="10.5343783"><ele>118.0</ele><time>2026-05-03T10:24:58.22Z</time></trkpt><trkpt lat="45.4042583" lon="10.5344133"><ele>118.00000000000001</ele><time>2026-05-03T10:24:59.217Z</time></trkpt><trkpt lat="45.4043417" lon="10.5344467"><ele>118.0</ele><time>2026-05-03T10:25:00.223Z</time></trkpt><trkpt lat="45.4044233" lon="10.5344783"><ele>118.0</ele><time>2026-05-03T10:25:01.217Z</time></trkpt><trkpt lat="45.4045033" lon="10.5345083"><ele>118.0</ele><time>2026-05-03T10:25:02.222Z</time></trkpt><trkpt lat="45.40458" lon="10.534545"><ele>118.00000000000001</ele><time>2026-05-03T10:25:03.221Z</time></trkpt><trkpt lat="45.404655" lon="10.5345833"><ele>118.0</ele><time>2026-05-03T10:25:04.219Z</time></trkpt><trkpt lat="45.4047267" lon="10.5346133"><ele>117.16666666666667</ele><time>2026-05-03T10:25:05.216Z</time></trkpt><trkpt lat="45.4048" lon="10.5346433"><ele>116.33333333333334</ele><time>2026-05-03T10:25:06.227Z</time></trkpt><trkpt lat="45.404875" lon="10.5346717"><ele>115.5</ele><time>2026-05-03T10:25:07.221Z</time></trkpt><trkpt lat="45.4049483" lon="10.5347083"><ele>114.66666666666666</ele><time>2026-05-03T10:25:08.226Z</time></trkpt><trkpt lat="45.4050217" lon="10.53474"><ele>113.83333333333333</ele><time>2026-05-03T10:25:09.216Z</time></trkpt><trkpt lat="45.4050933" lon="10.5347717"><ele>113.0</ele><time>2026-05-03T10:25:10.212Z</time></trkpt><trkpt lat="45.4051617" lon="10.5348033"><ele>113.0</ele><time>2026-05-03T10:25:11.216Z</time></trkpt><trkpt lat="45.40523" lon="10.5348333"><ele>113.0</ele><time>2026-05-03T10:25:12.217Z</time></trkpt><trkpt lat="45.4052967" lon="10.5348633"><ele>113.0</ele><time>2026-05-03T10:25:13.212Z</time></trkpt><trkpt lat="45.405365" lon="10.5348967"><ele>113.0</ele><time>2026-05-03T10:25:14.222Z</time></trkpt><trkpt lat="45.4054333" lon="10.534925"><ele>113.0</ele><time>2026-05-03T10:25:15.225Z</time></trkpt><trkpt lat="45.4054983" lon="10.5349517"><ele>113.0</ele><time>2026-05-03T10:25:16.216Z</time></trkpt><trkpt lat="45.405565" lon="10.5349717"><ele>113.0</ele><time>2026-05-03T10:25:17.218Z</time></trkpt><trkpt lat="45.4056283" lon="10.5349717"><ele>112.80000000000001</ele><time>2026-05-03T10:25:18.224Z</time></trkpt><trkpt lat="45.4056933" lon="10.5349667"><ele>112.60000000000001</ele><time>2026-05-03T10:25:19.218Z</time></trkpt><trkpt lat="45.4057983" lon="10.5350083"><ele>112.39999999999999</ele><time>2026-05-03T10:25:21.222Z</time></trkpt><trkpt lat="45.4058833" lon="10.5350867"><ele>112.19999999999999</ele><time>2026-05-03T10:25:23.217Z</time></trkpt><trkpt lat="45.4059667" lon="10.5351617"><ele>112.0</ele><time>2026-05-03T10:25:25.22Z</time></trkpt><trkpt lat="45.4060467" lon="10.535225"><ele>112.0</ele><time>2026-05-03T10:25:27.222Z</time></trkpt><trkpt lat="45.406135" lon="10.5352817"><ele>111.99999999999999</ele><time>2026-05-03T10:25:29.221Z</time></trkpt><trkpt lat="45.4062267" lon="10.5353083"><ele>111.99999999999999</ele><time>2026-05-03T10:25:31.221Z</time></trkpt><trkpt lat="45.4063117" lon="10.5352533"><ele>112.0</ele><time>2026-05-03T10:25:33.218Z</time></trkpt><trkpt lat="45.4063933" lon="10.535145"><ele>112.0</ele><time>2026-05-03T10:25:35.219Z</time></trkpt><trkpt lat="45.40647" lon="10.5350217"><ele>111.6</ele><time>2026-05-03T10:25:37.222Z</time></trkpt><trkpt lat="45.4065517" lon="10.5348967"><ele>111.19999999999999</ele><time>2026-05-03T10:25:39.219Z</time></trkpt><trkpt lat="45.40664" lon="10.5348133"><ele>110.8</ele><time>2026-05-03T10:25:41.218Z</time></trkpt><trkpt lat="45.4067283" lon="10.5348567"><ele>110.4</ele><time>2026-05-03T10:25:43.218Z</time></trkpt><trkpt lat="45.40676" lon="10.534945"><ele>110.0</ele><time>2026-05-03T10:25:44.222Z</time></trkpt><trkpt lat="45.4067817" lon="10.53504"><ele>109.99999999999999</ele><time>2026-05-03T10:25:45.222Z</time></trkpt><trkpt lat="45.4067983" lon="10.5351317"><ele>110.0</ele><time>2026-05-03T10:25:46.22Z</time></trkpt><trkpt lat="45.4068167" lon="10.53522"><ele>110.0</ele><time>2026-05-03T10:25:47.219Z</time></trkpt><trkpt lat="45.4068383" lon="10.5353083"><ele>110.0</ele><time>2026-05-03T10:25:48.223Z</time></trkpt><trkpt lat="45.4068617" lon="10.535395"><ele>109.99999999999999</ele><time>2026-05-03T10:25:49.218Z</time></trkpt><trkpt lat="45.4069017" lon="10.535555"><ele>110.0</ele><time>2026-05-03T10:25:51.222Z</time></trkpt><trkpt lat="45.4069417" lon="10.5357117"><ele>110.0</ele><time>2026-05-03T10:25:53.224Z</time></trkpt><trkpt lat="45.4069833" lon="10.5358717"><ele>110.0</ele><time>2026-05-03T10:25:55.216Z</time></trkpt><trkpt lat="45.4070333" lon="10.53603"><ele>110.0</ele><time>2026-05-03T10:25:57.222Z</time></trkpt><trkpt lat="45.4070767" lon="10.536185"><ele>110.0</ele><time>2026-05-03T10:25:59.22Z</time></trkpt><trkpt lat="45.4071217" lon="10.5363433"><ele>110.25</ele><time>2026-05-03T10:26:01.22Z</time></trkpt><trkpt lat="45.4071767" lon="10.5364917"><ele>110.5</ele><time>2026-05-03T10:26:03.221Z</time></trkpt><trkpt lat="45.4072217" lon="10.536645"><ele>110.75</ele><time>2026-05-03T10:26:05.215Z</time></trkpt><trkpt lat="45.4072717" lon="10.5368"><ele>111.0</ele><time>2026-05-03T10:26:07.225Z</time></trkpt><trkpt lat="45.4073167" lon="10.5369617"><ele>111.75</ele><time>2026-05-03T10:26:09.224Z</time></trkpt><trkpt lat="45.4073617" lon="10.5371267"><ele>112.5</ele><time>2026-05-03T10:26:11.223Z</time></trkpt><trkpt lat="45.4074067" lon="10.5372817"><ele>113.25</ele><time>2026-05-03T10:26:13.221Z</time></trkpt><trkpt lat="45.4074433" lon="10.5374433"><ele>114.0</ele><time>2026-05-03T10:26:15.216Z</time></trkpt><trkpt lat="45.4074867" lon="10.53761"><ele>114.0</ele><time>2026-05-03T10:26:17.216Z</time></trkpt><trkpt lat="45.4075417" lon="10.5377567"><ele>114.0</ele><time>2026-05-03T10:26:19.22Z</time></trkpt><trkpt lat="45.4076317" lon="10.53782"><ele>114.0</ele><time>2026-05-03T10:26:21.223Z</time></trkpt><trkpt lat="45.4077383" lon="10.537775"><ele>114.0</ele><time>2026-05-03T10:26:23.223Z</time></trkpt><trkpt lat="45.4078467" lon="10.537695"><ele>114.0</ele><time>2026-05-03T10:26:25.222Z</time></trkpt><trkpt lat="45.4079567" lon="10.5376283"><ele>114.0</ele><time>2026-05-03T10:26:27.224Z</time></trkpt><trkpt lat="45.408065" lon="10.5375567"><ele>114.0</ele><time>2026-05-03T10:26:29.224Z</time></trkpt><trkpt lat="45.4081733" lon="10.5374833"><ele>114.0</ele><time>2026-05-03T10:26:31.22Z</time></trkpt><trkpt lat="45.4082817" lon="10.537415"><ele>114.4</ele><time>2026-05-03T10:26:33.222Z</time></trkpt><trkpt lat="45.4083917" lon="10.5373467"><ele>114.80000000000001</ele><time>2026-05-03T10:26:35.218Z</time></trkpt><trkpt lat="45.4085" lon="10.5372817"><ele>115.19999999999999</ele><time>2026-05-03T10:26:37.219Z</time></trkpt><trkpt lat="45.4086017" lon="10.5372217"><ele>115.6</ele><time>2026-05-03T10:26:39.225Z</time></trkpt><trkpt lat="45.408695" lon="10.53719"><ele>116.0</ele><time>2026-05-03T10:26:41.22Z</time></trkpt><trkpt lat="45.4087617" lon="10.537245"><ele>116.0</ele><time>2026-05-03T10:26:43.222Z</time></trkpt><trkpt lat="45.40877" lon="10.5373667"><ele>116.0</ele><time>2026-05-03T10:26:45.212Z</time></trkpt><trkpt lat="45.4087517" lon="10.5375033"><ele>116.0</ele><time>2026-05-03T10:26:47.213Z</time></trkpt><trkpt lat="45.4087417" lon="10.537645"><ele>116.0</ele><time>2026-05-03T10:26:49.216Z</time></trkpt><trkpt lat="45.408745" lon="10.5377833"><ele>116.0</ele><time>2026-05-03T10:26:51.224Z</time></trkpt><trkpt lat="45.408755" lon="10.5379483"><ele>116.6</ele><time>2026-05-03T10:26:53.216Z</time></trkpt><trkpt lat="45.4087667" lon="10.53811"><ele>117.19999999999999</ele><time>2026-05-03T10:26:55.221Z</time></trkpt><trkpt lat="45.4087733" lon="10.5382783"><ele>117.80000000000001</ele><time>2026-05-03T10:26:57.225Z</time></trkpt><trkpt lat="45.4087783" lon="10.5383683"><ele>118.4</ele><time>2026-05-03T10:26:58.22Z</time></trkpt><trkpt lat="45.4087867" lon="10.5385417"><ele>119.0</ele><time>2026-05-03T10:27:00.227Z</time></trkpt><trkpt lat="45.4087833" lon="10.53871"><ele>119.33333333333333</ele><time>2026-05-03T10:27:02.211Z</time></trkpt><trkpt lat="45.4088067" lon="10.5388733"><ele>119.66666666666666</ele><time>2026-05-03T10:27:04.224Z</time></trkpt><trkpt lat="45.40885" lon="10.5389833"><ele>120.0</ele><time>2026-05-03T10:27:06.218Z</time></trkpt><trkpt lat="45.4088633" lon="10.5390717"><ele>120.33333333333334</ele><time>2026-05-03T10:27:08.221Z</time></trkpt><trkpt lat="45.4088317" lon="10.53916"><ele>120.66666666666667</ele><time>2026-05-03T10:27:11.22Z</time></trkpt><trkpt lat="45.4088333" lon="10.5392683"><ele>121.0</ele><time>2026-05-03T10:27:51.221Z</time></trkpt><trkpt lat="45.4088" lon="10.5393583"><ele>121.0</ele><time>2026-05-03T10:27:54.215Z</time></trkpt><trkpt lat="45.40875" lon="10.53948"><ele>121.0</ele><time>2026-05-03T10:27:56.218Z</time></trkpt><trkpt lat="45.4086983" lon="10.53958"><ele>121.0</ele><time>2026-05-03T10:27:58.208Z</time></trkpt><trkpt lat="45.4087167" lon="10.5394317"><ele>121.0</ele><time>2026-05-03T10:28:19.212Z</time></trkpt><trkpt lat="45.4087017" lon="10.5393417"><ele>121.0</ele><time>2026-05-03T10:28:20.211Z</time></trkpt><trkpt lat="45.4086567" lon="10.5395367"><ele>121.0</ele><time>2026-05-03T10:30:44.214Z</time></trkpt><trkpt lat="45.4087483" lon="10.539555"><ele>124.0</ele><time>2026-05-03T10:30:48.212Z</time></trkpt></trkseg></trk></gpx>